GFSSW_prec_precacc_018.txt.gz
Total_Precipitation_Accumulation
0.00 0.00 0.00 0.00 0.00 0.00 0.00 0.00 0.00 0.01 0.05 0.10 0.13 0.10 0.15 0.16 0.09 0.02 0.00 0.00 0.00 0.00 0.00 0.00 0.00 0.00 0.00 0.00 0.00 0.00 0.00 0.00 0.00 0.00 0.00 0.00 0.00 0.00 0.00 0.00 0.00 0.00 0.00 0.00 0.00
0.00 0.00 0.00 0.00 0.00 0.00 0.00 0.00 0.00 0.00 0.00 0.01 0.03 0.06 0.10 0.08 0.05 0.06 0.00 0.00 0.00 0.00 0.00 0.00 0.00 0.01 0.00 0.00 0.00 0.00 0.00 0.00 0.00 0.00 0.00 0.00 0.00 0.00 0.00 0.00 0.00 0.00 0.00 0.00 0.00
0.00 0.00 0.00 0.00 0.00 0.00 0.00 0.01 0.01 0.00 0.00 0.01 0.03 0.04 0.10 0.05 0.06 0.02 0.00 0.00 0.00 0.01 0.00 0.00 0.01 0.05 0.04 0.00 0.00 0.00 0.00 0.00 0.00 0.00 0.00 0.00 0.00 0.00 0.00 0.00 0.00 0.00 0.00 0.00 0.00
0.00 0.00 0.00 0.00 0.00 0.00 0.00 0.00 0.01 0.02 0.01 0.00 0.02 0.06 0.10 0.06 0.02 0.01 0.00 0.00 0.00 0.03 0.01 0.01 0.02 0.04 0.04 0.01 0.00 0.00 0.00 0.00 0.00 0.00 0.00 0.00 0.00 0.00 0.00 0.00 0.00 0.00 0.00 0.00 0.00
0.00 0.00 0.00 0.00 0.00 0.00 0.00 0.00 0.00 0.00 0.01 0.01 0.04 0.09 0.08 0.06 0.02 0.00 0.00 0.00 0.00 0.01 0.01 0.03 0.04 0.02 0.02 0.00 0.01 0.00 0.00 0.00 0.00 0.00 0.00 0.00 0.00 0.00 0.00 0.00 0.00 0.00 0.00 0.00 0.00
0.00 0.00 0.00 0.00 0.00 0.00 0.00 0.00 0.00 0.00 0.03 0.07 0.10 0.11 0.03 0.03 0.00 0.00 0.00 0.00 0.00 0.00 0.01 0.03 0.04 0.01 0.01 0.00 0.02 0.00 0.00 0.00 0.00 0.00 0.00 0.00 0.00 0.00 0.00 0.00 0.00 0.00 0.00 0.00 0.00
0.02 0.02 0.01 0.01 0.00 0.00 0.00 0.00 0.00 0.00 0.04 0.11 0.19 0.11 0.04 0.00 0.00 0.00 0.00 0.00 0.00 0.00 0.00 0.01 0.03 0.12 0.07 0.05 0.00 0.01 0.01 0.00 0.00 0.00 0.00 0.00 0.00 0.00 0.00 0.00 0.00 0.00 0.00 0.00 0.00
0.02 0.04 0.03 0.01 0.02 0.01 0.01 0.02 0.02 0.02 0.06 0.12 0.13 0.13 0.05 0.00 0.00 0.00 0.00 0.00 0.00 0.00 0.00 0.01 0.13 0.11 0.09 0.07 0.04 0.04 0.06 0.02 0.00 0.00 0.00 0.00 0.00 0.00 0.00 0.00 0.00 0.00 0.00 0.00 0.00
0.02 0.03 0.03 0.02 0.03 0.04 0.05 0.06 0.06 0.12 0.17 0.10 0.05 0.10 0.03 0.00 0.00 0.00 0.00 0.00 0.00 0.00 0.00 0.03 0.17 0.19 0.11 0.14 0.15 0.11 0.04 0.01 0.00 0.00 0.00 0.00 0.00 0.00 0.00 0.00 0.00 0.00 0.00 0.00 0.00
0.03 0.03 0.03 0.03 0.03 0.05 0.12 0.17 0.18 0.19 0.14 0.07 0.04 0.06 0.00 0.00 0.00 0.00 0.00 0.00 0.04 0.08 0.06 0.08 0.20 0.23 0.16 0.19 0.14 0.04 0.02 0.01 0.00 0.00 0.00 0.00 0.00 0.00 0.00 0.00 0.00 0.00 0.00 0.00 0.00
0.06 0.08 0.06 0.04 0.06 0.08 0.22 0.56 0.25 0.14 0.10 0.01 0.01 0.00 0.00 0.00 0.00 0.00 0.00 0.00 0.03 0.14 0.09 0.10 0.21 0.19 0.10 0.04 0.03 0.02 0.05 0.02 0.00 0.00 0.01 0.00 0.00 0.00 0.00 0.00 0.00 0.00 0.00 0.00 0.00
0.05 0.05 0.08 0.09 0.11 0.19 0.38 0.34 0.08 0.05 0.13 0.04 0.01 0.00 0.00 0.02 0.03 0.01 0.00 0.01 0.05 0.13 0.10 0.23 0.19 0.04 0.09 0.06 0.05 0.06 0.06 0.03 0.01 0.02 0.04 0.00 0.00 0.00 0.00 0.00 0.00 0.00 0.00 0.00 0.00
0.07 0.07 0.08 0.10 0.15 0.25 0.32 0.20 0.14 0.15 0.49 0.24 0.04 0.03 0.01 0.02 0.03 0.07 0.00 0.03 0.05 0.12 0.18 0.22 0.18 0.05 0.14 0.13 0.09 0.07 0.07 0.04 0.03 0.05 0.04 0.02 0.00 0.00 0.00 0.00 0.00 0.00 0.00 0.00 0.00
0.11 0.11 0.08 0.14 0.22 0.21 0.36 0.35 0.36 0.49 1.15 0.24 0.04 0.07 0.08 0.17 0.11 0.02 0.00 0.05 0.09 0.12 0.16 0.21 0.19 0.18 0.17 0.25 0.09 0.06 0.03 0.04 0.07 0.15 0.05 0.07 0.03 0.00 0.00 0.00 0.00 0.00 0.00 0.00 0.00
0.14 0.11 0.06 0.16 0.20 0.23 0.23 0.44 0.52 0.86 0.89 0.04 0.02 0.02 0.02 0.14 0.12 0.03 0.01 0.15 0.17 0.14 0.37 0.42 0.24 0.31 0.19 0.28 0.09 0.09 0.02 0.04 0.07 0.21 0.31 0.07 0.06 0.01 0.00 0.00 0.00 0.00 0.00 0.00 0.00
0.18 0.10 0.06 0.13 0.18 0.27 0.35 0.50 0.62 0.81 0.37 0.06 0.07 0.05 0.07 0.07 0.15 0.17 0.05 0.13 0.31 0.44 0.40 0.26 0.18 0.30 0.19 0.17 0.16 0.09 0.12 0.12 0.18 0.27 0.43 0.34 0.09 0.02 0.00 0.00 0.00 0.00 0.00 0.00 0.00
0.33 0.24 0.12 0.05 0.19 0.28 0.47 0.52 0.67 0.39 0.16 0.27 0.17 0.18 0.10 0.05 0.13 0.18 0.15 0.20 0.83 0.70 0.68 0.78 0.55 0.48 0.23 0.35 0.50 0.36 0.42 0.62 0.56 0.59 0.31 0.07 0.24 0.11 0.00 0.00 0.00 0.00 0.00 0.00 0.00
0.38 0.38 0.27 0.06 0.21 0.30 0.52 0.52 0.40 0.13 0.21 0.24 0.16 0.21 0.29 0.10 0.17 0.13 0.29 0.15 0.46 0.31 0.43 0.68 0.62 0.49 0.29 0.46 0.77 0.58 0.46 0.58 0.32 0.29 0.13 0.05 0.07 0.03 0.00 0.00 0.00 0.00 0.00 0.00 0.00
0.54 0.57 0.47 0.15 0.31 0.41 0.67 0.59 0.20 0.17 0.23 0.21 0.23 0.24 0.27 0.12 0.17 0.15 0.17 0.13 0.17 0.16 0.38 0.42 0.51 0.31 0.18 0.22 0.47 0.56 0.52 0.37 0.32 0.08 0.16 0.09 0.02 0.00 0.00 0.00 0.00 0.00 0.00 0.00 0.00
0.84 0.69 0.39 0.14 0.41 0.59 0.86 0.53 0.31 0.39 0.32 0.17 0.12 0.05 0.04 0.08 0.19 0.11 0.08 0.05 0.09 0.03 0.19 0.33 0.56 0.53 0.49 0.39 0.55 0.49 0.31 0.40 0.63 0.26 0.11 0.10 0.06 0.00 0.00 0.00 0.00 0.00 0.00 0.00 0.00
0.95 0.73 0.31 0.32 0.78 0.93 0.69 0.46 0.30 0.26 0.22 0.18 0.06 0.05 0.02 0.02 0.19 0.05 0.04 0.03 0.05 0.02 0.13 0.44 0.59 0.62 0.86 0.74 0.53 0.53 0.49 0.36 0.43 0.22 0.10 0.04 0.08 0.01 0.00 0.00 0.01 0.00 0.00 0.00 0.00
0.81 0.60 0.29 0.62 0.89 0.61 0.40 0.60 0.37 0.18 0.17 0.17 0.07 0.02 0.01 0.01 0.12 0.05 0.03 0.02 0.01 0.03 0.16 0.38 0.51 0.66 0.53 0.20 0.15 0.22 0.24 0.11 0.44 0.30 0.11 0.04 0.00 0.01 0.00 0.00 0.01 0.01 0.00 0.00 0.00
0.61 0.49 0.80 0.41 0.52 0.33 0.36 0.62 0.39 0.15 0.17 0.20 0.05 0.01 0.00 0.00 0.02 0.01 0.02 0.00 0.00 0.01 0.15 0.28 0.59 0.60 0.56 0.32 0.31 0.35 0.26 0.12 0.25 0.55 0.22 0.13 0.01 0.00 0.00 0.00 0.00 0.00 0.00 0.00 0.00
0.48 0.37 0.89 0.88 0.19 0.27 0.53 0.66 0.53 0.20 0.16 0.21 0.06 0.01 0.00 0.00 0.00 0.00 0.04 0.00 0.00 0.01 0.17 0.55 0.42 0.57 0.48 0.24 0.15 0.13 0.16 0.20 0.30 0.54 0.23 0.09 0.02 0.00 0.00 0.00 0.00 0.00 0.00 0.00 0.00
0.32 0.13 0.14 0.23 0.08 0.05 0.51 0.73 0.78 0.64 0.42 0.24 0.08 0.01 0.00 0.00 0.00 0.00 0.01 0.00 0.00 0.01 0.17 0.47 0.65 0.88 0.39 0.09 0.10 0.03 0.10 0.13 0.29 0.34 0.23 0.06 0.02 0.00 0.00 0.00 0.00 0.00 0.00 0.00 0.00
0.18 0.05 0.05 0.02 0.01 0.01 0.31 0.76 0.86 0.76 0.58 0.29 0.10 0.01 0.00 0.00 0.00 0.00 0.00 0.00 0.00 0.00 0.02 0.18 0.48 0.56 0.21 0.02 0.04 0.03 0.07 0.09 0.13 0.27 0.33 0.11 0.04 0.00 0.00 0.00 0.00 0.00 0.00 0.00 0.00
0.07 0.02 0.03 0.05 0.04 0.02 0.07 0.39 0.62 0.63 0.48 0.27 0.14 0.08 0.01 0.00 0.00 0.00 0.00 0.00 0.00 0.00 0.02 0.07 0.17 0.28 0.15 0.10 0.08 0.13 0.11 0.09 0.11 0.15 0.23 0.14 0.03 0.00 0.00 0.00 0.00 0.00 0.00 0.00 0.00

GFSSW_prec_precacc_021.txt.gz
Total_Precipitation_Accumulation
0.00 0.00 0.00 0.00 0.00 0.00 0.00 0.00 0.00 0.01 0.05 0.10 0.13 0.11 0.18 0.20 0.10 0.03 0.00 0.00 0.00 0.00 0.00 0.00 0.00 0.00 0.00 0.00 0.00 0.00 0.00 0.00 0.00 0.00 0.00 0.00 0.00 0.00 0.00 0.00 0.00 0.00 0.00 0.00 0.00
0.00 0.00 0.00 0.00 0.00 0.00 0.00 0.00 0.00 0.00 0.00 0.01 0.03 0.06 0.10 0.09 0.05 0.07 0.00 0.00 0.00 0.00 0.00 0.00 0.00 0.01 0.00 0.00 0.00 0.00 0.00 0.00 0.00 0.00 0.00 0.00 0.00 0.00 0.00 0.00 0.00 0.00 0.00 0.00 0.00
0.00 0.00 0.00 0.00 0.00 0.00 0.00 0.01 0.01 0.00 0.00 0.01 0.03 0.04 0.10 0.05 0.06 0.02 0.00 0.00 0.00 0.02 0.00 0.00 0.01 0.05 0.04 0.00 0.00 0.00 0.00 0.00 0.00 0.00 0.00 0.00 0.00 0.00 0.00 0.00 0.00 0.00 0.00 0.00 0.00
0.00 0.00 0.00 0.00 0.00 0.00 0.00 0.00 0.01 0.02 0.01 0.00 0.02 0.06 0.10 0.06 0.02 0.01 0.00 0.00 0.00 0.04 0.01 0.01 0.02 0.04 0.04 0.01 0.00 0.00 0.00 0.00 0.00 0.00 0.00 0.00 0.00 0.00 0.00 0.00 0.00 0.00 0.00 0.00 0.00
0.03 0.01 0.00 0.00 0.01 0.00 0.00 0.00 0.00 0.00 0.01 0.01 0.04 0.09 0.08 0.06 0.02 0.00 0.00 0.00 0.00 0.01 0.01 0.03 0.04 0.02 0.02 0.00 0.01 0.00 0.00 0.00 0.00 0.00 0.00 0.00 0.00 0.00 0.00 0.00 0.00 0.00 0.00 0.00 0.00
0.04 0.02 0.00 0.00 0.00 0.01 0.00 0.00 0.00 0.00 0.03 0.07 0.10 0.11 0.03 0.03 0.00 0.00 0.00 0.00 0.00 0.00 0.01 0.04 0.04 0.01 0.01 0.00 0.02 0.00 0.00 0.00 0.00 0.00 0.00 0.00 0.00 0.00 0.00 0.00 0.00 0.00 0.00 0.00 0.00
0.04 0.04 0.02 0.01 0.00 0.00 0.00 0.00 0.00 0.00 0.04 0.11 0.19 0.11 0.04 0.00 0.00 0.00 0.00 0.00 0.00 0.00 0.00 0.01 0.04 0.14 0.08 0.06 0.00 0.01 0.01 0.00 0.00 0.00 0.00 0.00 0.00 0.00 0.00 0.00 0.00 0.00 0.00 0.00 0.00
0.03 0.06 0.07 0.03 0.02 0.01 0.01 0.02 0.03 0.02 0.06 0.12 0.13 0.13 0.05 0.00 0.00 0.00 0.00 0.00 0.00 0.00 0.00 0.01 0.13 0.13 0.10 0.07 0.04 0.04 0.06 0.02 0.00 0.00 0.00 0.00 0.00 0.00 0.00 0.00 0.00 0.00 0.00 0.00 0.00
0.05 0.06 0.06 0.05 0.04 0.04 0.06 0.07 0.08 0.12 0.17 0.11 0.05 0.10 0.03 0.00 0.00 0.00 0.00 0.00 0.00 0.00 0.00 0.03 0.17 0.19 0.11 0.15 0.16 0.11 0.04 0.01 0.00 0.00 0.00 0.00 0.00 0.00 0.00 0.00 0.00 0.00 0.00 0.00 0.00
0.07 0.07 0.07 0.06 0.05 0.05 0.14 0.21 0.20 0.19 0.15 0.08 0.04 0.06 0.00 0.00 0.00 0.00 0.00 0.00 0.04 0.08 0.06 0.08 0.20 0.23 0.16 0.20 0.14 0.04 0.02 0.01 0.00 0.00 0.00 0.00 0.00 0.00 0.00 0.00 0.00 0.00 0.00 0.00 0.00
0.13 0.13 0.14 0.11 0.08 0.09 0.23 0.57 0.25 0.14 0.11 0.01 0.01 0.00 0.00 0.00 0.00 0.00 0.00 0.00 0.03 0.14 0.09 0.10 0.21 0.19 0.10 0.04 0.03 0.02 0.05 0.02 0.00 0.00 0.01 0.00 0.00 0.00 0.00 0.00 0.00 0.00 0.00 0.00 0.00
0.13 0.11 0.14 0.16 0.15 0.21 0.39 0.34 0.08 0.05 0.13 0.04 0.01 0.00 0.00 0.02 0.03 0.01 0.00 0.01 0.05 0.13 0.10 0.23 0.19 0.04 0.09 0.06 0.05 0.06 0.06 0.03 0.01 0.02 0.04 0.00 0.00 0.00 0.00 0.00 0.00 0.00 0.00 0.00 0.00
0.20 0.19 0.16 0.18 0.20 0.28 0.32 0.20 0.14 0.15 0.49 0.24 0.04 0.03 0.01 0.02 0.03 0.07 0.00 0.03 0.05 0.12 0.18 0.22 0.18 0.05 0.14 0.13 0.09 0.07 0.07 0.04 0.03 0.05 0.04 0.02 0.00 0.00 0.00 0.00 0.00 0.00 0.00 0.00 0.00
0.26 0.28 0.21 0.25 0.27 0.22 0.36 0.35 0.36 0.49 1.15 0.24 0.04 0.08 0.09 0.17 0.12 0.02 0.00 0.05 0.09 0.12 0.16 0.22 0.19 0.18 0.17 0.25 0.09 0.06 0.03 0.04 0.07 0.16 0.05 0.07 0.03 0.00 0.00 0.00 0.00 0.00 0.00 0.00 0.00
0.34 0.33 0.24 0.23 0.21 0.23 0.23 0.44 0.52 0.86 0.89 0.04 0.02 0.02 0.03 0.14 0.12 0.03 0.01 0.15 0.17 0.14 0.38 0.44 0.24 0.31 0.19 0.28 0.09 0.09 0.02 0.04 0.08 0.22 0.32 0.07 0.06 0.01 0.00 0.00 0.00 0.00 0.00 0.00 0.00
0.41 0.44 0.40 0.22 0.19 0.27 0.35 0.50 0.62 0.82 0.37 0.06 0.07 0.05 0.08 0.08 0.15 0.17 0.05 0.14 0.33 0.48 0.45 0.27 0.18 0.30 0.19 0.17 0.16 0.10 0.13 0.13 0.20 0.29 0.45 0.34 0.09 0.02 0.00 0.00 0.00 0.00 0.00 0.00 0.00
0.56 0.62 0.66 0.13 0.20 0.28 0.47 0.53 0.67 0.39 0.16 0.27 0.17 0.18 0.10 0.05 0.13 0.18 0.15 0.20 0.86 0.76 0.76 0.85 0.58 0.48 0.23 0.35 0.50 0.38 0.46 0.66 0.59 0.61 0.32 0.07 0.24 0.11 0.00 0.00 0.00 0.00 0.00 0.00 0.00
0.59 0.87 0.78 0.16 0.23 0.30 0.52 0.52 0.40 0.13 0.21 0.24 0.16 0.21 0.29 0.10 0.17 0.14 0.31 0.16 0.47 0.39 0.55 0.74 0.65 0.51 0.30 0.46 0.77 0.59 0.48 0.63 0.34 0.29 0.13 0.05 0.07 0.03 0.00 0.00 0.00 0.00 0.00 0.00 0.00
0.82 1.14 1.08 0.26 0.35 0.41 0.68 0.60 0.20 0.17 0.23 0.21 0.23 0.24 0.27 0.12 0.17 0.16 0.18 0.13 0.17 0.16 0.41 0.44 0.52 0.31 0.19 0.22 0.51 0.64 0.63 0.42 0.35 0.10 0.18 0.09 0.02 0.00 0.00 0.00 0.00 0.00 0.00 0.00 0.00
1.41 1.52 1.18 0.18 0.42 0.64 0.93 0.54 0.31 0.39 0.32 0.17 0.12 0.05 0.04 0.08 0.19 0.11 0.08 0.05 0.09 0.03 0.19 0.33 0.56 0.53 0.49 0.40 0.57 0.51 0.32 0.44 0.76 0.30 0.12 0.10 0.06 0.00 0.00 0.00 0.00 0.00 0.00 0.00 0.00
1.39 1.56 0.97 0.45 0.82 1.07 0.82 0.47 0.30 0.26 0.22 0.18 0.06 0.05 0.02 0.02 0.19 0.05 0.04 0.03 0.05 0.02 0.13 0.44 0.60 0.62 0.87 0.75 0.53 0.53 0.50 0.38 0.44 0.23 0.11 0.05 0.08 0.01 0.00 0.00 0.02 0.01 0.01 0.00 0.00
1.22 1.27 0.72 0.87 1.20 0.76 0.45 0.60 0.37 0.18 0.17 0.17 0.07 0.02 0.01 0.01 0.12 0.05 0.03 0.02 0.01 0.03 0.16 0.38 0.52 0.68 0.53 0.20 0.16 0.23 0.25 0.11 0.45 0.30 0.11 0.06 0.01 0.01 0.00 0.00 0.02 0.03 0.03 0.02 0.01
1.06 1.04 1.31 0.57 0.69 0.39 0.37 0.62 0.39 0.15 0.17 0.20 0.05 0.01 0.00 0.00 0.02 0.01 0.02 0.00 0.00 0.01 0.15 0.29 0.69 0.70 0.65 0.43 0.40 0.44 0.27 0.12 0.25 0.56 0.22 0.14 0.01 0.00 0.00 0.01 0.00 0.00 0.01 0.01 0.00
1.01 0.93 1.55 1.22 0.26 0.27 0.54 0.66 0.53 0.20 0.17 0.22 0.08 0.03 0.01 0.00 0.00 0.00 0.04 0.00 0.00 0.01 0.18 0.65 0.55 0.67 0.61 0.54 0.35 0.16 0.16 0.20 0.30 0.55 0.23 0.10 0.02 0.01 0.00 0.01 0.01 0.00 0.00 0.00 0.00
0.64 0.33 0.32 0.39 0.15 0.06 0.52 0.73 0.78 0.64 0.43 0.27 0.11 0.02 0.01 0.00 0.00 0.00 0.01 0.00 0.00 0.01 0.21 0.68 0.83 1.10 0.60 0.21 0.37 0.12 0.10 0.14 0.30 0.34 0.25 0.08 0.07 0.01 0.00 0.00 0.01 0.00 0.00 0.00 0.00
0.36 0.10 0.05 0.03 0.01 0.01 0.31 0.76 0.86 0.76 0.59 0.31 0.13 0.01 0.01 0.00 0.00 0.00 0.00 0.00 0.00 0.00 0.08 0.37 0.66 0.82 0.42 0.05 0.08 0.07 0.07 0.09 0.13 0.28 0.35 0.16 0.21 0.05 0.01 0.00 0.00 0.00 0.00 0.00 0.00
0.22 0.03 0.03 0.05 0.04 0.03 0.08 0.39 0.62 0.63 0.48 0.27 0.17 0.11 0.02 0.01 0.00 0.00 0.00 0.00 0.00 0.00 0.06 0.20 0.32 0.50 0.41 0.19 0.14 0.21 0.12 0.09 0.12 0.16 0.27 0.25 0.17 0.03 0.00 0.00 0.00 0.00 0.00 0.00 0.00

GFSSW_prec_precacc_027.txt.gz
Total_Precipitation_Accumulation
0.02 0.01 0.00 0.00 0.00 0.00 0.00 0.00 0.00 0.01 0.05 0.10 0.13 0.12 0.21 0.27 0.18 0.05 0.00 0.00 0.00 0.00 0.00 0.00 0.00 0.00 0.00 0.00 0.00 0.00 0.00 0.00 0.00 0.00 0.00 0.00 0.00 0.00 0.00 0.00 0.00 0.00 0.00 0.00 0.00
0.03 0.02 0.01 0.00 0.00 0.00 0.00 0.00 0.00 0.00 0.00 0.01 0.03 0.06 0.11 0.12 0.10 0.11 0.01 0.00 0.01 0.00 0.00 0.00 0.00 0.01 0.00 0.00 0.00 0.00 0.00 0.00 0.00 0.00 0.00 0.00 0.00 0.00 0.00 0.00 0.00 0.00 0.00 0.00 0.00
0.04 0.03 0.02 0.00 0.00 0.00 0.00 0.01 0.01 0.00 0.00 0.01 0.03 0.04 0.10 0.05 0.06 0.02 0.00 0.01 0.07 0.10 0.00 0.00 0.01 0.05 0.04 0.00 0.00 0.00 0.00 0.00 0.00 0.00 0.00 0.00 0.00 0.00 0.00 0.00 0.00 0.00 0.00 0.00 0.00
0.05 0.05 0.04 0.03 0.01 0.00 0.00 0.00 0.01 0.02 0.01 0.00 0.02 0.06 0.10 0.06 0.02 0.01 0.00 0.00 0.00 0.10 0.02 0.01 0.02 0.04 0.04 0.01 0.00 0.00 0.00 0.00 0.00 0.00 0.00 0.00 0.00 0.00 0.00 0.00 0.00 0.00 0.00 0.00 0.00
0.12 0.09 0.08 0.07 0.04 0.01 0.00 0.00 0.00 0.00 0.01 0.01 0.04 0.09 0.08 0.06 0.02 0.00 0.00 0.00 0.00 0.03 0.02 0.03 0.04 0.02 0.02 0.00 0.01 0.00 0.00 0.00 0.00 0.00 0.00 0.00 0.00 0.00 0.00 0.00 0.00 0.00 0.00 0.00 0.00
0.09 0.09 0.08 0.07 0.06 0.03 0.00 0.00 0.00 0.00 0.03 0.07 0.10 0.11 0.03 0.03 0.00 0.00 0.00 0.00 0.00 0.01 0.02 0.05 0.04 0.01 0.01 0.00 0.02 0.00 0.00 0.00 0.00 0.00 0.00 0.00 0.00 0.00 0.00 0.00 0.00 0.00 0.00 0.00 0.00
0.11 0.12 0.09 0.07 0.07 0.05 0.01 0.01 0.00 0.00 0.04 0.11 0.19 0.11 0.04 0.00 0.00 0.00 0.00 0.00 0.00 0.00 0.01 0.03 0.06 0.15 0.09 0.06 0.00 0.01 0.01 0.00 0.00 0.00 0.00 0.00 0.00 0.00 0.00 0.00 0.00 0.00 0.00 0.00 0.00
0.13 0.15 0.16 0.12 0.11 0.08 0.04 0.02 0.04 0.04 0.06 0.12 0.14 0.13 0.05 0.00 0.00 0.00 0.00 0.00 0.00 0.00 0.00 0.01 0.15 0.15 0.12 0.08 0.04 0.04 0.06 0.02 0.00 0.00 0.00 0.00 0.00 0.00 0.00 0.00 0.00 0.00 0.00 0.00 0.00
0.17 0.17 0.16 0.17 0.15 0.13 0.10 0.10 0.11 0.18 0.20 0.13 0.05 0.10 0.03 0.00 0.00 0.00 0.00 0.00 0.00 0.00 0.00 0.03 0.17 0.19 0.11 0.15 0.16 0.11 0.04 0.01 0.00 0.00 0.00 0.00 0.00 0.00 0.00 0.00 0.00 0.00 0.00 0.00 0.00
0.16 0.18 0.20 0.20 0.20 0.18 0.23 0.27 0.25 0.24 0.16 0.09 0.06 0.06 0.00 0.00 0.00 0.00 0.00 0.00 0.04 0.08 0.06 0.08 0.20 0.23 0.16 0.21 0.14 0.04 0.02 0.01 0.00 0.00 0.00 0.00 0.00 0.00 0.00 0.00 0.00 0.00 0.00 0.00 0.00
0.18 0.22 0.27 0.29 0.31 0.25 0.32 0.62 0.27 0.15 0.11 0.01 0.02 0.00 0.00 0.00 0.00 0.00 0.00 0.00 0.03 0.14 0.09 0.10 0.21 0.19 0.10 0.04 0.03 0.02 0.05 0.02 0.00 0.00 0.01 0.00 0.00 0.00 0.00 0.00 0.00 0.00 0.00 0.00 0.00
0.17 0.21 0.28 0.38 0.41 0.55 0.56 0.34 0.08 0.05 0.13 0.04 0.01 0.00 0.00 0.02 0.03 0.01 0.00 0.01 0.05 0.13 0.10 0.23 0.19 0.04 0.09 0.06 0.05 0.06 0.06 0.04 0.01 0.02 0.04 0.00 0.00 0.00 0.00 0.00 0.00 0.00 0.00 0.00 0.00
0.24 0.26 0.32 0.40 0.65 0.88 0.52 0.21 0.14 0.15 0.49 0.24 0.04 0.03 0.01 0.02 0.03 0.07 0.00 0.03 0.05 0.12 0.18 0.22 0.18 0.05 0.14 0.13 0.09 0.07 0.07 0.04 0.03 0.05 0.04 0.02 0.00 0.00 0.00 0.00 0.00 0.00 0.00 0.00 0.00
0.29 0.34 0.40 0.58 0.94 0.95 0.72 0.39 0.36 0.49 1.15 0.24 0.04 0.08 0.09 0.18 0.12 0.02 0.00 0.05 0.09 0.12 0.16 0.22 0.19 0.18 0.17 0.25 0.09 0.06 0.03 0.04 0.07 0.16 0.05 0.07 0.03 0.00 0.00 0.00 0.00 0.00 0.00 0.00 0.00
0.36 0.38 0.46 0.87 0.99 0.85 0.70 0.53 0.52 0.86 0.89 0.04 0.03 0.02 0.05 0.15 0.12 0.03 0.01 0.15 0.17 0.14 0.38 0.45 0.24 0.31 0.19 0.28 0.09 0.09 0.02 0.04 0.08 0.22 0.33 0.07 0.07 0.01 0.00 0.00 0.00 0.00 0.00 0.00 0.00
0.42 0.47 0.62 0.81 0.81 0.65 0.67 0.65 0.63 0.82 0.37 0.06 0.07 0.07 0.11 0.09 0.16 0.17 0.06 0.15 0.33 0.50 0.46 0.27 0.18 0.30 0.19 0.17 0.16 0.10 0.13 0.14 0.22 0.32 0.50 0.34 0.09 0.02 0.00 0.00 0.00 0.00 0.00 0.00 0.00
0.62 0.68 0.92 0.76 0.85 0.78 0.78 0.74 0.71 0.39 0.16 0.27 0.17 0.19 0.11 0.06 0.13 0.19 0.16 0.23 0.88 0.79 0.78 0.87 0.59 0.48 0.23 0.35 0.50 0.40 0.56 0.79 0.70 0.72 0.35 0.07 0.24 0.11 0.00 0.00 0.00 0.00 0.00 0.00 0.00
0.65 0.95 1.00 0.72 0.79 1.29 0.89 0.63 0.41 0.13 0.21 0.24 0.16 0.22 0.29 0.10 0.17 0.14 0.31 0.17 0.49 0.42 0.60 0.77 0.66 0.52 0.30 0.46 0.77 0.59 0.52 0.76 0.39 0.30 0.13 0.05 0.07 0.03 0.00 0.00 0.00 0.00 0.00 0.00 0.00
0.94 1.21 1.34 0.84 0.97 1.31 1.08 0.68 0.21 0.17 0.23 0.21 0.23 0.24 0.27 0.12 0.18 0.16 0.19 0.13 0.17 0.17 0.44 0.46 0.52 0.31 0.19 0.22 0.51 0.67 0.71 0.47 0.47 0.20 0.30 0.10 0.02 0.00 0.00 0.00 0.00 0.00 0.00 0.00 0.00
1.47 1.59 1.50 0.73 1.03 1.41 1.25 0.57 0.31 0.39 0.32 0.17 0.12 0.05 0.04 0.08 0.19 0.11 0.08 0.05 0.09 0.03 0.19 0.33 0.57 0.53 0.49 0.41 0.58 0.54 0.34 0.51 1.02 0.47 0.19 0.11 0.06 0.00 0.00 0.00 0.00 0.00 0.00 0.00 0.00
1.46 1.72 1.31 1.09 1.52 1.69 1.08 0.48 0.30 0.26 0.22 0.18 0.06 0.05 0.02 0.02 0.19 0.05 0.04 0.03 0.05 0.02 0.13 0.44 0.61 0.63 0.88 0.76 0.53 0.56 0.60 0.47 0.50 0.26 0.12 0.05 0.08 0.01 0.00 0.00 0.02 0.01 0.01 0.00 0.00
1.36 1.42 1.11 1.87 2.08 1.25 0.51 0.60 0.37 0.18 0.17 0.17 0.07 0.02 0.01 0.01 0.12 0.05 0.03 0.02 0.01 0.03 0.16 0.38 0.55 0.69 0.54 0.20 0.16 0.24 0.26 0.15 0.52 0.31 0.13 0.07 0.01 0.01 0.01 0.00 0.02 0.03 0.03 0.02 0.01
1.31 1.24 1.97 1.18 1.06 0.60 0.40 0.62 0.39 0.15 0.17 0.20 0.05 0.01 0.00 0.01 0.02 0.01 0.02 0.00 0.00 0.01 0.15 0.29 0.73 0.75 0.69 0.48 0.46 0.59 0.33 0.24 0.43 0.73 0.29 0.15 0.01 0.00 0.01 0.01 0.01 0.01 0.02 0.01 0.00
1.15 1.43 2.89 1.90 0.43 0.31 0.54 0.66 0.53 0.20 0.17 0.22 0.08 0.04 0.04 0.02 0.00 0.00 0.04 0.00 0.00 0.01 0.18 0.66 0.60 0.74 0.73 0.72 0.74 0.47 0.26 0.35 0.56 0.79 0.27 0.11 0.02 0.01 0.01 0.03 0.02 0.02 0.03 0.06 0.02
0.71 0.58 0.75 0.82 0.32 0.06 0.52 0.73 0.78 0.64 0.43 0.27 0.12 0.04 0.05 0.02 0.01 0.00 0.01 0.00 0.00 0.01 0.21 0.73 0.93 1.21 0.74 0.38 0.92 0.50 0.26 0.29 0.52 0.41 0.26 0.09 0.07 0.02 0.01 0.03 0.06 0.05 0.10 0.04 0.02
0.47 0.22 0.10 0.05 0.02 0.02 0.32 0.76 0.86 0.76 0.60 0.31 0.14 0.05 0.05 0.03 0.01 0.00 0.00 0.00 0.00 0.01 0.11 0.47 0.78 0.95 0.55 0.17 0.32 0.27 0.13 0.15 0.15 0.28 0.35 0.16 0.21 0.05 0.02 0.08 0.20 0.12 0.17 0.04 0.01
0.51 0.15 0.05 0.10 0.05 0.03 0.08 0.39 0.62 0.63 0.49 0.27 0.18 0.16 0.04 0.02 0.01 0.00 0.00 0.00 0.00 0.01 0.09 0.27 0.43 0.74 0.61 0.37 0.23 0.33 0.15 0.11 0.12 0.16 0.27 0.25 0.18 0.07 0.06 0.25 0.24 0.15 0.11 0.01 0.00

GFSSW_prec_precacc_030.txt.gz
Total_Precipitation_Accumulation
0.04 0.05 0.04 0.01 0.00 0.00 0.00 0.00 0.00 0.01 0.05 0.10 0.13 0.12 0.22 0.27 0.22 0.07 0.00 0.00 0.00 0.00 0.00 0.00 0.00 0.00 0.00 0.00 0.00 0.00 0.00 0.00 0.00 0.00 0.00 0.00 0.00 0.00 0.00 0.00 0.00 0.00 0.00 0.00 0.00
0.04 0.03 0.04 0.04 0.01 0.00 0.00 0.00 0.00 0.00 0.00 0.01 0.03 0.07 0.11 0.12 0.13 0.13 0.01 0.00 0.01 0.01 0.00 0.00 0.00 0.01 0.00 0.00 0.00 0.00 0.00 0.00 0.00 0.00 0.00 0.00 0.00 0.00 0.00 0.00 0.00 0.00 0.00 0.00 0.00
0.05 0.05 0.05 0.06 0.05 0.01 0.00 0.01 0.01 0.00 0.00 0.01 0.03 0.04 0.10 0.05 0.06 0.02 0.00 0.02 0.12 0.15 0.01 0.00 0.01 0.05 0.04 0.00 0.00 0.00 0.00 0.00 0.00 0.00 0.00 0.00 0.00 0.00 0.00 0.00 0.00 0.00 0.00 0.00 0.00
0.07 0.08 0.08 0.08 0.09 0.06 0.01 0.00 0.01 0.02 0.01 0.00 0.02 0.06 0.10 0.06 0.02 0.01 0.00 0.00 0.03 0.17 0.02 0.01 0.02 0.04 0.04 0.01 0.00 0.00 0.00 0.00 0.00 0.00 0.00 0.00 0.00 0.00 0.00 0.00 0.00 0.00 0.00 0.00 0.00
0.12 0.12 0.11 0.09 0.10 0.10 0.03 0.00 0.00 0.00 0.01 0.01 0.04 0.09 0.08 0.06 0.02 0.00 0.00 0.00 0.00 0.05 0.03 0.03 0.04 0.02 0.02 0.00 0.01 0.00 0.00 0.00 0.00 0.00 0.00 0.00 0.00 0.00 0.00 0.00 0.00 0.00 0.00 0.00 0.00
0.09 0.09 0.09 0.09 0.09 0.09 0.06 0.00 0.00 0.00 0.03 0.07 0.10 0.11 0.03 0.03 0.00 0.00 0.00 0.00 0.00 0.02 0.03 0.06 0.04 0.01 0.01 0.00 0.02 0.00 0.00 0.00 0.00 0.00 0.00 0.00 0.00 0.00 0.00 0.00 0.00 0.00 0.00 0.00 0.00
0.11 0.12 0.10 0.09 0.10 0.10 0.08 0.02 0.00 0.00 0.04 0.11 0.19 0.11 0.04 0.00 0.00 0.00 0.00 0.00 0.00 0.01 0.03 0.04 0.06 0.15 0.09 0.06 0.00 0.01 0.01 0.00 0.00 0.00 0.00 0.00 0.00 0.00 0.00 0.00 0.00 0.00 0.00 0.00 0.00
0.13 0.16 0.16 0.15 0.16 0.13 0.11 0.09 0.05 0.04 0.06 0.12 0.14 0.13 0.05 0.00 0.00 0.00 0.00 0.00 0.00 0.00 0.01 0.03 0.16 0.16 0.13 0.08 0.04 0.05 0.06 0.02 0.00 0.00 0.00 0.00 0.00 0.00 0.00 0.00 0.00 0.00 0.00 0.00 0.00
0.18 0.17 0.16 0.18 0.20 0.19 0.17 0.24 0.16 0.19 0.21 0.14 0.05 0.10 0.03 0.00 0.00 0.00 0.00 0.00 0.00 0.00 0.00 0.03 0.18 0.19 0.11 0.16 0.16 0.11 0.04 0.01 0.00 0.00 0.00 0.00 0.00 0.00 0.00 0.00 0.00 0.00 0.00 0.00 0.00
0.16 0.19 0.20 0.20 0.25 0.26 0.35 0.44 0.35 0.29 0.19 0.11 0.06 0.06 0.00 0.00 0.00 0.00 0.00 0.00 0.04 0.08 0.06 0.08 0.20 0.23 0.16 0.21 0.14 0.04 0.02 0.01 0.00 0.00 0.00 0.00 0.00 0.00 0.00 0.00 0.00 0.00 0.00 0.00 0.00
0.20 0.25 0.28 0.29 0.36 0.39 0.67 1.20 0.44 0.19 0.12 0.01 0.02 0.00 0.00 0.00 0.00 0.00 0.00 0.00 0.03 0.14 0.09 0.10 0.21 0.19 0.10 0.04 0.03 0.02 0.05 0.02 0.00 0.00 0.01 0.00 0.00 0.00 0.00 0.00 0.00 0.00 0.00 0.00 0.00
0.20 0.23 0.29 0.38 0.43 0.73 1.15 0.76 0.12 0.05 0.13 0.04 0.01 0.00 0.00 0.02 0.03 0.01 0.00 0.01 0.05 0.13 0.10 0.23 0.19 0.04 0.09 0.06 0.05 0.06 0.06 0.04 0.01 0.02 0.04 0.00 0.00 0.00 0.00 0.00 0.00 0.00 0.00 0.00 0.00
0.27 0.28 0.33 0.41 0.66 0.97 1.00 0.48 0.14 0.15 0.49 0.24 0.04 0.03 0.01 0.02 0.03 0.07 0.00 0.03 0.05 0.12 0.18 0.22 0.18 0.05 0.14 0.13 0.09 0.07 0.07 0.04 0.03 0.05 0.04 0.02 0.00 0.00 0.00 0.00 0.00 0.00 0.00 0.00 0.00
0.33 0.35 0.41 0.60 0.95 1.02 1.01 0.65 0.43 0.49 1.16 0.24 0.04 0.08 0.09 0.18 0.12 0.02 0.00 0.05 0.09 0.12 0.16 0.22 0.19 0.18 0.17 0.25 0.09 0.06 0.03 0.04 0.07 0.16 0.05 0.07 0.03 0.00 0.00 0.00 0.00 0.00 0.00 0.00 0.00
0.40 0.42 0.47 0.90 1.01 0.93 1.04 0.81 0.72 0.90 0.89 0.04 0.03 0.02 0.05 0.15 0.12 0.03 0.01 0.15 0.17 0.14 0.38 0.45 0.24 0.31 0.19 0.28 0.09 0.09 0.02 0.04 0.08 0.22 0.34 0.07 0.08 0.01 0.00 0.00 0.00 0.00 0.00 0.00 0.00
0.58 0.56 0.65 0.83 0.83 0.65 0.96 1.18 1.03 0.93 0.37 0.07 0.08 0.09 0.12 0.10 0.16 0.17 0.06 0.16 0.34 0.50 0.47 0.28 0.18 0.30 0.19 0.17 0.16 0.10 0.14 0.14 0.22 0.33 0.52 0.34 0.10 0.02 0.00 0.00 0.00 0.00 0.00 0.00 0.00
0.77 0.76 0.98 0.78 0.85 0.80 1.06 1.37 1.17 0.44 0.16 0.27 0.18 0.21 0.12 0.06 0.14 0.19 0.17 0.24 0.89 0.80 0.79 0.88 0.59 0.48 0.23 0.35 0.50 0.40 0.58 0.80 0.72 0.75 0.36 0.07 0.24 0.11 0.00 0.00 0.00 0.00 0.00 0.00 0.00
0.71 0.99 1.03 0.74 0.80 1.45 1.30 1.06 0.66 0.14 0.21 0.24 0.16 0.23 0.30 0.11 0.17 0.15 0.32 0.17 0.49 0.42 0.61 0.78 0.66 0.52 0.30 0.46 0.78 0.60 0.53 0.77 0.39 0.30 0.13 0.05 0.07 0.03 0.00 0.00 0.00 0.00 0.00 0.00 0.00
0.99 1.23 1.37 0.86 0.97 1.55 1.63 1.00 0.29 0.17 0.23 0.21 0.23 0.24 0.27 0.13 0.18 0.16 0.19 0.13 0.17 0.17 0.44 0.47 0.52 0.31 0.19 0.22 0.52 0.68 0.73 0.48 0.50 0.21 0.31 0.10 0.02 0.00 0.00 0.00 0.00 0.00 0.00 0.00 0.00
1.54 1.62 1.53 0.78 1.05 1.65 1.70 0.79 0.32 0.39 0.32 0.17 0.12 0.05 0.04 0.08 0.19 0.11 0.08 0.05 0.09 0.03 0.19 0.33 0.57 0.53 0.49 0.41 0.58 0.55 0.35 0.53 1.07 0.48 0.20 0.11 0.06 0.00 0.00 0.00 0.00 0.00 0.00 0.00 0.00
1.61 1.86 1.39 1.14 1.58 1.96 1.34 0.58 0.30 0.26 0.22 0.18 0.06 0.05 0.02 0.02 0.19 0.05 0.04 0.03 0.05 0.02 0.13 0.44 0.62 0.63 0.88 0.76 0.54 0.56 0.61 0.50 0.55 0.27 0.13 0.06 0.08 0.01 0.00 0.00 0.02 0.01 0.01 0.00 0.00
1.50 1.61 1.18 1.91 2.22 1.40 0.63 0.62 0.37 0.18 0.17 0.17 0.07 0.02 0.01 0.01 0.12 0.05 0.03 0.02 0.01 0.03 0.16 0.38 0.55 0.70 0.54 0.20 0.16 0.24 0.26 0.19 0.70 0.38 0.21 0.11 0.03 0.01 0.01 0.00 0.02 0.03 0.03 0.02 0.01
1.52 1.41 2.09 1.22 1.12 0.68 0.48 0.62 0.39 0.15 0.17 0.20 0.05 0.01 0.00 0.01 0.02 0.01 0.02 0.00 0.00 0.01 0.15 0.29 0.73 0.75 0.69 0.48 0.47 0.60 0.33 0.28 0.56 0.93 0.48 0.23 0.03 0.00 0.01 0.01 0.01 0.01 0.02 0.01 0.00
1.21 1.53 2.99 1.98 0.47 0.33 0.57 0.67 0.53 0.20 0.17 0.22 0.08 0.04 0.04 0.02 0.00 0.00 0.04 0.00 0.00 0.01 0.18 0.66 0.60 0.74 0.73 0.73 0.78 0.55 0.30 0.46 0.77 1.02 0.32 0.15 0.03 0.01 0.01 0.03 0.02 0.02 0.03 0.06 0.02
0.72 0.60 0.80 0.83 0.34 0.08 0.53 0.74 0.78 0.64 0.43 0.27 0.12 0.04 0.05 0.02 0.02 0.00 0.01 0.00 0.00 0.01 0.21 0.73 0.94 1.21 0.74 0.38 0.93 0.53 0.29 0.37 0.71 0.47 0.32 0.11 0.07 0.02 0.01 0.03 0.06 0.05 0.10 0.04 0.02
0.49 0.27 0.13 0.06 0.03 0.02 0.32 0.76 0.86 0.76 0.60 0.31 0.14 0.05 0.05 0.03 0.01 0.00 0.00 0.00 0.00 0.01 0.11 0.47 0.78 0.95 0.56 0.17 0.33 0.34 0.15 0.18 0.17 0.29 0.36 0.16 0.21 0.05 0.02 0.08 0.20 0.12 0.17 0.05 0.02
0.53 0.26 0.08 0.11 0.05 0.03 0.08 0.39 0.62 0.63 0.49 0.27 0.18 0.16 0.04 0.02 0.01 0.01 0.00 0.00 0.00 0.01 0.09 0.27 0.44 0.77 0.63 0.37 0.24 0.39 0.20 0.12 0.13 0.16 0.27 0.25 0.18 0.07 0.06 0.25 0.24 0.23 0.21 0.02 0.01

GFSSW_prec_precacc_033.txt.gz
Total_Precipitation_Accumulation
0.05 0.05 0.07 0.05 0.03 0.01 0.00 0.00 0.00 0.01 0.05 0.10 0.13 0.12 0.22 0.28 0.25 0.09 0.01 0.00 0.00 0.00 0.00 0.00 0.00 0.00 0.00 0.00 0.00 0.00 0.00 0.00 0.00 0.00 0.00 0.00 0.00 0.00 0.00 0.00 0.00 0.00 0.00 0.00 0.00
0.04 0.03 0.05 0.07 0.06 0.04 0.00 0.00 0.00 0.00 0.00 0.01 0.03 0.07 0.11 0.12 0.16 0.15 0.01 0.00 0.02 0.01 0.00 0.00 0.00 0.01 0.00 0.00 0.00 0.00 0.00 0.00 0.00 0.00 0.00 0.00 0.00 0.00 0.00 0.00 0.00 0.00 0.00 0.00 0.00
0.05 0.05 0.05 0.07 0.09 0.09 0.04 0.01 0.01 0.00 0.00 0.01 0.03 0.04 0.10 0.05 0.07 0.02 0.00 0.02 0.16 0.18 0.01 0.00 0.01 0.05 0.04 0.00 0.00 0.00 0.00 0.00 0.00 0.00 0.00 0.00 0.00 0.00 0.00 0.00 0.00 0.00 0.00 0.00 0.00
0.07 0.08 0.08 0.08 0.10 0.11 0.09 0.03 0.01 0.02 0.01 0.00 0.02 0.06 0.10 0.06 0.03 0.01 0.00 0.00 0.06 0.27 0.04 0.01 0.02 0.04 0.04 0.01 0.00 0.00 0.00 0.00 0.00 0.00 0.00 0.00 0.00 0.00 0.00 0.00 0.00 0.00 0.00 0.00 0.00
0.12 0.12 0.11 0.09 0.10 0.10 0.09 0.06 0.02 0.00 0.01 0.01 0.04 0.09 0.08 0.06 0.02 0.00 0.00 0.00 0.00 0.09 0.06 0.03 0.04 0.02 0.02 0.00 0.01 0.00 0.00 0.00 0.00 0.00 0.00 0.00 0.00 0.00 0.00 0.00 0.00 0.00 0.00 0.00 0.00
0.09 0.09 0.09 0.09 0.09 0.10 0.08 0.10 0.05 0.01 0.03 0.07 0.10 0.11 0.03 0.03 0.00 0.00 0.00 0.00 0.00 0.02 0.06 0.06 0.04 0.01 0.01 0.00 0.02 0.00 0.00 0.00 0.00 0.00 0.00 0.00 0.00 0.00 0.00 0.00 0.00 0.00 0.00 0.00 0.00
0.11 0.12 0.10 0.09 0.10 0.10 0.10 0.10 0.10 0.03 0.04 0.11 0.19 0.11 0.04 0.00 0.00 0.00 0.00 0.00 0.00 0.02 0.04 0.05 0.06 0.15 0.09 0.06 0.00 0.01 0.01 0.00 0.00 0.00 0.00 0.00 0.00 0.00 0.00 0.00 0.00 0.00 0.00 0.00 0.00
0.13 0.16 0.16 0.15 0.16 0.13 0.13 0.16 0.15 0.08 0.06 0.12 0.14 0.13 0.05 0.00 0.00 0.00 0.00 0.00 0.00 0.00 0.03 0.06 0.16 0.16 0.13 0.08 0.04 0.05 0.06 0.02 0.00 0.00 0.00 0.00 0.00 0.00 0.00 0.00 0.00 0.00 0.00 0.00 0.00
0.18 0.17 0.17 0.18 0.20 0.19 0.18 0.28 0.43 0.35 0.23 0.14 0.05 0.10 0.03 0.00 0.00 0.00 0.00 0.00 0.00 0.00 0.00 0.06 0.22 0.20 0.12 0.16 0.16 0.11 0.04 0.01 0.00 0.00 0.00 0.00 0.00 0.00 0.00 0.00 0.00 0.00 0.00 0.00 0.00
0.17 0.19 0.21 0.22 0.26 0.27 0.37 0.50 0.72 0.59 0.27 0.14 0.07 0.06 0.00 0.00 0.00 0.00 0.00 0.00 0.04 0.08 0.06 0.08 0.20 0.23 0.16 0.21 0.14 0.04 0.02 0.01 0.00 0.00 0.00 0.00 0.00 0.00 0.00 0.00 0.00 0.00 0.00 0.00 0.00
0.22 0.26 0.31 0.33 0.40 0.41 0.71 1.47 1.22 0.70 0.23 0.02 0.02 0.00 0.00 0.00 0.00 0.00 0.00 0.00 0.03 0.14 0.09 0.11 0.21 0.19 0.10 0.04 0.03 0.02 0.05 0.02 0.00 0.00 0.01 0.00 0.00 0.00 0.00 0.00 0.00 0.00 0.00 0.00 0.00
0.23 0.25 0.33 0.42 0.45 0.76 1.22 1.15 0.56 0.19 0.18 0.04 0.01 0.00 0.00 0.02 0.03 0.01 0.00 0.01 0.05 0.13 0.10 0.23 0.19 0.04 0.09 0.06 0.05 0.06 0.06 0.04 0.01 0.02 0.04 0.00 0.00 0.00 0.00 0.00 0.00 0.00 0.00 0.00 0.00
0.29 0.30 0.36 0.43 0.68 0.98 1.05 0.69 0.31 0.32 0.57 0.25 0.04 0.03 0.01 0.02 0.03 0.07 0.00 0.03 0.05 0.12 0.18 0.22 0.18 0.05 0.14 0.13 0.09 0.07 0.07 0.04 0.03 0.05 0.04 0.02 0.00 0.00 0.00 0.00 0.00 0.00 0.00 0.00 0.00
0.33 0.39 0.46 0.63 0.97 1.04 1.05 0.77 0.74 0.79 1.28 0.25 0.04 0.08 0.09 0.18 0.12 0.02 0.00 0.05 0.09 0.12 0.16 0.22 0.19 0.18 0.17 0.25 0.09 0.06 0.03 0.04 0.07 0.16 0.05 0.07 0.03 0.00 0.00 0.00 0.00 0.00 0.00 0.00 0.00
0.43 0.52 0.63 1.01 1.05 0.95 1.06 1.05 1.23 1.20 1.05 0.05 0.03 0.02 0.05 0.15 0.12 0.03 0.01 0.15 0.17 0.14 0.38 0.45 0.24 0.31 0.19 0.28 0.09 0.09 0.02 0.04 0.08 0.22 0.34 0.07 0.08 0.01 0.00 0.00 0.00 0.00 0.00 0.00 0.00
0.64 0.67 0.78 0.93 0.88 0.66 0.98 1.54 1.57 1.42 0.46 0.07 0.08 0.09 0.13 0.10 0.16 0.18 0.07 0.16 0.34 0.50 0.47 0.28 0.18 0.30 0.19 0.17 0.16 0.10 0.14 0.14 0.22 0.34 0.53 0.34 0.10 0.02 0.00 0.00 0.00 0.00 0.00 0.00 0.00
0.89 0.82 1.04 0.83 0.86 0.81 1.14 1.87 1.69 0.70 0.17 0.28 0.18 0.22 0.12 0.06 0.15 0.20 0.18 0.24 0.89 0.80 0.79 0.88 0.59 0.48 0.23 0.35 0.50 0.41 0.60 0.81 0.73 0.77 0.36 0.07 0.24 0.11 0.00 0.00 0.00 0.00 0.00 0.00 0.00
0.78 1.02 1.10 0.78 0.80 1.47 1.39 1.46 0.97 0.20 0.21 0.24 0.17 0.24 0.30 0.11 0.18 0.15 0.32 0.18 0.49 0.42 0.61 0.78 0.66 0.52 0.30 0.46 0.78 0.60 0.54 0.78 0.39 0.30 0.13 0.05 0.07 0.03 0.00 0.00 0.00 0.00 0.00 0.00 0.00
1.10 1.27 1.45 0.93 0.99 1.60 1.71 1.19 0.49 0.18 0.23 0.22 0.25 0.25 0.29 0.13 0.18 0.16 0.19 0.14 0.17 0.17 0.44 0.47 0.52 0.31 0.19 0.22 0.52 0.68 0.73 0.48 0.50 0.22 0.32 0.10 0.02 0.00 0.00 0.00 0.00 0.00 0.00 0.00 0.00
1.68 1.65 1.57 0.83 1.07 1.71 1.77 0.84 0.38 0.39 0.32 0.17 0.12 0.05 0.04 0.08 0.20 0.12 0.08 0.05 0.09 0.03 0.19 0.33 0.57 0.53 0.49 0.41 0.59 0.55 0.35 0.54 1.09 0.49 0.20 0.11 0.06 0.00 0.00 0.00 0.00 0.00 0.00 0.00 0.00
1.74 1.98 1.50 1.18 1.59 2.04 1.46 0.65 0.31 0.26 0.22 0.18 0.06 0.05 0.02 0.02 0.19 0.05 0.04 0.03 0.05 0.02 0.13 0.44 0.62 0.63 0.88 0.76 0.54 0.56 0.62 0.51 0.57 0.29 0.14 0.06 0.08 0.01 0.00 0.00 0.02 0.01 0.01 0.00 0.00
1.59 1.92 1.27 1.92 2.25 1.46 0.72 0.68 0.38 0.18 0.17 0.17 0.07 0.02 0.01 0.01 0.12 0.05 0.03 0.02 0.01 0.03 0.16 0.38 0.56 0.70 0.54 0.20 0.16 0.24 0.26 0.20 0.76 0.39 0.26 0.16 0.05 0.01 0.01 0.00 0.02 0.03 0.03 0.02 0.01
1.62 1.51 2.15 1.26 1.14 0.70 0.53 0.67 0.39 0.15 0.17 0.20 0.05 0.01 0.00 0.01 0.02 0.01 0.02 0.00 0.00 0.01 0.15 0.29 0.73 0.75 0.69 0.48 0.48 0.60 0.33 0.28 0.60 1.04 0.57 0.28 0.06 0.00 0.01 0.01 0.01 0.01 0.02 0.01 0.00
1.26 1.66 3.08 2.00 0.48 0.34 0.61 0.72 0.54 0.20 0.17 0.22 0.08 0.04 0.04 0.02 0.00 0.00 0.04 0.00 0.00 0.01 0.18 0.66 0.60 0.74 0.73 0.73 0.78 0.55 0.30 0.48 0.94 1.19 0.35 0.16 0.03 0.01 0.01 0.03 0.02 0.02 0.03 0.06 0.02
0.73 0.61 0.81 0.85 0.35 0.09 0.55 0.77 0.79 0.64 0.43 0.27 0.12 0.04 0.05 0.02 0.02 0.00 0.01 0.00 0.00 0.01 0.21 0.73 0.94 1.21 0.74 0.38 0.93 0.53 0.29 0.37 0.80 0.56 0.41 0.13 0.07 0.02 0.01 0.03 0.06 0.05 0.10 0.04 0.02
0.50 0.28 0.14 0.06 0.03 0.03 0.32 0.78 0.87 0.76 0.60 0.31 0.14 0.05 0.05 0.03 0.01 0.00 0.00 0.00 0.00 0.01 0.11 0.47 0.79 0.96 0.56 0.17 0.33 0.34 0.15 0.19 0.19 0.31 0.40 0.16 0.21 0.05 0.02 0.08 0.20 0.12 0.17 0.05 0.02
0.54 0.26 0.09 0.11 0.06 0.04 0.08 0.39 0.62 0.63 0.49 0.27 0.18 0.16 0.04 0.02 0.01 0.01 0.00 0.00 0.00 0.01 0.10 0.28 0.45 0.78 0.63 0.37 0.24 0.41 0.26 0.15 0.14 0.18 0.30 0.26 0.18 0.07 0.06 0.25 0.24 0.23 0.22 0.02 0.01

GFSSW_prec_precacc_036.txt.gz
Total_Precipitation_Accumulation
0.05 0.05 0.07 0.06 0.05 0.06 0.04 0.01 0.00 0.01 0.05 0.10 0.13 0.12 0.22 0.29 0.26 0.10 0.02 0.00 0.00 0.00 0.00 0.00 0.00 0.00 0.00 0.00 0.00 0.00 0.00 0.00 0.00 0.00 0.00 0.00 0.00 0.00 0.00 0.00 0.00 0.00 0.00 0.00 0.00
0.04 0.03 0.05 0.07 0.07 0.06 0.06 0.03 0.00 0.00 0.00 0.01 0.03 0.07 0.11 0.12 0.17 0.16 0.01 0.01 0.02 0.01 0.00 0.00 0.00 0.01 0.00 0.00 0.00 0.00 0.00 0.00 0.00 0.00 0.00 0.00 0.00 0.00 0.00 0.00 0.00 0.00 0.00 0.00 0.00
0.05 0.05 0.05 0.07 0.09 0.10 0.07 0.06 0.04 0.00 0.00 0.01 0.03 0.04 0.10 0.05 0.08 0.03 0.00 0.02 0.16 0.18 0.01 0.00 0.01 0.05 0.04 0.00 0.00 0.00 0.00 0.00 0.00 0.00 0.00 0.00 0.00 0.00 0.00 0.00 0.00 0.00 0.00 0.00 0.00
0.07 0.08 0.08 0.08 0.10 0.11 0.10 0.06 0.06 0.05 0.01 0.00 0.02 0.06 0.10 0.06 0.03 0.01 0.00 0.02 0.11 0.31 0.04 0.01 0.02 0.04 0.04 0.01 0.00 0.00 0.00 0.00 0.00 0.00 0.00 0.00 0.00 0.00 0.00 0.00 0.00 0.00 0.00 0.00 0.00
0.12 0.12 0.11 0.10 0.10 0.11 0.09 0.07 0.10 0.09 0.03 0.01 0.04 0.09 0.08 0.06 0.02 0.00 0.00 0.00 0.00 0.16 0.09 0.04 0.04 0.02 0.02 0.00 0.01 0.00 0.00 0.00 0.00 0.00 0.00 0.00 0.00 0.00 0.00 0.00 0.00 0.00 0.00 0.00 0.00
0.10 0.09 0.09 0.09 0.09 0.10 0.08 0.10 0.10 0.14 0.10 0.07 0.10 0.11 0.03 0.03 0.00 0.00 0.00 0.00 0.00 0.04 0.12 0.08 0.04 0.01 0.01 0.00 0.02 0.00 0.00 0.00 0.00 0.00 0.00 0.00 0.00 0.00 0.00 0.00 0.00 0.00 0.00 0.00 0.00
0.11 0.12 0.10 0.10 0.10 0.11 0.10 0.10 0.13 0.12 0.11 0.12 0.19 0.11 0.04 0.00 0.00 0.00 0.00 0.00 0.00 0.02 0.10 0.07 0.06 0.15 0.09 0.06 0.00 0.01 0.01 0.00 0.00 0.00 0.00 0.00 0.00 0.00 0.00 0.00 0.00 0.00 0.00 0.00 0.00
0.13 0.16 0.16 0.15 0.16 0.14 0.13 0.16 0.16 0.19 0.21 0.16 0.14 0.13 0.05 0.00 0.00 0.00 0.00 0.00 0.00 0.01 0.05 0.10 0.17 0.16 0.14 0.09 0.04 0.05 0.06 0.02 0.00 0.00 0.00 0.00 0.00 0.00 0.00 0.00 0.00 0.00 0.00 0.00 0.00
0.18 0.18 0.17 0.19 0.21 0.20 0.19 0.29 0.44 0.44 0.49 0.23 0.06 0.10 0.03 0.00 0.00 0.00 0.00 0.00 0.00 0.00 0.01 0.10 0.24 0.20 0.12 0.16 0.16 0.11 0.04 0.01 0.00 0.00 0.00 0.00 0.00 0.00 0.00 0.00 0.00 0.00 0.00 0.00 0.00
0.19 0.21 0.21 0.22 0.26 0.28 0.38 0.50 0.72 0.82 0.71 0.29 0.08 0.07 0.00 0.00 0.00 0.00 0.00 0.00 0.04 0.08 0.09 0.14 0.21 0.23 0.16 0.21 0.15 0.04 0.02 0.01 0.00 0.00 0.00 0.00 0.00 0.00 0.00 0.00 0.00 0.00 0.00 0.00 0.00
0.25 0.28 0.31 0.36 0.45 0.47 0.76 1.48 1.26 1.11 0.75 0.17 0.03 0.00 0.00 0.00 0.00 0.00 0.00 0.00 0.03 0.15 0.09 0.11 0.22 0.19 0.10 0.04 0.03 0.02 0.05 0.02 0.00 0.00 0.01 0.00 0.00 0.00 0.00 0.00 0.00 0.00 0.00 0.00 0.00
0.28 0.27 0.34 0.44 0.49 0.79 1.25 1.17 0.65 0.56 0.54 0.09 0.01 0.00 0.00 0.02 0.03 0.01 0.00 0.01 0.05 0.13 0.10 0.23 0.19 0.04 0.09 0.06 0.05 0.06 0.06 0.04 0.01 0.02 0.04 0.00 0.00 0.00 0.00 0.00 0.00 0.00 0.00 0.00 0.00
0.31 0.30 0.39 0.48 0.71 0.99 1.05 0.69 0.36 0.65 0.95 0.34 0.05 0.03 0.01 0.02 0.03 0.07 0.00 0.03 0.05 0.12 0.18 0.22 0.18 0.05 0.14 0.13 0.09 0.07 0.07 0.04 0.03 0.05 0.04 0.02 0.00 0.00 0.00 0.00 0.00 0.00 0.00 0.00 0.00
0.34 0.41 0.52 0.76 1.01 1.07 1.07 0.80 0.83 1.22 1.59 0.40 0.09 0.08 0.09 0.18 0.12 0.02 0.00 0.05 0.09 0.12 0.16 0.22 0.19 0.18 0.17 0.25 0.09 0.06 0.03 0.04 0.07 0.16 0.05 0.07 0.03 0.00 0.00 0.00 0.00 0.00 0.00 0.00 0.00
0.44 0.55 0.68 1.15 1.20 0.98 1.16 1.11 1.46 1.67 1.28 0.14 0.06 0.03 0.05 0.15 0.12 0.03 0.01 0.15 0.17 0.14 0.38 0.45 0.24 0.31 0.19 0.28 0.09 0.09 0.02 0.04 0.08 0.22 0.34 0.07 0.08 0.01 0.00 0.00 0.00 0.00 0.00 0.00 0.00
0.65 0.70 0.83 1.01 0.95 0.67 1.02 1.69 2.06 1.82 0.69 0.17 0.11 0.10 0.13 0.10 0.16 0.18 0.07 0.16 0.34 0.50 0.47 0.28 0.18 0.30 0.19 0.17 0.16 0.10 0.14 0.14 0.22 0.34 0.53 0.34 0.10 0.02 0.00 0.00 0.00 0.00 0.00 0.00 0.00
0.90 0.83 1.06 0.86 0.88 0.81 1.20 2.07 2.12 0.92 0.27 0.30 0.19 0.23 0.12 0.06 0.15 0.20 0.18 0.25 0.89 0.80 0.79 0.88 0.59 0.48 0.23 0.36 0.50 0.41 0.60 0.81 0.73 0.78 0.36 0.07 0.24 0.11 0.00 0.00 0.00 0.00 0.00 0.00 0.00
0.80 1.03 1.17 0.81 0.83 1.48 1.41 1.59 1.22 0.30 0.25 0.24 0.18 0.24 0.31 0.11 0.18 0.15 0.33 0.19 0.49 0.42 0.61 0.78 0.66 0.52 0.30 0.46 0.78 0.60 0.54 0.78 0.39 0.30 0.13 0.05 0.07 0.03 0.00 0.00 0.00 0.00 0.00 0.00 0.00
1.15 1.28 1.51 1.04 1.04 1.61 1.72 1.24 0.74 0.27 0.23 0.22 0.26 0.27 0.30 0.13 0.18 0.17 0.19 0.14 0.17 0.17 0.44 0.47 0.52 0.31 0.19 0.22 0.52 0.68 0.73 0.48 0.51 0.22 0.32 0.10 0.02 0.00 0.00 0.00 0.00 0.00 0.00 0.00 0.00
1.72 1.66 1.64 0.94 1.10 1.72 1.78 0.87 0.56 0.44 0.32 0.18 0.13 0.06 0.05 0.08 0.20 0.12 0.08 0.05 0.09 0.03 0.19 0.33 0.57 0.53 0.49 0.41 0.59 0.55 0.35 0.54 1.09 0.49 0.20 0.11 0.06 0.00 0.00 0.00 0.00 0.00 0.00 0.00 0.00
1.75 2.01 1.57 1.24 1.61 2.06 1.47 0.65 0.37 0.31 0.22 0.19 0.06 0.05 0.02 0.03 0.19 0.05 0.04 0.03 0.05 0.02 0.13 0.44 0.62 0.63 0.88 0.76 0.54 0.56 0.62 0.51 0.57 0.29 0.14 0.06 0.08 0.01 0.00 0.00 0.02 0.01 0.01 0.01 0.01
1.62 1.95 1.31 1.96 2.31 1.51 0.74 0.70 0.46 0.25 0.18 0.17 0.07 0.02 0.01 0.01 0.12 0.05 0.03 0.02 0.01 0.03 0.16 0.38 0.56 0.70 0.54 0.20 0.16 0.24 0.26 0.20 0.77 0.39 0.27 0.17 0.06 0.01 0.01 0.00 0.02 0.03 0.03 0.02 0.01
1.64 1.53 2.20 1.33 1.18 0.73 0.64 0.74 0.44 0.16 0.17 0.20 0.05 0.01 0.00 0.01 0.02 0.01 0.02 0.00 0.00 0.01 0.15 0.29 0.74 0.75 0.69 0.48 0.48 0.60 0.33 0.28 0.62 1.11 0.61 0.30 0.07 0.00 0.01 0.01 0.01 0.01 0.03 0.01 0.00
1.27 1.67 3.09 2.01 0.50 0.40 0.73 0.75 0.55 0.21 0.17 0.22 0.08 0.04 0.04 0.02 0.00 0.00 0.04 0.00 0.00 0.01 0.18 0.66 0.60 0.74 0.73 0.73 0.79 0.55 0.30 0.48 1.00 1.30 0.37 0.16 0.03 0.01 0.01 0.03 0.02 0.02 0.03 0.06 0.02
0.75 0.62 0.82 0.85 0.38 0.15 0.61 0.80 0.80 0.65 0.43 0.27 0.12 0.04 0.05 0.02 0.02 0.00 0.01 0.00 0.00 0.01 0.21 0.73 0.94 1.21 0.74 0.38 0.93 0.53 0.29 0.37 0.85 0.60 0.51 0.16 0.07 0.02 0.01 0.03 0.06 0.05 0.10 0.04 0.02
0.50 0.30 0.15 0.06 0.04 0.04 0.35 0.81 0.88 0.76 0.60 0.31 0.14 0.05 0.05 0.03 0.01 0.00 0.00 0.00 0.00 0.01 0.11 0.47 0.79 0.96 0.56 0.17 0.33 0.34 0.15 0.20 0.19 0.31 0.41 0.17 0.22 0.05 0.02 0.09 0.21 0.12 0.17 0.05 0.02
0.54 0.26 0.10 0.11 0.06 0.04 0.08 0.39 0.63 0.63 0.49 0.27 0.18 0.16 0.04 0.02 0.01 0.01 0.00 0.00 0.00 0.01 0.10 0.28 0.45 0.78 0.63 0.37 0.24 0.42 0.26 0.15 0.14 0.20 0.32 0.29 0.19 0.07 0.06 0.26 0.27 0.26 0.23 0.02 0.01

GFSSW_prec_precacc_039.txt.gz
Total_Precipitation_Accumulation
0.05 0.05 0.07 0.06 0.05 0.06 0.05 0.04 0.04 0.02 0.05 0.10 0.13 0.12 0.22 0.29 0.26 0.11 0.02 0.00 0.00 0.00 0.00 0.00 0.00 0.00 0.00 0.00 0.00 0.00 0.00 0.00 0.00 0.00 0.00 0.00 0.00 0.00 0.00 0.00 0.00 0.00 0.00 0.00 0.00
0.04 0.03 0.05 0.07 0.07 0.06 0.06 0.05 0.04 0.03 0.01 0.01 0.03 0.07 0.11 0.12 0.17 0.16 0.01 0.01 0.02 0.01 0.00 0.00 0.00 0.01 0.00 0.00 0.00 0.00 0.00 0.00 0.00 0.00 0.00 0.00 0.00 0.00 0.00 0.00 0.00 0.00 0.00 0.00 0.00
0.05 0.05 0.05 0.07 0.09 0.10 0.07 0.06 0.05 0.05 0.03 0.02 0.03 0.04 0.10 0.05 0.08 0.03 0.00 0.02 0.16 0.19 0.01 0.00 0.01 0.05 0.04 0.00 0.00 0.00 0.00 0.00 0.00 0.00 0.00 0.00 0.00 0.00 0.00 0.00 0.00 0.00 0.00 0.00 0.00
0.07 0.08 0.08 0.08 0.10 0.11 0.10 0.06 0.07 0.09 0.09 0.03 0.02 0.06 0.10 0.06 0.03 0.01 0.00 0.02 0.13 0.34 0.04 0.01 0.02 0.04 0.04 0.01 0.00 0.00 0.00 0.00 0.00 0.00 0.00 0.00 0.00 0.00 0.00 0.00 0.00 0.00 0.00 0.00 0.00
0.13 0.12 0.11 0.10 0.10 0.11 0.09 0.07 0.11 0.11 0.11 0.06 0.05 0.09 0.08 0.06 0.02 0.00 0.00 0.02 0.05 0.21 0.11 0.04 0.04 0.02 0.02 0.00 0.01 0.00 0.00 0.00 0.00 0.00 0.00 0.00 0.00 0.00 0.00 0.00 0.00 0.00 0.00 0.00 0.00
0.11 0.10 0.10 0.09 0.09 0.10 0.09 0.10 0.10 0.15 0.16 0.16 0.11 0.11 0.03 0.03 0.00 0.00 0.00 0.00 0.00 0.05 0.14 0.11 0.05 0.01 0.01 0.00 0.02 0.00 0.00 0.00 0.00 0.00 0.00 0.00 0.00 0.00 0.00 0.00 0.00 0.00 0.00 0.00 0.00
0.14 0.13 0.11 0.10 0.10 0.11 0.10 0.11 0.13 0.13 0.17 0.26 0.23 0.11 0.04 0.00 0.00 0.00 0.00 0.00 0.00 0.02 0.12 0.12 0.08 0.15 0.09 0.06 0.00 0.01 0.01 0.00 0.00 0.00 0.00 0.00 0.00 0.00 0.00 0.00 0.00 0.00 0.00 0.00 0.00
0.15 0.17 0.16 0.16 0.17 0.14 0.14 0.17 0.16 0.19 0.26 0.31 0.20 0.13 0.06 0.00 0.00 0.00 0.00 0.00 0.00 0.01 0.06 0.17 0.19 0.16 0.14 0.09 0.04 0.05 0.06 0.02 0.00 0.00 0.00 0.00 0.00 0.00 0.00 0.00 0.00 0.00 0.00 0.00 0.00
0.22 0.20 0.18 0.22 0.23 0.21 0.19 0.29 0.44 0.44 0.52 0.52 0.18 0.10 0.03 0.00 0.00 0.00 0.00 0.00 0.00 0.00 0.01 0.17 0.31 0.22 0.13 0.16 0.16 0.11 0.04 0.01 0.00 0.00 0.00 0.00 0.00 0.00 0.00 0.00 0.00 0.00 0.00 0.00 0.00
0.24 0.24 0.24 0.24 0.28 0.30 0.41 0.51 0.72 0.82 0.76 0.76 0.28 0.10 0.00 0.00 0.00 0.00 0.00 0.00 0.04 0.10 0.11 0.22 0.25 0.26 0.16 0.21 0.15 0.04 0.02 0.01 0.00 0.00 0.00 0.00 0.00 0.00 0.00 0.00 0.00 0.00 0.00 0.00 0.00
0.29 0.32 0.32 0.36 0.46 0.49 0.79 1.49 1.27 1.13 0.87 0.49 0.16 0.01 0.00 0.00 0.00 0.00 0.00 0.00 0.03 0.15 0.09 0.15 0.23 0.20 0.10 0.04 0.03 0.02 0.05 0.02 0.00 0.00 0.01 0.00 0.00 0.00 0.00 0.00 0.00 0.00 0.00 0.00 0.00
0.30 0.28 0.34 0.46 0.51 0.79 1.27 1.17 0.66 0.60 0.70 0.21 0.05 0.00 0.00 0.02 0.03 0.01 0.00 0.01 0.05 0.14 0.10 0.24 0.20 0.04 0.09 0.06 0.05 0.06 0.06 0.04 0.01 0.02 0.04 0.00 0.00 0.00 0.00 0.00 0.00 0.00 0.00 0.00 0.00
0.31 0.30 0.40 0.51 0.72 0.99 1.06 0.69 0.36 0.71 1.16 0.54 0.16 0.04 0.01 0.02 0.03 0.07 0.00 0.03 0.05 0.12 0.18 0.22 0.18 0.05 0.14 0.13 0.09 0.07 0.07 0.04 0.03 0.05 0.04 0.02 0.00 0.00 0.00 0.00 0.00 0.00 0.00 0.00 0.00
0.34 0.42 0.55 0.80 1.04 1.10 1.08 0.83 0.84 1.35 1.78 0.57 0.25 0.11 0.09 0.18 0.12 0.02 0.00 0.05 0.09 0.12 0.16 0.22 0.19 0.18 0.17 0.25 0.09 0.06 0.03 0.04 0.07 0.16 0.05 0.07 0.03 0.00 0.00 0.00 0.00 0.00 0.00 0.00 0.00
0.45 0.56 0.70 1.20 1.31 1.01 1.21 1.17 1.49 1.87 1.43 0.23 0.15 0.04 0.05 0.15 0.12 0.03 0.01 0.15 0.17 0.14 0.38 0.45 0.24 0.31 0.19 0.28 0.09 0.09 0.02 0.04 0.08 0.22 0.34 0.07 0.08 0.01 0.00 0.00 0.00 0.00 0.00 0.00 0.00
0.65 0.70 0.87 1.02 0.98 0.68 1.02 1.74 2.17 2.05 0.87 0.37 0.19 0.10 0.14 0.11 0.16 0.18 0.07 0.16 0.34 0.50 0.47 0.28 0.18 0.30 0.19 0.17 0.16 0.10 0.14 0.14 0.22 0.34 0.53 0.34 0.10 0.02 0.00 0.00 0.00 0.00 0.00 0.00 0.00
0.90 0.85 1.10 0.91 0.90 0.82 1.20 2.08 2.23 1.07 0.47 0.38 0.22 0.23 0.13 0.07 0.15 0.20 0.18 0.25 0.89 0.80 0.79 0.88 0.59 0.48 0.23 0.36 0.50 0.41 0.60 0.81 0.73 0.78 0.36 0.07 0.24 0.11 0.00 0.00 0.00 0.00 0.00 0.00 0.00
0.81 1.05 1.19 0.86 0.84 1.48 1.42 1.60 1.30 0.40 0.38 0.27 0.18 0.25 0.31 0.12 0.19 0.16 0.33 0.19 0.49 0.42 0.61 0.78 0.66 0.52 0.30 0.46 0.78 0.60 0.54 0.78 0.39 0.30 0.13 0.05 0.07 0.03 0.00 0.00 0.00 0.00 0.00 0.00 0.00
1.20 1.29 1.60 1.14 1.07 1.62 1.74 1.25 0.92 0.46 0.27 0.25 0.29 0.30 0.31 0.14 0.19 0.17 0.20 0.14 0.17 0.17 0.44 0.47 0.52 0.31 0.19 0.22 0.52 0.68 0.73 0.48 0.51 0.22 0.32 0.10 0.02 0.00 0.00 0.00 0.00 0.00 0.00 0.00 0.00
1.75 1.67 1.75 1.01 1.11 1.72 1.82 0.91 0.71 0.63 0.34 0.18 0.17 0.08 0.06 0.09 0.20 0.12 0.09 0.05 0.09 0.03 0.19 0.33 0.57 0.53 0.49 0.41 0.59 0.55 0.35 0.54 1.09 0.49 0.20 0.11 0.06 0.00 0.00 0.00 0.00 0.00 0.00 0.00 0.00
1.75 2.02 1.61 1.28 1.61 2.08 1.49 0.68 0.54 0.42 0.25 0.19 0.06 0.06 0.02 0.03 0.19 0.05 0.04 0.03 0.05 0.02 0.13 0.44 0.62 0.63 0.88 0.76 0.54 0.56 0.62 0.51 0.57 0.29 0.14 0.06 0.08 0.01 0.00 0.00 0.02 0.01 0.01 0.01 0.01
1.62 1.96 1.32 1.97 2.32 1.52 0.75 0.72 0.64 0.37 0.19 0.17 0.07 0.02 0.01 0.01 0.12 0.05 0.03 0.02 0.01 0.03 0.16 0.38 0.56 0.70 0.54 0.20 0.16 0.24 0.26 0.20 0.77 0.39 0.27 0.17 0.06 0.01 0.01 0.00 0.02 0.03 0.03 0.02 0.01
1.64 1.54 2.21 1.38 1.21 0.74 0.65 0.80 0.53 0.18 0.18 0.21 0.05 0.01 0.00 0.01 0.02 0.01 0.02 0.00 0.00 0.01 0.15 0.29 0.74 0.75 0.69 0.48 0.48 0.60 0.33 0.28 0.62 1.13 0.62 0.30 0.07 0.00 0.01 0.01 0.01 0.01 0.03 0.01 0.00
1.27 1.67 3.09 2.02 0.53 0.52 0.80 0.89 0.70 0.24 0.18 0.23 0.08 0.04 0.04 0.02 0.00 0.00 0.04 0.00 0.00 0.01 0.18 0.66 0.60 0.74 0.73 0.73 0.79 0.55 0.30 0.48 1.00 1.35 0.39 0.17 0.03 0.01 0.01 0.03 0.02 0.02 0.03 0.06 0.02
0.75 0.62 0.82 0.85 0.41 0.23 0.65 0.82 0.82 0.65 0.43 0.27 0.13 0.04 0.05 0.02 0.02 0.00 0.01 0.00 0.00 0.01 0.21 0.73 0.94 1.21 0.74 0.38 0.93 0.53 0.29 0.37 0.87 0.61 0.57 0.17 0.07 0.02 0.01 0.04 0.08 0.07 0.11 0.04 0.02
0.50 0.30 0.15 0.06 0.04 0.05 0.37 0.84 0.89 0.76 0.60 0.31 0.14 0.05 0.05 0.03 0.01 0.00 0.00 0.00 0.00 0.01 0.11 0.47 0.79 0.96 0.56 0.17 0.33 0.34 0.15 0.20 0.19 0.31 0.41 0.17 0.22 0.05 0.02 0.11 0.28 0.16 0.21 0.07 0.03
0.54 0.26 0.10 0.11 0.06 0.04 0.09 0.39 0.63 0.63 0.49 0.27 0.18 0.16 0.04 0.02 0.01 0.01 0.00 0.00 0.00 0.01 0.10 0.28 0.45 0.78 0.63 0.37 0.24 0.42 0.26 0.15 0.14 0.20 0.33 0.30 0.19 0.07 0.07 0.27 0.29 0.30 0.30 0.07 0.01

GFSSW_prec_precacc_042.txt.gz
Total_Precipitation_Accumulation
0.05 0.05 0.07 0.06 0.05 0.06 0.05 0.05 0.05 0.06 0.10 0.11 0.13 0.12 0.22 0.29 0.26 0.11 0.02 0.00 0.00 0.00 0.00 0.00 0.00 0.00 0.00 0.00 0.00 0.00 0.00 0.00 0.00 0.00 0.00 0.00 0.00 0.00 0.00 0.00 0.00 0.00 0.00 0.00 0.00
0.05 0.04 0.05 0.07 0.07 0.06 0.06 0.05 0.04 0.05 0.07 0.06 0.04 0.07 0.11 0.12 0.17 0.16 0.01 0.01 0.02 0.01 0.00 0.00 0.00 0.01 0.00 0.00 0.00 0.00 0.00 0.00 0.00 0.00 0.00 0.00 0.00 0.00 0.00 0.00 0.00 0.00 0.00 0.00 0.00
0.05 0.05 0.05 0.07 0.09 0.10 0.07 0.06 0.05 0.05 0.06 0.12 0.08 0.04 0.10 0.05 0.08 0.03 0.00 0.02 0.16 0.19 0.01 0.00 0.01 0.05 0.04 0.00 0.00 0.00 0.00 0.00 0.00 0.00 0.00 0.00 0.00 0.00 0.00 0.00 0.00 0.00 0.00 0.00 0.00
0.08 0.09 0.10 0.09 0.10 0.11 0.10 0.06 0.07 0.09 0.10 0.11 0.13 0.08 0.10 0.06 0.03 0.01 0.00 0.02 0.13 0.35 0.04 0.01 0.02 0.04 0.04 0.01 0.00 0.00 0.00 0.00 0.00 0.00 0.00 0.00 0.00 0.00 0.00 0.00 0.00 0.00 0.00 0.00 0.00
0.16 0.16 0.13 0.11 0.11 0.11 0.09 0.07 0.11 0.11 0.11 0.09 0.21 0.15 0.08 0.06 0.02 0.00 0.00 0.03 0.08 0.24 0.11 0.04 0.04 0.02 0.02 0.00 0.01 0.00 0.00 0.00 0.00 0.00 0.00 0.00 0.00 0.00 0.00 0.00 0.00 0.00 0.00 0.00 0.00
0.14 0.14 0.12 0.11 0.10 0.11 0.09 0.10 0.10 0.15 0.16 0.18 0.25 0.20 0.04 0.03 0.00 0.00 0.00 0.03 0.05 0.09 0.14 0.12 0.05 0.01 0.01 0.00 0.02 0.00 0.00 0.00 0.00 0.00 0.00 0.00 0.00 0.00 0.00 0.00 0.00 0.00 0.00 0.00 0.00
0.16 0.16 0.13 0.13 0.13 0.11 0.10 0.11 0.13 0.13 0.17 0.28 0.42 0.19 0.05 0.00 0.00 0.00 0.00 0.02 0.02 0.05 0.13 0.12 0.08 0.15 0.09 0.06 0.00 0.01 0.01 0.00 0.00 0.00 0.00 0.00 0.00 0.00 0.00 0.00 0.00 0.00 0.00 0.00 0.00
0.19 0.19 0.17 0.19 0.20 0.15 0.14 0.17 0.16 0.19 0.26 0.32 0.45 0.29 0.06 0.00 0.00 0.00 0.00 0.00 0.00 0.01 0.07 0.22 0.22 0.16 0.14 0.09 0.04 0.05 0.06 0.02 0.00 0.00 0.00 0.00 0.00 0.00 0.00 0.00 0.00 0.00 0.00 0.00 0.00
0.26 0.21 0.19 0.26 0.27 0.22 0.19 0.29 0.44 0.44 0.52 0.54 0.52 0.22 0.03 0.00 0.00 0.00 0.00 0.00 0.00 0.00 0.03 0.24 0.39 0.25 0.13 0.16 0.16 0.11 0.04 0.01 0.00 0.00 0.00 0.00 0.00 0.00 0.00 0.00 0.00 0.00 0.00 0.00 0.00
0.27 0.24 0.27 0.28 0.30 0.32 0.41 0.51 0.72 0.82 0.76 0.85 0.73 0.24 0.01 0.00 0.00 0.00 0.00 0.00 0.04 0.12 0.17 0.30 0.38 0.40 0.18 0.22 0.15 0.04 0.02 0.01 0.00 0.00 0.00 0.00 0.00 0.00 0.00 0.00 0.00 0.00 0.00 0.00 0.00
0.30 0.33 0.33 0.37 0.49 0.51 0.80 1.49 1.27 1.14 0.88 0.60 0.36 0.08 0.00 0.00 0.00 0.00 0.00 0.00 0.04 0.19 0.10 0.18 0.25 0.25 0.15 0.05 0.03 0.02 0.05 0.02 0.00 0.00 0.01 0.00 0.00 0.00 0.00 0.00 0.00 0.00 0.00 0.00 0.00
0.30 0.28 0.34 0.47 0.54 0.80 1.28 1.18 0.67 0.61 0.70 0.28 0.19 0.03 0.00 0.02 0.03 0.01 0.00 0.01 0.05 0.15 0.11 0.26 0.21 0.04 0.10 0.06 0.05 0.06 0.06 0.04 0.01 0.02 0.04 0.00 0.00 0.00 0.00 0.00 0.00 0.00 0.00 0.00 0.00
0.32 0.31 0.41 0.53 0.76 1.00 1.08 0.70 0.36 0.71 1.16 0.57 0.35 0.11 0.01 0.02 0.03 0.07 0.00 0.03 0.05 0.13 0.19 0.22 0.18 0.05 0.14 0.13 0.09 0.07 0.07 0.04 0.03 0.05 0.04 0.02 0.00 0.00 0.00 0.00 0.00 0.00 0.00 0.00 0.00
0.34 0.42 0.56 0.83 1.07 1.12 1.11 0.84 0.84 1.36 1.84 0.62 0.45 0.18 0.09 0.18 0.12 0.02 0.00 0.05 0.09 0.12 0.16 0.22 0.19 0.18 0.17 0.25 0.09 0.06 0.03 0.04 0.07 0.16 0.05 0.07 0.03 0.00 0.00 0.00 0.00 0.00 0.00 0.00 0.00
0.45 0.56 0.70 1.25 1.37 1.04 1.26 1.20 1.51 1.89 1.50 0.29 0.29 0.11 0.05 0.15 0.12 0.04 0.01 0.15 0.17 0.14 0.38 0.45 0.24 0.31 0.19 0.28 0.09 0.09 0.02 0.04 0.08 0.22 0.34 0.07 0.08 0.01 0.00 0.00 0.00 0.00 0.00 0.00 0.00
0.66 0.71 0.92 1.08 1.00 0.70 1.04 1.78 2.19 2.12 1.04 0.56 0.35 0.17 0.15 0.11 0.16 0.18 0.07 0.16 0.34 0.50 0.47 0.28 0.18 0.30 0.19 0.17 0.16 0.10 0.14 0.14 0.22 0.34 0.53 0.34 0.10 0.02 0.00 0.00 0.00 0.00 0.00 0.00 0.00
0.91 0.87 1.19 0.98 0.97 0.83 1.20 2.11 2.25 1.15 0.72 0.55 0.31 0.24 0.13 0.08 0.16 0.21 0.19 0.25 0.89 0.80 0.80 0.88 0.59 0.48 0.23 0.36 0.50 0.41 0.60 0.81 0.73 0.78 0.36 0.07 0.24 0.11 0.00 0.00 0.00 0.00 0.00 0.00 0.00
0.83 1.11 1.23 0.91 0.86 1.48 1.42 1.61 1.34 0.57 0.57 0.34 0.18 0.26 0.32 0.12 0.19 0.16 0.33 0.19 0.49 0.42 0.61 0.78 0.66 0.52 0.30 0.46 0.78 0.60 0.54 0.78 0.39 0.30 0.13 0.05 0.07 0.03 0.00 0.00 0.00 0.00 0.00 0.00 0.00
1.21 1.31 1.62 1.16 1.07 1.62 1.75 1.28 1.04 0.72 0.43 0.29 0.31 0.32 0.34 0.14 0.19 0.18 0.20 0.14 0.17 0.17 0.44 0.47 0.52 0.31 0.19 0.22 0.52 0.68 0.73 0.48 0.51 0.22 0.32 0.10 0.02 0.00 0.00 0.00 0.00 0.00 0.00 0.00 0.00
1.75 1.70 1.78 1.04 1.12 1.74 1.88 0.99 0.79 0.81 0.40 0.19 0.22 0.10 0.07 0.09 0.21 0.13 0.09 0.05 0.09 0.03 0.19 0.33 0.57 0.53 0.49 0.41 0.59 0.55 0.35 0.54 1.09 0.49 0.20 0.11 0.06 0.00 0.00 0.00 0.00 0.00 0.00 0.00 0.00
1.75 2.03 1.62 1.28 1.61 2.09 1.52 0.77 0.63 0.50 0.35 0.21 0.06 0.06 0.02 0.03 0.19 0.05 0.04 0.03 0.05 0.02 0.13 0.44 0.62 0.63 0.88 0.76 0.54 0.56 0.62 0.51 0.57 0.29 0.14 0.06 0.08 0.01 0.00 0.00 0.02 0.01 0.01 0.01 0.01
1.62 1.96 1.32 1.97 2.32 1.52 0.78 0.82 0.82 0.51 0.20 0.18 0.07 0.02 0.01 0.01 0.12 0.05 0.03 0.02 0.01 0.03 0.16 0.38 0.56 0.70 0.54 0.20 0.16 0.24 0.26 0.20 0.77 0.39 0.27 0.17 0.06 0.01 0.01 0.00 0.02 0.03 0.03 0.02 0.01
1.64 1.54 2.21 1.38 1.21 0.75 0.67 0.85 0.58 0.19 0.19 0.21 0.05 0.01 0.00 0.01 0.02 0.01 0.02 0.00 0.00 0.01 0.15 0.29 0.74 0.75 0.69 0.48 0.48 0.60 0.33 0.28 0.62 1.13 0.62 0.31 0.07 0.00 0.01 0.01 0.01 0.01 0.03 0.01 0.00
1.27 1.67 3.09 2.02 0.53 0.53 0.95 1.11 0.78 0.25 0.19 0.23 0.08 0.04 0.04 0.02 0.00 0.00 0.04 0.00 0.00 0.01 0.18 0.66 0.60 0.74 0.73 0.73 0.79 0.55 0.30 0.48 1.00 1.36 0.39 0.17 0.03 0.01 0.01 0.03 0.02 0.03 0.04 0.06 0.02
0.75 0.62 0.82 0.85 0.42 0.23 0.67 0.83 0.82 0.66 0.43 0.27 0.13 0.04 0.05 0.02 0.02 0.00 0.01 0.00 0.00 0.01 0.21 0.73 0.94 1.21 0.74 0.38 0.93 0.53 0.29 0.37 0.87 0.61 0.58 0.17 0.07 0.02 0.01 0.04 0.09 0.08 0.11 0.06 0.03
0.50 0.30 0.15 0.06 0.04 0.05 0.37 0.84 0.89 0.76 0.60 0.31 0.14 0.05 0.05 0.03 0.01 0.00 0.00 0.00 0.00 0.01 0.11 0.47 0.79 0.96 0.56 0.17 0.33 0.34 0.15 0.20 0.19 0.31 0.41 0.17 0.22 0.05 0.02 0.12 0.29 0.17 0.22 0.11 0.06
0.54 0.26 0.10 0.11 0.06 0.04 0.09 0.39 0.63 0.63 0.49 0.27 0.18 0.16 0.04 0.02 0.01 0.01 0.00 0.00 0.00 0.01 0.10 0.28 0.45 0.78 0.63 0.37 0.24 0.42 0.26 0.15 0.14 0.20 0.33 0.31 0.19 0.07 0.07 0.29 0.31 0.31 0.30 0.09 0.03

GFSSW_prec_precacc_045.txt.gz
Total_Precipitation_Accumulation
0.05 0.06 0.07 0.06 0.05 0.06 0.05 0.05 0.05 0.06 0.11 0.19 0.20 0.14 0.22 0.29 0.26 0.11 0.03 0.00 0.00 0.00 0.00 0.00 0.00 0.00 0.00 0.00 0.00 0.00 0.00 0.00 0.00 0.00 0.00 0.00 0.00 0.00 0.00 0.00 0.00 0.00 0.00 0.00 0.00
0.05 0.05 0.06 0.08 0.08 0.07 0.06 0.05 0.04 0.05 0.07 0.08 0.12 0.12 0.12 0.13 0.17 0.16 0.01 0.01 0.02 0.01 0.00 0.00 0.00 0.01 0.00 0.00 0.00 0.00 0.00 0.00 0.00 0.00 0.00 0.00 0.00 0.00 0.00 0.00 0.00 0.00 0.00 0.00 0.00
0.07 0.07 0.08 0.10 0.12 0.11 0.08 0.06 0.05 0.05 0.06 0.12 0.17 0.14 0.12 0.05 0.09 0.03 0.00 0.02 0.16 0.19 0.01 0.00 0.01 0.05 0.04 0.00 0.00 0.00 0.00 0.00 0.00 0.00 0.00 0.00 0.00 0.00 0.00 0.00 0.00 0.00 0.00 0.00 0.00
0.11 0.12 0.12 0.12 0.12 0.12 0.11 0.07 0.07 0.09 0.10 0.11 0.19 0.39 0.20 0.06 0.03 0.01 0.00 0.02 0.13 0.36 0.05 0.01 0.02 0.04 0.04 0.01 0.00 0.00 0.00 0.00 0.00 0.00 0.00 0.00 0.00 0.00 0.00 0.00 0.00 0.00 0.00 0.00 0.00
0.17 0.17 0.15 0.13 0.14 0.14 0.11 0.08 0.11 0.11 0.11 0.09 0.22 0.36 0.23 0.07 0.02 0.00 0.00 0.03 0.08 0.27 0.12 0.04 0.04 0.02 0.02 0.00 0.01 0.00 0.00 0.00 0.00 0.00 0.00 0.00 0.00 0.00 0.00 0.00 0.00 0.00 0.00 0.00 0.00
0.16 0.15 0.14 0.17 0.15 0.15 0.10 0.11 0.11 0.15 0.16 0.18 0.25 0.46 0.14 0.03 0.00 0.00 0.01 0.06 0.06 0.11 0.15 0.12 0.05 0.01 0.01 0.00 0.02 0.00 0.00 0.00 0.00 0.00 0.00 0.00 0.00 0.00 0.00 0.00 0.00 0.00 0.00 0.00 0.00
0.18 0.17 0.15 0.17 0.17 0.14 0.11 0.13 0.15 0.13 0.17 0.28 0.43 0.35 0.17 0.02 0.00 0.00 0.01 0.08 0.11 0.11 0.13 0.12 0.08 0.15 0.09 0.06 0.00 0.01 0.01 0.00 0.00 0.00 0.00 0.00 0.00 0.00 0.00 0.00 0.00 0.00 0.00 0.00 0.00
0.22 0.20 0.19 0.23 0.23 0.18 0.15 0.18 0.17 0.19 0.26 0.32 0.46 0.48 0.14 0.00 0.00 0.00 0.00 0.01 0.08 0.14 0.14 0.24 0.24 0.17 0.14 0.09 0.04 0.05 0.06 0.02 0.00 0.00 0.00 0.00 0.00 0.00 0.00 0.00 0.00 0.00 0.00 0.00 0.00
0.29 0.22 0.21 0.29 0.31 0.24 0.20 0.29 0.44 0.45 0.52 0.54 0.54 0.36 0.08 0.00 0.00 0.00 0.00 0.00 0.01 0.03 0.09 0.32 0.46 0.27 0.13 0.16 0.16 0.11 0.04 0.01 0.00 0.00 0.00 0.00 0.00 0.00 0.00 0.00 0.00 0.00 0.00 0.00 0.00
0.29 0.25 0.28 0.29 0.31 0.35 0.42 0.52 0.72 0.82 0.77 0.85 0.76 0.43 0.04 0.00 0.00 0.00 0.00 0.00 0.04 0.15 0.23 0.38 0.51 0.44 0.19 0.22 0.15 0.04 0.02 0.01 0.00 0.00 0.00 0.00 0.00 0.00 0.00 0.00 0.00 0.00 0.00 0.00 0.00
0.31 0.33 0.34 0.37 0.50 0.53 0.82 1.49 1.27 1.15 0.88 0.60 0.39 0.15 0.01 0.00 0.00 0.00 0.00 0.00 0.06 0.28 0.12 0.22 0.37 0.36 0.18 0.05 0.03 0.02 0.05 0.02 0.00 0.00 0.01 0.00 0.00 0.00 0.00 0.00 0.00 0.00 0.00 0.00 0.00
0.31 0.28 0.35 0.47 0.57 0.84 1.30 1.18 0.67 0.61 0.70 0.29 0.21 0.08 0.01 0.02 0.03 0.01 0.00 0.01 0.07 0.18 0.13 0.28 0.24 0.09 0.16 0.09 0.06 0.06 0.06 0.04 0.01 0.02 0.04 0.00 0.00 0.00 0.00 0.00 0.00 0.00 0.00 0.00 0.00
0.32 0.31 0.41 0.56 0.78 1.01 1.08 0.70 0.36 0.71 1.16 0.57 0.41 0.24 0.04 0.02 0.03 0.07 0.00 0.03 0.05 0.15 0.20 0.22 0.19 0.06 0.16 0.13 0.11 0.07 0.07 0.04 0.03 0.05 0.04 0.02 0.00 0.00 0.00 0.00 0.00 0.00 0.00 0.00 0.00
0.35 0.42 0.56 0.84 1.09 1.14 1.15 0.85 0.84 1.36 1.84 0.64 0.57 0.37 0.12 0.18 0.12 0.02 0.00 0.05 0.10 0.14 0.17 0.22 0.19 0.19 0.17 0.25 0.09 0.06 0.03 0.04 0.07 0.16 0.05 0.07 0.03 0.00 0.00 0.00 0.00 0.00 0.00 0.00 0.00
0.47 0.60 0.72 1.31 1.44 1.11 1.35 1.22 1.51 1.90 1.50 0.30 0.42 0.29 0.09 0.15 0.12 0.05 0.03 0.15 0.17 0.14 0.38 0.45 0.24 0.31 0.19 0.28 0.09 0.09 0.02 0.04 0.08 0.22 0.34 0.07 0.08 0.01 0.00 0.00 0.00 0.00 0.00 0.00 0.00
0.73 0.78 0.99 1.19 1.11 0.73 1.06 1.79 2.19 2.14 1.05 0.61 0.54 0.40 0.19 0.12 0.16 0.19 0.08 0.16 0.34 0.50 0.47 0.28 0.18 0.30 0.19 0.17 0.16 0.10 0.14 0.14 0.22 0.34 0.53 0.34 0.10 0.02 0.00 0.00 0.00 0.00 0.00 0.00 0.00
0.95 0.92 1.36 1.03 1.17 0.86 1.21 2.13 2.25 1.17 0.79 0.66 0.44 0.29 0.14 0.09 0.16 0.22 0.19 0.25 0.89 0.81 0.81 0.88 0.59 0.48 0.23 0.36 0.50 0.41 0.60 0.81 0.73 0.78 0.36 0.07 0.24 0.11 0.00 0.00 0.00 0.00 0.00 0.00 0.00
0.84 1.12 1.23 0.92 0.86 1.49 1.42 1.61 1.38 0.66 0.66 0.42 0.23 0.26 0.32 0.13 0.21 0.17 0.33 0.19 0.49 0.42 0.61 0.78 0.66 0.52 0.30 0.46 0.78 0.60 0.54 0.78 0.39 0.30 0.13 0.05 0.07 0.03 0.00 0.00 0.00 0.00 0.00 0.00 0.00
1.21 1.31 1.62 1.16 1.07 1.63 1.76 1.33 1.18 0.92 0.69 0.34 0.34 0.34 0.38 0.15 0.21 0.18 0.20 0.14 0.17 0.17 0.44 0.47 0.52 0.31 0.19 0.22 0.52 0.68 0.73 0.48 0.51 0.22 0.32 0.10 0.02 0.00 0.00 0.00 0.00 0.00 0.00 0.00 0.00
1.75 1.70 1.78 1.04 1.12 1.75 1.92 1.12 1.05 1.04 0.47 0.20 0.27 0.13 0.08 0.09 0.21 0.13 0.09 0.05 0.09 0.03 0.19 0.33 0.57 0.53 0.49 0.41 0.59 0.55 0.35 0.54 1.09 0.49 0.20 0.11 0.06 0.00 0.00 0.00 0.00 0.00 0.00 0.00 0.00
1.75 2.03 1.62 1.28 1.61 2.09 1.54 0.87 0.75 0.59 0.37 0.21 0.06 0.06 0.02 0.03 0.19 0.05 0.04 0.03 0.05 0.02 0.13 0.44 0.62 0.63 0.88 0.76 0.54 0.56 0.62 0.51 0.57 0.29 0.14 0.06 0.08 0.01 0.00 0.00 0.02 0.01 0.01 0.01 0.01
1.62 1.96 1.32 1.97 2.32 1.52 0.81 0.90 0.92 0.53 0.20 0.18 0.07 0.02 0.01 0.01 0.12 0.05 0.03 0.02 0.01 0.03 0.16 0.38 0.56 0.70 0.54 0.20 0.16 0.24 0.26 0.20 0.77 0.39 0.27 0.17 0.06 0.01 0.01 0.00 0.02 0.03 0.03 0.02 0.01
1.64 1.54 2.21 1.38 1.21 0.75 0.69 0.85 0.59 0.19 0.19 0.21 0.05 0.01 0.00 0.01 0.02 0.01 0.02 0.00 0.00 0.01 0.15 0.29 0.74 0.75 0.69 0.48 0.48 0.60 0.33 0.28 0.62 1.13 0.62 0.31 0.07 0.00 0.01 0.01 0.01 0.01 0.03 0.01 0.00
1.27 1.67 3.09 2.02 0.54 0.56 1.00 1.12 0.78 0.25 0.19 0.23 0.08 0.04 0.04 0.02 0.00 0.00 0.04 0.00 0.00 0.01 0.18 0.66 0.60 0.74 0.73 0.73 0.79 0.55 0.30 0.48 1.00 1.36 0.39 0.17 0.03 0.01 0.01 0.03 0.02 0.03 0.04 0.06 0.02
0.75 0.62 0.82 0.85 0.42 0.23 0.67 0.83 0.82 0.66 0.43 0.27 0.13 0.04 0.05 0.02 0.02 0.00 0.01 0.00 0.00 0.01 0.21 0.73 0.94 1.21 0.74 0.38 0.93 0.53 0.29 0.37 0.87 0.61 0.58 0.17 0.07 0.02 0.01 0.04 0.10 0.09 0.11 0.06 0.03
0.50 0.30 0.15 0.06 0.04 0.05 0.37 0.84 0.89 0.76 0.60 0.31 0.14 0.05 0.05 0.03 0.01 0.00 0.00 0.00 0.00 0.01 0.11 0.47 0.79 0.96 0.56 0.17 0.33 0.34 0.15 0.20 0.19 0.31 0.41 0.17 0.22 0.05 0.02 0.12 0.29 0.17 0.22 0.11 0.06
0.54 0.26 0.11 0.11 0.06 0.04 0.09 0.39 0.63 0.63 0.49 0.27 0.18 0.16 0.04 0.02 0.01 0.01 0.00 0.00 0.00 0.01 0.10 0.28 0.45 0.78 0.63 0.37 0.24 0.42 0.26 0.15 0.14 0.20 0.33 0.31 0.19 0.07 0.07 0.29 0.31 0.31 0.30 0.09 0.03

GFSSW_prec_precacc_048.txt.gz
Total_Precipitation_Accumulation
0.07 0.07 0.08 0.08 0.06 0.07 0.06 0.05 0.05 0.06 0.11 0.19 0.25 0.26 0.31 0.30 0.26 0.12 0.03 0.00 0.00 0.00 0.00 0.00 0.00 0.00 0.00 0.00 0.00 0.00 0.00 0.00 0.00 0.00 0.00 0.00 0.00 0.00 0.00 0.00 0.00 0.00 0.00 0.00 0.00
0.06 0.06 0.08 0.10 0.11 0.10 0.10 0.07 0.05 0.05 0.07 0.08 0.12 0.19 0.26 0.18 0.18 0.16 0.01 0.01 0.02 0.01 0.00 0.00 0.00 0.01 0.00 0.00 0.00 0.00 0.00 0.00 0.00 0.00 0.00 0.00 0.00 0.00 0.00 0.00 0.00 0.00 0.00 0.00 0.00
0.08 0.08 0.09 0.11 0.14 0.14 0.10 0.09 0.07 0.05 0.06 0.12 0.17 0.16 0.24 0.16 0.09 0.03 0.00 0.02 0.16 0.19 0.02 0.00 0.01 0.05 0.04 0.00 0.00 0.00 0.00 0.00 0.00 0.00 0.00 0.00 0.00 0.00 0.00 0.00 0.00 0.00 0.00 0.00 0.00
0.12 0.13 0.14 0.12 0.13 0.15 0.14 0.10 0.09 0.09 0.10 0.11 0.19 0.39 0.45 0.17 0.04 0.01 0.00 0.02 0.13 0.36 0.07 0.02 0.02 0.04 0.04 0.01 0.00 0.00 0.00 0.00 0.00 0.00 0.00 0.00 0.00 0.00 0.00 0.00 0.00 0.00 0.00 0.00 0.00
0.18 0.19 0.16 0.14 0.16 0.17 0.15 0.11 0.13 0.12 0.11 0.09 0.22 0.37 0.48 0.24 0.03 0.01 0.00 0.03 0.08 0.28 0.13 0.06 0.04 0.02 0.02 0.00 0.01 0.00 0.00 0.00 0.00 0.00 0.00 0.00 0.00 0.00 0.00 0.00 0.00 0.00 0.00 0.00 0.00
0.17 0.16 0.15 0.18 0.18 0.18 0.15 0.16 0.15 0.17 0.17 0.18 0.26 0.47 0.35 0.09 0.01 0.00 0.01 0.06 0.06 0.12 0.16 0.13 0.05 0.01 0.01 0.00 0.02 0.00 0.00 0.00 0.00 0.00 0.00 0.00 0.00 0.00 0.00 0.00 0.00 0.00 0.00 0.00 0.00
0.20 0.18 0.16 0.19 0.20 0.16 0.14 0.20 0.22 0.14 0.18 0.29 0.44 0.39 0.30 0.07 0.00 0.00 0.02 0.13 0.13 0.12 0.13 0.12 0.08 0.15 0.09 0.06 0.00 0.01 0.01 0.00 0.00 0.00 0.00 0.00 0.00 0.00 0.00 0.00 0.00 0.00 0.00 0.00 0.00
0.23 0.22 0.21 0.24 0.24 0.20 0.18 0.22 0.20 0.20 0.26 0.32 0.47 0.56 0.20 0.01 0.02 0.00 0.00 0.10 0.20 0.29 0.23 0.27 0.24 0.17 0.14 0.09 0.04 0.05 0.06 0.02 0.00 0.00 0.00 0.00 0.00 0.00 0.00 0.00 0.00 0.00 0.00 0.00 0.00
0.31 0.24 0.22 0.30 0.32 0.25 0.22 0.30 0.44 0.47 0.54 0.55 0.55 0.47 0.15 0.00 0.03 0.00 0.00 0.06 0.11 0.18 0.24 0.45 0.53 0.28 0.13 0.16 0.16 0.11 0.04 0.01 0.00 0.00 0.00 0.00 0.00 0.00 0.00 0.00 0.00 0.00 0.00 0.00 0.00
0.30 0.27 0.29 0.29 0.31 0.35 0.44 0.52 0.72 0.82 0.77 0.87 0.78 0.52 0.10 0.00 0.02 0.00 0.00 0.02 0.07 0.23 0.38 0.47 0.60 0.47 0.20 0.22 0.15 0.04 0.02 0.01 0.00 0.00 0.00 0.00 0.00 0.00 0.00 0.00 0.00 0.00 0.00 0.00 0.00
0.34 0.35 0.34 0.38 0.51 0.56 0.85 1.49 1.27 1.17 0.90 0.60 0.39 0.18 0.03 0.01 0.03 0.01 0.00 0.01 0.10 0.34 0.43 0.46 0.43 0.40 0.18 0.05 0.03 0.02 0.05 0.02 0.00 0.00 0.01 0.00 0.00 0.00 0.00 0.00 0.00 0.00 0.00 0.00 0.00
0.32 0.29 0.35 0.48 0.59 0.89 1.32 1.18 0.67 0.61 0.70 0.29 0.21 0.09 0.03 0.03 0.08 0.03 0.00 0.01 0.09 0.21 0.29 0.62 0.28 0.17 0.18 0.09 0.06 0.06 0.06 0.04 0.01 0.02 0.04 0.00 0.00 0.00 0.00 0.00 0.00 0.00 0.00 0.00 0.00
0.35 0.32 0.42 0.56 0.78 1.01 1.08 0.70 0.36 0.72 1.17 0.58 0.42 0.26 0.08 0.05 0.08 0.07 0.00 0.03 0.07 0.18 0.22 0.29 0.21 0.09 0.24 0.17 0.14 0.08 0.07 0.04 0.03 0.05 0.04 0.02 0.00 0.00 0.00 0.00 0.00 0.00 0.00 0.00 0.00
0.39 0.46 0.60 0.87 1.10 1.15 1.18 0.91 0.85 1.36 1.84 0.64 0.58 0.43 0.20 0.20 0.20 0.02 0.00 0.06 0.12 0.18 0.20 0.23 0.19 0.22 0.25 0.30 0.12 0.09 0.03 0.04 0.07 0.16 0.05 0.07 0.03 0.00 0.00 0.00 0.00 0.00 0.00 0.00 0.00
0.49 0.64 0.82 1.38 1.49 1.18 1.39 1.22 1.51 1.90 1.50 0.30 0.45 0.46 0.19 0.16 0.17 0.06 0.04 0.16 0.18 0.15 0.41 0.45 0.25 0.31 0.27 0.30 0.10 0.09 0.02 0.04 0.08 0.22 0.34 0.07 0.08 0.01 0.00 0.00 0.00 0.00 0.00 0.00 0.00
0.74 0.81 1.02 1.23 1.24 0.80 1.06 1.79 2.19 2.14 1.06 0.63 0.60 0.70 0.25 0.12 0.17 0.20 0.10 0.17 0.34 0.51 0.48 0.28 0.18 0.30 0.19 0.17 0.16 0.10 0.14 0.14 0.22 0.34 0.53 0.34 0.10 0.02 0.00 0.00 0.00 0.00 0.00 0.00 0.00
0.96 0.92 1.36 1.04 1.19 0.86 1.22 2.13 2.26 1.18 0.82 0.75 0.64 0.48 0.16 0.10 0.18 0.24 0.20 0.25 0.90 0.82 0.82 0.88 0.59 0.48 0.23 0.36 0.50 0.41 0.60 0.81 0.73 0.78 0.36 0.07 0.24 0.11 0.00 0.00 0.00 0.00 0.00 0.00 0.00
0.84 1.12 1.23 0.92 0.86 1.49 1.42 1.61 1.39 0.67 0.80 0.57 0.45 0.33 0.37 0.15 0.23 0.20 0.34 0.19 0.49 0.42 0.61 0.78 0.66 0.52 0.30 0.46 0.78 0.60 0.54 0.78 0.39 0.30 0.13 0.05 0.07 0.03 0.00 0.00 0.00 0.00 0.00 0.00 0.00
1.21 1.31 1.62 1.16 1.07 1.63 1.76 1.33 1.19 1.00 0.89 0.58 0.41 0.39 0.42 0.15 0.23 0.23 0.20 0.14 0.17 0.17 0.44 0.47 0.52 0.31 0.19 0.22 0.52 0.68 0.73 0.48 0.51 0.22 0.32 0.10 0.02 0.00 0.00 0.00 0.00 0.00 0.00 0.00 0.00
1.75 1.70 1.78 1.04 1.12 1.75 1.92 1.16 1.10 1.12 0.55 0.22 0.31 0.16 0.09 0.11 0.22 0.14 0.10 0.05 0.09 0.03 0.19 0.33 0.57 0.53 0.49 0.41 0.59 0.55 0.35 0.54 1.09 0.49 0.20 0.11 0.06 0.00 0.00 0.00 0.00 0.00 0.00 0.00 0.00
1.75 2.03 1.62 1.28 1.61 2.09 1.55 0.93 0.85 0.64 0.39 0.21 0.06 0.06 0.02 0.03 0.19 0.05 0.04 0.03 0.05 0.02 0.13 0.44 0.62 0.63 0.88 0.76 0.54 0.56 0.62 0.51 0.57 0.29 0.14 0.06 0.08 0.01 0.00 0.00 0.02 0.01 0.01 0.01 0.01
1.62 1.96 1.32 1.97 2.32 1.52 0.81 0.90 0.92 0.53 0.20 0.18 0.07 0.02 0.01 0.01 0.12 0.05 0.03 0.02 0.01 0.03 0.16 0.38 0.56 0.70 0.54 0.20 0.16 0.24 0.26 0.20 0.77 0.39 0.27 0.17 0.06 0.01 0.01 0.00 0.02 0.03 0.03 0.02 0.01
1.64 1.54 2.21 1.38 1.22 0.75 0.69 0.85 0.59 0.19 0.19 0.21 0.05 0.01 0.00 0.01 0.02 0.01 0.02 0.00 0.00 0.01 0.15 0.29 0.74 0.75 0.69 0.48 0.48 0.60 0.33 0.28 0.62 1.13 0.62 0.31 0.07 0.00 0.01 0.01 0.01 0.01 0.03 0.01 0.00
1.27 1.67 3.09 2.02 0.54 0.57 1.00 1.13 0.78 0.25 0.19 0.23 0.08 0.04 0.04 0.02 0.00 0.00 0.04 0.00 0.00 0.01 0.18 0.66 0.60 0.74 0.73 0.73 0.79 0.55 0.30 0.48 1.00 1.36 0.39 0.17 0.03 0.01 0.01 0.03 0.02 0.03 0.04 0.06 0.02
0.75 0.62 0.82 0.85 0.42 0.23 0.67 0.83 0.82 0.66 0.43 0.27 0.13 0.04 0.05 0.02 0.02 0.00 0.01 0.00 0.00 0.01 0.21 0.73 0.94 1.21 0.74 0.38 0.93 0.53 0.29 0.37 0.87 0.61 0.58 0.17 0.07 0.02 0.01 0.04 0.10 0.09 0.11 0.06 0.03
0.50 0.30 0.15 0.06 0.04 0.05 0.37 0.84 0.89 0.76 0.60 0.31 0.14 0.05 0.05 0.03 0.01 0.00 0.00 0.00 0.00 0.01 0.11 0.47 0.79 0.96 0.56 0.17 0.33 0.34 0.15 0.20 0.19 0.31 0.41 0.17 0.22 0.05 0.02 0.12 0.29 0.17 0.22 0.11 0.06
0.54 0.26 0.11 0.11 0.06 0.04 0.09 0.39 0.63 0.63 0.49 0.27 0.18 0.16 0.04 0.02 0.01 0.01 0.00 0.00 0.00 0.01 0.10 0.28 0.45 0.78 0.63 0.37 0.24 0.42 0.26 0.15 0.14 0.20 0.33 0.31 0.19 0.07 0.07 0.29 0.31 0.31 0.30 0.09 0.03

GFSSW_prec_precacc_051.txt.gz
Total_Precipitation_Accumulation
0.07 0.07 0.09 0.09 0.08 0.09 0.08 0.08 0.07 0.07 0.12 0.19 0.25 0.27 0.36 0.40 0.31 0.13 0.04 0.00 0.00 0.00 0.00 0.00 0.00 0.00 0.00 0.00 0.00 0.00 0.00 0.00 0.00 0.00 0.00 0.00 0.00 0.00 0.00 0.00 0.00 0.00 0.00 0.00 0.00
0.07 0.08 0.10 0.11 0.11 0.11 0.11 0.09 0.08 0.07 0.08 0.08 0.12 0.19 0.29 0.29 0.22 0.17 0.01 0.01 0.02 0.01 0.00 0.00 0.00 0.01 0.00 0.00 0.00 0.00 0.00 0.00 0.00 0.00 0.00 0.00 0.00 0.00 0.00 0.00 0.00 0.00 0.00 0.00 0.00
0.09 0.09 0.10 0.13 0.15 0.15 0.11 0.10 0.10 0.09 0.08 0.12 0.17 0.16 0.25 0.27 0.17 0.03 0.00 0.02 0.16 0.19 0.03 0.01 0.01 0.06 0.04 0.00 0.00 0.00 0.00 0.00 0.00 0.00 0.00 0.00 0.00 0.00 0.00 0.00 0.00 0.00 0.00 0.00 0.00
0.12 0.13 0.15 0.13 0.14 0.17 0.15 0.11 0.11 0.14 0.14 0.12 0.19 0.39 0.45 0.24 0.14 0.02 0.02 0.02 0.13 0.36 0.09 0.03 0.02 0.05 0.04 0.01 0.00 0.00 0.00 0.00 0.00 0.00 0.00 0.00 0.00 0.00 0.00 0.00 0.00 0.00 0.00 0.00 0.00
0.19 0.20 0.17 0.15 0.18 0.18 0.16 0.12 0.18 0.16 0.13 0.10 0.23 0.37 0.52 0.33 0.06 0.04 0.01 0.04 0.08 0.28 0.14 0.07 0.04 0.02 0.02 0.00 0.01 0.00 0.00 0.00 0.00 0.00 0.00 0.00 0.00 0.00 0.00 0.00 0.00 0.00 0.00 0.00 0.00
0.18 0.18 0.16 0.19 0.18 0.19 0.15 0.19 0.17 0.18 0.18 0.21 0.29 0.50 0.39 0.16 0.02 0.02 0.01 0.07 0.06 0.12 0.16 0.14 0.05 0.01 0.01 0.00 0.02 0.00 0.00 0.00 0.00 0.00 0.00 0.00 0.00 0.00 0.00 0.00 0.00 0.00 0.00 0.00 0.00
0.22 0.19 0.18 0.20 0.20 0.17 0.17 0.25 0.23 0.15 0.20 0.31 0.47 0.43 0.34 0.10 0.00 0.01 0.02 0.15 0.14 0.13 0.14 0.14 0.08 0.15 0.09 0.06 0.00 0.01 0.01 0.00 0.00 0.00 0.00 0.00 0.00 0.00 0.00 0.00 0.00 0.00 0.00 0.00 0.00
0.26 0.24 0.23 0.26 0.25 0.21 0.20 0.23 0.21 0.24 0.26 0.34 0.48 0.60 0.22 0.02 0.03 0.00 0.02 0.15 0.25 0.38 0.28 0.33 0.24 0.17 0.14 0.09 0.04 0.05 0.06 0.02 0.00 0.00 0.00 0.00 0.00 0.00 0.00 0.00 0.00 0.00 0.00 0.00 0.00
0.34 0.27 0.25 0.31 0.32 0.25 0.22 0.30 0.47 0.53 0.54 0.56 0.56 0.50 0.17 0.02 0.04 0.01 0.01 0.14 0.23 0.31 0.38 0.61 0.59 0.30 0.13 0.16 0.16 0.11 0.04 0.01 0.00 0.00 0.00 0.00 0.00 0.00 0.00 0.00 0.00 0.00 0.00 0.00 0.00
0.32 0.30 0.31 0.30 0.31 0.35 0.45 0.52 0.72 0.82 0.77 0.87 0.79 0.55 0.11 0.01 0.04 0.02 0.00 0.10 0.17 0.32 0.55 0.61 0.66 0.49 0.20 0.22 0.15 0.04 0.02 0.01 0.00 0.00 0.00 0.00 0.00 0.00 0.00 0.00 0.00 0.00 0.00 0.00 0.00
0.38 0.39 0.35 0.38 0.51 0.59 0.87 1.49 1.27 1.17 0.91 0.60 0.39 0.20 0.08 0.03 0.08 0.08 0.01 0.07 0.20 0.49 0.69 0.51 0.45 0.41 0.18 0.05 0.03 0.02 0.05 0.02 0.00 0.00 0.01 0.00 0.00 0.00 0.00 0.00 0.00 0.00 0.00 0.00 0.00
0.39 0.33 0.39 0.50 0.59 0.93 1.33 1.18 0.67 0.61 0.70 0.29 0.21 0.12 0.09 0.12 0.15 0.11 0.01 0.09 0.17 0.37 0.77 0.93 0.31 0.17 0.18 0.09 0.06 0.06 0.06 0.04 0.01 0.02 0.04 0.00 0.00 0.00 0.00 0.00 0.00 0.00 0.00 0.00 0.00
0.40 0.37 0.48 0.59 0.79 1.01 1.08 0.70 0.37 0.72 1.17 0.58 0.43 0.28 0.15 0.11 0.11 0.11 0.01 0.05 0.13 0.31 0.59 0.79 0.44 0.14 0.27 0.18 0.14 0.08 0.07 0.04 0.03 0.05 0.04 0.02 0.00 0.00 0.00 0.00 0.00 0.00 0.00 0.00 0.00
0.41 0.48 0.66 0.92 1.10 1.15 1.18 0.92 0.86 1.36 1.84 0.64 0.58 0.45 0.26 0.29 0.23 0.02 0.01 0.10 0.17 0.28 0.37 0.45 0.40 0.36 0.33 0.34 0.13 0.10 0.04 0.04 0.07 0.16 0.05 0.07 0.03 0.00 0.00 0.00 0.00 0.00 0.00 0.00 0.00
0.50 0.65 0.84 1.39 1.49 1.22 1.39 1.23 1.51 1.90 1.50 0.30 0.46 0.51 0.29 0.26 0.19 0.06 0.04 0.19 0.22 0.17 0.44 0.47 0.31 0.38 0.35 0.40 0.14 0.10 0.03 0.04 0.08 0.22 0.34 0.07 0.08 0.01 0.00 0.00 0.00 0.00 0.00 0.00 0.00
0.74 0.81 1.03 1.23 1.24 0.84 1.06 1.79 2.19 2.14 1.06 0.64 0.62 0.82 0.39 0.16 0.20 0.20 0.13 0.19 0.37 0.53 0.51 0.28 0.19 0.31 0.26 0.25 0.22 0.11 0.14 0.14 0.22 0.34 0.53 0.34 0.10 0.02 0.00 0.00 0.00 0.00 0.00 0.00 0.00
0.96 0.92 1.36 1.04 1.19 0.86 1.22 2.13 2.26 1.18 0.84 0.78 0.75 0.73 0.20 0.12 0.22 0.25 0.25 0.26 0.91 0.86 0.93 0.94 0.60 0.48 0.23 0.38 0.51 0.41 0.60 0.81 0.73 0.78 0.36 0.07 0.24 0.11 0.00 0.00 0.00 0.00 0.00 0.00 0.00
0.84 1.12 1.23 0.92 0.86 1.49 1.42 1.61 1.40 0.70 0.90 0.64 0.67 0.40 0.39 0.17 0.26 0.22 0.37 0.19 0.49 0.42 0.62 0.79 0.67 0.52 0.30 0.46 0.78 0.60 0.54 0.78 0.39 0.30 0.13 0.05 0.07 0.03 0.00 0.00 0.00 0.00 0.00 0.00 0.00
1.21 1.31 1.62 1.16 1.07 1.63 1.76 1.33 1.21 1.05 0.97 0.69 0.53 0.42 0.44 0.16 0.25 0.27 0.23 0.14 0.17 0.17 0.44 0.47 0.52 0.31 0.19 0.22 0.52 0.68 0.73 0.48 0.51 0.22 0.32 0.10 0.02 0.00 0.00 0.00 0.00 0.00 0.00 0.00 0.00
1.75 1.70 1.78 1.04 1.12 1.75 1.92 1.17 1.13 1.17 0.64 0.29 0.37 0.18 0.10 0.12 0.24 0.16 0.10 0.05 0.09 0.03 0.19 0.33 0.57 0.53 0.49 0.41 0.59 0.55 0.35 0.54 1.09 0.49 0.20 0.11 0.06 0.00 0.00 0.00 0.00 0.00 0.00 0.00 0.00
1.75 2.03 1.62 1.28 1.61 2.09 1.56 0.94 0.85 0.64 0.39 0.21 0.06 0.06 0.02 0.03 0.19 0.05 0.04 0.03 0.05 0.02 0.13 0.44 0.62 0.63 0.88 0.76 0.54 0.56 0.62 0.51 0.57 0.29 0.14 0.06 0.08 0.01 0.00 0.00 0.02 0.01 0.01 0.01 0.01
1.62 1.96 1.32 1.97 2.32 1.52 0.81 0.90 0.92 0.53 0.20 0.18 0.07 0.02 0.01 0.01 0.12 0.05 0.03 0.02 0.01 0.03 0.16 0.38 0.56 0.70 0.54 0.20 0.16 0.24 0.26 0.20 0.77 0.39 0.27 0.17 0.06 0.01 0.01 0.00 0.02 0.03 0.03 0.02 0.01
1.64 1.54 2.21 1.38 1.22 0.75 0.69 0.85 0.59 0.19 0.19 0.21 0.05 0.01 0.00 0.01 0.02 0.01 0.02 0.00 0.00 0.01 0.15 0.29 0.74 0.75 0.69 0.48 0.48 0.60 0.33 0.28 0.62 1.13 0.62 0.31 0.07 0.00 0.01 0.01 0.01 0.01 0.03 0.01 0.00
1.27 1.67 3.09 2.02 0.54 0.57 1.00 1.13 0.78 0.25 0.19 0.23 0.08 0.04 0.04 0.02 0.00 0.00 0.04 0.00 0.00 0.01 0.18 0.66 0.60 0.74 0.73 0.73 0.79 0.55 0.30 0.48 1.00 1.36 0.39 0.17 0.03 0.01 0.01 0.03 0.02 0.03 0.04 0.06 0.02
0.75 0.62 0.82 0.85 0.42 0.23 0.67 0.83 0.82 0.66 0.43 0.27 0.13 0.04 0.05 0.02 0.02 0.00 0.01 0.00 0.00 0.01 0.21 0.73 0.94 1.21 0.74 0.38 0.93 0.53 0.29 0.37 0.87 0.61 0.58 0.17 0.07 0.02 0.01 0.04 0.10 0.09 0.11 0.06 0.03
0.50 0.30 0.15 0.06 0.04 0.05 0.37 0.84 0.89 0.76 0.60 0.31 0.14 0.05 0.05 0.03 0.01 0.00 0.00 0.00 0.00 0.01 0.11 0.47 0.79 0.96 0.56 0.17 0.33 0.34 0.15 0.20 0.19 0.31 0.41 0.17 0.22 0.05 0.02 0.12 0.29 0.17 0.22 0.11 0.06
0.54 0.26 0.11 0.11 0.06 0.04 0.09 0.39 0.63 0.63 0.49 0.27 0.18 0.16 0.04 0.02 0.01 0.01 0.00 0.00 0.00 0.01 0.10 0.28 0.45 0.78 0.63 0.37 0.24 0.42 0.26 0.15 0.14 0.20 0.33 0.31 0.19 0.07 0.07 0.29 0.31 0.31 0.30 0.09 0.03

GFSSW_prec_precacc_054.txt.gz
Total_Precipitation_Accumulation
0.08 0.08 0.10 0.10 0.09 0.10 0.09 0.08 0.08 0.09 0.14 0.19 0.25 0.27 0.36 0.40 0.33 0.15 0.05 0.00 0.00 0.00 0.01 0.00 0.01 0.02 0.00 0.00 0.00 0.00 0.00 0.00 0.00 0.00 0.00 0.00 0.00 0.00 0.00 0.00 0.00 0.00 0.00 0.00 0.00
0.08 0.08 0.11 0.12 0.12 0.13 0.13 0.11 0.08 0.08 0.10 0.10 0.12 0.19 0.29 0.30 0.24 0.18 0.01 0.01 0.02 0.01 0.01 0.00 0.01 0.04 0.00 0.00 0.00 0.00 0.00 0.00 0.00 0.00 0.00 0.00 0.00 0.00 0.00 0.00 0.00 0.00 0.00 0.00 0.00
0.10 0.10 0.11 0.14 0.16 0.16 0.13 0.11 0.10 0.09 0.09 0.15 0.19 0.16 0.25 0.27 0.19 0.04 0.00 0.02 0.16 0.19 0.03 0.01 0.02 0.08 0.04 0.00 0.00 0.00 0.00 0.00 0.00 0.00 0.00 0.00 0.00 0.00 0.00 0.00 0.00 0.00 0.00 0.00 0.00
0.13 0.14 0.16 0.15 0.15 0.18 0.16 0.12 0.12 0.15 0.15 0.14 0.22 0.41 0.45 0.25 0.16 0.03 0.02 0.02 0.13 0.36 0.09 0.04 0.03 0.07 0.05 0.01 0.00 0.00 0.00 0.00 0.00 0.00 0.00 0.00 0.00 0.00 0.00 0.00 0.00 0.00 0.00 0.00 0.00
0.21 0.22 0.19 0.16 0.19 0.19 0.16 0.13 0.18 0.16 0.15 0.11 0.24 0.40 0.53 0.34 0.07 0.08 0.06 0.04 0.09 0.28 0.14 0.08 0.05 0.04 0.03 0.00 0.01 0.00 0.00 0.00 0.00 0.00 0.00 0.00 0.00 0.00 0.00 0.00 0.00 0.00 0.00 0.00 0.00
0.22 0.20 0.17 0.20 0.20 0.20 0.17 0.21 0.18 0.19 0.18 0.22 0.31 0.57 0.42 0.17 0.02 0.03 0.05 0.07 0.07 0.12 0.17 0.15 0.06 0.01 0.02 0.00 0.02 0.00 0.00 0.00 0.00 0.00 0.00 0.00 0.00 0.00 0.00 0.00 0.00 0.00 0.00 0.00 0.00
0.26 0.22 0.20 0.23 0.23 0.19 0.18 0.26 0.24 0.16 0.20 0.32 0.50 0.46 0.35 0.10 0.01 0.02 0.03 0.15 0.15 0.13 0.14 0.16 0.09 0.15 0.09 0.06 0.00 0.01 0.01 0.00 0.00 0.00 0.00 0.00 0.00 0.00 0.00 0.00 0.00 0.00 0.00 0.00 0.00
0.30 0.28 0.26 0.28 0.28 0.23 0.21 0.23 0.21 0.31 0.29 0.35 0.52 0.64 0.23 0.02 0.04 0.00 0.02 0.16 0.27 0.38 0.31 0.42 0.26 0.17 0.14 0.09 0.04 0.05 0.06 0.02 0.00 0.00 0.00 0.00 0.00 0.00 0.00 0.00 0.00 0.00 0.00 0.00 0.00
0.38 0.32 0.29 0.34 0.34 0.26 0.23 0.30 0.48 0.55 0.54 0.62 0.61 0.52 0.18 0.06 0.06 0.02 0.04 0.17 0.27 0.34 0.48 0.82 0.70 0.34 0.13 0.16 0.16 0.11 0.04 0.01 0.00 0.00 0.00 0.00 0.00 0.00 0.00 0.00 0.00 0.00 0.00 0.00 0.00
0.38 0.37 0.37 0.33 0.32 0.36 0.45 0.52 0.72 0.82 0.78 0.91 0.84 0.57 0.11 0.03 0.08 0.04 0.06 0.13 0.23 0.39 0.73 0.83 0.83 0.56 0.22 0.22 0.15 0.04 0.02 0.01 0.00 0.00 0.00 0.00 0.00 0.00 0.00 0.00 0.00 0.00 0.00 0.00 0.00
0.41 0.44 0.40 0.43 0.55 0.60 0.88 1.49 1.27 1.17 0.91 0.61 0.40 0.21 0.12 0.12 0.16 0.14 0.04 0.14 0.31 0.58 0.78 0.62 0.64 0.43 0.19 0.05 0.03 0.02 0.05 0.02 0.00 0.00 0.01 0.00 0.00 0.00 0.00 0.00 0.00 0.00 0.00 0.00 0.00
0.40 0.35 0.43 0.57 0.64 0.93 1.33 1.18 0.67 0.61 0.70 0.29 0.21 0.12 0.10 0.18 0.23 0.22 0.03 0.38 0.24 0.47 0.90 1.03 0.35 0.18 0.18 0.10 0.06 0.06 0.06 0.04 0.01 0.02 0.04 0.00 0.00 0.00 0.00 0.00 0.00 0.00 0.00 0.00 0.00
0.41 0.38 0.50 0.66 0.82 1.01 1.08 0.70 0.37 0.72 1.17 0.58 0.43 0.32 0.22 0.16 0.13 0.14 0.02 0.36 0.22 0.49 0.80 0.92 0.46 0.15 0.27 0.19 0.14 0.08 0.07 0.04 0.03 0.05 0.04 0.02 0.00 0.00 0.00 0.00 0.00 0.00 0.00 0.00 0.00
0.41 0.49 0.67 0.94 1.11 1.15 1.19 0.92 0.86 1.36 1.84 0.66 0.65 0.61 0.45 0.37 0.24 0.03 0.03 0.43 0.35 0.58 0.68 0.76 0.52 0.41 0.34 0.35 0.13 0.10 0.04 0.04 0.07 0.16 0.05 0.07 0.03 0.00 0.00 0.00 0.00 0.00 0.00 0.00 0.00
0.50 0.66 0.84 1.39 1.50 1.22 1.40 1.23 1.51 1.90 1.51 0.35 0.58 0.71 0.39 0.28 0.20 0.07 0.07 0.36 0.33 0.50 0.69 0.68 0.53 0.60 0.44 0.43 0.15 0.10 0.03 0.04 0.08 0.22 0.34 0.07 0.08 0.01 0.00 0.00 0.00 0.00 0.00 0.00 0.00
0.74 0.81 1.03 1.23 1.24 0.84 1.06 1.79 2.19 2.14 1.06 0.66 0.65 0.90 0.47 0.17 0.21 0.20 0.15 0.22 0.45 0.64 0.54 0.39 0.48 0.45 0.44 0.39 0.26 0.11 0.14 0.14 0.22 0.34 0.53 0.34 0.10 0.02 0.00 0.00 0.00 0.00 0.00 0.00 0.00
0.96 0.92 1.36 1.04 1.19 0.86 1.22 2.13 2.26 1.18 0.84 0.78 0.77 0.79 0.21 0.14 0.23 0.26 0.33 0.27 0.97 0.89 0.99 1.00 0.64 0.53 0.37 0.54 0.60 0.41 0.60 0.81 0.73 0.78 0.36 0.07 0.24 0.11 0.00 0.00 0.00 0.00 0.00 0.00 0.00
0.84 1.12 1.23 0.92 0.86 1.49 1.42 1.61 1.40 0.72 0.94 0.66 0.72 0.43 0.41 0.21 0.28 0.24 0.53 0.19 0.49 0.45 0.70 0.89 0.73 0.55 0.37 0.48 0.80 0.60 0.54 0.78 0.39 0.30 0.13 0.05 0.07 0.03 0.00 0.00 0.00 0.00 0.00 0.00 0.00
1.21 1.31 1.62 1.16 1.07 1.63 1.76 1.34 1.21 1.05 1.00 0.86 0.60 0.44 0.47 0.18 0.25 0.31 0.28 0.14 0.17 0.18 0.45 0.50 0.53 0.31 0.19 0.22 0.52 0.68 0.73 0.48 0.51 0.22 0.32 0.10 0.02 0.00 0.00 0.00 0.00 0.00 0.00 0.00 0.00
1.75 1.70 1.78 1.04 1.12 1.75 1.92 1.17 1.14 1.17 0.65 0.30 0.37 0.18 0.10 0.12 0.24 0.17 0.11 0.05 0.09 0.03 0.19 0.33 0.57 0.53 0.49 0.41 0.59 0.55 0.35 0.54 1.09 0.49 0.20 0.11 0.06 0.00 0.00 0.00 0.00 0.00 0.00 0.00 0.00
1.75 2.03 1.62 1.28 1.61 2.09 1.56 0.94 0.85 0.64 0.39 0.21 0.06 0.06 0.02 0.03 0.19 0.05 0.04 0.03 0.05 0.02 0.13 0.44 0.62 0.63 0.88 0.76 0.54 0.56 0.62 0.51 0.57 0.29 0.14 0.06 0.08 0.01 0.00 0.00 0.02 0.01 0.01 0.01 0.01
1.62 1.96 1.32 1.97 2.32 1.52 0.81 0.90 0.92 0.53 0.20 0.18 0.07 0.02 0.01 0.01 0.12 0.05 0.03 0.02 0.01 0.03 0.16 0.38 0.56 0.70 0.54 0.20 0.16 0.24 0.26 0.20 0.77 0.39 0.27 0.17 0.06 0.01 0.01 0.00 0.02 0.03 0.03 0.02 0.01
1.64 1.54 2.21 1.38 1.22 0.75 0.69 0.85 0.59 0.19 0.19 0.21 0.05 0.01 0.00 0.01 0.02 0.01 0.02 0.00 0.00 0.01 0.15 0.29 0.74 0.75 0.69 0.48 0.48 0.60 0.33 0.28 0.62 1.13 0.62 0.31 0.07 0.00 0.01 0.01 0.01 0.01 0.03 0.01 0.00
1.27 1.67 3.09 2.02 0.54 0.57 1.00 1.13 0.78 0.25 0.19 0.23 0.08 0.04 0.04 0.02 0.00 0.00 0.04 0.00 0.00 0.01 0.18 0.66 0.60 0.74 0.73 0.73 0.79 0.55 0.30 0.48 1.00 1.36 0.39 0.17 0.03 0.01 0.01 0.03 0.02 0.03 0.04 0.06 0.02
0.75 0.62 0.82 0.85 0.42 0.23 0.67 0.83 0.82 0.66 0.43 0.27 0.13 0.04 0.05 0.02 0.02 0.00 0.01 0.00 0.00 0.01 0.21 0.73 0.94 1.21 0.74 0.38 0.93 0.53 0.29 0.37 0.87 0.61 0.58 0.17 0.07 0.02 0.01 0.04 0.10 0.09 0.11 0.06 0.03
0.50 0.31 0.15 0.06 0.04 0.05 0.37 0.84 0.89 0.76 0.60 0.31 0.14 0.05 0.05 0.03 0.01 0.00 0.00 0.00 0.00 0.01 0.11 0.47 0.79 0.96 0.56 0.17 0.33 0.34 0.15 0.20 0.19 0.31 0.41 0.17 0.22 0.05 0.02 0.12 0.29 0.17 0.22 0.11 0.06
0.54 0.27 0.12 0.11 0.06 0.04 0.09 0.39 0.63 0.63 0.49 0.27 0.18 0.16 0.04 0.02 0.01 0.01 0.00 0.00 0.00 0.01 0.10 0.28 0.45 0.78 0.63 0.37 0.24 0.42 0.26 0.15 0.14 0.20 0.33 0.31 0.19 0.07 0.07 0.29 0.31 0.31 0.30 0.09 0.03

GFSSW_prec_precacc_057.txt.gz
Total_Precipitation_Accumulation
0.09 0.09 0.11 0.11 0.10 0.11 0.10 0.10 0.10 0.12 0.15 0.20 0.27 0.28 0.36 0.40 0.33 0.15 0.05 0.02 0.00 0.00 0.01 0.00 0.01 0.03 0.00 0.00 0.00 0.00 0.00 0.00 0.00 0.00 0.00 0.00 0.00 0.00 0.00 0.00 0.00 0.00 0.00 0.00 0.00
0.08 0.09 0.11 0.13 0.13 0.13 0.13 0.12 0.09 0.09 0.11 0.11 0.15 0.21 0.29 0.30 0.24 0.18 0.01 0.01 0.02 0.01 0.02 0.00 0.01 0.05 0.00 0.00 0.00 0.00 0.00 0.00 0.00 0.00 0.00 0.00 0.00 0.00 0.00 0.00 0.00 0.00 0.00 0.00 0.00
0.10 0.11 0.12 0.15 0.17 0.16 0.13 0.11 0.10 0.10 0.10 0.16 0.21 0.19 0.27 0.27 0.19 0.04 0.00 0.02 0.16 0.19 0.03 0.01 0.02 0.10 0.04 0.00 0.00 0.00 0.00 0.00 0.00 0.00 0.00 0.00 0.00 0.00 0.00 0.00 0.00 0.00 0.00 0.00 0.00
0.15 0.17 0.18 0.16 0.15 0.18 0.16 0.12 0.12 0.16 0.16 0.15 0.23 0.43 0.48 0.25 0.16 0.05 0.02 0.02 0.13 0.36 0.09 0.05 0.04 0.10 0.05 0.01 0.00 0.00 0.00 0.00 0.00 0.00 0.00 0.00 0.00 0.00 0.00 0.00 0.00 0.00 0.00 0.00 0.00
0.23 0.25 0.20 0.18 0.20 0.21 0.18 0.14 0.19 0.18 0.16 0.13 0.27 0.43 0.55 0.35 0.07 0.10 0.07 0.07 0.15 0.32 0.14 0.08 0.05 0.05 0.03 0.00 0.01 0.00 0.00 0.00 0.00 0.00 0.00 0.00 0.00 0.00 0.00 0.00 0.00 0.00 0.00 0.00 0.00
0.24 0.23 0.19 0.22 0.22 0.21 0.18 0.22 0.19 0.22 0.22 0.27 0.37 0.62 0.43 0.18 0.02 0.03 0.10 0.09 0.12 0.18 0.17 0.16 0.06 0.02 0.02 0.01 0.02 0.00 0.00 0.00 0.00 0.00 0.00 0.00 0.00 0.00 0.00 0.00 0.00 0.00 0.00 0.00 0.00
0.29 0.26 0.23 0.25 0.25 0.21 0.21 0.28 0.25 0.18 0.24 0.35 0.59 0.51 0.38 0.10 0.01 0.03 0.10 0.18 0.16 0.16 0.15 0.16 0.09 0.16 0.10 0.07 0.00 0.01 0.01 0.00 0.00 0.00 0.00 0.00 0.00 0.00 0.00 0.00 0.00 0.00 0.00 0.00 0.00
0.33 0.31 0.31 0.34 0.31 0.24 0.22 0.24 0.21 0.32 0.32 0.37 0.56 0.71 0.25 0.02 0.04 0.01 0.09 0.23 0.29 0.42 0.31 0.44 0.27 0.18 0.14 0.09 0.04 0.05 0.06 0.02 0.00 0.00 0.00 0.00 0.00 0.00 0.00 0.00 0.00 0.00 0.00 0.00 0.00
0.42 0.35 0.34 0.41 0.39 0.26 0.23 0.30 0.48 0.55 0.54 0.65 0.66 0.55 0.19 0.06 0.07 0.02 0.07 0.22 0.31 0.39 0.50 0.91 0.84 0.39 0.15 0.17 0.16 0.11 0.04 0.01 0.00 0.00 0.00 0.00 0.00 0.00 0.00 0.00 0.00 0.00 0.00 0.00 0.00
0.39 0.39 0.41 0.39 0.38 0.36 0.45 0.52 0.72 0.82 0.78 0.97 0.91 0.60 0.12 0.05 0.11 0.08 0.08 0.16 0.31 0.43 0.81 0.97 1.02 0.66 0.25 0.23 0.15 0.04 0.02 0.01 0.00 0.00 0.00 0.00 0.00 0.00 0.00 0.00 0.00 0.00 0.00 0.00 0.00
0.42 0.46 0.42 0.48 0.60 0.60 0.88 1.49 1.28 1.19 0.93 0.63 0.41 0.23 0.17 0.18 0.29 0.24 0.08 0.20 0.44 0.62 0.81 0.70 0.94 0.50 0.19 0.05 0.03 0.02 0.05 0.02 0.00 0.00 0.01 0.00 0.00 0.00 0.00 0.00 0.00 0.00 0.00 0.00 0.00
0.41 0.36 0.45 0.60 0.65 0.93 1.33 1.18 0.67 0.62 0.71 0.29 0.21 0.12 0.11 0.28 0.54 0.43 0.06 0.52 0.38 0.48 0.93 1.10 0.58 0.25 0.19 0.10 0.06 0.06 0.06 0.04 0.01 0.02 0.04 0.00 0.00 0.00 0.00 0.00 0.00 0.00 0.00 0.00 0.00
0.41 0.39 0.53 0.68 0.82 1.01 1.08 0.70 0.37 0.72 1.19 0.59 0.44 0.32 0.25 0.36 0.40 0.27 0.08 0.58 0.32 0.50 0.82 0.94 0.51 0.24 0.30 0.19 0.14 0.08 0.07 0.04 0.03 0.05 0.04 0.02 0.00 0.00 0.00 0.00 0.00 0.00 0.00 0.00 0.00
0.41 0.49 0.67 0.94 1.11 1.16 1.19 0.92 0.86 1.36 1.86 0.68 0.67 0.68 0.57 0.53 0.51 0.12 0.13 0.67 0.43 0.60 0.71 0.80 0.54 0.48 0.36 0.36 0.13 0.10 0.04 0.04 0.07 0.16 0.05 0.07 0.03 0.00 0.00 0.00 0.00 0.00 0.00 0.00 0.00
0.50 0.66 0.84 1.39 1.50 1.23 1.40 1.23 1.51 1.90 1.64 0.49 0.80 0.92 0.62 0.47 0.39 0.20 0.32 0.64 0.37 0.54 0.82 0.76 0.60 0.66 0.45 0.43 0.15 0.11 0.03 0.04 0.08 0.22 0.34 0.07 0.08 0.01 0.00 0.00 0.00 0.00 0.00 0.00 0.00
0.75 0.81 1.03 1.23 1.24 0.84 1.06 1.79 2.20 2.16 1.16 0.78 0.78 1.02 0.55 0.22 0.25 0.35 0.43 0.43 0.54 0.82 0.75 0.47 0.65 0.54 0.47 0.39 0.26 0.11 0.14 0.14 0.22 0.34 0.53 0.34 0.10 0.02 0.00 0.00 0.00 0.00 0.00 0.00 0.00
0.96 0.92 1.36 1.04 1.19 0.86 1.22 2.14 2.26 1.20 0.89 0.86 0.84 0.82 0.22 0.15 0.24 0.39 0.57 0.41 1.06 1.03 1.17 1.24 0.92 0.70 0.49 0.59 0.63 0.41 0.60 0.81 0.74 0.78 0.36 0.07 0.24 0.11 0.00 0.00 0.00 0.00 0.00 0.00 0.00
0.84 1.12 1.23 0.92 0.86 1.49 1.42 1.61 1.41 0.73 0.94 0.67 0.73 0.44 0.41 0.22 0.30 0.26 0.56 0.20 0.50 0.46 0.76 1.00 0.88 0.72 0.65 0.61 0.87 0.61 0.55 0.78 0.39 0.30 0.13 0.05 0.07 0.03 0.00 0.00 0.00 0.00 0.00 0.00 0.00
1.21 1.31 1.62 1.16 1.07 1.63 1.76 1.34 1.21 1.05 1.00 0.87 0.61 0.45 0.49 0.18 0.26 0.35 0.31 0.14 0.17 0.18 0.48 0.54 0.57 0.39 0.35 0.32 0.58 0.71 0.73 0.48 0.51 0.22 0.32 0.10 0.02 0.00 0.00 0.00 0.00 0.00 0.00 0.00 0.00
1.75 1.70 1.78 1.04 1.12 1.75 1.93 1.17 1.14 1.17 0.65 0.30 0.37 0.18 0.11 0.12 0.24 0.18 0.11 0.05 0.09 0.03 0.19 0.34 0.60 0.54 0.50 0.43 0.62 0.55 0.35 0.54 1.09 0.49 0.20 0.11 0.06 0.00 0.00 0.00 0.00 0.00 0.00 0.00 0.00
1.75 2.03 1.62 1.28 1.61 2.09 1.56 0.94 0.85 0.64 0.39 0.21 0.06 0.06 0.02 0.03 0.19 0.05 0.04 0.03 0.05 0.02 0.13 0.44 0.62 0.64 0.88 0.76 0.54 0.56 0.62 0.51 0.57 0.29 0.14 0.06 0.08 0.01 0.00 0.00 0.02 0.01 0.01 0.01 0.01
1.62 1.96 1.32 1.97 2.32 1.52 0.81 0.90 0.92 0.53 0.20 0.18 0.07 0.02 0.01 0.01 0.12 0.05 0.03 0.02 0.01 0.03 0.16 0.38 0.56 0.71 0.54 0.20 0.16 0.24 0.26 0.20 0.77 0.39 0.27 0.17 0.06 0.01 0.01 0.00 0.02 0.03 0.03 0.02 0.01
1.64 1.54 2.21 1.38 1.22 0.75 0.69 0.85 0.59 0.19 0.19 0.21 0.05 0.01 0.00 0.01 0.02 0.01 0.02 0.00 0.00 0.01 0.15 0.29 0.74 0.75 0.69 0.48 0.48 0.60 0.33 0.28 0.62 1.13 0.62 0.31 0.07 0.00 0.01 0.01 0.01 0.01 0.03 0.01 0.00
1.27 1.67 3.09 2.02 0.54 0.57 1.00 1.13 0.78 0.25 0.19 0.23 0.08 0.04 0.04 0.02 0.00 0.00 0.04 0.00 0.00 0.01 0.18 0.66 0.60 0.74 0.73 0.73 0.79 0.55 0.30 0.48 1.00 1.36 0.39 0.17 0.03 0.01 0.01 0.03 0.02 0.03 0.04 0.06 0.02
0.75 0.62 0.82 0.85 0.42 0.23 0.67 0.83 0.82 0.66 0.43 0.27 0.13 0.04 0.05 0.02 0.02 0.00 0.01 0.00 0.00 0.01 0.21 0.73 0.94 1.21 0.74 0.38 0.93 0.53 0.29 0.37 0.87 0.61 0.58 0.17 0.07 0.02 0.01 0.04 0.10 0.09 0.11 0.06 0.03
0.50 0.31 0.15 0.06 0.04 0.05 0.37 0.84 0.89 0.76 0.60 0.31 0.14 0.05 0.05 0.03 0.01 0.00 0.00 0.00 0.00 0.01 0.11 0.47 0.79 0.96 0.56 0.17 0.33 0.34 0.15 0.20 0.19 0.31 0.41 0.17 0.22 0.05 0.02 0.12 0.29 0.17 0.22 0.11 0.06
0.54 0.27 0.12 0.11 0.06 0.04 0.09 0.39 0.63 0.63 0.49 0.27 0.18 0.16 0.04 0.02 0.01 0.01 0.00 0.00 0.00 0.01 0.10 0.28 0.45 0.78 0.63 0.37 0.24 0.42 0.26 0.15 0.14 0.20 0.33 0.31 0.19 0.07 0.07 0.29 0.31 0.31 0.30 0.09 0.03

GFSSW_prec_precacc_060.txt.gz
Total_Precipitation_Accumulation
0.11 0.10 0.12 0.13 0.11 0.12 0.10 0.10 0.10 0.13 0.18 0.21 0.27 0.30 0.38 0.41 0.33 0.15 0.05 0.02 0.00 0.01 0.01 0.00 0.01 0.03 0.01 0.00 0.00 0.00 0.00 0.00 0.00 0.00 0.00 0.00 0.00 0.00 0.00 0.00 0.00 0.00 0.00 0.00 0.00
0.10 0.10 0.14 0.14 0.14 0.14 0.14 0.12 0.09 0.09 0.11 0.12 0.15 0.23 0.32 0.31 0.24 0.18 0.01 0.01 0.02 0.03 0.02 0.00 0.01 0.06 0.02 0.00 0.00 0.00 0.00 0.00 0.00 0.00 0.00 0.00 0.00 0.00 0.00 0.00 0.00 0.00 0.00 0.00 0.00
0.11 0.12 0.14 0.16 0.18 0.17 0.14 0.12 0.11 0.10 0.10 0.16 0.21 0.20 0.30 0.29 0.19 0.04 0.00 0.02 0.19 0.23 0.03 0.02 0.02 0.11 0.06 0.00 0.00 0.00 0.00 0.00 0.00 0.00 0.00 0.00 0.00 0.00 0.00 0.00 0.00 0.00 0.00 0.00 0.00
0.16 0.19 0.20 0.17 0.16 0.20 0.18 0.13 0.12 0.17 0.18 0.15 0.24 0.44 0.50 0.27 0.18 0.05 0.02 0.02 0.14 0.41 0.10 0.06 0.04 0.11 0.06 0.01 0.00 0.00 0.00 0.00 0.00 0.00 0.00 0.00 0.00 0.00 0.00 0.00 0.00 0.00 0.00 0.00 0.00
0.26 0.27 0.22 0.20 0.21 0.24 0.21 0.15 0.20 0.19 0.19 0.15 0.29 0.47 0.57 0.38 0.08 0.10 0.09 0.08 0.17 0.42 0.16 0.08 0.05 0.05 0.03 0.00 0.01 0.00 0.00 0.00 0.00 0.00 0.00 0.00 0.00 0.00 0.00 0.00 0.00 0.00 0.00 0.00 0.00
0.27 0.25 0.23 0.26 0.25 0.26 0.21 0.23 0.21 0.24 0.30 0.37 0.46 0.67 0.44 0.18 0.02 0.03 0.11 0.14 0.22 0.27 0.20 0.16 0.06 0.02 0.03 0.01 0.02 0.00 0.00 0.00 0.00 0.00 0.00 0.00 0.00 0.00 0.00 0.00 0.00 0.00 0.00 0.00 0.00
0.31 0.29 0.26 0.30 0.32 0.30 0.24 0.29 0.26 0.19 0.26 0.35 0.62 0.53 0.40 0.10 0.01 0.04 0.10 0.19 0.25 0.28 0.17 0.16 0.09 0.17 0.11 0.09 0.00 0.01 0.01 0.00 0.00 0.00 0.00 0.00 0.00 0.00 0.00 0.00 0.00 0.00 0.00 0.00 0.00
0.35 0.33 0.34 0.39 0.38 0.33 0.24 0.24 0.21 0.32 0.32 0.39 0.61 0.75 0.26 0.02 0.04 0.01 0.09 0.24 0.31 0.48 0.36 0.45 0.27 0.18 0.15 0.11 0.05 0.05 0.06 0.02 0.00 0.00 0.00 0.00 0.00 0.00 0.00 0.00 0.00 0.00 0.00 0.00 0.00
0.43 0.36 0.37 0.46 0.45 0.30 0.23 0.30 0.48 0.55 0.54 0.65 0.69 0.60 0.19 0.06 0.07 0.02 0.11 0.33 0.32 0.45 0.56 0.92 0.88 0.43 0.17 0.19 0.19 0.12 0.04 0.01 0.00 0.00 0.00 0.00 0.00 0.00 0.00 0.00 0.00 0.00 0.00 0.00 0.00
0.41 0.40 0.43 0.41 0.41 0.36 0.45 0.52 0.72 0.82 0.79 0.99 0.98 0.66 0.16 0.05 0.12 0.08 0.11 0.38 0.44 0.57 0.93 1.03 1.14 0.75 0.31 0.26 0.16 0.04 0.02 0.01 0.00 0.00 0.00 0.00 0.00 0.00 0.00 0.00 0.00 0.00 0.00 0.00 0.00
0.44 0.46 0.43 0.48 0.61 0.60 0.89 1.50 1.30 1.23 0.96 0.66 0.43 0.24 0.22 0.19 0.32 0.25 0.15 0.48 0.83 0.87 0.88 0.74 1.00 0.53 0.19 0.05 0.03 0.02 0.05 0.02 0.00 0.00 0.01 0.00 0.00 0.00 0.00 0.00 0.00 0.00 0.00 0.00 0.00
0.42 0.37 0.46 0.61 0.65 0.93 1.34 1.18 0.67 0.63 0.72 0.30 0.21 0.12 0.11 0.29 0.55 0.48 0.21 0.85 0.98 0.74 0.94 1.16 0.59 0.25 0.19 0.10 0.06 0.06 0.06 0.04 0.01 0.02 0.04 0.00 0.00 0.00 0.00 0.00 0.00 0.00 0.00 0.00 0.00
0.42 0.39 0.53 0.69 0.82 1.02 1.08 0.70 0.37 0.72 1.21 0.60 0.45 0.33 0.26 0.43 0.58 0.51 0.16 0.78 0.72 0.62 0.83 0.97 0.53 0.26 0.33 0.20 0.14 0.08 0.07 0.04 0.03 0.05 0.04 0.02 0.00 0.00 0.00 0.00 0.00 0.00 0.00 0.00 0.00
0.42 0.50 0.68 0.94 1.11 1.16 1.19 0.92 0.86 1.36 1.89 0.69 0.68 0.71 0.64 0.82 0.83 0.30 0.19 0.79 0.63 0.61 0.73 0.84 0.57 0.56 0.46 0.38 0.13 0.10 0.04 0.04 0.07 0.16 0.05 0.07 0.03 0.00 0.00 0.00 0.00 0.00 0.00 0.00 0.00
0.50 0.66 0.84 1.39 1.50 1.23 1.40 1.23 1.51 1.91 1.69 0.52 0.84 0.96 0.77 0.81 0.56 0.28 0.35 0.76 0.44 0.55 0.83 0.77 0.62 0.73 0.65 0.48 0.15 0.11 0.03 0.04 0.08 0.22 0.34 0.07 0.08 0.01 0.00 0.00 0.00 0.00 0.00 0.00 0.00
0.75 0.81 1.03 1.24 1.25 0.84 1.06 1.80 2.20 2.20 1.30 0.99 1.05 1.24 0.79 0.40 0.33 0.42 0.54 0.51 0.56 0.82 0.76 0.48 0.65 0.59 0.61 0.51 0.28 0.12 0.14 0.14 0.22 0.34 0.53 0.34 0.10 0.02 0.00 0.00 0.00 0.00 0.00 0.00 0.00
0.96 0.92 1.36 1.04 1.19 0.86 1.22 2.14 2.26 1.22 0.92 0.99 1.04 1.06 0.42 0.31 0.37 0.63 0.75 0.44 1.07 1.08 1.24 1.26 0.95 0.75 0.62 0.63 0.64 0.42 0.60 0.82 0.75 0.78 0.36 0.07 0.24 0.11 0.00 0.00 0.00 0.00 0.00 0.00 0.00
0.84 1.12 1.23 0.92 0.86 1.49 1.42 1.62 1.41 0.74 0.96 0.69 0.74 0.47 0.47 0.30 0.46 0.46 0.70 0.24 0.52 0.48 0.87 1.10 0.97 0.85 0.82 0.63 0.87 0.62 0.55 0.80 0.39 0.30 0.13 0.05 0.07 0.03 0.00 0.00 0.00 0.00 0.00 0.00 0.00
1.21 1.31 1.62 1.16 1.07 1.63 1.76 1.34 1.21 1.05 1.00 0.87 0.61 0.45 0.50 0.18 0.27 0.39 0.36 0.15 0.19 0.23 0.56 0.59 0.64 0.49 0.49 0.36 0.60 0.72 0.74 0.49 0.51 0.22 0.32 0.10 0.02 0.00 0.00 0.00 0.00 0.00 0.00 0.00 0.00
1.75 1.70 1.78 1.04 1.12 1.75 1.93 1.17 1.14 1.17 0.65 0.30 0.37 0.18 0.11 0.12 0.24 0.19 0.12 0.05 0.09 0.03 0.20 0.34 0.64 0.64 0.59 0.55 0.70 0.57 0.35 0.54 1.09 0.49 0.20 0.11 0.06 0.00 0.00 0.00 0.00 0.00 0.00 0.00 0.00
1.75 2.03 1.62 1.28 1.61 2.09 1.56 0.94 0.85 0.64 0.39 0.21 0.06 0.06 0.02 0.03 0.19 0.05 0.04 0.03 0.05 0.02 0.13 0.44 0.63 0.67 0.91 0.82 0.63 0.59 0.63 0.51 0.57 0.29 0.14 0.06 0.08 0.01 0.00 0.00 0.02 0.01 0.01 0.01 0.01
1.62 1.96 1.32 1.97 2.32 1.52 0.81 0.90 0.92 0.53 0.20 0.18 0.07 0.02 0.01 0.01 0.12 0.05 0.03 0.02 0.01 0.03 0.16 0.38 0.56 0.71 0.54 0.20 0.16 0.25 0.26 0.20 0.77 0.39 0.27 0.17 0.06 0.01 0.01 0.00 0.02 0.03 0.03 0.02 0.01
1.64 1.54 2.21 1.38 1.22 0.75 0.69 0.85 0.59 0.19 0.19 0.21 0.05 0.01 0.00 0.01 0.02 0.01 0.02 0.00 0.00 0.01 0.15 0.29 0.74 0.75 0.69 0.48 0.48 0.60 0.33 0.28 0.62 1.13 0.62 0.31 0.07 0.00 0.01 0.01 0.01 0.01 0.03 0.01 0.00
1.27 1.67 3.09 2.02 0.54 0.57 1.00 1.13 0.78 0.25 0.19 0.23 0.08 0.04 0.04 0.02 0.00 0.00 0.04 0.00 0.00 0.01 0.18 0.66 0.60 0.74 0.73 0.73 0.79 0.55 0.30 0.48 1.00 1.36 0.39 0.17 0.03 0.01 0.01 0.03 0.02 0.03 0.04 0.06 0.02
0.75 0.62 0.82 0.85 0.42 0.23 0.67 0.83 0.82 0.66 0.43 0.27 0.13 0.04 0.05 0.02 0.02 0.00 0.01 0.00 0.00 0.01 0.21 0.73 0.94 1.21 0.74 0.38 0.93 0.53 0.29 0.37 0.87 0.61 0.58 0.17 0.07 0.02 0.01 0.04 0.10 0.09 0.11 0.06 0.03
0.50 0.31 0.16 0.06 0.04 0.05 0.37 0.84 0.89 0.76 0.60 0.31 0.14 0.05 0.05 0.03 0.01 0.00 0.00 0.00 0.00 0.01 0.11 0.47 0.79 0.96 0.56 0.17 0.33 0.34 0.15 0.20 0.19 0.31 0.41 0.17 0.22 0.05 0.02 0.12 0.29 0.17 0.22 0.11 0.06
0.54 0.27 0.12 0.11 0.06 0.04 0.09 0.40 0.63 0.63 0.49 0.27 0.18 0.16 0.04 0.02 0.01 0.01 0.00 0.00 0.00 0.01 0.10 0.28 0.45 0.78 0.63 0.37 0.24 0.42 0.26 0.15 0.14 0.20 0.33 0.31 0.19 0.07 0.07 0.29 0.31 0.31 0.30 0.09 0.03

GFSSW_prec_precacc_063.txt.gz
Total_Precipitation_Accumulation
0.12 0.11 0.13 0.15 0.13 0.13 0.11 0.11 0.11 0.13 0.18 0.22 0.28 0.30 0.39 0.44 0.33 0.15 0.05 0.03 0.00 0.02 0.01 0.00 0.01 0.04 0.02 0.01 0.00 0.02 0.27 0.07 0.00 0.00 0.00 0.00 0.00 0.00 0.00 0.00 0.00 0.00 0.00 0.00 0.01
0.10 0.11 0.15 0.17 0.16 0.16 0.15 0.13 0.10 0.10 0.11 0.12 0.15 0.23 0.32 0.33 0.25 0.18 0.01 0.01 0.02 0.07 0.03 0.00 0.01 0.06 0.04 0.02 0.01 0.00 0.05 0.08 0.00 0.00 0.00 0.00 0.00 0.00 0.00 0.00 0.00 0.00 0.00 0.00 0.00
0.12 0.14 0.16 0.19 0.22 0.19 0.15 0.13 0.11 0.11 0.11 0.16 0.21 0.21 0.31 0.30 0.20 0.04 0.00 0.02 0.19 0.32 0.08 0.02 0.02 0.12 0.10 0.02 0.01 0.00 0.00 0.00 0.00 0.01 0.00 0.00 0.00 0.00 0.00 0.00 0.00 0.00 0.00 0.00 0.00
0.17 0.21 0.22 0.21 0.20 0.23 0.22 0.14 0.13 0.18 0.19 0.16 0.25 0.47 0.56 0.31 0.19 0.06 0.02 0.02 0.14 0.47 0.18 0.09 0.04 0.11 0.07 0.02 0.00 0.00 0.00 0.00 0.00 0.01 0.00 0.00 0.00 0.00 0.00 0.00 0.00 0.00 0.00 0.00 0.00
0.27 0.29 0.25 0.24 0.25 0.29 0.28 0.19 0.22 0.22 0.20 0.16 0.33 0.57 0.63 0.41 0.09 0.10 0.09 0.08 0.18 0.54 0.21 0.09 0.05 0.06 0.03 0.00 0.01 0.00 0.00 0.00 0.00 0.00 0.00 0.00 0.00 0.00 0.00 0.00 0.00 0.00 0.00 0.00 0.00
0.28 0.27 0.24 0.28 0.28 0.32 0.28 0.28 0.22 0.27 0.35 0.46 0.48 0.67 0.45 0.18 0.02 0.03 0.11 0.15 0.25 0.44 0.32 0.17 0.06 0.02 0.03 0.01 0.02 0.00 0.00 0.00 0.00 0.00 0.00 0.00 0.00 0.00 0.00 0.00 0.00 0.00 0.00 0.00 0.00
0.33 0.30 0.28 0.31 0.35 0.33 0.30 0.31 0.27 0.22 0.31 0.37 0.62 0.53 0.40 0.10 0.03 0.07 0.11 0.20 0.29 0.38 0.26 0.17 0.09 0.17 0.11 0.10 0.00 0.01 0.01 0.00 0.00 0.00 0.00 0.00 0.00 0.00 0.00 0.00 0.00 0.00 0.00 0.00 0.00
0.36 0.34 0.35 0.40 0.39 0.35 0.27 0.24 0.21 0.32 0.33 0.40 0.63 0.75 0.26 0.02 0.04 0.02 0.10 0.25 0.34 0.53 0.46 0.48 0.28 0.19 0.17 0.12 0.06 0.06 0.06 0.02 0.00 0.00 0.00 0.00 0.00 0.00 0.00 0.00 0.00 0.00 0.00 0.00 0.00
0.44 0.37 0.37 0.47 0.45 0.30 0.23 0.30 0.48 0.55 0.54 0.65 0.70 0.61 0.19 0.06 0.07 0.02 0.11 0.33 0.34 0.52 0.64 0.95 0.90 0.44 0.18 0.22 0.22 0.16 0.05 0.01 0.00 0.00 0.00 0.00 0.00 0.00 0.00 0.00 0.00 0.00 0.00 0.00 0.00
0.42 0.40 0.43 0.41 0.41 0.36 0.45 0.52 0.72 0.82 0.79 0.99 1.03 0.69 0.17 0.06 0.12 0.08 0.11 0.39 0.46 0.71 1.07 1.18 1.20 0.78 0.32 0.29 0.18 0.05 0.02 0.01 0.00 0.00 0.00 0.00 0.00 0.00 0.00 0.00 0.00 0.00 0.00 0.00 0.00
0.44 0.47 0.43 0.48 0.61 0.60 0.89 1.50 1.31 1.25 0.97 0.69 0.45 0.24 0.23 0.19 0.32 0.26 0.16 0.48 0.88 1.16 1.14 0.78 1.03 0.54 0.19 0.05 0.03 0.02 0.05 0.02 0.00 0.00 0.01 0.00 0.00 0.00 0.00 0.00 0.00 0.00 0.00 0.00 0.00
0.43 0.37 0.46 0.61 0.65 0.93 1.34 1.19 0.68 0.63 0.72 0.30 0.21 0.12 0.11 0.29 0.55 0.50 0.25 0.92 1.06 1.03 1.20 1.21 0.60 0.25 0.19 0.10 0.06 0.06 0.06 0.04 0.01 0.02 0.04 0.00 0.00 0.00 0.00 0.00 0.00 0.00 0.00 0.00 0.00
0.42 0.40 0.53 0.69 0.82 1.02 1.08 0.70 0.37 0.72 1.21 0.62 0.46 0.33 0.26 0.43 0.58 0.53 0.39 0.99 1.00 0.83 0.96 0.98 0.53 0.26 0.33 0.20 0.14 0.08 0.07 0.04 0.03 0.05 0.04 0.02 0.00 0.00 0.00 0.00 0.00 0.00 0.00 0.00 0.00
0.42 0.50 0.68 0.94 1.11 1.16 1.19 0.92 0.86 1.36 1.92 0.74 0.73 0.75 0.65 0.82 0.85 0.43 0.49 1.15 1.16 0.74 0.77 0.86 0.58 0.56 0.47 0.38 0.13 0.10 0.04 0.04 0.07 0.16 0.05 0.07 0.03 0.00 0.00 0.00 0.00 0.00 0.00 0.00 0.00
0.50 0.67 0.84 1.39 1.50 1.23 1.40 1.23 1.51 1.91 1.73 0.54 0.84 0.97 0.81 0.90 0.64 0.67 0.54 1.15 0.76 0.64 0.84 0.79 0.63 0.73 0.66 0.49 0.16 0.12 0.03 0.04 0.08 0.22 0.34 0.07 0.08 0.01 0.00 0.00 0.00 0.00 0.00 0.00 0.00
0.75 0.82 1.03 1.24 1.25 0.84 1.06 1.80 2.20 2.21 1.46 1.22 1.13 1.32 0.91 0.48 0.47 0.49 0.61 0.76 0.63 0.85 0.76 0.52 0.68 0.60 0.62 0.54 0.29 0.14 0.14 0.14 0.22 0.34 0.53 0.34 0.10 0.02 0.00 0.00 0.00 0.00 0.00 0.00 0.00
0.96 0.92 1.36 1.04 1.19 0.86 1.22 2.14 2.26 1.22 0.94 1.15 1.33 1.14 0.44 0.32 0.38 0.64 0.81 0.49 1.07 1.08 1.24 1.30 0.97 0.77 0.66 0.84 0.66 0.43 0.60 0.82 0.75 0.78 0.36 0.07 0.24 0.11 0.00 0.00 0.00 0.00 0.00 0.00 0.00
0.84 1.12 1.23 0.92 0.86 1.49 1.42 1.62 1.41 0.74 0.96 0.69 0.75 0.48 0.50 0.38 0.60 0.54 0.75 0.25 0.52 0.48 0.88 1.11 0.98 0.87 0.89 0.83 0.93 0.63 0.55 0.80 0.39 0.30 0.13 0.05 0.07 0.03 0.00 0.00 0.00 0.00 0.00 0.00 0.00
1.21 1.31 1.62 1.16 1.07 1.63 1.76 1.34 1.21 1.05 1.00 0.87 0.61 0.46 0.53 0.20 0.36 0.45 0.38 0.16 0.20 0.24 0.59 0.60 0.64 0.49 0.54 0.51 0.64 0.74 0.74 0.49 0.51 0.22 0.32 0.10 0.02 0.00 0.00 0.00 0.00 0.00 0.00 0.00 0.00
1.75 1.70 1.78 1.04 1.12 1.75 1.93 1.17 1.14 1.17 0.65 0.30 0.38 0.18 0.11 0.12 0.25 0.19 0.12 0.05 0.09 0.04 0.21 0.35 0.65 0.66 0.62 0.65 0.73 0.57 0.35 0.54 1.10 0.49 0.20 0.11 0.06 0.00 0.00 0.00 0.00 0.00 0.00 0.00 0.00
1.75 2.03 1.62 1.28 1.61 2.09 1.56 0.94 0.85 0.64 0.39 0.21 0.06 0.06 0.02 0.03 0.19 0.05 0.04 0.03 0.05 0.02 0.13 0.45 0.63 0.72 0.94 0.93 0.68 0.60 0.63 0.51 0.57 0.29 0.14 0.06 0.08 0.01 0.00 0.00 0.02 0.01 0.01 0.01 0.01
1.62 1.96 1.32 1.97 2.32 1.52 0.81 0.90 0.92 0.53 0.20 0.18 0.07 0.02 0.01 0.01 0.12 0.05 0.03 0.02 0.01 0.03 0.16 0.38 0.56 0.72 0.58 0.21 0.16 0.26 0.26 0.20 0.77 0.39 0.27 0.17 0.06 0.01 0.01 0.00 0.02 0.03 0.03 0.02 0.01
1.64 1.54 2.21 1.38 1.22 0.75 0.69 0.85 0.59 0.19 0.19 0.21 0.05 0.01 0.00 0.01 0.02 0.01 0.02 0.00 0.00 0.01 0.15 0.29 0.74 0.75 0.70 0.48 0.48 0.60 0.34 0.28 0.62 1.13 0.62 0.31 0.07 0.00 0.01 0.01 0.01 0.01 0.03 0.01 0.00
1.27 1.67 3.09 2.02 0.54 0.57 1.00 1.13 0.78 0.25 0.19 0.23 0.08 0.04 0.04 0.02 0.00 0.00 0.04 0.00 0.00 0.01 0.18 0.66 0.60 0.74 0.73 0.73 0.79 0.55 0.30 0.48 1.00 1.36 0.39 0.17 0.03 0.01 0.01 0.03 0.02 0.03 0.04 0.06 0.02
0.75 0.62 0.82 0.85 0.42 0.23 0.67 0.83 0.82 0.66 0.43 0.27 0.13 0.04 0.05 0.02 0.02 0.00 0.01 0.00 0.00 0.01 0.21 0.73 0.94 1.21 0.74 0.38 0.93 0.53 0.29 0.37 0.87 0.61 0.58 0.17 0.07 0.02 0.01 0.04 0.10 0.09 0.11 0.06 0.03
0.50 0.31 0.16 0.06 0.04 0.05 0.37 0.84 0.90 0.76 0.60 0.31 0.14 0.05 0.05 0.03 0.01 0.00 0.00 0.00 0.00 0.01 0.11 0.47 0.79 0.96 0.56 0.17 0.33 0.34 0.15 0.20 0.19 0.31 0.41 0.17 0.22 0.05 0.02 0.12 0.29 0.17 0.22 0.11 0.06
0.54 0.27 0.13 0.11 0.06 0.04 0.09 0.40 0.64 0.63 0.49 0.27 0.18 0.16 0.04 0.02 0.01 0.01 0.00 0.00 0.00 0.01 0.10 0.28 0.45 0.78 0.63 0.37 0.24 0.42 0.26 0.15 0.14 0.20 0.33 0.31 0.19 0.07 0.07 0.29 0.31 0.31 0.30 0.09 0.03

GFSSW_prec_precacc_066.txt.gz
Total_Precipitation_Accumulation
0.13 0.12 0.14 0.16 0.16 0.16 0.13 0.11 0.12 0.14 0.18 0.22 0.28 0.31 0.41 0.45 0.35 0.16 0.05 0.03 0.00 0.02 0.02 0.00 0.01 0.04 0.03 0.01 0.01 0.08 0.42 0.13 0.01 0.00 0.00 0.00 0.00 0.00 0.00 0.00 0.00 0.00 0.00 0.00 0.01
0.11 0.12 0.16 0.20 0.19 0.17 0.17 0.17 0.11 0.10 0.11 0.12 0.15 0.23 0.33 0.34 0.25 0.18 0.01 0.01 0.02 0.08 0.05 0.00 0.01 0.07 0.06 0.04 0.02 0.05 0.22 0.16 0.00 0.00 0.02 0.02 0.00 0.00 0.00 0.00 0.00 0.00 0.00 0.00 0.02
0.13 0.15 0.18 0.21 0.25 0.21 0.21 0.24 0.16 0.12 0.12 0.16 0.21 0.21 0.31 0.31 0.20 0.04 0.00 0.02 0.19 0.34 0.16 0.02 0.02 0.13 0.13 0.06 0.02 0.00 0.02 0.00 0.00 0.01 0.06 0.03 0.00 0.00 0.00 0.00 0.00 0.00 0.00 0.00 0.01
0.18 0.21 0.23 0.23 0.24 0.26 0.29 0.23 0.21 0.20 0.20 0.18 0.26 0.50 0.60 0.32 0.19 0.06 0.02 0.02 0.14 0.47 0.26 0.12 0.04 0.12 0.09 0.03 0.00 0.00 0.00 0.00 0.00 0.08 0.09 0.03 0.00 0.00 0.00 0.00 0.00 0.00 0.00 0.00 0.00
0.28 0.29 0.26 0.25 0.26 0.31 0.30 0.29 0.32 0.25 0.21 0.21 0.34 0.59 0.64 0.41 0.09 0.11 0.09 0.08 0.18 0.54 0.24 0.12 0.06 0.06 0.04 0.00 0.02 0.00 0.00 0.00 0.00 0.01 0.02 0.01 0.02 0.00 0.00 0.00 0.00 0.00 0.00 0.00 0.00
0.28 0.27 0.25 0.29 0.29 0.33 0.28 0.34 0.29 0.29 0.36 0.47 0.51 0.68 0.46 0.18 0.02 0.03 0.11 0.15 0.25 0.46 0.36 0.21 0.06 0.02 0.04 0.02 0.02 0.00 0.00 0.00 0.01 0.00 0.00 0.02 0.01 0.00 0.00 0.00 0.00 0.00 0.00 0.00 0.00
0.33 0.30 0.28 0.31 0.35 0.33 0.30 0.33 0.27 0.22 0.31 0.37 0.62 0.53 0.40 0.10 0.04 0.08 0.11 0.21 0.31 0.41 0.30 0.23 0.11 0.17 0.12 0.10 0.01 0.01 0.03 0.03 0.00 0.00 0.00 0.00 0.00 0.00 0.00 0.00 0.00 0.00 0.00 0.00 0.00
0.37 0.35 0.35 0.40 0.39 0.35 0.27 0.24 0.21 0.32 0.33 0.40 0.63 0.75 0.26 0.02 0.04 0.02 0.10 0.25 0.36 0.56 0.50 0.55 0.34 0.19 0.18 0.13 0.09 0.10 0.08 0.04 0.00 0.00 0.00 0.00 0.00 0.00 0.00 0.00 0.00 0.00 0.00 0.00 0.00
0.45 0.37 0.38 0.47 0.45 0.30 0.23 0.30 0.48 0.55 0.54 0.65 0.70 0.61 0.19 0.06 0.07 0.02 0.11 0.33 0.35 0.53 0.72 1.00 1.00 0.44 0.19 0.23 0.26 0.21 0.05 0.01 0.00 0.00 0.00 0.00 0.00 0.00 0.00 0.00 0.00 0.00 0.00 0.00 0.00
0.42 0.41 0.43 0.41 0.41 0.36 0.45 0.52 0.72 0.82 0.79 0.99 1.03 0.69 0.17 0.06 0.12 0.08 0.12 0.39 0.48 0.76 1.30 1.30 1.28 0.80 0.32 0.30 0.19 0.05 0.02 0.01 0.00 0.00 0.00 0.00 0.00 0.00 0.00 0.00 0.00 0.00 0.00 0.00 0.00
0.45 0.47 0.44 0.48 0.61 0.60 0.89 1.50 1.31 1.25 0.97 0.70 0.45 0.24 0.23 0.19 0.32 0.27 0.17 0.49 0.93 1.27 1.52 0.97 1.06 0.54 0.19 0.05 0.03 0.02 0.05 0.02 0.00 0.00 0.01 0.00 0.00 0.00 0.00 0.00 0.00 0.00 0.00 0.00 0.00
0.43 0.37 0.46 0.61 0.65 0.93 1.34 1.19 0.68 0.63 0.72 0.30 0.21 0.12 0.11 0.29 0.55 0.52 0.26 0.92 1.17 1.17 1.54 1.33 0.61 0.25 0.19 0.10 0.06 0.06 0.06 0.04 0.01 0.02 0.04 0.00 0.00 0.00 0.00 0.00 0.00 0.00 0.00 0.00 0.00
0.42 0.40 0.53 0.69 0.82 1.02 1.08 0.70 0.37 0.72 1.22 0.66 0.46 0.33 0.26 0.43 0.58 0.54 0.40 0.99 1.10 0.98 1.26 1.00 0.53 0.26 0.33 0.20 0.14 0.08 0.07 0.04 0.03 0.05 0.04 0.02 0.00 0.00 0.00 0.00 0.00 0.00 0.00 0.00 0.00
0.42 0.50 0.68 0.94 1.11 1.16 1.19 0.92 0.86 1.36 1.96 0.90 0.78 0.76 0.65 0.82 0.86 0.44 0.49 1.15 1.23 0.92 0.98 0.89 0.58 0.56 0.47 0.38 0.13 0.10 0.04 0.04 0.07 0.16 0.05 0.07 0.03 0.00 0.00 0.00 0.00 0.00 0.00 0.00 0.00
0.51 0.67 0.84 1.39 1.50 1.23 1.40 1.23 1.51 1.92 1.80 0.57 0.86 0.98 0.83 0.96 0.69 0.79 0.59 1.17 0.80 0.88 1.06 0.85 0.63 0.73 0.66 0.49 0.16 0.12 0.03 0.04 0.08 0.22 0.34 0.07 0.08 0.01 0.00 0.00 0.00 0.00 0.00 0.00 0.00
0.75 0.82 1.03 1.24 1.25 0.84 1.06 1.80 2.20 2.21 1.60 1.32 1.16 1.34 0.94 0.60 0.70 0.69 0.75 1.00 0.73 1.05 0.80 0.52 0.68 0.61 0.63 0.54 0.29 0.14 0.14 0.14 0.22 0.34 0.53 0.34 0.10 0.02 0.00 0.00 0.00 0.00 0.00 0.00 0.00
0.96 0.92 1.36 1.04 1.19 0.86 1.22 2.14 2.26 1.23 0.97 1.24 1.36 1.15 0.48 0.44 0.46 0.78 1.09 0.79 1.14 1.20 1.29 1.31 0.98 0.77 0.66 0.84 0.67 0.43 0.60 0.83 0.76 0.79 0.36 0.07 0.24 0.11 0.00 0.00 0.00 0.00 0.00 0.00 0.00
0.84 1.12 1.23 0.92 0.86 1.49 1.42 1.62 1.41 0.74 0.97 0.70 0.77 0.52 0.53 0.40 0.63 0.62 0.85 0.29 0.52 0.48 0.88 1.12 1.01 0.89 0.89 0.83 0.94 0.63 0.55 0.80 0.40 0.30 0.13 0.05 0.07 0.03 0.00 0.00 0.00 0.00 0.00 0.00 0.00
1.21 1.31 1.62 1.16 1.07 1.63 1.76 1.34 1.21 1.05 1.00 0.87 0.61 0.47 0.60 0.26 0.40 0.48 0.39 0.16 0.20 0.24 0.59 0.60 0.65 0.51 0.55 0.53 0.68 0.76 0.74 0.49 0.51 0.22 0.32 0.10 0.02 0.00 0.00 0.00 0.00 0.00 0.00 0.00 0.00
1.75 1.70 1.78 1.04 1.12 1.75 1.93 1.17 1.14 1.17 0.65 0.30 0.38 0.18 0.11 0.14 0.26 0.19 0.12 0.05 0.09 0.04 0.21 0.35 0.65 0.67 0.62 0.70 0.81 0.58 0.35 0.54 1.10 0.49 0.20 0.11 0.06 0.00 0.00 0.00 0.00 0.00 0.00 0.00 0.00
1.75 2.03 1.62 1.28 1.61 2.09 1.56 0.94 0.85 0.64 0.39 0.21 0.06 0.06 0.02 0.03 0.19 0.05 0.04 0.03 0.05 0.02 0.13 0.45 0.63 0.73 0.95 0.95 0.74 0.62 0.63 0.51 0.57 0.29 0.14 0.06 0.08 0.01 0.00 0.00 0.02 0.01 0.01 0.01 0.01
1.62 1.96 1.32 1.97 2.32 1.52 0.81 0.90 0.92 0.53 0.20 0.18 0.07 0.02 0.01 0.01 0.12 0.05 0.03 0.02 0.01 0.03 0.16 0.38 0.56 0.74 0.59 0.21 0.16 0.26 0.27 0.20 0.77 0.39 0.27 0.17 0.06 0.01 0.01 0.00 0.02 0.03 0.03 0.02 0.01
1.64 1.54 2.21 1.38 1.22 0.75 0.69 0.85 0.59 0.19 0.19 0.21 0.05 0.01 0.00 0.01 0.02 0.01 0.02 0.00 0.00 0.01 0.15 0.29 0.74 0.76 0.72 0.49 0.48 0.62 0.34 0.28 0.62 1.13 0.62 0.31 0.07 0.00 0.01 0.01 0.01 0.01 0.03 0.01 0.00
1.27 1.67 3.09 2.02 0.54 0.57 1.00 1.13 0.79 0.25 0.19 0.23 0.08 0.04 0.04 0.02 0.00 0.00 0.04 0.00 0.00 0.01 0.18 0.66 0.60 0.74 0.73 0.73 0.79 0.55 0.30 0.48 1.00 1.36 0.39 0.17 0.03 0.01 0.01 0.03 0.02 0.03 0.04 0.06 0.02
0.75 0.62 0.82 0.85 0.42 0.23 0.67 0.83 0.82 0.66 0.43 0.27 0.13 0.04 0.05 0.02 0.02 0.00 0.01 0.00 0.00 0.01 0.21 0.73 0.94 1.21 0.74 0.38 0.93 0.53 0.29 0.37 0.87 0.61 0.58 0.18 0.07 0.02 0.01 0.04 0.10 0.09 0.11 0.06 0.03
0.50 0.31 0.16 0.06 0.04 0.05 0.37 0.84 0.90 0.77 0.60 0.31 0.14 0.05 0.05 0.03 0.01 0.00 0.00 0.00 0.00 0.01 0.11 0.47 0.79 0.96 0.56 0.17 0.33 0.34 0.15 0.20 0.19 0.31 0.41 0.17 0.22 0.05 0.02 0.12 0.29 0.17 0.22 0.11 0.06
0.54 0.27 0.13 0.11 0.06 0.04 0.09 0.40 0.64 0.63 0.49 0.27 0.18 0.16 0.04 0.02 0.01 0.01 0.00 0.00 0.00 0.01 0.10 0.28 0.45 0.78 0.63 0.37 0.24 0.42 0.26 0.15 0.14 0.20 0.33 0.31 0.19 0.07 0.07 0.29 0.31 0.31 0.30 0.09 0.03

GFSSW_prec_precacc_069.txt.gz
Total_Precipitation_Accumulation
0.14 0.13 0.16 0.18 0.17 0.19 0.18 0.17 0.21 0.21 0.20 0.22 0.28 0.31 0.41 0.46 0.35 0.17 0.06 0.03 0.00 0.02 0.07 0.00 0.01 0.05 0.04 0.02 0.02 0.09 0.42 0.13 0.01 0.00 0.00 0.00 0.00 0.00 0.00 0.00 0.00 0.00 0.00 0.00 0.01
0.12 0.13 0.18 0.21 0.21 0.18 0.18 0.25 0.22 0.16 0.14 0.12 0.15 0.23 0.33 0.35 0.26 0.18 0.01 0.01 0.02 0.09 0.09 0.01 0.01 0.07 0.09 0.05 0.04 0.10 0.25 0.16 0.00 0.00 0.02 0.02 0.00 0.00 0.00 0.00 0.00 0.00 0.00 0.00 0.02
0.14 0.16 0.18 0.22 0.27 0.23 0.23 0.26 0.25 0.21 0.20 0.17 0.21 0.22 0.32 0.32 0.20 0.04 0.00 0.02 0.19 0.34 0.17 0.03 0.02 0.14 0.16 0.08 0.03 0.04 0.04 0.00 0.00 0.03 0.08 0.03 0.00 0.00 0.00 0.00 0.00 0.00 0.00 0.00 0.02
0.19 0.22 0.24 0.24 0.25 0.27 0.30 0.24 0.28 0.30 0.29 0.20 0.27 0.50 0.60 0.33 0.19 0.06 0.02 0.02 0.15 0.47 0.27 0.15 0.04 0.12 0.10 0.04 0.00 0.02 0.00 0.00 0.00 0.16 0.15 0.04 0.00 0.00 0.00 0.00 0.00 0.03 0.02 0.01 0.00
0.29 0.30 0.26 0.25 0.27 0.32 0.30 0.30 0.34 0.29 0.26 0.24 0.35 0.59 0.64 0.41 0.09 0.11 0.09 0.08 0.19 0.54 0.24 0.16 0.06 0.06 0.04 0.00 0.02 0.00 0.00 0.00 0.02 0.18 0.08 0.08 0.09 0.00 0.00 0.00 0.00 0.01 0.01 0.01 0.00
0.29 0.28 0.25 0.29 0.30 0.33 0.29 0.34 0.30 0.30 0.36 0.47 0.51 0.68 0.46 0.18 0.02 0.03 0.11 0.15 0.25 0.46 0.36 0.24 0.08 0.02 0.04 0.02 0.02 0.00 0.00 0.01 0.03 0.03 0.02 0.14 0.13 0.03 0.00 0.00 0.00 0.02 0.00 0.00 0.00
0.34 0.31 0.29 0.32 0.36 0.33 0.30 0.33 0.27 0.22 0.32 0.38 0.62 0.53 0.40 0.10 0.04 0.08 0.11 0.21 0.31 0.41 0.30 0.25 0.14 0.17 0.12 0.10 0.02 0.02 0.05 0.04 0.01 0.00 0.01 0.02 0.11 0.16 0.00 0.00 0.00 0.02 0.01 0.00 0.00
0.38 0.35 0.36 0.41 0.39 0.35 0.27 0.24 0.21 0.32 0.33 0.41 0.65 0.75 0.26 0.02 0.04 0.02 0.10 0.25 0.36 0.57 0.51 0.58 0.40 0.20 0.18 0.14 0.10 0.13 0.10 0.05 0.00 0.01 0.01 0.03 0.05 0.02 0.00 0.00 0.00 0.00 0.00 0.00 0.00
0.45 0.38 0.39 0.47 0.45 0.30 0.23 0.30 0.48 0.55 0.54 0.66 0.71 0.61 0.19 0.06 0.07 0.02 0.11 0.35 0.37 0.56 0.75 1.08 1.12 0.45 0.20 0.24 0.27 0.24 0.07 0.01 0.00 0.00 0.00 0.00 0.00 0.00 0.00 0.00 0.00 0.00 0.00 0.00 0.00
0.42 0.41 0.44 0.42 0.41 0.36 0.45 0.52 0.72 0.82 0.79 1.00 1.03 0.69 0.17 0.06 0.12 0.08 0.12 0.40 0.49 0.78 1.37 1.42 1.60 0.80 0.33 0.31 0.19 0.05 0.02 0.01 0.00 0.00 0.00 0.00 0.00 0.00 0.00 0.00 0.00 0.00 0.00 0.00 0.00
0.45 0.47 0.44 0.48 0.61 0.60 0.89 1.50 1.31 1.25 0.97 0.70 0.45 0.24 0.23 0.19 0.32 0.29 0.18 0.49 0.95 1.35 1.62 1.18 1.46 0.56 0.19 0.05 0.03 0.02 0.05 0.02 0.00 0.00 0.01 0.00 0.00 0.00 0.00 0.00 0.00 0.00 0.00 0.00 0.00
0.43 0.37 0.47 0.61 0.65 0.93 1.34 1.19 0.68 0.63 0.72 0.30 0.21 0.12 0.11 0.29 0.55 0.53 0.27 0.92 1.22 1.36 1.69 1.59 0.80 0.26 0.19 0.10 0.06 0.06 0.06 0.04 0.01 0.02 0.04 0.00 0.00 0.00 0.00 0.00 0.00 0.00 0.00 0.00 0.00
0.42 0.40 0.54 0.69 0.82 1.02 1.08 0.70 0.37 0.72 1.23 0.67 0.46 0.33 0.26 0.43 0.58 0.55 0.41 0.99 1.15 1.21 1.48 1.17 0.57 0.26 0.33 0.20 0.14 0.08 0.07 0.04 0.03 0.05 0.04 0.02 0.00 0.00 0.00 0.00 0.00 0.00 0.00 0.00 0.00
0.42 0.50 0.68 0.94 1.11 1.16 1.19 0.92 0.86 1.36 1.98 0.97 0.80 0.76 0.66 0.82 0.86 0.44 0.50 1.16 1.28 1.10 1.18 1.02 0.58 0.56 0.47 0.38 0.13 0.10 0.04 0.04 0.07 0.16 0.05 0.07 0.03 0.00 0.00 0.00 0.00 0.00 0.00 0.00 0.00
0.51 0.67 0.85 1.39 1.50 1.23 1.40 1.23 1.51 1.92 1.82 0.60 0.88 1.01 0.86 0.98 0.70 0.79 0.60 1.18 0.82 1.02 1.31 0.98 0.63 0.73 0.66 0.49 0.16 0.12 0.03 0.04 0.08 0.22 0.34 0.07 0.08 0.01 0.00 0.00 0.00 0.00 0.00 0.00 0.00
0.75 0.82 1.03 1.24 1.25 0.84 1.06 1.80 2.20 2.21 1.61 1.35 1.19 1.36 0.97 0.62 0.71 0.70 0.77 1.02 0.79 1.23 0.94 0.56 0.68 0.61 0.63 0.54 0.29 0.14 0.14 0.14 0.22 0.34 0.53 0.34 0.10 0.02 0.00 0.00 0.00 0.00 0.00 0.00 0.00
0.96 0.92 1.36 1.04 1.19 0.86 1.22 2.14 2.26 1.23 0.97 1.25 1.45 1.24 0.55 0.47 0.49 0.83 1.12 0.84 1.27 1.46 1.51 1.34 0.98 0.77 0.66 0.84 0.67 0.43 0.60 0.83 0.77 0.80 0.36 0.07 0.24 0.11 0.00 0.00 0.00 0.00 0.00 0.00 0.00
0.84 1.12 1.23 0.92 0.86 1.49 1.42 1.62 1.41 0.74 0.97 0.70 0.84 0.57 0.55 0.44 0.71 0.72 0.94 0.35 0.55 0.57 0.94 1.15 1.03 0.89 0.89 0.83 0.94 0.64 0.55 0.80 0.40 0.30 0.13 0.05 0.07 0.03 0.00 0.00 0.00 0.00 0.00 0.00 0.00
1.21 1.31 1.62 1.16 1.07 1.63 1.76 1.34 1.21 1.05 1.00 0.87 0.61 0.49 0.62 0.27 0.47 0.52 0.43 0.18 0.20 0.26 0.59 0.60 0.65 0.51 0.55 0.53 0.68 0.76 0.74 0.49 0.51 0.22 0.32 0.10 0.02 0.00 0.00 0.00 0.00 0.00 0.00 0.00 0.00
1.75 1.70 1.78 1.04 1.12 1.75 1.93 1.17 1.14 1.17 0.65 0.30 0.38 0.18 0.12 0.14 0.26 0.19 0.13 0.06 0.09 0.04 0.21 0.35 0.65 0.67 0.62 0.70 0.81 0.58 0.35 0.54 1.10 0.49 0.20 0.11 0.06 0.00 0.00 0.00 0.00 0.00 0.00 0.00 0.00
1.75 2.03 1.62 1.28 1.61 2.09 1.56 0.94 0.85 0.64 0.39 0.21 0.06 0.06 0.02 0.03 0.19 0.05 0.04 0.03 0.05 0.02 0.13 0.45 0.63 0.73 0.95 0.96 0.75 0.64 0.64 0.51 0.57 0.29 0.14 0.06 0.08 0.01 0.00 0.00 0.02 0.01 0.01 0.01 0.01
1.62 1.96 1.32 1.97 2.32 1.52 0.81 0.90 0.92 0.53 0.20 0.18 0.07 0.02 0.01 0.01 0.12 0.05 0.03 0.02 0.01 0.03 0.16 0.38 0.56 0.74 0.59 0.21 0.17 0.27 0.27 0.20 0.77 0.39 0.27 0.17 0.06 0.01 0.01 0.00 0.02 0.03 0.03 0.02 0.01
1.64 1.54 2.21 1.38 1.22 0.75 0.69 0.85 0.59 0.19 0.19 0.21 0.05 0.01 0.00 0.01 0.02 0.01 0.02 0.00 0.00 0.01 0.15 0.29 0.74 0.77 0.73 0.50 0.48 0.64 0.34 0.28 0.62 1.13 0.62 0.31 0.07 0.00 0.01 0.01 0.01 0.01 0.03 0.01 0.00
1.27 1.67 3.09 2.02 0.54 0.57 1.00 1.13 0.79 0.25 0.19 0.23 0.08 0.04 0.04 0.02 0.00 0.00 0.04 0.00 0.00 0.01 0.18 0.66 0.60 0.74 0.73 0.73 0.79 0.55 0.30 0.48 1.00 1.36 0.39 0.17 0.03 0.01 0.01 0.03 0.02 0.03 0.04 0.06 0.02
0.75 0.62 0.82 0.85 0.42 0.23 0.67 0.83 0.82 0.66 0.43 0.27 0.13 0.04 0.05 0.02 0.02 0.00 0.01 0.00 0.00 0.01 0.21 0.73 0.94 1.21 0.74 0.38 0.93 0.53 0.29 0.37 0.87 0.61 0.58 0.18 0.07 0.02 0.01 0.04 0.10 0.09 0.11 0.06 0.03
0.50 0.31 0.16 0.06 0.04 0.05 0.37 0.84 0.90 0.77 0.60 0.31 0.14 0.05 0.05 0.03 0.01 0.00 0.00 0.00 0.00 0.01 0.11 0.47 0.79 0.96 0.56 0.17 0.33 0.34 0.15 0.20 0.19 0.31 0.41 0.17 0.22 0.05 0.02 0.12 0.29 0.17 0.22 0.11 0.06
0.54 0.27 0.13 0.11 0.06 0.04 0.09 0.40 0.64 0.63 0.49 0.27 0.18 0.16 0.04 0.02 0.01 0.01 0.00 0.00 0.00 0.01 0.10 0.28 0.45 0.78 0.63 0.37 0.24 0.42 0.26 0.15 0.14 0.20 0.33 0.31 0.19 0.07 0.07 0.29 0.31 0.31 0.30 0.09 0.03

GFSSW_prec_precacc_072.txt.gz
Total_Precipitation_Accumulation
0.14 0.15 0.16 0.18 0.18 0.20 0.19 0.18 0.23 0.25 0.26 0.27 0.31 0.31 0.41 0.47 0.36 0.18 0.07 0.03 0.00 0.03 0.15 0.00 0.01 0.05 0.05 0.02 0.05 0.11 0.43 0.14 0.01 0.00 0.00 0.00 0.00 0.00 0.00 0.00 0.00 0.00 0.00 0.00 0.01
0.13 0.14 0.18 0.21 0.21 0.19 0.19 0.26 0.23 0.18 0.21 0.20 0.16 0.24 0.34 0.35 0.26 0.18 0.01 0.01 0.02 0.09 0.13 0.03 0.01 0.07 0.10 0.06 0.07 0.15 0.28 0.16 0.00 0.00 0.02 0.02 0.00 0.00 0.00 0.00 0.01 0.01 0.00 0.00 0.02
0.15 0.17 0.19 0.23 0.27 0.24 0.24 0.27 0.26 0.23 0.26 0.23 0.24 0.22 0.32 0.32 0.20 0.04 0.00 0.02 0.19 0.34 0.18 0.06 0.02 0.14 0.17 0.08 0.04 0.11 0.06 0.00 0.00 0.03 0.08 0.03 0.00 0.00 0.00 0.00 0.00 0.03 0.03 0.02 0.03
0.20 0.23 0.25 0.24 0.25 0.28 0.30 0.24 0.29 0.31 0.33 0.24 0.28 0.51 0.61 0.33 0.19 0.07 0.02 0.03 0.15 0.49 0.27 0.16 0.04 0.12 0.11 0.04 0.00 0.03 0.03 0.00 0.00 0.16 0.15 0.04 0.00 0.00 0.00 0.00 0.00 0.06 0.11 0.09 0.06
0.30 0.31 0.27 0.26 0.27 0.32 0.30 0.30 0.34 0.30 0.28 0.24 0.35 0.59 0.64 0.41 0.09 0.12 0.09 0.09 0.21 0.56 0.24 0.17 0.06 0.06 0.04 0.01 0.02 0.00 0.00 0.00 0.05 0.21 0.09 0.08 0.09 0.00 0.00 0.00 0.00 0.02 0.06 0.07 0.05
0.30 0.29 0.27 0.30 0.30 0.33 0.29 0.35 0.30 0.30 0.36 0.47 0.51 0.68 0.46 0.18 0.02 0.03 0.11 0.16 0.25 0.46 0.36 0.24 0.08 0.02 0.05 0.03 0.04 0.01 0.01 0.03 0.14 0.07 0.03 0.16 0.14 0.04 0.00 0.00 0.00 0.03 0.03 0.05 0.06
0.35 0.32 0.30 0.33 0.36 0.33 0.31 0.34 0.27 0.22 0.32 0.38 0.62 0.53 0.40 0.10 0.04 0.08 0.11 0.21 0.31 0.41 0.30 0.25 0.18 0.17 0.12 0.12 0.05 0.03 0.07 0.07 0.04 0.05 0.05 0.05 0.16 0.22 0.00 0.00 0.00 0.02 0.03 0.01 0.02
0.38 0.36 0.37 0.41 0.40 0.35 0.27 0.24 0.21 0.32 0.33 0.41 0.65 0.75 0.26 0.02 0.04 0.02 0.10 0.25 0.36 0.58 0.51 0.59 0.47 0.20 0.19 0.14 0.14 0.18 0.13 0.06 0.00 0.02 0.04 0.10 0.12 0.06 0.01 0.00 0.00 0.00 0.00 0.00 0.00
0.45 0.38 0.39 0.48 0.45 0.31 0.23 0.30 0.48 0.55 0.54 0.66 0.71 0.61 0.19 0.06 0.07 0.02 0.11 0.35 0.38 0.60 0.76 1.11 1.26 0.46 0.20 0.26 0.28 0.26 0.07 0.01 0.00 0.00 0.01 0.05 0.01 0.03 0.05 0.00 0.00 0.00 0.00 0.00 0.00
0.43 0.42 0.44 0.42 0.41 0.37 0.45 0.52 0.72 0.82 0.79 1.00 1.03 0.69 0.17 0.06 0.12 0.08 0.12 0.43 0.51 0.82 1.40 1.51 1.93 0.83 0.33 0.31 0.19 0.05 0.02 0.01 0.00 0.00 0.01 0.01 0.00 0.01 0.06 0.02 0.00 0.00 0.00 0.00 0.00
0.45 0.48 0.44 0.49 0.61 0.60 0.89 1.50 1.31 1.25 0.97 0.70 0.45 0.24 0.23 0.19 0.32 0.30 0.20 0.55 0.98 1.40 1.65 1.24 1.94 0.63 0.19 0.05 0.03 0.02 0.05 0.02 0.00 0.00 0.01 0.00 0.00 0.00 0.03 0.05 0.00 0.00 0.00 0.00 0.00
0.43 0.38 0.47 0.62 0.65 0.93 1.34 1.19 0.68 0.63 0.72 0.30 0.21 0.12 0.11 0.29 0.55 0.56 0.30 0.96 1.25 1.39 1.74 1.66 1.07 0.30 0.19 0.10 0.07 0.06 0.06 0.04 0.01 0.02 0.04 0.00 0.02 0.01 0.01 0.02 0.00 0.00 0.00 0.00 0.00
0.43 0.40 0.54 0.69 0.82 1.02 1.08 0.70 0.37 0.72 1.23 0.68 0.46 0.33 0.26 0.43 0.58 0.56 0.43 1.01 1.17 1.27 1.54 1.22 0.66 0.30 0.33 0.20 0.14 0.08 0.07 0.04 0.03 0.05 0.04 0.03 0.02 0.02 0.00 0.00 0.00 0.00 0.00 0.00 0.00
0.42 0.51 0.69 0.94 1.11 1.16 1.19 0.92 0.86 1.36 1.99 1.03 0.80 0.76 0.66 0.82 0.86 0.45 0.51 1.17 1.28 1.14 1.21 1.06 0.63 0.60 0.47 0.38 0.13 0.10 0.04 0.04 0.07 0.16 0.05 0.08 0.04 0.00 0.00 0.00 0.00 0.00 0.00 0.00 0.00
0.51 0.67 0.85 1.39 1.50 1.23 1.40 1.23 1.51 1.92 1.85 0.65 0.89 1.01 0.86 0.99 0.70 0.79 0.60 1.19 0.84 1.10 1.38 1.04 0.68 0.78 0.67 0.49 0.16 0.12 0.03 0.04 0.08 0.22 0.34 0.07 0.08 0.01 0.00 0.00 0.00 0.00 0.00 0.00 0.00
0.75 0.82 1.04 1.24 1.25 0.84 1.06 1.80 2.20 2.21 1.62 1.45 1.22 1.39 0.98 0.64 0.72 0.70 0.78 1.04 0.82 1.36 1.14 0.61 0.70 0.63 0.63 0.54 0.29 0.14 0.14 0.14 0.22 0.34 0.53 0.34 0.10 0.02 0.00 0.00 0.00 0.00 0.00 0.00 0.00
0.96 0.92 1.37 1.04 1.19 0.86 1.22 2.14 2.26 1.23 0.97 1.28 1.58 1.27 0.59 0.50 0.51 0.86 1.13 0.85 1.32 1.68 1.81 1.44 1.05 0.79 0.66 0.85 0.68 0.43 0.60 0.84 0.77 0.80 0.37 0.07 0.24 0.11 0.00 0.00 0.00 0.00 0.00 0.00 0.00
0.84 1.12 1.23 0.92 0.86 1.49 1.42 1.62 1.41 0.74 0.97 0.71 0.85 0.60 0.62 0.49 0.74 0.73 0.94 0.36 0.61 0.87 1.14 1.25 1.11 0.90 0.89 0.83 0.95 0.64 0.55 0.80 0.40 0.30 0.13 0.05 0.07 0.03 0.00 0.00 0.00 0.00 0.00 0.00 0.00
1.21 1.31 1.62 1.16 1.07 1.63 1.76 1.34 1.21 1.05 1.00 0.87 0.62 0.49 0.62 0.31 0.50 0.53 0.44 0.18 0.22 0.34 0.60 0.61 0.66 0.51 0.55 0.53 0.68 0.76 0.74 0.49 0.51 0.22 0.32 0.10 0.02 0.00 0.00 0.00 0.00 0.00 0.00 0.00 0.00
1.75 1.70 1.78 1.04 1.12 1.75 1.93 1.17 1.14 1.17 0.65 0.30 0.38 0.18 0.12 0.14 0.26 0.20 0.13 0.06 0.09 0.05 0.21 0.35 0.66 0.67 0.62 0.70 0.81 0.58 0.35 0.54 1.10 0.49 0.20 0.11 0.06 0.00 0.00 0.00 0.00 0.00 0.00 0.00 0.00
1.75 2.03 1.62 1.28 1.61 2.10 1.56 0.94 0.85 0.64 0.39 0.21 0.06 0.06 0.02 0.03 0.19 0.05 0.04 0.03 0.05 0.02 0.13 0.45 0.63 0.74 0.95 0.96 0.75 0.64 0.64 0.51 0.57 0.29 0.14 0.06 0.08 0.01 0.00 0.00 0.02 0.01 0.01 0.01 0.01
1.62 1.96 1.32 1.97 2.32 1.52 0.81 0.90 0.92 0.53 0.20 0.18 0.07 0.02 0.01 0.01 0.12 0.05 0.03 0.02 0.01 0.03 0.16 0.38 0.56 0.74 0.60 0.21 0.17 0.27 0.27 0.20 0.77 0.39 0.27 0.17 0.06 0.01 0.01 0.00 0.02 0.03 0.03 0.02 0.01
1.64 1.54 2.21 1.38 1.22 0.75 0.69 0.85 0.59 0.19 0.19 0.21 0.05 0.01 0.00 0.01 0.02 0.01 0.02 0.00 0.00 0.01 0.15 0.29 0.74 0.77 0.73 0.50 0.49 0.65 0.35 0.28 0.62 1.13 0.62 0.31 0.07 0.00 0.01 0.01 0.01 0.01 0.03 0.01 0.00
1.27 1.67 3.09 2.02 0.54 0.57 1.00 1.13 0.79 0.25 0.19 0.23 0.08 0.04 0.04 0.02 0.00 0.00 0.04 0.00 0.00 0.01 0.18 0.66 0.60 0.74 0.73 0.73 0.79 0.55 0.31 0.49 1.00 1.36 0.39 0.17 0.03 0.01 0.01 0.03 0.02 0.03 0.04 0.06 0.02
0.75 0.62 0.82 0.85 0.42 0.23 0.67 0.83 0.82 0.66 0.43 0.27 0.13 0.04 0.05 0.02 0.02 0.00 0.01 0.00 0.00 0.01 0.21 0.73 0.94 1.21 0.74 0.38 0.93 0.53 0.29 0.37 0.87 0.61 0.58 0.18 0.07 0.02 0.01 0.04 0.10 0.09 0.11 0.06 0.03
0.50 0.31 0.16 0.06 0.04 0.05 0.37 0.84 0.90 0.77 0.60 0.31 0.14 0.05 0.05 0.03 0.01 0.00 0.00 0.00 0.00 0.01 0.11 0.47 0.79 0.96 0.56 0.17 0.33 0.34 0.15 0.20 0.19 0.31 0.41 0.17 0.22 0.05 0.02 0.12 0.29 0.17 0.22 0.11 0.06
0.54 0.27 0.13 0.11 0.06 0.04 0.09 0.40 0.64 0.63 0.49 0.27 0.18 0.16 0.04 0.02 0.01 0.01 0.00 0.00 0.00 0.01 0.10 0.28 0.45 0.78 0.63 0.37 0.24 0.42 0.26 0.15 0.14 0.20 0.33 0.31 0.19 0.07 0.07 0.29 0.31 0.31 0.30 0.09 0.03

GFSSW_prec_precacc_075.txt.gz
Total_Precipitation_Accumulation
0.15 0.15 0.17 0.18 0.19 0.20 0.20 0.19 0.24 0.26 0.28 0.31 0.38 0.36 0.44 0.47 0.36 0.19 0.09 0.03 0.00 0.04 0.17 0.00 0.01 0.05 0.07 0.04 0.08 0.16 0.46 0.14 0.01 0.00 0.00 0.00 0.00 0.00 0.00 0.00 0.00 0.00 0.00 0.00 0.01
0.14 0.15 0.19 0.22 0.22 0.20 0.20 0.26 0.23 0.18 0.22 0.22 0.22 0.28 0.37 0.36 0.26 0.18 0.01 0.03 0.07 0.10 0.14 0.04 0.01 0.07 0.11 0.06 0.11 0.24 0.33 0.17 0.00 0.00 0.02 0.02 0.00 0.00 0.00 0.00 0.01 0.02 0.01 0.01 0.02
0.16 0.18 0.20 0.23 0.28 0.24 0.24 0.28 0.27 0.23 0.26 0.25 0.28 0.25 0.34 0.32 0.20 0.04 0.01 0.03 0.22 0.38 0.19 0.08 0.03 0.14 0.18 0.09 0.05 0.13 0.10 0.00 0.00 0.03 0.08 0.03 0.00 0.00 0.00 0.00 0.00 0.03 0.05 0.05 0.09
0.20 0.24 0.25 0.25 0.25 0.28 0.31 0.25 0.29 0.31 0.33 0.25 0.30 0.54 0.62 0.33 0.19 0.07 0.02 0.04 0.17 0.57 0.28 0.18 0.07 0.12 0.11 0.05 0.00 0.04 0.04 0.01 0.01 0.16 0.15 0.04 0.00 0.00 0.00 0.00 0.00 0.06 0.12 0.12 0.14
0.30 0.32 0.28 0.27 0.27 0.33 0.31 0.30 0.34 0.30 0.28 0.24 0.35 0.59 0.64 0.41 0.09 0.13 0.10 0.13 0.29 0.65 0.24 0.19 0.10 0.07 0.05 0.02 0.02 0.00 0.01 0.02 0.07 0.22 0.09 0.08 0.09 0.00 0.00 0.00 0.00 0.02 0.06 0.10 0.12
0.30 0.29 0.27 0.31 0.31 0.33 0.29 0.35 0.30 0.30 0.36 0.47 0.51 0.68 0.46 0.18 0.02 0.03 0.11 0.18 0.27 0.49 0.36 0.25 0.10 0.02 0.05 0.03 0.05 0.01 0.01 0.05 0.17 0.10 0.04 0.16 0.14 0.04 0.00 0.00 0.00 0.03 0.03 0.07 0.09
0.35 0.32 0.31 0.33 0.37 0.34 0.31 0.34 0.27 0.22 0.32 0.38 0.62 0.53 0.40 0.10 0.04 0.08 0.11 0.21 0.32 0.42 0.30 0.25 0.21 0.18 0.12 0.13 0.08 0.03 0.07 0.09 0.05 0.12 0.11 0.06 0.16 0.22 0.00 0.00 0.00 0.02 0.03 0.01 0.02
0.39 0.36 0.37 0.42 0.41 0.36 0.28 0.25 0.22 0.32 0.33 0.41 0.65 0.75 0.26 0.02 0.04 0.02 0.10 0.25 0.38 0.58 0.51 0.59 0.53 0.23 0.19 0.15 0.17 0.22 0.15 0.07 0.00 0.04 0.16 0.17 0.16 0.06 0.01 0.00 0.00 0.00 0.00 0.00 0.00
0.46 0.39 0.40 0.48 0.46 0.31 0.24 0.30 0.48 0.55 0.54 0.66 0.71 0.61 0.19 0.06 0.07 0.02 0.11 0.35 0.38 0.62 0.78 1.14 1.41 0.49 0.22 0.27 0.28 0.27 0.08 0.01 0.00 0.00 0.02 0.10 0.03 0.03 0.06 0.00 0.00 0.00 0.00 0.00 0.00
0.44 0.43 0.45 0.43 0.42 0.37 0.46 0.52 0.72 0.82 0.79 1.00 1.03 0.69 0.17 0.06 0.12 0.08 0.12 0.43 0.52 0.85 1.49 1.59 2.23 0.90 0.33 0.31 0.19 0.05 0.02 0.01 0.00 0.00 0.01 0.01 0.00 0.01 0.06 0.03 0.00 0.00 0.00 0.00 0.00
0.46 0.49 0.45 0.50 0.62 0.60 0.89 1.50 1.31 1.25 0.97 0.70 0.45 0.24 0.23 0.19 0.32 0.30 0.21 0.56 1.00 1.43 1.71 1.27 2.28 0.78 0.19 0.05 0.03 0.02 0.05 0.02 0.00 0.00 0.01 0.00 0.00 0.01 0.03 0.07 0.01 0.00 0.00 0.00 0.00
0.45 0.39 0.47 0.62 0.66 0.94 1.34 1.19 0.68 0.63 0.72 0.30 0.21 0.12 0.11 0.29 0.55 0.56 0.31 0.97 1.30 1.49 1.76 1.71 1.22 0.37 0.19 0.10 0.07 0.06 0.06 0.04 0.01 0.02 0.04 0.00 0.02 0.01 0.02 0.04 0.03 0.00 0.00 0.00 0.00
0.44 0.41 0.54 0.70 0.82 1.02 1.08 0.70 0.37 0.72 1.23 0.68 0.46 0.33 0.26 0.43 0.58 0.58 0.46 1.03 1.27 1.35 1.55 1.23 0.73 0.40 0.34 0.21 0.14 0.08 0.07 0.04 0.03 0.05 0.04 0.03 0.02 0.02 0.01 0.00 0.02 0.00 0.00 0.00 0.00
0.43 0.51 0.69 0.95 1.11 1.16 1.19 0.92 0.86 1.36 2.00 1.04 0.80 0.77 0.67 0.82 0.87 0.48 0.53 1.19 1.36 1.17 1.23 1.09 0.67 0.66 0.47 0.40 0.13 0.10 0.04 0.04 0.07 0.16 0.05 0.08 0.04 0.00 0.00 0.00 0.00 0.00 0.00 0.00 0.00
0.51 0.68 0.86 1.39 1.50 1.23 1.40 1.23 1.51 1.92 1.86 0.68 0.90 1.02 0.87 1.00 0.70 0.80 0.61 1.20 0.85 1.10 1.41 1.09 0.72 0.82 0.68 0.51 0.16 0.12 0.03 0.04 0.08 0.22 0.34 0.07 0.08 0.01 0.00 0.00 0.00 0.00 0.00 0.00 0.00
0.75 0.83 1.04 1.24 1.25 0.84 1.06 1.80 2.20 2.21 1.63 1.52 1.25 1.40 0.98 0.64 0.72 0.70 0.78 1.05 0.82 1.37 1.14 0.62 0.72 0.72 0.64 0.55 0.29 0.14 0.14 0.14 0.22 0.34 0.54 0.34 0.10 0.02 0.00 0.00 0.00 0.00 0.00 0.00 0.00
0.96 0.92 1.37 1.04 1.19 0.86 1.22 2.14 2.26 1.23 0.98 1.32 1.67 1.32 0.60 0.51 0.52 0.86 1.14 0.85 1.32 1.69 1.83 1.48 1.10 0.85 0.67 0.87 0.68 0.43 0.60 0.84 0.78 0.81 0.37 0.07 0.24 0.11 0.00 0.00 0.00 0.00 0.00 0.00 0.00
0.84 1.12 1.23 0.92 0.86 1.49 1.42 1.62 1.41 0.74 0.97 0.71 0.87 0.66 0.74 0.54 0.78 0.74 0.94 0.36 0.62 0.94 1.18 1.32 1.32 0.95 0.90 0.84 0.95 0.64 0.55 0.80 0.40 0.30 0.13 0.05 0.07 0.03 0.00 0.00 0.00 0.00 0.00 0.00 0.00
1.21 1.31 1.62 1.16 1.07 1.63 1.76 1.34 1.21 1.05 1.00 0.87 0.62 0.50 0.67 0.32 0.50 0.53 0.44 0.18 0.32 0.52 0.66 0.64 0.79 0.52 0.55 0.53 0.68 0.76 0.74 0.49 0.51 0.22 0.32 0.10 0.02 0.00 0.00 0.00 0.00 0.00 0.00 0.00 0.00
1.75 1.70 1.78 1.04 1.12 1.76 1.93 1.17 1.14 1.17 0.65 0.30 0.38 0.18 0.12 0.15 0.27 0.21 0.14 0.06 0.18 0.16 0.22 0.35 0.68 0.67 0.62 0.70 0.81 0.58 0.35 0.54 1.10 0.49 0.20 0.11 0.06 0.00 0.00 0.00 0.00 0.00 0.00 0.00 0.00
1.75 2.03 1.62 1.28 1.62 2.10 1.56 0.94 0.85 0.64 0.39 0.21 0.06 0.06 0.02 0.03 0.19 0.05 0.04 0.03 0.06 0.04 0.14 0.45 0.64 0.74 0.95 0.96 0.75 0.64 0.64 0.51 0.57 0.29 0.14 0.06 0.08 0.01 0.00 0.00 0.02 0.01 0.01 0.01 0.01
1.62 1.96 1.32 1.97 2.32 1.52 0.81 0.90 0.92 0.53 0.20 0.18 0.07 0.02 0.01 0.01 0.12 0.05 0.03 0.02 0.01 0.03 0.16 0.38 0.56 0.74 0.60 0.21 0.17 0.27 0.27 0.20 0.77 0.39 0.27 0.17 0.06 0.01 0.01 0.00 0.02 0.03 0.03 0.02 0.01
1.64 1.54 2.21 1.38 1.22 0.75 0.69 0.85 0.59 0.19 0.19 0.21 0.05 0.01 0.00 0.01 0.02 0.01 0.02 0.00 0.00 0.01 0.15 0.29 0.74 0.77 0.74 0.50 0.49 0.65 0.35 0.28 0.62 1.13 0.62 0.31 0.07 0.00 0.01 0.01 0.01 0.01 0.03 0.01 0.00
1.27 1.67 3.09 2.02 0.54 0.57 1.00 1.13 0.79 0.25 0.19 0.23 0.08 0.04 0.04 0.02 0.00 0.00 0.04 0.00 0.00 0.01 0.18 0.66 0.60 0.74 0.73 0.73 0.79 0.55 0.31 0.49 1.00 1.36 0.39 0.17 0.03 0.01 0.01 0.03 0.02 0.03 0.04 0.06 0.02
0.75 0.62 0.82 0.85 0.42 0.23 0.67 0.83 0.82 0.66 0.43 0.27 0.13 0.04 0.05 0.02 0.02 0.00 0.01 0.00 0.00 0.01 0.21 0.73 0.94 1.21 0.74 0.38 0.93 0.53 0.29 0.37 0.87 0.61 0.58 0.18 0.07 0.02 0.01 0.04 0.10 0.09 0.11 0.06 0.03
0.50 0.31 0.16 0.06 0.04 0.05 0.37 0.84 0.90 0.77 0.60 0.31 0.14 0.05 0.05 0.03 0.01 0.00 0.00 0.00 0.00 0.01 0.11 0.47 0.79 0.96 0.56 0.17 0.33 0.34 0.15 0.20 0.19 0.31 0.41 0.17 0.22 0.05 0.02 0.12 0.29 0.17 0.22 0.11 0.06
0.54 0.27 0.13 0.11 0.06 0.04 0.09 0.40 0.64 0.63 0.49 0.27 0.18 0.16 0.04 0.02 0.01 0.01 0.00 0.00 0.00 0.01 0.10 0.28 0.45 0.78 0.63 0.37 0.24 0.42 0.26 0.15 0.14 0.20 0.33 0.31 0.19 0.07 0.07 0.29 0.31 0.31 0.30 0.09 0.03

GFSSW_prec_precacc_078.txt.gz
Total_Precipitation_Accumulation
0.16 0.16 0.18 0.19 0.19 0.21 0.20 0.19 0.24 0.26 0.28 0.31 0.38 0.39 0.48 0.49 0.37 0.19 0.09 0.03 0.01 0.05 0.19 0.00 0.02 0.05 0.07 0.07 0.10 0.19 0.51 0.15 0.01 0.00 0.00 0.00 0.00 0.00 0.00 0.00 0.00 0.00 0.00 0.00 0.02
0.14 0.16 0.20 0.22 0.22 0.20 0.20 0.27 0.23 0.18 0.22 0.22 0.24 0.32 0.39 0.40 0.26 0.18 0.01 0.04 0.09 0.16 0.16 0.05 0.02 0.07 0.13 0.09 0.17 0.30 0.35 0.17 0.00 0.00 0.02 0.02 0.00 0.00 0.00 0.00 0.01 0.02 0.01 0.02 0.03
0.16 0.18 0.21 0.24 0.28 0.24 0.24 0.28 0.27 0.23 0.26 0.25 0.31 0.30 0.40 0.35 0.20 0.04 0.01 0.04 0.24 0.44 0.24 0.12 0.05 0.14 0.19 0.12 0.09 0.16 0.11 0.00 0.00 0.03 0.08 0.03 0.00 0.00 0.00 0.00 0.00 0.03 0.05 0.06 0.11
0.21 0.24 0.26 0.26 0.26 0.28 0.31 0.25 0.29 0.31 0.33 0.25 0.31 0.55 0.64 0.33 0.19 0.07 0.03 0.05 0.23 0.63 0.34 0.21 0.10 0.13 0.12 0.07 0.02 0.06 0.05 0.01 0.03 0.17 0.15 0.04 0.00 0.00 0.00 0.00 0.00 0.06 0.12 0.14 0.15
0.31 0.32 0.28 0.27 0.28 0.33 0.31 0.30 0.35 0.30 0.28 0.24 0.35 0.59 0.64 0.41 0.09 0.13 0.10 0.14 0.41 0.76 0.30 0.24 0.15 0.07 0.05 0.03 0.04 0.02 0.04 0.05 0.10 0.24 0.09 0.08 0.09 0.00 0.00 0.00 0.00 0.02 0.07 0.13 0.16
0.32 0.30 0.28 0.31 0.31 0.34 0.29 0.35 0.30 0.30 0.36 0.47 0.51 0.68 0.46 0.18 0.02 0.03 0.11 0.20 0.32 0.62 0.41 0.29 0.17 0.03 0.06 0.04 0.06 0.02 0.02 0.13 0.24 0.11 0.04 0.16 0.14 0.04 0.00 0.00 0.00 0.03 0.03 0.09 0.12
0.37 0.33 0.31 0.34 0.37 0.34 0.32 0.35 0.27 0.22 0.32 0.38 0.62 0.53 0.40 0.10 0.04 0.08 0.11 0.22 0.34 0.49 0.33 0.27 0.29 0.19 0.13 0.14 0.09 0.05 0.08 0.14 0.15 0.16 0.15 0.07 0.16 0.22 0.00 0.00 0.00 0.02 0.03 0.01 0.02
0.40 0.37 0.38 0.42 0.41 0.36 0.28 0.26 0.22 0.32 0.33 0.41 0.65 0.75 0.26 0.02 0.04 0.02 0.10 0.25 0.40 0.59 0.53 0.61 0.67 0.24 0.20 0.15 0.19 0.26 0.16 0.08 0.02 0.05 0.18 0.19 0.17 0.06 0.01 0.00 0.00 0.00 0.00 0.00 0.00
0.47 0.40 0.40 0.49 0.47 0.31 0.24 0.31 0.48 0.55 0.54 0.66 0.71 0.61 0.19 0.06 0.07 0.02 0.11 0.35 0.41 0.62 0.80 1.19 1.55 0.54 0.23 0.28 0.31 0.30 0.08 0.02 0.01 0.01 0.02 0.11 0.04 0.03 0.06 0.00 0.00 0.00 0.00 0.00 0.00
0.45 0.44 0.46 0.43 0.42 0.38 0.47 0.52 0.72 0.82 0.79 1.00 1.03 0.69 0.17 0.06 0.12 0.08 0.12 0.43 0.54 0.86 1.55 1.69 2.41 0.95 0.34 0.32 0.20 0.06 0.03 0.01 0.01 0.01 0.01 0.01 0.00 0.01 0.06 0.03 0.00 0.00 0.00 0.00 0.00
0.47 0.50 0.46 0.50 0.62 0.61 0.89 1.50 1.31 1.25 0.97 0.70 0.45 0.24 0.23 0.19 0.32 0.30 0.21 0.56 1.00 1.47 1.82 1.42 2.43 0.84 0.20 0.05 0.03 0.02 0.05 0.03 0.00 0.00 0.01 0.00 0.01 0.01 0.03 0.07 0.01 0.00 0.00 0.00 0.00
0.46 0.40 0.48 0.62 0.67 0.94 1.34 1.19 0.68 0.63 0.72 0.30 0.21 0.12 0.11 0.29 0.55 0.57 0.31 0.98 1.31 1.52 1.82 1.77 1.30 0.41 0.20 0.10 0.07 0.06 0.07 0.04 0.01 0.02 0.04 0.00 0.02 0.01 0.02 0.04 0.03 0.00 0.00 0.00 0.00
0.45 0.42 0.55 0.71 0.82 1.02 1.08 0.70 0.37 0.72 1.23 0.68 0.46 0.33 0.26 0.43 0.59 0.63 0.47 1.04 1.28 1.37 1.60 1.26 0.77 0.43 0.34 0.22 0.15 0.08 0.07 0.04 0.03 0.05 0.04 0.03 0.02 0.02 0.01 0.00 0.02 0.00 0.00 0.00 0.00
0.44 0.52 0.70 0.95 1.11 1.16 1.19 0.92 0.86 1.36 2.00 1.04 0.80 0.77 0.67 0.82 0.87 0.60 0.59 1.19 1.39 1.19 1.26 1.13 0.76 0.72 0.48 0.42 0.14 0.10 0.04 0.04 0.07 0.16 0.05 0.08 0.04 0.00 0.00 0.00 0.00 0.00 0.00 0.00 0.00
0.52 0.68 0.87 1.39 1.50 1.23 1.40 1.23 1.51 1.92 1.87 0.73 0.91 1.02 0.87 1.00 0.71 0.85 0.62 1.22 0.88 1.12 1.43 1.14 0.77 0.89 0.70 0.52 0.17 0.12 0.03 0.04 0.08 0.22 0.34 0.07 0.08 0.01 0.00 0.00 0.00 0.00 0.00 0.00 0.00
0.75 0.84 1.04 1.24 1.25 0.84 1.06 1.80 2.20 2.21 1.63 1.55 1.28 1.40 0.98 0.64 0.72 0.70 0.78 1.08 0.83 1.37 1.20 0.66 0.79 0.81 0.66 0.57 0.29 0.14 0.14 0.14 0.22 0.34 0.54 0.34 0.10 0.02 0.00 0.00 0.00 0.00 0.00 0.00 0.00
0.96 0.93 1.37 1.04 1.19 0.86 1.22 2.14 2.26 1.23 0.98 1.37 1.70 1.33 0.60 0.51 0.52 0.86 1.14 0.85 1.32 1.70 1.91 1.53 1.19 0.92 0.68 0.89 0.68 0.43 0.60 0.85 0.79 0.82 0.37 0.07 0.24 0.11 0.00 0.00 0.00 0.00 0.00 0.00 0.00
0.84 1.12 1.23 0.92 0.86 1.49 1.42 1.62 1.41 0.74 0.97 0.72 0.88 0.68 0.75 0.54 0.79 0.74 0.94 0.36 0.62 0.94 1.23 1.36 1.36 1.06 0.92 0.85 0.95 0.64 0.55 0.80 0.40 0.30 0.13 0.05 0.07 0.03 0.00 0.00 0.00 0.00 0.00 0.00 0.00
1.21 1.31 1.62 1.16 1.07 1.63 1.76 1.34 1.21 1.05 1.00 0.87 0.62 0.53 0.70 0.33 0.51 0.54 0.44 0.18 0.32 0.52 0.67 0.64 0.81 0.55 0.55 0.53 0.68 0.77 0.74 0.49 0.51 0.22 0.32 0.10 0.02 0.00 0.00 0.00 0.00 0.00 0.00 0.00 0.00
1.75 1.70 1.78 1.04 1.12 1.76 1.93 1.17 1.14 1.17 0.65 0.30 0.38 0.19 0.13 0.15 0.27 0.21 0.14 0.06 0.19 0.16 0.22 0.35 0.72 0.69 0.62 0.71 0.81 0.58 0.35 0.54 1.10 0.49 0.20 0.11 0.06 0.00 0.00 0.00 0.00 0.00 0.00 0.00 0.00
1.75 2.03 1.62 1.28 1.62 2.10 1.56 0.94 0.85 0.64 0.39 0.21 0.06 0.06 0.03 0.03 0.19 0.05 0.04 0.04 0.11 0.07 0.14 0.45 0.65 0.77 0.96 0.96 0.75 0.64 0.64 0.51 0.57 0.29 0.14 0.06 0.08 0.01 0.00 0.00 0.02 0.01 0.01 0.01 0.01
1.62 1.96 1.32 1.98 2.32 1.52 0.81 0.90 0.92 0.53 0.20 0.18 0.07 0.02 0.01 0.01 0.12 0.05 0.03 0.02 0.02 0.03 0.16 0.38 0.56 0.75 0.61 0.21 0.17 0.27 0.27 0.20 0.77 0.39 0.27 0.17 0.06 0.01 0.01 0.00 0.02 0.03 0.03 0.02 0.01
1.64 1.54 2.21 1.39 1.22 0.75 0.69 0.85 0.59 0.19 0.19 0.21 0.05 0.01 0.00 0.01 0.02 0.01 0.02 0.00 0.00 0.01 0.15 0.29 0.74 0.78 0.74 0.51 0.49 0.65 0.35 0.28 0.62 1.13 0.62 0.31 0.07 0.00 0.01 0.01 0.01 0.01 0.03 0.01 0.00
1.27 1.67 3.09 2.02 0.54 0.57 1.00 1.13 0.79 0.25 0.19 0.23 0.08 0.04 0.04 0.02 0.00 0.00 0.04 0.00 0.00 0.01 0.18 0.66 0.60 0.74 0.74 0.73 0.79 0.55 0.31 0.49 1.00 1.36 0.39 0.17 0.03 0.01 0.01 0.03 0.02 0.03 0.04 0.06 0.02
0.75 0.62 0.82 0.85 0.42 0.23 0.67 0.83 0.82 0.66 0.43 0.27 0.13 0.04 0.05 0.02 0.02 0.00 0.01 0.00 0.00 0.01 0.21 0.73 0.94 1.21 0.74 0.38 0.93 0.53 0.29 0.37 0.87 0.61 0.58 0.18 0.07 0.02 0.01 0.04 0.10 0.09 0.11 0.06 0.03
0.50 0.31 0.16 0.06 0.04 0.05 0.37 0.84 0.90 0.77 0.60 0.31 0.14 0.05 0.05 0.03 0.01 0.00 0.00 0.00 0.00 0.01 0.11 0.47 0.79 0.96 0.56 0.17 0.33 0.34 0.15 0.20 0.19 0.31 0.41 0.17 0.22 0.05 0.02 0.12 0.29 0.17 0.22 0.11 0.06
0.54 0.27 0.13 0.11 0.06 0.04 0.09 0.40 0.64 0.63 0.49 0.27 0.18 0.16 0.04 0.02 0.01 0.01 0.00 0.00 0.00 0.01 0.10 0.28 0.45 0.78 0.63 0.37 0.24 0.42 0.26 0.15 0.14 0.20 0.33 0.31 0.19 0.07 0.07 0.29 0.31 0.31 0.30 0.09 0.03

GFSSW_prec_precacc_081.txt.gz
Total_Precipitation_Accumulation
0.16 0.17 0.19 0.20 0.20 0.21 0.20 0.20 0.25 0.26 0.28 0.31 0.38 0.39 0.49 0.50 0.37 0.19 0.09 0.03 0.02 0.07 0.19 0.01 0.02 0.05 0.08 0.11 0.21 0.28 0.60 0.18 0.01 0.00 0.00 0.00 0.00 0.00 0.00 0.00 0.00 0.00 0.00 0.02 0.03
0.15 0.16 0.21 0.23 0.23 0.20 0.20 0.27 0.24 0.18 0.22 0.22 0.24 0.32 0.41 0.42 0.26 0.18 0.01 0.04 0.09 0.22 0.19 0.07 0.03 0.08 0.14 0.11 0.28 0.46 0.45 0.19 0.00 0.00 0.02 0.02 0.00 0.00 0.00 0.00 0.01 0.02 0.01 0.02 0.04
0.17 0.18 0.21 0.24 0.29 0.25 0.24 0.29 0.27 0.23 0.26 0.25 0.31 0.30 0.40 0.35 0.21 0.04 0.02 0.05 0.25 0.46 0.28 0.17 0.08 0.16 0.20 0.13 0.16 0.24 0.18 0.00 0.00 0.03 0.08 0.03 0.00 0.00 0.00 0.00 0.00 0.03 0.05 0.08 0.14
0.22 0.25 0.26 0.26 0.27 0.29 0.31 0.25 0.29 0.31 0.33 0.25 0.31 0.55 0.64 0.33 0.20 0.07 0.03 0.06 0.27 0.71 0.37 0.25 0.16 0.15 0.13 0.07 0.03 0.08 0.05 0.02 0.03 0.17 0.16 0.04 0.00 0.00 0.00 0.00 0.00 0.06 0.12 0.16 0.18
0.32 0.33 0.29 0.27 0.29 0.34 0.31 0.31 0.35 0.30 0.28 0.24 0.35 0.59 0.64 0.41 0.09 0.13 0.10 0.14 0.46 0.87 0.39 0.29 0.23 0.08 0.05 0.03 0.05 0.03 0.05 0.05 0.11 0.26 0.10 0.08 0.09 0.00 0.00 0.00 0.00 0.02 0.07 0.16 0.23
0.33 0.31 0.28 0.31 0.31 0.35 0.30 0.37 0.30 0.30 0.36 0.47 0.51 0.68 0.46 0.18 0.02 0.03 0.11 0.20 0.38 0.73 0.47 0.41 0.29 0.04 0.06 0.04 0.07 0.03 0.04 0.14 0.28 0.14 0.06 0.16 0.14 0.04 0.00 0.00 0.00 0.03 0.03 0.11 0.19
0.38 0.34 0.32 0.34 0.37 0.35 0.32 0.37 0.28 0.22 0.32 0.38 0.62 0.53 0.40 0.10 0.04 0.08 0.11 0.22 0.35 0.59 0.38 0.41 0.56 0.25 0.13 0.14 0.09 0.06 0.11 0.21 0.21 0.22 0.18 0.08 0.19 0.22 0.00 0.00 0.00 0.02 0.03 0.02 0.03
0.41 0.38 0.38 0.43 0.41 0.37 0.29 0.28 0.23 0.32 0.33 0.41 0.65 0.75 0.26 0.02 0.04 0.02 0.10 0.25 0.43 0.70 0.62 0.75 0.99 0.35 0.21 0.16 0.22 0.30 0.20 0.14 0.07 0.10 0.24 0.21 0.18 0.06 0.01 0.00 0.00 0.00 0.00 0.01 0.00
0.48 0.41 0.41 0.49 0.47 0.32 0.25 0.31 0.48 0.55 0.54 0.66 0.71 0.61 0.19 0.06 0.07 0.02 0.11 0.35 0.41 0.66 0.88 1.33 1.91 0.64 0.28 0.30 0.33 0.34 0.10 0.02 0.04 0.04 0.05 0.12 0.05 0.04 0.07 0.00 0.00 0.00 0.00 0.00 0.01
0.46 0.45 0.47 0.44 0.43 0.38 0.47 0.52 0.72 0.82 0.79 1.00 1.03 0.70 0.17 0.06 0.12 0.08 0.12 0.43 0.54 0.88 1.63 1.95 2.78 1.13 0.38 0.33 0.21 0.06 0.03 0.01 0.02 0.03 0.02 0.02 0.01 0.01 0.08 0.03 0.00 0.00 0.00 0.00 0.01
0.48 0.51 0.46 0.50 0.63 0.62 0.90 1.50 1.31 1.25 0.97 0.70 0.45 0.24 0.23 0.19 0.32 0.31 0.22 0.56 1.01 1.54 1.91 1.57 2.62 1.00 0.21 0.05 0.03 0.02 0.06 0.03 0.01 0.00 0.01 0.00 0.01 0.01 0.03 0.07 0.01 0.00 0.00 0.00 0.00
0.46 0.40 0.48 0.63 0.67 0.94 1.34 1.19 0.68 0.63 0.72 0.30 0.21 0.12 0.11 0.29 0.55 0.58 0.32 0.99 1.32 1.62 1.90 1.88 1.39 0.48 0.22 0.11 0.07 0.07 0.07 0.04 0.02 0.02 0.04 0.00 0.02 0.01 0.02 0.04 0.03 0.00 0.00 0.00 0.00
0.45 0.42 0.55 0.71 0.83 1.02 1.08 0.70 0.37 0.72 1.23 0.68 0.46 0.33 0.26 0.43 0.59 0.64 0.48 1.04 1.29 1.42 1.64 1.32 0.83 0.45 0.37 0.23 0.15 0.09 0.07 0.04 0.03 0.05 0.04 0.03 0.02 0.02 0.01 0.00 0.02 0.00 0.00 0.00 0.00
0.44 0.52 0.71 0.95 1.11 1.16 1.19 0.92 0.86 1.36 2.01 1.05 0.81 0.77 0.67 0.83 0.91 0.67 0.60 1.20 1.39 1.22 1.28 1.17 0.82 0.72 0.51 0.42 0.14 0.11 0.04 0.04 0.07 0.16 0.05 0.08 0.04 0.00 0.00 0.00 0.00 0.00 0.00 0.00 0.00
0.52 0.69 0.87 1.39 1.50 1.23 1.40 1.23 1.51 1.92 1.88 0.73 0.91 1.02 0.87 1.01 0.76 0.99 0.64 1.23 0.89 1.16 1.48 1.19 0.82 0.90 0.71 0.53 0.17 0.12 0.03 0.04 0.08 0.22 0.34 0.07 0.08 0.01 0.00 0.00 0.00 0.00 0.00 0.00 0.00
0.75 0.84 1.05 1.24 1.25 0.84 1.06 1.80 2.20 2.22 1.63 1.56 1.28 1.40 0.98 0.65 0.73 0.71 0.82 1.10 0.85 1.41 1.24 0.68 0.82 0.85 0.67 0.59 0.29 0.14 0.14 0.14 0.22 0.35 0.55 0.34 0.10 0.02 0.00 0.00 0.00 0.00 0.00 0.00 0.00
0.96 0.93 1.37 1.04 1.19 0.86 1.22 2.14 2.26 1.23 0.98 1.37 1.70 1.33 0.60 0.51 0.52 0.89 1.21 0.87 1.35 1.76 1.99 1.58 1.27 0.99 0.70 0.92 0.69 0.43 0.60 0.85 0.80 0.83 0.37 0.07 0.24 0.11 0.00 0.00 0.00 0.00 0.00 0.00 0.00
0.84 1.12 1.23 0.92 0.86 1.49 1.42 1.62 1.41 0.74 0.98 0.73 0.89 0.68 0.75 0.55 0.79 0.74 0.94 0.36 0.62 0.98 1.29 1.44 1.48 1.10 0.93 0.88 0.96 0.64 0.55 0.80 0.40 0.30 0.13 0.05 0.07 0.03 0.00 0.00 0.00 0.00 0.00 0.00 0.00
1.21 1.31 1.62 1.16 1.07 1.63 1.76 1.34 1.21 1.05 1.00 0.88 0.63 0.54 0.70 0.33 0.51 0.54 0.44 0.19 0.33 0.53 0.68 0.66 0.83 0.60 0.57 0.55 0.69 0.78 0.75 0.49 0.51 0.22 0.32 0.10 0.02 0.00 0.00 0.00 0.00 0.00 0.00 0.00 0.00
1.75 1.70 1.78 1.04 1.12 1.76 1.93 1.17 1.14 1.17 0.65 0.30 0.38 0.19 0.13 0.15 0.27 0.21 0.14 0.06 0.19 0.16 0.22 0.35 0.73 0.72 0.63 0.71 0.82 0.58 0.36 0.54 1.10 0.49 0.20 0.11 0.06 0.00 0.00 0.00 0.00 0.00 0.00 0.00 0.00
1.75 2.03 1.62 1.28 1.62 2.10 1.56 0.94 0.85 0.64 0.39 0.21 0.06 0.06 0.03 0.03 0.19 0.05 0.04 0.05 0.11 0.07 0.14 0.45 0.66 0.79 0.98 0.99 0.77 0.64 0.64 0.51 0.57 0.29 0.14 0.06 0.08 0.01 0.00 0.00 0.02 0.01 0.01 0.01 0.01
1.62 1.96 1.32 1.98 2.33 1.52 0.81 0.90 0.92 0.53 0.20 0.18 0.07 0.02 0.01 0.01 0.12 0.05 0.03 0.03 0.03 0.03 0.16 0.38 0.56 0.76 0.62 0.21 0.17 0.27 0.27 0.20 0.77 0.39 0.27 0.17 0.06 0.01 0.01 0.00 0.02 0.03 0.03 0.02 0.01
1.64 1.54 2.21 1.39 1.22 0.75 0.69 0.85 0.59 0.19 0.19 0.21 0.05 0.01 0.00 0.01 0.02 0.01 0.02 0.00 0.00 0.01 0.15 0.29 0.74 0.78 0.76 0.51 0.49 0.65 0.35 0.28 0.62 1.13 0.62 0.31 0.07 0.00 0.01 0.01 0.01 0.01 0.03 0.01 0.00
1.27 1.67 3.09 2.02 0.54 0.57 1.00 1.13 0.79 0.25 0.19 0.23 0.08 0.04 0.04 0.02 0.00 0.00 0.04 0.00 0.00 0.01 0.18 0.66 0.60 0.75 0.74 0.74 0.79 0.55 0.31 0.49 1.00 1.36 0.39 0.17 0.03 0.01 0.01 0.03 0.02 0.03 0.04 0.06 0.02
0.75 0.62 0.82 0.85 0.42 0.23 0.67 0.83 0.82 0.66 0.43 0.27 0.13 0.04 0.05 0.02 0.02 0.00 0.01 0.00 0.00 0.01 0.21 0.73 0.94 1.21 0.74 0.38 0.93 0.53 0.29 0.37 0.87 0.61 0.58 0.18 0.07 0.02 0.01 0.04 0.10 0.09 0.11 0.06 0.03
0.50 0.31 0.16 0.06 0.04 0.05 0.37 0.84 0.90 0.77 0.60 0.31 0.14 0.05 0.05 0.03 0.01 0.00 0.00 0.00 0.00 0.01 0.11 0.47 0.79 0.96 0.56 0.17 0.33 0.34 0.15 0.20 0.19 0.31 0.41 0.17 0.22 0.05 0.02 0.12 0.29 0.17 0.22 0.11 0.06
0.54 0.27 0.13 0.11 0.06 0.04 0.09 0.40 0.64 0.63 0.49 0.27 0.18 0.16 0.04 0.02 0.01 0.01 0.00 0.00 0.00 0.01 0.10 0.28 0.45 0.78 0.63 0.37 0.24 0.42 0.26 0.15 0.14 0.20 0.33 0.31 0.19 0.07 0.07 0.29 0.31 0.31 0.30 0.09 0.03

GFSSW_prec_precacc_084.txt.gz
Total_Precipitation_Accumulation
0.16 0.17 0.19 0.20 0.21 0.21 0.20 0.20 0.25 0.26 0.28 0.31 0.38 0.39 0.49 0.50 0.37 0.19 0.09 0.03 0.02 0.08 0.22 0.01 0.02 0.05 0.08 0.12 0.29 0.37 0.72 0.20 0.01 0.00 0.00 0.00 0.00 0.00 0.00 0.00 0.00 0.00 0.06 0.10 0.03
0.15 0.17 0.21 0.24 0.23 0.21 0.20 0.28 0.24 0.18 0.22 0.22 0.24 0.32 0.41 0.42 0.26 0.18 0.01 0.04 0.09 0.25 0.23 0.08 0.04 0.08 0.14 0.11 0.38 0.60 0.62 0.24 0.00 0.00 0.02 0.02 0.00 0.00 0.00 0.00 0.01 0.02 0.01 0.02 0.06
0.18 0.20 0.21 0.25 0.29 0.26 0.25 0.29 0.27 0.23 0.26 0.25 0.31 0.30 0.40 0.35 0.21 0.05 0.03 0.05 0.25 0.47 0.33 0.20 0.10 0.18 0.21 0.13 0.22 0.38 0.30 0.05 0.00 0.04 0.09 0.03 0.00 0.00 0.00 0.00 0.00 0.03 0.05 0.09 0.17
0.23 0.26 0.27 0.26 0.27 0.30 0.32 0.26 0.30 0.31 0.33 0.25 0.31 0.55 0.64 0.33 0.23 0.08 0.03 0.06 0.27 0.72 0.45 0.34 0.20 0.19 0.14 0.08 0.04 0.13 0.08 0.04 0.05 0.21 0.20 0.05 0.00 0.00 0.00 0.00 0.00 0.06 0.12 0.17 0.22
0.33 0.34 0.29 0.28 0.29 0.34 0.32 0.32 0.35 0.30 0.28 0.24 0.35 0.59 0.64 0.41 0.09 0.13 0.10 0.14 0.47 0.88 0.41 0.41 0.32 0.13 0.07 0.03 0.05 0.04 0.07 0.06 0.18 0.43 0.15 0.09 0.09 0.00 0.00 0.00 0.00 0.02 0.07 0.17 0.26
0.34 0.32 0.28 0.32 0.32 0.35 0.31 0.37 0.31 0.30 0.36 0.47 0.51 0.68 0.46 0.20 0.02 0.03 0.11 0.21 0.41 0.82 0.51 0.44 0.40 0.15 0.08 0.04 0.07 0.03 0.04 0.15 0.35 0.35 0.17 0.19 0.15 0.04 0.00 0.00 0.00 0.03 0.03 0.11 0.22
0.39 0.35 0.32 0.35 0.38 0.35 0.33 0.37 0.30 0.22 0.32 0.38 0.62 0.53 0.40 0.11 0.04 0.08 0.11 0.22 0.36 0.78 0.51 0.44 0.60 0.35 0.15 0.15 0.09 0.07 0.12 0.24 0.30 0.36 0.28 0.11 0.21 0.22 0.00 0.00 0.00 0.02 0.03 0.02 0.03
0.41 0.39 0.39 0.43 0.42 0.37 0.29 0.28 0.24 0.32 0.33 0.41 0.65 0.75 0.26 0.02 0.04 0.02 0.10 0.26 0.43 0.74 0.95 0.85 1.06 0.43 0.22 0.16 0.23 0.34 0.25 0.19 0.13 0.19 0.34 0.24 0.18 0.06 0.01 0.00 0.00 0.00 0.00 0.01 0.01
0.48 0.41 0.42 0.50 0.47 0.32 0.25 0.31 0.48 0.55 0.54 0.66 0.71 0.61 0.19 0.06 0.07 0.02 0.11 0.36 0.41 0.68 1.09 1.44 2.05 0.78 0.31 0.31 0.39 0.40 0.13 0.03 0.08 0.10 0.10 0.14 0.06 0.05 0.07 0.00 0.00 0.00 0.00 0.00 0.01
0.46 0.45 0.47 0.44 0.43 0.39 0.47 0.52 0.72 0.82 0.79 1.00 1.03 0.71 0.19 0.07 0.12 0.08 0.12 0.43 0.55 0.89 1.79 2.18 3.03 1.31 0.44 0.35 0.23 0.08 0.04 0.02 0.04 0.08 0.09 0.04 0.03 0.02 0.08 0.03 0.00 0.00 0.00 0.00 0.01
0.48 0.51 0.47 0.50 0.63 0.62 0.90 1.50 1.31 1.25 0.97 0.70 0.45 0.24 0.23 0.19 0.32 0.31 0.22 0.56 1.03 1.57 2.07 1.73 2.84 1.10 0.22 0.05 0.03 0.02 0.06 0.03 0.01 0.02 0.04 0.02 0.02 0.01 0.03 0.07 0.01 0.00 0.00 0.00 0.00
0.46 0.41 0.49 0.64 0.68 0.94 1.34 1.19 0.68 0.63 0.72 0.30 0.21 0.12 0.11 0.29 0.55 0.59 0.32 1.00 1.34 1.74 2.09 1.95 1.49 0.54 0.25 0.11 0.07 0.07 0.08 0.08 0.05 0.04 0.05 0.01 0.02 0.01 0.02 0.04 0.03 0.00 0.00 0.00 0.00
0.46 0.43 0.56 0.72 0.83 1.02 1.08 0.70 0.37 0.72 1.23 0.68 0.46 0.33 0.26 0.43 0.59 0.64 0.48 1.05 1.31 1.51 1.73 1.39 0.92 0.55 0.42 0.26 0.17 0.10 0.08 0.06 0.04 0.05 0.04 0.03 0.02 0.02 0.01 0.00 0.02 0.00 0.00 0.00 0.00
0.44 0.52 0.71 0.96 1.11 1.16 1.19 0.92 0.86 1.36 2.02 1.06 0.81 0.77 0.67 0.83 0.95 0.67 0.60 1.20 1.40 1.24 1.30 1.23 0.88 0.84 0.55 0.44 0.15 0.13 0.04 0.04 0.07 0.16 0.05 0.08 0.04 0.00 0.00 0.00 0.00 0.00 0.00 0.00 0.00
0.52 0.69 0.88 1.40 1.50 1.23 1.40 1.23 1.51 1.92 1.89 0.73 0.91 1.02 0.87 1.02 0.82 1.02 0.64 1.23 0.90 1.16 1.49 1.21 0.84 0.92 0.74 0.54 0.18 0.14 0.03 0.05 0.08 0.23 0.34 0.08 0.08 0.01 0.00 0.00 0.00 0.00 0.00 0.00 0.00
0.75 0.84 1.05 1.24 1.25 0.84 1.06 1.80 2.20 2.22 1.63 1.56 1.28 1.40 0.99 0.66 0.74 0.73 0.83 1.11 0.89 1.50 1.27 0.70 0.83 0.85 0.69 0.59 0.29 0.15 0.15 0.14 0.23 0.35 0.55 0.34 0.10 0.02 0.00 0.00 0.00 0.00 0.00 0.00 0.00
0.96 0.93 1.37 1.04 1.20 0.86 1.22 2.14 2.27 1.23 0.98 1.37 1.70 1.33 0.60 0.52 0.53 0.91 1.24 0.88 1.39 1.82 2.02 1.59 1.29 0.99 0.70 0.93 0.69 0.43 0.61 0.86 0.80 0.83 0.37 0.07 0.24 0.11 0.00 0.00 0.00 0.00 0.00 0.00 0.00
0.84 1.12 1.23 0.92 0.86 1.49 1.42 1.62 1.41 0.74 0.98 0.73 0.89 0.68 0.75 0.55 0.79 0.74 0.95 0.38 0.63 0.99 1.30 1.47 1.51 1.13 0.94 0.89 0.96 0.65 0.55 0.80 0.40 0.30 0.13 0.05 0.07 0.03 0.00 0.00 0.00 0.00 0.00 0.00 0.00
1.21 1.31 1.62 1.16 1.07 1.63 1.76 1.34 1.21 1.05 1.00 0.88 0.63 0.54 0.70 0.33 0.51 0.54 0.44 0.19 0.34 0.54 0.70 0.67 0.84 0.61 0.59 0.58 0.70 0.78 0.75 0.49 0.51 0.22 0.32 0.10 0.02 0.00 0.00 0.00 0.00 0.00 0.00 0.00 0.00
1.75 1.70 1.78 1.04 1.12 1.76 1.93 1.17 1.14 1.17 0.65 0.30 0.39 0.19 0.13 0.15 0.27 0.21 0.14 0.06 0.19 0.16 0.22 0.36 0.74 0.72 0.67 0.73 0.83 0.60 0.36 0.54 1.10 0.49 0.20 0.11 0.06 0.00 0.00 0.00 0.00 0.00 0.00 0.00 0.00
1.75 2.03 1.62 1.28 1.62 2.10 1.56 0.94 0.85 0.64 0.39 0.21 0.06 0.06 0.03 0.03 0.19 0.05 0.05 0.05 0.11 0.07 0.14 0.45 0.67 0.80 1.00 1.00 0.78 0.65 0.64 0.52 0.58 0.29 0.14 0.06 0.08 0.01 0.00 0.00 0.02 0.01 0.01 0.01 0.01
1.62 1.96 1.32 1.98 2.33 1.53 0.81 0.90 0.92 0.53 0.20 0.18 0.07 0.02 0.01 0.01 0.12 0.05 0.03 0.03 0.03 0.03 0.16 0.38 0.56 0.76 0.62 0.21 0.17 0.28 0.27 0.20 0.78 0.40 0.27 0.17 0.06 0.01 0.01 0.00 0.02 0.03 0.03 0.02 0.01
1.64 1.54 2.21 1.39 1.22 0.76 0.69 0.85 0.59 0.19 0.19 0.21 0.05 0.01 0.00 0.01 0.02 0.01 0.02 0.00 0.00 0.01 0.15 0.29 0.74 0.78 0.76 0.52 0.49 0.65 0.35 0.28 0.62 1.13 0.62 0.31 0.07 0.00 0.01 0.01 0.01 0.01 0.03 0.01 0.00
1.27 1.67 3.09 2.02 0.54 0.57 1.00 1.13 0.79 0.25 0.19 0.23 0.08 0.04 0.04 0.02 0.00 0.00 0.04 0.00 0.00 0.01 0.18 0.66 0.61 0.75 0.75 0.74 0.79 0.55 0.31 0.49 1.00 1.36 0.39 0.17 0.03 0.01 0.01 0.03 0.02 0.03 0.04 0.06 0.02
0.75 0.62 0.82 0.85 0.42 0.23 0.67 0.83 0.83 0.66 0.43 0.27 0.13 0.04 0.05 0.02 0.02 0.00 0.01 0.00 0.00 0.01 0.21 0.73 0.94 1.21 0.74 0.38 0.93 0.53 0.29 0.37 0.87 0.61 0.58 0.18 0.07 0.02 0.01 0.04 0.10 0.09 0.11 0.06 0.03
0.50 0.31 0.16 0.06 0.04 0.05 0.37 0.84 0.90 0.77 0.60 0.31 0.14 0.05 0.05 0.03 0.01 0.00 0.00 0.00 0.00 0.01 0.11 0.47 0.79 0.96 0.56 0.17 0.33 0.34 0.15 0.20 0.19 0.31 0.41 0.17 0.22 0.05 0.02 0.12 0.29 0.17 0.22 0.11 0.06
0.54 0.27 0.13 0.11 0.06 0.04 0.09 0.40 0.64 0.63 0.49 0.27 0.18 0.16 0.04 0.02 0.01 0.01 0.00 0.00 0.00 0.01 0.10 0.28 0.45 0.78 0.63 0.37 0.24 0.42 0.26 0.15 0.14 0.20 0.33 0.31 0.19 0.07 0.07 0.29 0.31 0.31 0.30 0.09 0.03

GFSSW_prec_precacc_087.txt.gz
Total_Precipitation_Accumulation
0.17 0.18 0.20 0.20 0.21 0.22 0.21 0.20 0.26 0.26 0.28 0.31 0.38 0.39 0.49 0.50 0.37 0.19 0.09 0.03 0.02 0.09 0.23 0.01 0.02 0.05 0.08 0.12 0.32 0.47 0.79 0.20 0.01 0.00 0.02 0.00 0.00 0.00 0.00 0.00 0.00 0.01 0.11 0.14 0.04
0.16 0.18 0.22 0.24 0.23 0.22 0.22 0.28 0.24 0.18 0.22 0.22 0.24 0.32 0.41 0.42 0.26 0.18 0.01 0.05 0.13 0.26 0.24 0.09 0.04 0.09 0.15 0.12 0.46 0.71 0.77 0.25 0.01 0.05 0.05 0.02 0.00 0.00 0.00 0.00 0.01 0.03 0.09 0.03 0.07
0.18 0.20 0.22 0.25 0.29 0.26 0.26 0.30 0.28 0.23 0.26 0.25 0.31 0.30 0.40 0.35 0.21 0.06 0.03 0.06 0.29 0.50 0.37 0.25 0.12 0.22 0.23 0.14 0.28 0.59 0.43 0.06 0.03 0.11 0.13 0.03 0.00 0.00 0.00 0.00 0.00 0.03 0.05 0.09 0.20
0.23 0.27 0.27 0.26 0.27 0.30 0.33 0.27 0.30 0.31 0.33 0.25 0.31 0.55 0.64 0.33 0.23 0.08 0.03 0.06 0.27 0.75 0.49 0.38 0.24 0.24 0.16 0.09 0.05 0.26 0.15 0.06 0.08 0.27 0.22 0.06 0.01 0.00 0.00 0.00 0.00 0.06 0.12 0.17 0.23
0.33 0.35 0.30 0.28 0.30 0.34 0.33 0.33 0.36 0.30 0.28 0.24 0.35 0.59 0.64 0.42 0.10 0.13 0.10 0.14 0.47 0.93 0.45 0.47 0.41 0.19 0.10 0.03 0.06 0.06 0.10 0.08 0.20 0.45 0.17 0.10 0.10 0.00 0.00 0.00 0.00 0.02 0.07 0.18 0.27
0.34 0.32 0.29 0.33 0.32 0.35 0.31 0.38 0.31 0.30 0.36 0.47 0.51 0.68 0.46 0.21 0.03 0.03 0.12 0.22 0.43 0.89 0.56 0.53 0.54 0.22 0.13 0.05 0.07 0.03 0.05 0.16 0.38 0.41 0.24 0.23 0.17 0.04 0.00 0.00 0.00 0.03 0.03 0.11 0.24
0.39 0.35 0.33 0.36 0.38 0.36 0.33 0.38 0.31 0.23 0.32 0.38 0.62 0.53 0.40 0.11 0.04 0.08 0.11 0.23 0.36 0.81 0.59 0.53 0.94 0.45 0.26 0.17 0.09 0.08 0.13 0.28 0.39 0.40 0.36 0.29 0.28 0.23 0.00 0.00 0.00 0.02 0.03 0.02 0.04
0.41 0.39 0.40 0.44 0.43 0.37 0.29 0.28 0.24 0.32 0.33 0.41 0.65 0.75 0.26 0.02 0.04 0.02 0.10 0.29 0.43 0.75 1.06 0.94 1.30 0.49 0.30 0.18 0.24 0.37 0.30 0.23 0.19 0.24 0.39 0.62 0.38 0.07 0.01 0.00 0.00 0.00 0.00 0.01 0.01
0.48 0.42 0.43 0.50 0.48 0.32 0.25 0.31 0.48 0.55 0.54 0.66 0.71 0.61 0.19 0.06 0.07 0.02 0.11 0.36 0.41 0.68 1.16 1.50 2.09 0.88 0.36 0.32 0.41 0.43 0.17 0.04 0.13 0.14 0.19 0.28 0.31 0.14 0.09 0.00 0.00 0.00 0.00 0.00 0.01
0.46 0.46 0.48 0.44 0.43 0.39 0.48 0.52 0.72 0.82 0.79 1.00 1.03 0.71 0.20 0.07 0.12 0.08 0.12 0.43 0.56 0.89 1.85 2.28 3.06 1.47 0.49 0.37 0.25 0.09 0.06 0.03 0.05 0.12 0.16 0.11 0.14 0.09 0.11 0.03 0.00 0.00 0.00 0.00 0.01
0.48 0.52 0.47 0.51 0.63 0.62 0.90 1.50 1.31 1.25 0.97 0.70 0.45 0.24 0.23 0.19 0.32 0.31 0.22 0.56 1.04 1.58 2.15 1.86 2.86 1.22 0.26 0.06 0.03 0.02 0.06 0.03 0.02 0.03 0.12 0.10 0.05 0.03 0.04 0.07 0.01 0.00 0.00 0.00 0.00
0.47 0.41 0.49 0.64 0.68 0.95 1.34 1.19 0.68 0.63 0.72 0.30 0.21 0.12 0.11 0.29 0.56 0.59 0.32 1.00 1.35 1.75 2.22 2.03 1.52 0.56 0.27 0.12 0.07 0.08 0.09 0.08 0.09 0.08 0.06 0.05 0.04 0.02 0.02 0.04 0.03 0.00 0.00 0.00 0.00
0.46 0.43 0.56 0.72 0.83 1.02 1.08 0.70 0.37 0.72 1.23 0.68 0.46 0.33 0.26 0.43 0.59 0.64 0.48 1.05 1.32 1.59 1.89 1.47 0.99 0.56 0.42 0.26 0.19 0.11 0.08 0.13 0.07 0.10 0.10 0.04 0.02 0.02 0.01 0.00 0.02 0.00 0.00 0.00 0.00
0.45 0.53 0.71 0.96 1.11 1.16 1.19 0.92 0.86 1.36 2.03 1.06 0.81 0.77 0.67 0.86 0.99 0.67 0.60 1.20 1.41 1.33 1.40 1.36 0.93 0.84 0.55 0.44 0.16 0.13 0.04 0.08 0.11 0.17 0.10 0.08 0.04 0.00 0.00 0.00 0.00 0.00 0.00 0.00 0.00
0.52 0.69 0.88 1.40 1.50 1.23 1.40 1.23 1.51 1.92 1.90 0.74 0.91 1.02 0.87 1.04 0.84 1.03 0.64 1.24 0.91 1.18 1.56 1.32 0.99 1.02 0.79 0.57 0.20 0.15 0.04 0.06 0.11 0.24 0.36 0.08 0.08 0.01 0.00 0.00 0.00 0.00 0.00 0.00 0.00
0.75 0.85 1.05 1.24 1.25 0.84 1.06 1.80 2.20 2.22 1.63 1.56 1.28 1.40 0.99 0.67 0.75 0.74 0.84 1.12 0.89 1.53 1.29 0.78 0.95 1.00 0.72 0.60 0.30 0.19 0.17 0.17 0.25 0.36 0.55 0.34 0.10 0.02 0.00 0.00 0.00 0.00 0.00 0.00 0.00
0.96 0.93 1.37 1.04 1.20 0.86 1.22 2.14 2.27 1.23 0.98 1.37 1.70 1.33 0.60 0.53 0.54 0.92 1.24 0.90 1.41 1.85 2.03 1.60 1.31 1.01 0.70 0.93 0.70 0.49 0.62 0.87 0.80 0.83 0.37 0.07 0.24 0.11 0.00 0.00 0.00 0.00 0.00 0.00 0.00
0.84 1.12 1.23 0.92 0.86 1.49 1.42 1.62 1.41 0.74 0.98 0.73 0.89 0.68 0.75 0.55 0.79 0.74 0.95 0.38 0.63 0.99 1.30 1.47 1.51 1.13 0.94 0.89 0.97 0.67 0.55 0.80 0.40 0.30 0.13 0.05 0.07 0.03 0.00 0.00 0.00 0.00 0.00 0.00 0.00
1.21 1.31 1.62 1.16 1.07 1.63 1.76 1.34 1.21 1.05 1.00 0.88 0.63 0.54 0.70 0.33 0.51 0.54 0.44 0.19 0.34 0.54 0.70 0.67 0.84 0.61 0.59 0.58 0.70 0.78 0.75 0.49 0.51 0.22 0.32 0.10 0.02 0.00 0.00 0.00 0.00 0.00 0.00 0.00 0.00
1.75 1.70 1.78 1.04 1.12 1.76 1.93 1.17 1.14 1.17 0.65 0.30 0.39 0.19 0.13 0.15 0.27 0.21 0.14 0.06 0.19 0.16 0.22 0.36 0.74 0.72 0.67 0.74 0.83 0.60 0.36 0.54 1.10 0.49 0.20 0.11 0.06 0.00 0.00 0.00 0.00 0.00 0.00 0.00 0.00
1.75 2.03 1.62 1.28 1.62 2.10 1.56 0.94 0.85 0.64 0.39 0.21 0.06 0.06 0.03 0.03 0.19 0.05 0.05 0.05 0.11 0.07 0.14 0.45 0.67 0.80 1.02 1.01 0.78 0.65 0.65 0.52 0.58 0.29 0.14 0.06 0.08 0.01 0.00 0.00 0.02 0.01 0.01 0.01 0.01
1.62 1.96 1.32 1.98 2.33 1.53 0.81 0.90 0.92 0.53 0.20 0.18 0.07 0.02 0.01 0.01 0.12 0.05 0.03 0.03 0.03 0.03 0.16 0.38 0.56 0.76 0.62 0.21 0.17 0.28 0.28 0.20 0.78 0.40 0.27 0.17 0.06 0.01 0.01 0.00 0.02 0.03 0.03 0.02 0.01
1.64 1.54 2.21 1.39 1.22 0.76 0.69 0.85 0.59 0.19 0.19 0.21 0.05 0.01 0.00 0.01 0.02 0.01 0.02 0.00 0.00 0.01 0.15 0.29 0.74 0.78 0.76 0.52 0.49 0.65 0.35 0.28 0.62 1.13 0.62 0.31 0.07 0.00 0.01 0.01 0.01 0.01 0.03 0.01 0.00
1.27 1.67 3.09 2.02 0.54 0.57 1.00 1.13 0.79 0.25 0.19 0.23 0.08 0.04 0.04 0.02 0.00 0.00 0.04 0.00 0.00 0.01 0.18 0.66 0.61 0.75 0.75 0.74 0.79 0.55 0.31 0.49 1.00 1.36 0.39 0.17 0.03 0.01 0.01 0.03 0.02 0.03 0.04 0.06 0.02
0.75 0.62 0.82 0.85 0.42 0.23 0.67 0.83 0.83 0.66 0.43 0.27 0.13 0.04 0.05 0.02 0.02 0.00 0.01 0.00 0.00 0.01 0.21 0.73 0.94 1.21 0.74 0.38 0.93 0.53 0.29 0.37 0.87 0.61 0.58 0.18 0.07 0.02 0.01 0.04 0.10 0.09 0.11 0.06 0.03
0.50 0.31 0.16 0.06 0.04 0.05 0.37 0.84 0.90 0.77 0.60 0.31 0.14 0.05 0.05 0.03 0.01 0.00 0.00 0.00 0.00 0.01 0.11 0.47 0.79 0.96 0.56 0.17 0.33 0.34 0.15 0.20 0.19 0.31 0.41 0.17 0.22 0.05 0.02 0.12 0.29 0.17 0.22 0.11 0.06
0.54 0.27 0.13 0.11 0.06 0.04 0.09 0.40 0.64 0.63 0.49 0.27 0.18 0.16 0.04 0.02 0.01 0.01 0.00 0.00 0.00 0.01 0.10 0.28 0.45 0.78 0.63 0.37 0.24 0.42 0.26 0.15 0.14 0.20 0.33 0.31 0.19 0.07 0.07 0.29 0.31 0.31 0.30 0.09 0.03

GFSSW_prec_precacc_090.txt.gz
Total_Precipitation_Accumulation
0.17 0.19 0.20 0.22 0.21 0.22 0.22 0.22 0.26 0.27 0.28 0.31 0.38 0.39 0.49 0.50 0.37 0.19 0.09 0.03 0.02 0.09 0.23 0.01 0.02 0.05 0.08 0.12 0.34 0.59 0.93 0.21 0.01 0.00 0.02 0.00 0.00 0.00 0.00 0.00 0.00 0.03 0.14 0.15 0.04
0.16 0.18 0.23 0.25 0.24 0.22 0.22 0.30 0.25 0.19 0.22 0.22 0.24 0.32 0.41 0.42 0.26 0.18 0.01 0.05 0.14 0.30 0.27 0.09 0.05 0.10 0.16 0.13 0.48 0.80 0.97 0.29 0.01 0.06 0.05 0.02 0.00 0.00 0.00 0.00 0.02 0.06 0.17 0.09 0.10
0.18 0.20 0.23 0.26 0.30 0.27 0.26 0.31 0.29 0.23 0.26 0.25 0.31 0.30 0.40 0.35 0.21 0.06 0.03 0.06 0.30 0.56 0.45 0.28 0.15 0.24 0.24 0.16 0.31 0.76 0.57 0.12 0.05 0.15 0.14 0.03 0.00 0.00 0.00 0.00 0.01 0.05 0.07 0.18 0.31
0.23 0.27 0.28 0.27 0.27 0.31 0.33 0.27 0.31 0.32 0.33 0.25 0.31 0.55 0.64 0.33 0.23 0.08 0.03 0.06 0.27 0.84 0.63 0.43 0.27 0.28 0.18 0.10 0.07 0.36 0.31 0.12 0.10 0.33 0.27 0.06 0.01 0.00 0.00 0.00 0.00 0.07 0.18 0.26 0.30
0.33 0.36 0.30 0.29 0.30 0.35 0.33 0.33 0.37 0.31 0.29 0.24 0.35 0.59 0.64 0.42 0.10 0.13 0.10 0.14 0.47 0.94 0.50 0.51 0.44 0.26 0.13 0.04 0.07 0.09 0.20 0.17 0.30 0.48 0.24 0.13 0.11 0.00 0.00 0.00 0.00 0.02 0.07 0.25 0.39
0.34 0.33 0.29 0.33 0.33 0.36 0.31 0.38 0.32 0.32 0.38 0.47 0.51 0.68 0.46 0.21 0.03 0.03 0.12 0.22 0.43 0.91 0.62 0.58 0.59 0.32 0.16 0.09 0.09 0.04 0.10 0.21 0.56 0.45 0.28 0.27 0.18 0.04 0.00 0.00 0.00 0.03 0.03 0.14 0.27
0.39 0.35 0.33 0.36 0.39 0.36 0.33 0.38 0.31 0.23 0.33 0.38 0.62 0.53 0.40 0.11 0.04 0.08 0.11 0.24 0.36 0.82 0.65 0.60 1.02 0.65 0.36 0.22 0.10 0.09 0.18 0.39 0.64 0.54 0.41 0.32 0.29 0.24 0.00 0.00 0.01 0.02 0.04 0.05 0.07
0.41 0.39 0.40 0.45 0.43 0.38 0.29 0.28 0.24 0.32 0.33 0.41 0.65 0.75 0.26 0.02 0.04 0.02 0.10 0.29 0.43 0.75 1.06 0.96 1.61 0.77 0.43 0.23 0.24 0.39 0.38 0.40 0.38 0.39 0.48 0.71 0.42 0.07 0.01 0.00 0.00 0.00 0.00 0.04 0.05
0.48 0.42 0.43 0.50 0.48 0.32 0.25 0.31 0.48 0.55 0.54 0.66 0.71 0.61 0.19 0.06 0.07 0.02 0.11 0.36 0.41 0.68 1.16 1.54 2.28 1.07 0.49 0.40 0.43 0.46 0.20 0.14 0.34 0.25 0.25 0.39 0.39 0.15 0.09 0.00 0.00 0.00 0.00 0.01 0.04
0.46 0.46 0.48 0.45 0.43 0.39 0.48 0.52 0.72 0.82 0.79 1.00 1.03 0.71 0.20 0.07 0.12 0.08 0.12 0.43 0.56 0.90 1.86 2.37 3.11 1.55 0.71 0.49 0.27 0.11 0.07 0.04 0.11 0.23 0.18 0.18 0.21 0.19 0.14 0.04 0.00 0.00 0.00 0.00 0.01
0.48 0.52 0.47 0.51 0.63 0.62 0.90 1.50 1.31 1.25 0.97 0.70 0.45 0.24 0.23 0.19 0.32 0.31 0.22 0.57 1.04 1.58 2.15 1.88 2.87 1.26 0.45 0.12 0.04 0.03 0.06 0.03 0.03 0.04 0.14 0.15 0.09 0.09 0.10 0.10 0.01 0.00 0.00 0.00 0.00
0.47 0.41 0.49 0.64 0.68 0.95 1.34 1.19 0.68 0.63 0.72 0.30 0.21 0.12 0.11 0.29 0.56 0.59 0.32 1.01 1.36 1.78 2.25 2.05 1.52 0.58 0.37 0.16 0.08 0.09 0.10 0.09 0.12 0.12 0.07 0.10 0.07 0.05 0.10 0.08 0.03 0.00 0.00 0.00 0.00
0.46 0.43 0.56 0.72 0.83 1.02 1.08 0.70 0.37 0.72 1.23 0.68 0.46 0.33 0.26 0.44 0.59 0.64 0.48 1.06 1.37 1.71 1.98 1.48 1.00 0.57 0.46 0.30 0.19 0.12 0.10 0.14 0.09 0.19 0.13 0.06 0.04 0.02 0.03 0.01 0.02 0.00 0.00 0.00 0.00
0.45 0.53 0.71 0.96 1.11 1.16 1.19 0.92 0.86 1.36 2.03 1.07 0.81 0.77 0.67 0.88 0.99 0.67 0.60 1.21 1.53 1.53 1.47 1.38 0.94 0.85 0.58 0.45 0.16 0.13 0.04 0.09 0.12 0.21 0.20 0.12 0.06 0.00 0.00 0.00 0.00 0.00 0.00 0.00 0.00
0.52 0.69 0.88 1.40 1.50 1.23 1.40 1.23 1.51 1.92 1.90 0.74 0.91 1.02 0.87 1.04 0.84 1.03 0.64 1.25 0.97 1.27 1.62 1.41 1.01 1.02 0.79 0.57 0.20 0.15 0.04 0.07 0.15 0.27 0.41 0.13 0.10 0.01 0.00 0.00 0.00 0.00 0.00 0.00 0.00
0.75 0.85 1.05 1.24 1.25 0.84 1.06 1.80 2.20 2.22 1.63 1.56 1.28 1.40 0.99 0.67 0.75 0.74 0.84 1.14 0.98 1.64 1.32 0.80 0.95 1.01 0.72 0.60 0.30 0.19 0.18 0.18 0.29 0.41 0.57 0.34 0.10 0.02 0.00 0.00 0.00 0.00 0.00 0.00 0.00
0.96 0.93 1.37 1.04 1.20 0.86 1.22 2.14 2.27 1.23 0.98 1.37 1.70 1.33 0.60 0.53 0.54 0.92 1.24 0.90 1.42 1.87 2.07 1.66 1.42 1.06 0.70 0.93 0.70 0.52 0.63 0.97 0.96 0.96 0.38 0.07 0.24 0.11 0.00 0.00 0.00 0.00 0.00 0.00 0.00
0.84 1.12 1.23 0.92 0.86 1.49 1.42 1.62 1.41 0.74 0.98 0.73 0.89 0.68 0.75 0.55 0.79 0.74 0.95 0.39 0.64 0.99 1.30 1.50 1.55 1.13 0.94 0.89 1.03 0.73 0.57 0.81 0.43 0.31 0.13 0.05 0.07 0.03 0.00 0.00 0.00 0.00 0.00 0.00 0.00
1.21 1.31 1.62 1.16 1.07 1.63 1.76 1.34 1.21 1.05 1.00 0.88 0.63 0.54 0.70 0.33 0.51 0.54 0.44 0.19 0.34 0.54 0.70 0.67 0.84 0.61 0.59 0.58 0.74 0.81 0.75 0.49 0.51 0.22 0.32 0.10 0.02 0.00 0.00 0.00 0.00 0.00 0.00 0.00 0.00
1.75 1.70 1.78 1.04 1.12 1.76 1.93 1.17 1.14 1.17 0.65 0.30 0.39 0.19 0.13 0.15 0.27 0.21 0.14 0.06 0.19 0.16 0.22 0.36 0.74 0.72 0.67 0.74 0.83 0.60 0.36 0.54 1.10 0.49 0.20 0.11 0.06 0.00 0.00 0.00 0.00 0.00 0.00 0.00 0.00
1.75 2.03 1.63 1.28 1.62 2.10 1.56 0.94 0.85 0.64 0.39 0.21 0.06 0.06 0.03 0.03 0.19 0.05 0.05 0.05 0.11 0.07 0.14 0.45 0.67 0.80 1.02 1.01 0.78 0.65 0.65 0.52 0.58 0.29 0.14 0.06 0.08 0.01 0.00 0.00 0.02 0.01 0.01 0.01 0.01
1.62 1.96 1.32 1.98 2.33 1.53 0.81 0.90 0.92 0.53 0.20 0.18 0.07 0.02 0.01 0.01 0.12 0.05 0.03 0.03 0.03 0.03 0.16 0.38 0.56 0.76 0.62 0.21 0.17 0.28 0.28 0.20 0.78 0.40 0.27 0.17 0.06 0.01 0.01 0.00 0.02 0.03 0.03 0.02 0.01
1.64 1.54 2.21 1.39 1.22 0.76 0.69 0.85 0.59 0.19 0.19 0.21 0.05 0.01 0.00 0.01 0.02 0.01 0.02 0.00 0.00 0.01 0.15 0.29 0.74 0.78 0.76 0.52 0.49 0.65 0.35 0.28 0.62 1.13 0.62 0.31 0.07 0.00 0.01 0.01 0.01 0.01 0.03 0.01 0.00
1.27 1.67 3.09 2.02 0.54 0.57 1.00 1.13 0.79 0.25 0.19 0.23 0.08 0.04 0.04 0.02 0.00 0.00 0.04 0.00 0.00 0.01 0.18 0.66 0.61 0.75 0.75 0.74 0.79 0.55 0.31 0.49 1.00 1.36 0.39 0.17 0.03 0.01 0.01 0.03 0.02 0.03 0.04 0.06 0.02
0.75 0.62 0.82 0.86 0.42 0.23 0.67 0.83 0.83 0.66 0.43 0.27 0.13 0.04 0.05 0.02 0.02 0.00 0.01 0.00 0.00 0.01 0.21 0.73 0.94 1.21 0.74 0.38 0.93 0.53 0.29 0.37 0.87 0.61 0.58 0.18 0.07 0.02 0.01 0.04 0.10 0.09 0.11 0.06 0.03
0.50 0.31 0.16 0.06 0.04 0.05 0.37 0.84 0.90 0.77 0.60 0.31 0.14 0.05 0.05 0.03 0.01 0.00 0.00 0.00 0.00 0.01 0.11 0.47 0.79 0.96 0.56 0.17 0.33 0.34 0.15 0.20 0.19 0.31 0.41 0.17 0.22 0.05 0.02 0.12 0.29 0.17 0.22 0.11 0.06
0.54 0.27 0.13 0.11 0.06 0.04 0.09 0.40 0.64 0.63 0.49 0.27 0.18 0.16 0.04 0.02 0.01 0.01 0.00 0.00 0.00 0.01 0.10 0.28 0.45 0.78 0.63 0.37 0.24 0.42 0.26 0.15 0.14 0.20 0.33 0.31 0.19 0.07 0.07 0.29 0.31 0.31 0.30 0.09 0.03

GFSSW_prec_precacc_093.txt.gz
Total_Precipitation_Accumulation
0.17 0.19 0.20 0.22 0.22 0.22 0.22 0.22 0.27 0.27 0.29 0.31 0.39 0.39 0.49 0.50 0.37 0.19 0.09 0.03 0.02 0.09 0.23 0.01 0.02 0.05 0.08 0.12 0.34 0.64 1.20 0.42 0.01 0.00 0.02 0.00 0.00 0.00 0.00 0.00 0.01 0.03 0.14 0.15 0.07
0.16 0.18 0.23 0.26 0.24 0.22 0.22 0.30 0.27 0.20 0.22 0.22 0.24 0.32 0.41 0.42 0.26 0.18 0.01 0.05 0.14 0.31 0.27 0.09 0.05 0.10 0.16 0.13 0.49 0.90 1.18 0.51 0.02 0.06 0.05 0.02 0.00 0.00 0.00 0.00 0.04 0.08 0.17 0.09 0.11
0.18 0.20 0.23 0.27 0.30 0.27 0.27 0.31 0.30 0.25 0.27 0.25 0.31 0.30 0.40 0.35 0.21 0.06 0.03 0.06 0.30 0.56 0.45 0.28 0.16 0.26 0.25 0.17 0.31 0.78 0.77 0.23 0.07 0.16 0.14 0.03 0.00 0.00 0.00 0.00 0.01 0.06 0.07 0.18 0.31
0.23 0.27 0.28 0.28 0.28 0.31 0.33 0.27 0.31 0.34 0.35 0.25 0.31 0.55 0.64 0.33 0.23 0.08 0.03 0.06 0.27 0.84 0.63 0.44 0.28 0.31 0.20 0.11 0.08 0.38 0.38 0.29 0.21 0.38 0.31 0.07 0.01 0.00 0.00 0.01 0.02 0.10 0.21 0.31 0.35
0.33 0.36 0.30 0.29 0.31 0.36 0.33 0.33 0.37 0.33 0.31 0.24 0.35 0.59 0.64 0.42 0.10 0.13 0.10 0.14 0.47 0.95 0.51 0.51 0.45 0.27 0.15 0.04 0.08 0.11 0.22 0.28 0.52 0.56 0.32 0.16 0.11 0.00 0.00 0.00 0.04 0.11 0.16 0.30 0.46
0.34 0.33 0.29 0.33 0.33 0.36 0.32 0.39 0.32 0.32 0.41 0.48 0.51 0.68 0.46 0.21 0.03 0.03 0.12 0.22 0.44 0.94 0.63 0.62 0.60 0.33 0.20 0.10 0.09 0.04 0.11 0.26 0.88 0.73 0.34 0.31 0.19 0.05 0.00 0.00 0.00 0.10 0.13 0.24 0.37
0.39 0.35 0.33 0.36 0.39 0.36 0.34 0.38 0.31 0.23 0.34 0.38 0.62 0.53 0.40 0.11 0.04 0.08 0.11 0.24 0.37 0.84 0.67 0.63 1.07 0.70 0.41 0.24 0.10 0.09 0.21 0.42 0.93 0.93 0.56 0.36 0.31 0.24 0.00 0.01 0.02 0.05 0.12 0.16 0.21
0.42 0.39 0.40 0.45 0.43 0.38 0.29 0.28 0.24 0.32 0.33 0.41 0.65 0.75 0.26 0.02 0.04 0.02 0.10 0.29 0.43 0.76 1.07 0.99 1.67 0.81 0.57 0.28 0.26 0.39 0.42 0.46 0.50 0.87 0.75 0.75 0.44 0.08 0.01 0.00 0.00 0.01 0.04 0.10 0.17
0.50 0.42 0.43 0.50 0.48 0.32 0.25 0.31 0.48 0.55 0.54 0.66 0.71 0.61 0.19 0.06 0.07 0.02 0.11 0.36 0.42 0.70 1.17 1.56 2.38 1.24 0.69 0.47 0.47 0.47 0.24 0.19 0.44 0.52 0.69 0.49 0.42 0.16 0.09 0.00 0.00 0.00 0.00 0.05 0.12
0.49 0.47 0.48 0.45 0.43 0.39 0.48 0.52 0.72 0.82 0.79 1.00 1.03 0.71 0.20 0.07 0.12 0.08 0.12 0.43 0.57 0.91 1.87 2.47 3.32 1.77 0.92 0.56 0.31 0.12 0.09 0.08 0.32 0.48 0.64 0.41 0.26 0.22 0.15 0.04 0.00 0.00 0.00 0.00 0.03
0.52 0.53 0.47 0.51 0.63 0.62 0.90 1.50 1.31 1.25 0.97 0.70 0.45 0.24 0.23 0.19 0.32 0.31 0.22 0.57 1.04 1.60 2.17 1.96 2.95 1.34 0.54 0.22 0.05 0.03 0.07 0.04 0.13 0.22 0.34 0.36 0.21 0.20 0.13 0.10 0.01 0.00 0.00 0.00 0.00
0.53 0.44 0.49 0.64 0.68 0.95 1.34 1.19 0.68 0.63 0.72 0.30 0.21 0.12 0.11 0.29 0.56 0.59 0.32 1.01 1.38 1.80 2.27 2.07 1.55 0.60 0.44 0.29 0.09 0.11 0.11 0.11 0.17 0.19 0.14 0.22 0.22 0.13 0.19 0.08 0.03 0.00 0.00 0.00 0.00
0.52 0.47 0.56 0.72 0.83 1.02 1.08 0.70 0.37 0.72 1.23 0.68 0.46 0.33 0.26 0.44 0.59 0.64 0.49 1.10 1.43 1.76 2.01 1.49 1.01 0.62 0.69 0.40 0.20 0.14 0.11 0.16 0.13 0.26 0.15 0.07 0.12 0.07 0.06 0.02 0.02 0.00 0.00 0.00 0.00
0.54 0.56 0.71 0.96 1.11 1.16 1.19 0.92 0.86 1.36 2.03 1.07 0.81 0.77 0.67 0.88 0.99 0.67 0.62 1.35 1.69 1.60 1.49 1.39 0.96 0.92 0.86 0.49 0.18 0.13 0.06 0.10 0.14 0.28 0.24 0.13 0.07 0.01 0.00 0.00 0.00 0.00 0.00 0.00 0.00
0.60 0.71 0.88 1.40 1.50 1.23 1.40 1.23 1.51 1.92 1.90 0.74 0.91 1.02 0.87 1.04 0.84 1.03 0.67 1.35 1.07 1.30 1.63 1.43 1.04 1.24 0.96 0.58 0.22 0.16 0.04 0.08 0.15 0.28 0.48 0.18 0.10 0.01 0.00 0.00 0.00 0.00 0.00 0.00 0.00
0.82 0.86 1.05 1.24 1.25 0.84 1.06 1.80 2.20 2.22 1.63 1.56 1.28 1.40 0.99 0.67 0.75 0.75 0.89 1.22 1.02 1.64 1.33 0.82 0.96 1.04 0.72 0.61 0.30 0.21 0.20 0.21 0.30 0.42 0.62 0.38 0.10 0.02 0.00 0.00 0.00 0.00 0.00 0.00 0.00
1.02 0.93 1.37 1.04 1.20 0.86 1.22 2.14 2.27 1.23 0.98 1.37 1.70 1.33 0.60 0.53 0.54 0.92 1.25 0.91 1.43 1.88 2.08 1.66 1.44 1.07 0.70 0.94 0.71 0.53 0.63 1.01 1.01 1.05 0.39 0.07 0.24 0.11 0.00 0.00 0.00 0.00 0.00 0.00 0.00
0.89 1.12 1.23 0.92 0.86 1.49 1.42 1.62 1.41 0.74 0.98 0.73 0.89 0.68 0.75 0.55 0.79 0.74 0.95 0.39 0.64 0.99 1.30 1.55 1.58 1.14 0.94 0.89 1.04 0.74 0.57 0.82 0.45 0.34 0.13 0.05 0.07 0.03 0.00 0.00 0.00 0.00 0.00 0.00 0.00
1.25 1.31 1.62 1.16 1.07 1.63 1.76 1.34 1.21 1.05 1.00 0.88 0.63 0.54 0.70 0.33 0.51 0.54 0.44 0.19 0.34 0.54 0.70 0.67 0.86 0.61 0.59 0.58 0.76 0.81 0.75 0.49 0.51 0.22 0.32 0.10 0.02 0.00 0.00 0.00 0.00 0.00 0.00 0.00 0.00
1.78 1.70 1.78 1.04 1.12 1.76 1.93 1.17 1.14 1.17 0.65 0.30 0.39 0.19 0.13 0.15 0.27 0.21 0.14 0.06 0.19 0.16 0.22 0.36 0.75 0.72 0.67 0.74 0.85 0.61 0.36 0.54 1.10 0.49 0.20 0.11 0.06 0.00 0.00 0.00 0.00 0.00 0.00 0.00 0.00
1.75 2.03 1.63 1.28 1.62 2.10 1.56 0.94 0.85 0.64 0.39 0.21 0.06 0.06 0.03 0.03 0.19 0.05 0.05 0.05 0.11 0.07 0.14 0.45 0.67 0.80 1.02 1.01 0.79 0.66 0.65 0.52 0.58 0.29 0.14 0.06 0.08 0.01 0.00 0.00 0.02 0.01 0.01 0.01 0.01
1.62 1.96 1.32 1.98 2.33 1.53 0.81 0.90 0.92 0.53 0.20 0.18 0.07 0.02 0.01 0.01 0.12 0.05 0.03 0.03 0.03 0.03 0.16 0.38 0.56 0.76 0.62 0.21 0.17 0.28 0.28 0.20 0.78 0.40 0.27 0.17 0.06 0.01 0.01 0.00 0.02 0.03 0.03 0.02 0.01
1.65 1.54 2.21 1.39 1.22 0.76 0.69 0.85 0.59 0.19 0.19 0.21 0.05 0.01 0.00 0.01 0.02 0.01 0.02 0.00 0.00 0.01 0.15 0.29 0.74 0.78 0.76 0.52 0.49 0.65 0.35 0.28 0.62 1.13 0.62 0.31 0.07 0.00 0.01 0.01 0.01 0.01 0.03 0.01 0.00
1.27 1.67 3.09 2.02 0.54 0.57 1.00 1.13 0.79 0.25 0.19 0.23 0.08 0.04 0.04 0.02 0.00 0.00 0.04 0.00 0.00 0.01 0.18 0.66 0.61 0.75 0.75 0.74 0.79 0.55 0.31 0.49 1.00 1.36 0.39 0.17 0.03 0.01 0.01 0.03 0.02 0.03 0.04 0.06 0.02
0.75 0.62 0.82 0.86 0.42 0.23 0.67 0.83 0.83 0.66 0.43 0.27 0.13 0.04 0.05 0.02 0.02 0.00 0.01 0.00 0.00 0.01 0.21 0.73 0.94 1.21 0.74 0.38 0.93 0.53 0.29 0.37 0.87 0.61 0.58 0.18 0.07 0.02 0.01 0.04 0.10 0.09 0.11 0.06 0.03
0.50 0.31 0.16 0.06 0.04 0.05 0.37 0.84 0.90 0.77 0.60 0.31 0.14 0.05 0.05 0.03 0.01 0.00 0.00 0.00 0.00 0.01 0.11 0.47 0.79 0.96 0.56 0.17 0.33 0.34 0.15 0.20 0.19 0.31 0.41 0.17 0.22 0.05 0.02 0.12 0.29 0.17 0.22 0.11 0.06
0.54 0.27 0.13 0.11 0.06 0.04 0.09 0.40 0.64 0.63 0.49 0.27 0.18 0.16 0.04 0.02 0.01 0.01 0.00 0.00 0.00 0.01 0.10 0.28 0.45 0.78 0.63 0.37 0.24 0.42 0.26 0.15 0.14 0.20 0.33 0.31 0.19 0.07 0.07 0.29 0.31 0.31 0.30 0.09 0.03

GFSSW_prec_precacc_096.txt.gz
Total_Precipitation_Accumulation
0.17 0.19 0.20 0.22 0.23 0.23 0.22 0.22 0.28 0.29 0.29 0.31 0.39 0.39 0.49 0.50 0.37 0.19 0.09 0.03 0.02 0.09 0.24 0.01 0.02 0.05 0.08 0.12 0.34 0.66 1.24 0.54 0.03 0.01 0.02 0.00 0.00 0.00 0.00 0.00 0.01 0.03 0.15 0.16 0.12
0.17 0.19 0.23 0.26 0.25 0.22 0.22 0.30 0.27 0.23 0.24 0.22 0.24 0.32 0.41 0.42 0.26 0.18 0.01 0.05 0.14 0.32 0.27 0.09 0.05 0.10 0.16 0.13 0.49 0.92 1.19 0.58 0.09 0.07 0.05 0.02 0.00 0.00 0.00 0.02 0.07 0.10 0.18 0.11 0.12
0.21 0.21 0.23 0.27 0.31 0.27 0.27 0.31 0.30 0.26 0.29 0.25 0.31 0.30 0.40 0.35 0.21 0.06 0.03 0.06 0.30 0.56 0.45 0.28 0.16 0.27 0.25 0.18 0.32 0.79 0.77 0.25 0.13 0.19 0.17 0.05 0.00 0.00 0.01 0.04 0.02 0.06 0.07 0.18 0.32
0.29 0.31 0.29 0.28 0.28 0.31 0.34 0.28 0.31 0.34 0.37 0.26 0.31 0.55 0.64 0.33 0.23 0.08 0.03 0.06 0.27 0.84 0.63 0.44 0.28 0.31 0.20 0.11 0.08 0.39 0.38 0.29 0.25 0.44 0.40 0.11 0.01 0.00 0.00 0.01 0.03 0.12 0.21 0.31 0.36
0.44 0.43 0.33 0.29 0.31 0.36 0.34 0.33 0.37 0.33 0.33 0.25 0.35 0.59 0.64 0.42 0.10 0.13 0.10 0.14 0.47 0.95 0.51 0.51 0.46 0.27 0.15 0.04 0.08 0.11 0.22 0.28 0.58 0.65 0.40 0.21 0.12 0.01 0.01 0.00 0.08 0.26 0.21 0.31 0.46
0.47 0.40 0.32 0.35 0.33 0.37 0.32 0.39 0.32 0.32 0.42 0.49 0.51 0.68 0.46 0.21 0.03 0.03 0.12 0.22 0.44 0.95 0.64 0.62 0.61 0.35 0.22 0.10 0.10 0.04 0.11 0.26 0.90 0.89 0.49 0.41 0.20 0.06 0.01 0.01 0.16 0.25 0.31 0.31 0.43
0.51 0.43 0.39 0.40 0.40 0.37 0.34 0.38 0.31 0.23 0.34 0.40 0.63 0.53 0.40 0.11 0.04 0.08 0.11 0.24 0.37 0.85 0.68 0.65 1.12 0.77 0.42 0.25 0.11 0.10 0.21 0.43 0.93 1.08 1.00 0.61 0.33 0.24 0.01 0.02 0.06 0.18 0.38 0.32 0.32
0.62 0.51 0.47 0.48 0.44 0.38 0.29 0.28 0.24 0.32 0.33 0.41 0.65 0.75 0.26 0.02 0.04 0.02 0.10 0.29 0.43 0.76 1.07 1.01 1.73 0.93 0.62 0.29 0.31 0.40 0.43 0.47 0.50 0.95 1.29 1.29 0.58 0.08 0.03 0.02 0.03 0.03 0.16 0.39 0.37
0.63 0.49 0.49 0.55 0.49 0.32 0.25 0.31 0.48 0.56 0.54 0.66 0.71 0.61 0.19 0.06 0.07 0.02 0.11 0.36 0.42 0.70 1.18 1.60 2.42 1.28 0.72 0.52 0.53 0.51 0.25 0.19 0.46 0.58 1.11 1.15 0.65 0.17 0.10 0.02 0.01 0.01 0.02 0.13 0.26
0.69 0.64 0.58 0.50 0.45 0.39 0.48 0.52 0.72 0.82 0.79 1.00 1.03 0.71 0.20 0.07 0.12 0.08 0.12 0.43 0.57 0.91 1.89 2.54 3.56 1.83 0.94 0.66 0.39 0.13 0.10 0.08 0.34 0.58 0.85 0.87 0.68 0.28 0.16 0.05 0.00 0.00 0.00 0.01 0.07
0.75 0.72 0.64 0.59 0.65 0.62 0.90 1.50 1.31 1.25 0.97 0.70 0.45 0.24 0.23 0.19 0.32 0.31 0.22 0.57 1.04 1.61 2.21 2.03 3.16 1.39 0.61 0.25 0.08 0.03 0.07 0.05 0.15 0.31 0.51 0.60 0.61 0.40 0.15 0.10 0.01 0.00 0.00 0.00 0.00
0.71 0.60 0.62 0.71 0.70 0.95 1.34 1.19 0.68 0.63 0.72 0.30 0.21 0.12 0.11 0.29 0.56 0.59 0.32 1.01 1.38 1.82 2.29 2.10 1.60 0.61 0.52 0.36 0.12 0.12 0.13 0.13 0.20 0.29 0.27 0.35 0.48 0.41 0.21 0.08 0.03 0.00 0.00 0.00 0.00
0.73 0.67 0.77 0.80 0.84 1.02 1.08 0.70 0.37 0.72 1.23 0.68 0.46 0.33 0.26 0.44 0.59 0.64 0.50 1.12 1.46 1.78 2.02 1.51 1.01 0.62 0.77 0.50 0.21 0.14 0.13 0.18 0.18 0.46 0.20 0.12 0.20 0.31 0.13 0.02 0.02 0.00 0.00 0.00 0.00
0.74 0.75 0.87 1.01 1.12 1.16 1.19 0.92 0.86 1.36 2.03 1.07 0.81 0.77 0.67 0.88 0.99 0.67 0.63 1.41 1.75 1.64 1.52 1.46 0.98 0.94 0.98 0.54 0.18 0.14 0.10 0.14 0.16 0.34 0.27 0.15 0.10 0.14 0.12 0.00 0.00 0.00 0.00 0.00 0.00
0.80 0.91 1.02 1.43 1.51 1.23 1.40 1.23 1.51 1.92 1.90 0.74 0.91 1.02 0.87 1.04 0.84 1.04 0.69 1.39 1.11 1.33 1.66 1.53 1.19 1.46 1.11 0.59 0.22 0.17 0.09 0.12 0.17 0.29 0.49 0.21 0.15 0.04 0.09 0.02 0.00 0.00 0.00 0.00 0.00
1.08 1.08 1.18 1.28 1.25 0.84 1.06 1.80 2.20 2.22 1.63 1.56 1.28 1.40 0.99 0.67 0.75 0.77 0.90 1.23 1.06 1.74 1.38 0.98 1.37 1.34 0.77 0.62 0.31 0.22 0.21 0.22 0.31 0.42 0.63 0.39 0.12 0.03 0.01 0.01 0.00 0.00 0.00 0.00 0.00
1.30 1.15 1.50 1.07 1.20 0.86 1.22 2.14 2.27 1.23 0.98 1.37 1.70 1.33 0.60 0.53 0.54 0.92 1.25 0.91 1.45 1.92 2.11 1.68 1.49 1.10 0.74 0.96 0.76 0.56 0.63 1.01 1.02 1.05 0.40 0.07 0.24 0.11 0.00 0.00 0.00 0.00 0.00 0.00 0.00
1.14 1.36 1.35 0.94 0.86 1.49 1.42 1.62 1.41 0.74 0.98 0.73 0.89 0.68 0.75 0.55 0.79 0.74 0.95 0.39 0.64 0.99 1.31 1.56 1.61 1.16 0.96 0.90 1.06 0.77 0.57 0.82 0.46 0.34 0.13 0.05 0.07 0.03 0.00 0.00 0.00 0.00 0.00 0.00 0.00
1.54 1.52 1.72 1.17 1.07 1.63 1.76 1.34 1.21 1.05 1.00 0.88 0.63 0.54 0.70 0.33 0.51 0.54 0.44 0.19 0.34 0.54 0.70 0.68 0.90 0.62 0.60 0.59 0.78 0.85 0.75 0.49 0.51 0.22 0.32 0.10 0.02 0.00 0.00 0.00 0.00 0.00 0.00 0.00 0.00
2.01 1.89 1.85 1.04 1.12 1.76 1.93 1.17 1.14 1.17 0.65 0.30 0.39 0.19 0.13 0.15 0.27 0.21 0.14 0.06 0.19 0.16 0.22 0.36 0.75 0.72 0.67 0.75 0.85 0.61 0.36 0.54 1.10 0.49 0.20 0.11 0.06 0.00 0.00 0.00 0.00 0.00 0.00 0.00 0.00
1.95 2.18 1.66 1.28 1.62 2.10 1.56 0.94 0.85 0.64 0.39 0.21 0.06 0.06 0.03 0.03 0.19 0.05 0.05 0.05 0.11 0.07 0.14 0.45 0.67 0.80 1.02 1.01 0.79 0.66 0.65 0.52 0.58 0.29 0.14 0.06 0.08 0.01 0.00 0.00 0.02 0.01 0.01 0.01 0.01
1.73 2.03 1.33 1.98 2.33 1.53 0.81 0.90 0.92 0.53 0.20 0.18 0.07 0.02 0.01 0.01 0.12 0.05 0.03 0.03 0.03 0.03 0.16 0.38 0.56 0.76 0.62 0.21 0.17 0.28 0.28 0.20 0.78 0.40 0.27 0.17 0.06 0.01 0.01 0.00 0.02 0.03 0.03 0.02 0.01
1.76 1.59 2.22 1.39 1.22 0.76 0.69 0.85 0.59 0.19 0.19 0.21 0.05 0.01 0.00 0.01 0.02 0.01 0.02 0.00 0.00 0.01 0.15 0.29 0.74 0.78 0.76 0.52 0.49 0.65 0.35 0.28 0.62 1.13 0.62 0.31 0.07 0.00 0.01 0.01 0.01 0.01 0.03 0.01 0.00
1.39 1.70 3.10 2.03 0.54 0.57 1.00 1.13 0.79 0.25 0.19 0.23 0.08 0.04 0.04 0.02 0.00 0.00 0.04 0.00 0.00 0.01 0.18 0.66 0.61 0.75 0.75 0.74 0.79 0.55 0.31 0.49 1.00 1.36 0.39 0.17 0.03 0.01 0.01 0.03 0.02 0.03 0.04 0.06 0.02
0.79 0.62 0.82 0.86 0.42 0.23 0.67 0.83 0.83 0.66 0.43 0.27 0.13 0.04 0.05 0.02 0.02 0.00 0.01 0.00 0.00 0.01 0.21 0.73 0.94 1.21 0.74 0.38 0.93 0.53 0.29 0.37 0.87 0.61 0.58 0.18 0.07 0.02 0.01 0.04 0.10 0.09 0.11 0.06 0.03
0.50 0.31 0.16 0.06 0.04 0.05 0.37 0.84 0.90 0.77 0.60 0.31 0.14 0.05 0.05 0.03 0.01 0.00 0.00 0.00 0.00 0.01 0.11 0.47 0.79 0.96 0.56 0.17 0.33 0.34 0.15 0.20 0.19 0.31 0.41 0.17 0.22 0.05 0.02 0.12 0.29 0.17 0.22 0.11 0.06
0.54 0.27 0.13 0.11 0.06 0.04 0.09 0.40 0.64 0.63 0.49 0.27 0.18 0.16 0.04 0.02 0.01 0.01 0.00 0.00 0.00 0.01 0.10 0.28 0.45 0.78 0.63 0.37 0.24 0.42 0.26 0.15 0.14 0.20 0.33 0.31 0.19 0.07 0.07 0.29 0.31 0.31 0.30 0.09 0.03

GFSSW_prec_precacc_099.txt.gz
Total_Precipitation_Accumulation
0.19 0.20 0.22 0.23 0.23 0.24 0.23 0.22 0.28 0.29 0.30 0.32 0.39 0.39 0.49 0.50 0.37 0.19 0.09 0.03 0.02 0.09 0.24 0.01 0.02 0.05 0.08 0.12 0.34 0.68 1.27 0.54 0.04 0.04 0.04 0.00 0.00 0.00 0.00 0.00 0.01 0.03 0.15 0.18 0.15
0.19 0.21 0.25 0.27 0.25 0.23 0.23 0.30 0.27 0.23 0.25 0.23 0.24 0.32 0.41 0.42 0.26 0.18 0.01 0.05 0.14 0.32 0.27 0.09 0.05 0.10 0.16 0.13 0.49 0.93 1.20 0.58 0.10 0.08 0.06 0.03 0.00 0.00 0.01 0.05 0.09 0.10 0.18 0.12 0.14
0.30 0.26 0.29 0.31 0.32 0.28 0.28 0.31 0.30 0.26 0.30 0.26 0.31 0.30 0.40 0.35 0.21 0.06 0.03 0.06 0.30 0.56 0.45 0.28 0.16 0.27 0.25 0.18 0.32 0.80 0.77 0.25 0.13 0.20 0.19 0.06 0.01 0.00 0.02 0.07 0.02 0.07 0.09 0.19 0.33
0.39 0.43 0.39 0.34 0.30 0.32 0.34 0.28 0.31 0.34 0.37 0.27 0.31 0.55 0.64 0.33 0.23 0.08 0.03 0.06 0.27 0.84 0.63 0.44 0.28 0.31 0.20 0.11 0.09 0.40 0.38 0.29 0.25 0.45 0.41 0.13 0.03 0.00 0.00 0.01 0.05 0.14 0.28 0.32 0.39
0.54 0.53 0.44 0.35 0.33 0.37 0.35 0.34 0.37 0.33 0.33 0.26 0.35 0.59 0.64 0.42 0.10 0.13 0.10 0.14 0.47 0.95 0.51 0.51 0.46 0.27 0.15 0.04 0.08 0.12 0.22 0.28 0.58 0.66 0.41 0.24 0.13 0.03 0.01 0.01 0.11 0.35 0.25 0.33 0.46
0.56 0.48 0.44 0.47 0.40 0.40 0.33 0.39 0.33 0.33 0.42 0.49 0.51 0.68 0.46 0.21 0.03 0.03 0.12 0.22 0.44 0.95 0.64 0.62 0.61 0.35 0.22 0.11 0.11 0.04 0.11 0.26 0.90 0.90 0.50 0.46 0.25 0.08 0.01 0.01 0.24 0.50 0.46 0.36 0.44
0.58 0.59 0.59 0.54 0.47 0.40 0.36 0.39 0.31 0.23 0.34 0.42 0.63 0.53 0.40 0.11 0.04 0.08 0.11 0.24 0.37 0.85 0.68 0.65 1.12 0.78 0.45 0.27 0.12 0.11 0.23 0.43 0.93 1.08 1.02 0.71 0.46 0.27 0.02 0.05 0.16 0.29 0.54 0.41 0.38
0.68 0.65 0.60 0.56 0.50 0.44 0.31 0.28 0.24 0.33 0.33 0.42 0.66 0.75 0.26 0.02 0.04 0.02 0.10 0.29 0.43 0.76 1.07 1.01 1.75 1.04 0.71 0.33 0.38 0.43 0.46 0.50 0.50 0.95 1.31 1.38 0.73 0.12 0.05 0.08 0.14 0.16 0.29 0.51 0.60
0.67 0.58 0.64 0.69 0.64 0.43 0.28 0.31 0.48 0.56 0.55 0.66 0.71 0.61 0.19 0.06 0.07 0.02 0.11 0.36 0.42 0.70 1.18 1.62 2.44 1.51 0.90 0.57 0.58 0.59 0.28 0.21 0.47 0.59 1.14 1.24 0.86 0.30 0.14 0.07 0.11 0.14 0.16 0.21 0.42
0.71 0.74 0.78 0.68 0.62 0.49 0.51 0.53 0.73 0.82 0.79 1.00 1.03 0.71 0.20 0.07 0.12 0.08 0.12 0.43 0.57 0.91 1.89 2.60 3.71 1.88 0.97 0.70 0.43 0.21 0.11 0.10 0.36 0.60 0.87 0.95 0.93 0.44 0.19 0.09 0.07 0.12 0.17 0.14 0.11
0.78 0.85 0.76 0.72 0.79 0.73 0.95 1.51 1.31 1.25 0.97 0.70 0.45 0.24 0.23 0.19 0.32 0.31 0.22 0.57 1.04 1.61 2.22 2.12 3.38 1.47 0.61 0.25 0.09 0.09 0.07 0.06 0.16 0.35 0.52 0.63 0.82 0.62 0.22 0.14 0.05 0.06 0.11 0.16 0.08
0.74 0.69 0.71 0.80 0.81 1.06 1.39 1.19 0.68 0.63 0.72 0.30 0.21 0.12 0.11 0.29 0.56 0.59 0.32 1.01 1.38 1.82 2.29 2.12 1.63 0.62 0.53 0.36 0.13 0.17 0.15 0.18 0.25 0.31 0.28 0.38 0.63 0.65 0.39 0.14 0.05 0.02 0.06 0.07 0.08
0.77 0.79 0.88 0.94 1.00 1.17 1.12 0.70 0.37 0.72 1.23 0.68 0.46 0.33 0.26 0.44 0.59 0.64 0.50 1.12 1.46 1.78 2.03 1.55 1.09 0.64 0.79 0.51 0.26 0.16 0.15 0.21 0.20 0.48 0.26 0.16 0.25 0.43 0.32 0.07 0.03 0.01 0.02 0.03 0.05
0.78 0.91 0.97 1.16 1.33 1.29 1.22 0.92 0.86 1.36 2.03 1.07 0.81 0.77 0.67 0.88 0.99 0.67 0.63 1.42 1.76 1.66 1.57 1.58 1.07 1.00 1.10 0.57 0.20 0.14 0.13 0.23 0.20 0.39 0.33 0.18 0.12 0.17 0.25 0.13 0.01 0.00 0.00 0.00 0.01
0.84 1.08 1.12 1.54 1.65 1.32 1.41 1.23 1.51 1.92 1.90 0.74 0.91 1.02 0.87 1.04 0.85 1.04 0.69 1.40 1.14 1.46 1.86 1.63 1.21 1.53 1.18 0.60 0.23 0.17 0.10 0.20 0.23 0.31 0.50 0.22 0.17 0.06 0.11 0.14 0.03 0.00 0.00 0.00 0.00
1.13 1.20 1.30 1.44 1.42 0.88 1.06 1.80 2.20 2.22 1.63 1.56 1.28 1.40 0.99 0.67 0.75 0.77 0.90 1.26 1.15 1.97 1.77 1.25 1.52 1.46 0.81 0.66 0.33 0.23 0.23 0.27 0.33 0.42 0.63 0.39 0.12 0.03 0.01 0.06 0.02 0.00 0.00 0.00 0.00
1.38 1.30 1.60 1.22 1.30 0.87 1.22 2.14 2.27 1.23 0.98 1.37 1.70 1.33 0.60 0.53 0.54 0.92 1.25 0.92 1.46 1.93 2.19 1.81 1.61 1.14 0.79 1.01 0.82 0.62 0.65 1.02 1.02 1.05 0.40 0.07 0.24 0.12 0.00 0.01 0.01 0.00 0.00 0.00 0.00
1.27 1.55 1.48 1.07 0.91 1.49 1.42 1.62 1.41 0.74 0.98 0.73 0.89 0.68 0.75 0.55 0.79 0.74 0.95 0.39 0.64 0.99 1.31 1.57 1.67 1.19 1.01 0.92 1.07 0.78 0.57 0.82 0.46 0.34 0.13 0.05 0.07 0.03 0.00 0.00 0.00 0.00 0.00 0.00 0.00
1.77 1.68 1.82 1.28 1.09 1.63 1.76 1.34 1.21 1.05 1.00 0.88 0.63 0.54 0.70 0.33 0.51 0.54 0.44 0.19 0.34 0.54 0.70 0.68 0.92 0.63 0.62 0.59 0.81 0.85 0.75 0.49 0.51 0.22 0.32 0.10 0.02 0.00 0.00 0.00 0.00 0.00 0.00 0.00 0.00
2.23 2.01 1.98 1.10 1.13 1.76 1.93 1.17 1.14 1.17 0.65 0.30 0.39 0.19 0.13 0.15 0.27 0.21 0.14 0.06 0.19 0.16 0.22 0.36 0.77 0.75 0.68 0.77 0.89 0.61 0.36 0.54 1.10 0.49 0.20 0.11 0.06 0.00 0.00 0.00 0.00 0.00 0.00 0.00 0.00
2.09 2.39 1.83 1.31 1.62 2.10 1.56 0.94 0.85 0.64 0.39 0.21 0.06 0.06 0.03 0.03 0.19 0.05 0.05 0.05 0.11 0.07 0.14 0.45 0.67 0.80 1.02 1.01 0.79 0.66 0.65 0.52 0.58 0.29 0.14 0.06 0.08 0.01 0.00 0.00 0.02 0.01 0.01 0.01 0.01
1.86 2.18 1.44 1.99 2.33 1.53 0.81 0.90 0.92 0.53 0.20 0.18 0.07 0.02 0.01 0.01 0.12 0.05 0.03 0.03 0.03 0.03 0.16 0.38 0.56 0.76 0.62 0.21 0.17 0.28 0.28 0.20 0.78 0.40 0.27 0.17 0.06 0.01 0.01 0.00 0.02 0.03 0.03 0.02 0.01
1.87 1.75 2.33 1.40 1.22 0.76 0.69 0.85 0.59 0.19 0.19 0.21 0.05 0.01 0.00 0.01 0.02 0.01 0.02 0.00 0.00 0.01 0.15 0.29 0.74 0.78 0.76 0.52 0.49 0.65 0.35 0.28 0.62 1.13 0.62 0.31 0.07 0.00 0.01 0.01 0.01 0.01 0.03 0.01 0.00
1.44 1.83 3.19 2.03 0.54 0.57 1.00 1.13 0.79 0.25 0.19 0.23 0.08 0.04 0.04 0.02 0.00 0.00 0.04 0.00 0.00 0.01 0.18 0.66 0.61 0.75 0.75 0.74 0.79 0.55 0.31 0.49 1.00 1.36 0.39 0.17 0.03 0.01 0.01 0.03 0.02 0.03 0.04 0.06 0.02
0.84 0.64 0.82 0.87 0.42 0.23 0.67 0.83 0.83 0.66 0.43 0.27 0.13 0.04 0.05 0.02 0.02 0.00 0.01 0.00 0.00 0.01 0.21 0.73 0.94 1.21 0.74 0.38 0.93 0.53 0.29 0.37 0.87 0.61 0.58 0.18 0.07 0.02 0.01 0.04 0.10 0.09 0.11 0.06 0.03
0.52 0.31 0.16 0.06 0.04 0.05 0.37 0.84 0.90 0.77 0.60 0.31 0.14 0.05 0.05 0.03 0.01 0.00 0.00 0.00 0.00 0.01 0.11 0.47 0.79 0.96 0.56 0.17 0.33 0.34 0.15 0.20 0.19 0.31 0.41 0.17 0.22 0.05 0.02 0.12 0.29 0.17 0.22 0.11 0.06
0.54 0.27 0.13 0.11 0.06 0.04 0.09 0.40 0.64 0.63 0.49 0.27 0.18 0.16 0.04 0.02 0.01 0.01 0.00 0.00 0.00 0.01 0.10 0.28 0.45 0.78 0.63 0.37 0.24 0.42 0.26 0.15 0.14 0.20 0.33 0.31 0.19 0.07 0.07 0.29 0.31 0.31 0.30 0.09 0.03

GFSSW_prec_precacc_102.txt.gz
Total_Precipitation_Accumulation
0.26 0.24 0.24 0.24 0.23 0.24 0.23 0.23 0.28 0.29 0.30 0.33 0.39 0.39 0.49 0.50 0.37 0.19 0.09 0.03 0.02 0.09 0.25 0.01 0.02 0.05 0.08 0.12 0.35 0.70 1.28 0.54 0.04 0.04 0.05 0.00 0.00 0.00 0.00 0.01 0.01 0.03 0.15 0.18 0.26
0.25 0.29 0.33 0.29 0.27 0.23 0.23 0.30 0.27 0.23 0.25 0.25 0.24 0.32 0.41 0.42 0.26 0.18 0.01 0.05 0.15 0.33 0.27 0.09 0.05 0.10 0.16 0.14 0.49 0.94 1.20 0.58 0.10 0.08 0.06 0.03 0.00 0.00 0.01 0.05 0.10 0.11 0.19 0.13 0.21
0.35 0.33 0.37 0.35 0.35 0.29 0.28 0.31 0.30 0.26 0.30 0.28 0.32 0.30 0.40 0.35 0.21 0.06 0.03 0.07 0.30 0.56 0.45 0.28 0.16 0.27 0.25 0.18 0.33 0.80 0.77 0.25 0.13 0.20 0.19 0.09 0.03 0.00 0.03 0.07 0.03 0.07 0.11 0.22 0.40
0.40 0.46 0.46 0.39 0.32 0.32 0.35 0.29 0.31 0.34 0.37 0.28 0.33 0.55 0.64 0.33 0.23 0.08 0.03 0.06 0.27 0.84 0.63 0.44 0.28 0.31 0.20 0.11 0.09 0.40 0.38 0.29 0.25 0.45 0.42 0.16 0.09 0.06 0.01 0.01 0.05 0.15 0.39 0.38 0.44
0.54 0.54 0.48 0.39 0.36 0.41 0.37 0.36 0.38 0.34 0.33 0.27 0.36 0.59 0.64 0.42 0.10 0.13 0.10 0.14 0.47 0.95 0.51 0.51 0.46 0.27 0.15 0.04 0.08 0.12 0.22 0.28 0.58 0.66 0.41 0.25 0.16 0.10 0.04 0.01 0.11 0.36 0.38 0.40 0.47
0.56 0.49 0.47 0.53 0.49 0.45 0.37 0.42 0.33 0.33 0.42 0.51 0.52 0.68 0.46 0.21 0.03 0.03 0.12 0.22 0.44 0.95 0.64 0.62 0.61 0.35 0.22 0.11 0.11 0.04 0.11 0.26 0.90 0.90 0.51 0.47 0.27 0.13 0.05 0.02 0.24 0.53 0.59 0.45 0.46
0.58 0.60 0.63 0.62 0.55 0.44 0.40 0.43 0.32 0.24 0.34 0.43 0.65 0.53 0.40 0.11 0.04 0.08 0.11 0.24 0.37 0.85 0.68 0.65 1.12 0.78 0.46 0.28 0.12 0.11 0.23 0.43 0.93 1.08 1.03 0.72 0.46 0.28 0.02 0.06 0.16 0.30 0.63 0.55 0.44
0.69 0.65 0.64 0.70 0.58 0.47 0.37 0.33 0.28 0.33 0.34 0.44 0.68 0.75 0.26 0.02 0.04 0.02 0.10 0.29 0.43 0.76 1.07 1.01 1.75 1.05 0.73 0.35 0.42 0.47 0.48 0.51 0.50 0.95 1.32 1.40 0.73 0.13 0.06 0.08 0.15 0.18 0.40 0.67 0.68
0.67 0.58 0.66 0.77 0.69 0.51 0.36 0.38 0.51 0.58 0.57 0.69 0.71 0.61 0.19 0.06 0.07 0.02 0.11 0.36 0.42 0.70 1.18 1.62 2.46 1.54 1.02 0.66 0.65 0.65 0.30 0.21 0.48 0.59 1.15 1.25 0.87 0.30 0.15 0.07 0.12 0.15 0.23 0.40 0.55
0.71 0.74 0.80 0.71 0.65 0.55 0.57 0.60 0.74 0.83 0.80 1.00 1.03 0.71 0.20 0.07 0.12 0.08 0.12 0.43 0.57 0.91 1.89 2.62 3.74 1.95 1.08 0.79 0.46 0.24 0.13 0.11 0.40 0.60 0.88 0.95 0.93 0.46 0.23 0.10 0.07 0.13 0.19 0.27 0.33
0.78 0.86 0.94 0.80 0.81 0.77 1.03 1.59 1.32 1.25 0.97 0.70 0.45 0.24 0.23 0.19 0.32 0.31 0.22 0.57 1.04 1.61 2.22 2.12 3.41 1.53 0.65 0.26 0.13 0.22 0.11 0.08 0.21 0.37 0.52 0.63 0.82 0.63 0.26 0.15 0.05 0.07 0.13 0.24 0.27
0.74 0.69 0.80 0.91 0.86 1.08 1.44 1.24 0.68 0.63 0.72 0.30 0.21 0.12 0.11 0.29 0.56 0.59 0.32 1.01 1.38 1.83 2.30 2.15 1.68 0.63 0.54 0.37 0.15 0.34 0.19 0.23 0.35 0.39 0.30 0.38 0.63 0.66 0.40 0.16 0.06 0.04 0.07 0.12 0.23
0.77 0.80 0.96 1.04 1.04 1.22 1.21 0.73 0.37 0.72 1.23 0.68 0.46 0.33 0.26 0.44 0.59 0.64 0.50 1.12 1.46 1.79 2.03 1.60 1.20 0.75 0.82 0.51 0.30 0.26 0.16 0.24 0.23 0.54 0.29 0.17 0.26 0.44 0.34 0.10 0.05 0.03 0.03 0.05 0.12
0.78 0.94 1.16 1.23 1.35 1.37 1.36 0.93 0.86 1.36 2.03 1.07 0.81 0.77 0.67 0.88 0.99 0.67 0.63 1.43 1.79 1.71 1.66 1.68 1.14 1.07 1.11 0.58 0.22 0.14 0.13 0.29 0.21 0.42 0.34 0.19 0.14 0.18 0.27 0.19 0.06 0.02 0.02 0.02 0.03
0.85 1.10 1.29 1.56 1.65 1.39 1.48 1.23 1.51 1.92 1.90 0.74 0.91 1.02 0.87 1.04 0.85 1.04 0.69 1.43 1.39 1.67 2.01 1.69 1.25 1.55 1.19 0.60 0.23 0.17 0.11 0.30 0.33 0.39 0.51 0.22 0.18 0.11 0.16 0.23 0.12 0.03 0.02 0.01 0.02
1.13 1.22 1.51 1.45 1.44 0.95 1.08 1.80 2.20 2.22 1.63 1.56 1.28 1.40 0.99 0.67 0.75 0.77 0.90 1.28 1.31 2.25 1.82 1.28 1.54 1.47 0.82 0.67 0.34 0.26 0.31 0.36 0.38 0.45 0.65 0.40 0.13 0.07 0.06 0.14 0.20 0.04 0.02 0.01 0.01
1.38 1.34 1.69 1.22 1.33 0.94 1.23 2.14 2.27 1.23 0.98 1.37 1.70 1.33 0.60 0.53 0.54 0.92 1.25 0.92 1.47 2.01 2.31 1.93 1.64 1.16 0.82 1.06 0.84 0.63 0.70 1.07 1.03 1.06 0.40 0.07 0.25 0.12 0.01 0.02 0.10 0.06 0.00 0.00 0.00
1.27 1.72 1.53 1.08 0.94 1.52 1.42 1.62 1.41 0.74 0.98 0.73 0.89 0.68 0.75 0.55 0.79 0.74 0.95 0.39 0.64 1.00 1.33 1.64 1.76 1.26 1.06 0.94 1.09 0.79 0.58 0.83 0.46 0.35 0.13 0.05 0.09 0.04 0.00 0.00 0.01 0.03 0.00 0.00 0.00
1.82 1.79 1.83 1.32 1.13 1.63 1.76 1.34 1.21 1.05 1.00 0.88 0.63 0.54 0.70 0.33 0.51 0.54 0.44 0.19 0.34 0.54 0.70 0.68 0.98 0.68 0.63 0.60 0.81 0.86 0.75 0.49 0.51 0.22 0.32 0.10 0.02 0.00 0.00 0.00 0.00 0.00 0.00 0.00 0.00
2.37 2.05 2.02 1.15 1.16 1.76 1.93 1.17 1.14 1.17 0.65 0.30 0.39 0.19 0.13 0.15 0.27 0.21 0.14 0.06 0.19 0.16 0.22 0.36 0.84 0.79 0.74 0.81 0.89 0.61 0.36 0.54 1.10 0.49 0.20 0.11 0.06 0.00 0.00 0.00 0.00 0.00 0.00 0.00 0.00
2.14 2.42 1.91 1.36 1.63 2.10 1.56 0.94 0.85 0.64 0.39 0.21 0.06 0.06 0.03 0.03 0.19 0.05 0.05 0.05 0.11 0.07 0.14 0.45 0.67 0.82 1.03 1.02 0.79 0.66 0.65 0.52 0.58 0.29 0.14 0.06 0.08 0.01 0.00 0.00 0.02 0.01 0.01 0.01 0.01
1.87 2.23 1.53 2.02 2.34 1.53 0.81 0.90 0.92 0.53 0.20 0.18 0.07 0.02 0.01 0.01 0.12 0.05 0.03 0.03 0.03 0.03 0.16 0.38 0.56 0.76 0.62 0.21 0.17 0.28 0.28 0.20 0.78 0.40 0.27 0.17 0.06 0.01 0.01 0.00 0.02 0.03 0.03 0.02 0.01
1.90 1.83 2.42 1.41 1.23 0.76 0.69 0.85 0.59 0.19 0.19 0.21 0.05 0.01 0.00 0.01 0.02 0.01 0.02 0.00 0.00 0.01 0.15 0.29 0.74 0.78 0.76 0.52 0.49 0.65 0.35 0.28 0.62 1.13 0.62 0.31 0.07 0.00 0.01 0.01 0.01 0.01 0.03 0.01 0.00
1.44 1.88 3.27 2.07 0.54 0.57 1.00 1.13 0.79 0.25 0.19 0.23 0.08 0.04 0.04 0.02 0.00 0.00 0.04 0.00 0.00 0.01 0.18 0.66 0.61 0.75 0.75 0.74 0.79 0.55 0.31 0.49 1.00 1.36 0.39 0.17 0.03 0.01 0.01 0.03 0.02 0.03 0.04 0.06 0.02
0.84 0.65 0.83 0.88 0.42 0.23 0.67 0.83 0.83 0.66 0.43 0.27 0.13 0.04 0.05 0.02 0.02 0.00 0.01 0.00 0.00 0.01 0.21 0.73 0.94 1.21 0.74 0.38 0.93 0.53 0.29 0.37 0.87 0.61 0.58 0.18 0.07 0.02 0.01 0.04 0.10 0.09 0.11 0.06 0.03
0.52 0.31 0.16 0.06 0.04 0.05 0.37 0.84 0.90 0.77 0.60 0.31 0.14 0.05 0.05 0.03 0.01 0.00 0.00 0.00 0.00 0.01 0.11 0.47 0.79 0.96 0.56 0.17 0.33 0.34 0.15 0.20 0.19 0.31 0.41 0.17 0.22 0.05 0.02 0.12 0.29 0.17 0.22 0.11 0.06
0.54 0.27 0.13 0.12 0.06 0.04 0.09 0.40 0.64 0.63 0.49 0.27 0.18 0.16 0.04 0.02 0.01 0.01 0.00 0.00 0.00 0.01 0.10 0.28 0.45 0.78 0.63 0.37 0.24 0.42 0.26 0.15 0.14 0.20 0.33 0.31 0.19 0.07 0.07 0.29 0.31 0.31 0.30 0.09 0.03

GFSSW_prec_precacc_105.txt.gz
Total_Precipitation_Accumulation
0.26 0.25 0.26 0.27 0.24 0.24 0.23 0.23 0.28 0.29 0.30 0.33 0.39 0.39 0.49 0.50 0.37 0.19 0.09 0.03 0.02 0.09 0.25 0.01 0.02 0.05 0.08 0.12 0.35 0.70 1.29 0.54 0.04 0.04 0.05 0.00 0.00 0.00 0.00 0.01 0.01 0.03 0.15 0.19 0.26
0.25 0.30 0.35 0.34 0.29 0.24 0.24 0.30 0.27 0.23 0.25 0.25 0.24 0.32 0.41 0.42 0.26 0.18 0.01 0.05 0.15 0.33 0.27 0.09 0.05 0.10 0.16 0.14 0.49 0.94 1.20 0.58 0.10 0.08 0.06 0.03 0.00 0.00 0.01 0.05 0.10 0.11 0.19 0.13 0.21
0.35 0.34 0.38 0.38 0.37 0.30 0.28 0.31 0.30 0.26 0.30 0.28 0.33 0.30 0.40 0.35 0.21 0.06 0.03 0.07 0.30 0.56 0.45 0.28 0.16 0.27 0.25 0.18 0.33 0.80 0.77 0.25 0.13 0.20 0.19 0.09 0.03 0.01 0.03 0.08 0.03 0.07 0.11 0.30 0.41
0.40 0.47 0.46 0.41 0.35 0.36 0.38 0.29 0.32 0.34 0.37 0.28 0.33 0.55 0.64 0.33 0.23 0.08 0.03 0.06 0.28 0.84 0.63 0.44 0.28 0.31 0.20 0.11 0.09 0.40 0.38 0.29 0.25 0.45 0.42 0.16 0.09 0.07 0.03 0.02 0.05 0.15 0.40 0.52 0.46
0.54 0.54 0.49 0.41 0.42 0.50 0.39 0.37 0.38 0.34 0.33 0.27 0.36 0.59 0.64 0.42 0.10 0.13 0.10 0.14 0.47 0.95 0.51 0.51 0.46 0.27 0.15 0.04 0.08 0.12 0.22 0.28 0.58 0.66 0.41 0.25 0.16 0.11 0.07 0.03 0.14 0.38 0.38 0.50 0.51
0.56 0.49 0.47 0.54 0.56 0.54 0.38 0.44 0.34 0.34 0.42 0.51 0.52 0.68 0.46 0.21 0.03 0.03 0.12 0.22 0.44 0.95 0.64 0.62 0.61 0.35 0.22 0.11 0.11 0.04 0.11 0.26 0.90 0.90 0.51 0.47 0.27 0.14 0.07 0.03 0.24 0.53 0.59 0.51 0.56
0.58 0.60 0.63 0.63 0.61 0.48 0.42 0.44 0.33 0.24 0.34 0.43 0.66 0.53 0.40 0.11 0.04 0.08 0.11 0.24 0.37 0.85 0.68 0.65 1.12 0.78 0.46 0.28 0.12 0.11 0.23 0.43 0.93 1.08 1.03 0.72 0.46 0.28 0.03 0.07 0.16 0.30 0.63 0.55 0.50
0.69 0.65 0.64 0.72 0.85 0.55 0.39 0.35 0.29 0.33 0.34 0.44 0.70 0.75 0.26 0.02 0.04 0.02 0.10 0.29 0.43 0.76 1.07 1.01 1.75 1.06 0.73 0.36 0.42 0.49 0.51 0.51 0.50 0.95 1.32 1.41 0.73 0.14 0.07 0.08 0.15 0.18 0.41 0.67 0.71
0.67 0.58 0.66 0.78 0.79 0.54 0.38 0.39 0.51 0.58 0.57 0.70 0.72 0.61 0.19 0.06 0.07 0.02 0.11 0.36 0.42 0.71 1.19 1.63 2.48 1.56 1.04 0.68 0.68 0.67 0.32 0.22 0.48 0.59 1.15 1.26 0.87 0.31 0.16 0.07 0.12 0.15 0.23 0.41 0.58
0.71 0.74 0.80 0.72 0.68 0.56 0.59 0.62 0.75 0.84 0.80 1.00 1.03 0.71 0.20 0.07 0.12 0.08 0.12 0.43 0.57 0.92 1.90 2.63 3.77 1.97 1.09 0.81 0.50 0.30 0.16 0.14 0.40 0.61 0.88 0.96 0.94 0.47 0.23 0.10 0.07 0.13 0.19 0.27 0.34
0.78 0.86 1.08 1.09 0.84 0.78 1.04 1.60 1.32 1.25 0.97 0.70 0.45 0.24 0.23 0.19 0.32 0.31 0.22 0.57 1.04 1.61 2.22 2.13 3.42 1.54 0.66 0.28 0.16 0.26 0.13 0.12 0.23 0.39 0.53 0.63 0.82 0.64 0.26 0.15 0.05 0.07 0.13 0.24 0.27
0.74 0.69 0.82 1.12 1.06 1.17 1.46 1.24 0.68 0.63 0.72 0.30 0.21 0.12 0.11 0.29 0.56 0.59 0.32 1.01 1.39 1.83 2.30 2.18 1.70 0.65 0.56 0.41 0.19 0.41 0.22 0.25 0.41 0.42 0.31 0.39 0.63 0.66 0.40 0.16 0.07 0.04 0.07 0.12 0.24
0.77 0.80 0.96 1.13 1.08 1.31 1.22 0.74 0.37 0.72 1.23 0.68 0.46 0.33 0.26 0.44 0.59 0.64 0.50 1.12 1.46 1.81 2.08 1.69 1.24 0.79 0.86 0.52 0.31 0.28 0.16 0.28 0.46 0.57 0.32 0.17 0.27 0.45 0.35 0.11 0.05 0.03 0.03 0.06 0.16
0.78 0.94 1.28 1.27 1.39 1.38 1.39 0.95 0.86 1.36 2.03 1.07 0.81 0.77 0.67 0.88 0.99 0.67 0.63 1.43 1.81 1.73 1.74 1.76 1.16 1.08 1.13 0.58 0.22 0.14 0.14 0.45 0.37 0.47 0.40 0.20 0.20 0.23 0.28 0.19 0.06 0.02 0.02 0.04 0.08
0.85 1.11 1.58 1.56 1.66 1.41 1.51 1.24 1.51 1.92 1.90 0.74 0.91 1.02 0.87 1.04 0.85 1.04 0.69 1.47 1.48 1.71 2.04 1.71 1.26 1.56 1.20 0.60 0.23 0.18 0.11 0.32 0.42 0.53 0.59 0.27 0.23 0.13 0.16 0.23 0.13 0.03 0.02 0.03 0.07
1.13 1.23 1.72 1.45 1.45 0.98 1.09 1.80 2.20 2.22 1.63 1.56 1.28 1.40 0.99 0.67 0.75 0.77 0.90 1.30 1.37 2.26 1.82 1.28 1.54 1.48 0.83 0.68 0.34 0.29 0.34 0.53 0.52 0.59 0.68 0.41 0.15 0.09 0.09 0.19 0.22 0.06 0.02 0.03 0.03
1.38 1.34 1.75 1.22 1.34 0.95 1.23 2.14 2.27 1.23 0.98 1.37 1.70 1.33 0.60 0.53 0.54 0.92 1.25 0.94 1.51 2.05 2.34 1.94 1.65 1.17 0.83 1.08 0.93 1.02 0.87 1.20 1.10 1.11 0.42 0.07 0.27 0.19 0.09 0.08 0.17 0.13 0.01 0.02 0.01
1.27 1.73 1.54 1.09 0.96 1.55 1.42 1.62 1.41 0.74 0.98 0.73 0.89 0.68 0.75 0.55 0.79 0.74 0.95 0.41 0.67 1.02 1.35 1.67 1.94 1.43 1.08 1.00 1.20 1.00 0.64 0.86 0.49 0.36 0.14 0.05 0.17 0.17 0.03 0.02 0.10 0.11 0.01 0.01 0.01
1.84 1.81 1.85 1.36 1.17 1.67 1.76 1.34 1.21 1.05 1.00 0.88 0.63 0.54 0.70 0.33 0.51 0.54 0.44 0.19 0.34 0.54 0.73 0.72 1.02 0.69 0.64 0.61 0.84 0.87 0.75 0.49 0.51 0.22 0.32 0.11 0.08 0.06 0.00 0.01 0.07 0.07 0.01 0.00 0.00
2.40 2.07 2.07 1.20 1.21 1.77 1.93 1.17 1.14 1.17 0.65 0.30 0.39 0.19 0.13 0.15 0.27 0.21 0.14 0.06 0.19 0.16 0.23 0.38 0.86 0.80 0.74 0.82 0.89 0.61 0.36 0.54 1.10 0.49 0.20 0.11 0.09 0.04 0.00 0.00 0.01 0.01 0.00 0.00 0.00
2.17 2.44 1.98 1.41 1.66 2.11 1.56 0.94 0.85 0.64 0.39 0.21 0.06 0.06 0.03 0.03 0.19 0.05 0.05 0.05 0.11 0.07 0.14 0.45 0.70 0.86 1.04 1.02 0.79 0.66 0.65 0.52 0.58 0.29 0.14 0.06 0.08 0.01 0.00 0.00 0.02 0.01 0.01 0.01 0.01
1.88 2.25 1.57 2.03 2.35 1.53 0.81 0.90 0.92 0.53 0.20 0.18 0.07 0.02 0.01 0.01 0.12 0.05 0.03 0.03 0.03 0.03 0.16 0.38 0.56 0.77 0.62 0.21 0.17 0.28 0.28 0.20 0.78 0.40 0.27 0.17 0.06 0.01 0.01 0.00 0.02 0.03 0.03 0.02 0.01
1.91 1.87 2.47 1.41 1.23 0.76 0.69 0.85 0.59 0.19 0.19 0.21 0.05 0.01 0.00 0.01 0.02 0.01 0.02 0.00 0.00 0.01 0.15 0.29 0.74 0.79 0.77 0.52 0.49 0.65 0.35 0.28 0.62 1.13 0.62 0.31 0.07 0.00 0.01 0.01 0.01 0.01 0.03 0.01 0.00
1.44 1.89 3.29 2.07 0.55 0.57 1.00 1.13 0.79 0.25 0.19 0.23 0.08 0.04 0.04 0.02 0.00 0.00 0.04 0.00 0.00 0.01 0.18 0.66 0.61 0.75 0.75 0.74 0.79 0.55 0.31 0.49 1.00 1.36 0.39 0.17 0.03 0.01 0.01 0.03 0.02 0.03 0.04 0.06 0.02
0.84 0.65 0.83 0.88 0.42 0.23 0.67 0.83 0.83 0.66 0.43 0.27 0.13 0.04 0.05 0.02 0.02 0.00 0.01 0.00 0.00 0.01 0.21 0.73 0.94 1.21 0.74 0.38 0.93 0.53 0.29 0.37 0.87 0.61 0.58 0.18 0.07 0.02 0.01 0.04 0.10 0.09 0.11 0.06 0.03
0.52 0.31 0.16 0.06 0.04 0.05 0.37 0.84 0.90 0.77 0.60 0.31 0.14 0.05 0.05 0.03 0.01 0.00 0.00 0.00 0.00 0.01 0.11 0.47 0.79 0.96 0.56 0.17 0.33 0.34 0.15 0.20 0.19 0.31 0.41 0.17 0.22 0.05 0.02 0.12 0.29 0.17 0.22 0.11 0.06
0.54 0.27 0.13 0.12 0.06 0.04 0.09 0.40 0.64 0.63 0.49 0.27 0.18 0.16 0.04 0.02 0.01 0.01 0.00 0.00 0.00 0.01 0.10 0.28 0.45 0.78 0.63 0.37 0.24 0.42 0.26 0.15 0.14 0.20 0.33 0.31 0.19 0.07 0.07 0.29 0.31 0.31 0.30 0.09 0.03

GFSSW_prec_precacc_108.txt.gz
Total_Precipitation_Accumulation
0.26 0.25 0.26 0.27 0.25 0.26 0.25 0.24 0.28 0.29 0.30 0.33 0.39 0.39 0.49 0.50 0.37 0.19 0.09 0.03 0.02 0.09 0.25 0.01 0.02 0.05 0.08 0.12 0.35 0.70 1.29 0.55 0.04 0.04 0.05 0.00 0.00 0.00 0.00 0.01 0.01 0.03 0.15 0.19 0.27
0.25 0.30 0.35 0.34 0.33 0.30 0.27 0.31 0.27 0.23 0.25 0.25 0.24 0.32 0.41 0.42 0.26 0.18 0.01 0.05 0.15 0.33 0.27 0.09 0.05 0.10 0.16 0.14 0.49 0.94 1.21 0.58 0.10 0.08 0.06 0.03 0.00 0.00 0.01 0.05 0.10 0.11 0.19 0.14 0.22
0.35 0.34 0.38 0.38 0.38 0.32 0.30 0.32 0.30 0.26 0.30 0.28 0.33 0.30 0.40 0.35 0.21 0.06 0.03 0.07 0.30 0.56 0.45 0.28 0.16 0.27 0.25 0.18 0.33 0.80 0.78 0.25 0.13 0.20 0.19 0.09 0.03 0.01 0.03 0.08 0.03 0.07 0.11 0.35 0.51
0.40 0.47 0.46 0.41 0.37 0.40 0.44 0.31 0.33 0.35 0.38 0.28 0.34 0.55 0.64 0.33 0.23 0.08 0.03 0.06 0.28 0.84 0.63 0.44 0.28 0.31 0.20 0.11 0.09 0.40 0.38 0.29 0.25 0.45 0.42 0.16 0.09 0.07 0.03 0.02 0.05 0.15 0.40 0.53 0.55
0.55 0.55 0.49 0.42 0.42 0.59 0.51 0.37 0.39 0.34 0.34 0.27 0.36 0.59 0.64 0.42 0.10 0.13 0.10 0.14 0.47 0.95 0.51 0.51 0.46 0.27 0.15 0.04 0.08 0.12 0.22 0.28 0.58 0.66 0.41 0.25 0.16 0.11 0.07 0.03 0.14 0.38 0.39 0.50 0.56
0.56 0.49 0.47 0.54 0.57 0.60 0.44 0.44 0.34 0.34 0.43 0.51 0.52 0.68 0.46 0.21 0.03 0.03 0.12 0.22 0.44 0.95 0.64 0.62 0.61 0.35 0.22 0.11 0.11 0.04 0.11 0.26 0.90 0.90 0.51 0.47 0.27 0.14 0.07 0.03 0.24 0.53 0.59 0.51 0.58
0.58 0.60 0.63 0.63 0.62 0.50 0.43 0.45 0.33 0.25 0.34 0.43 0.66 0.53 0.40 0.11 0.04 0.08 0.11 0.24 0.37 0.85 0.68 0.65 1.12 0.78 0.46 0.28 0.12 0.11 0.23 0.43 0.93 1.08 1.03 0.72 0.46 0.28 0.03 0.07 0.16 0.30 0.64 0.56 0.51
0.69 0.65 0.64 0.72 1.01 0.75 0.41 0.37 0.32 0.34 0.34 0.44 0.70 0.75 0.26 0.02 0.04 0.02 0.10 0.29 0.43 0.76 1.07 1.01 1.75 1.06 0.73 0.36 0.42 0.49 0.51 0.52 0.50 0.95 1.32 1.42 0.73 0.14 0.07 0.08 0.15 0.18 0.41 0.68 0.71
0.67 0.58 0.66 0.78 0.81 0.67 0.51 0.45 0.52 0.58 0.58 0.70 0.72 0.62 0.19 0.06 0.07 0.02 0.11 0.36 0.42 0.71 1.19 1.63 2.48 1.56 1.04 0.69 0.69 0.68 0.32 0.23 0.49 0.59 1.15 1.27 0.87 0.31 0.16 0.07 0.12 0.15 0.23 0.41 0.58
0.71 0.74 0.80 0.73 0.69 0.62 0.62 0.66 0.76 0.84 0.81 1.00 1.03 0.71 0.20 0.07 0.12 0.08 0.12 0.43 0.57 0.92 1.90 2.64 3.78 1.98 1.10 0.82 0.51 0.32 0.23 0.17 0.41 0.61 0.88 0.98 0.95 0.49 0.25 0.10 0.07 0.13 0.19 0.27 0.34
0.78 0.86 1.09 1.30 0.86 0.79 1.07 1.66 1.33 1.26 0.97 0.70 0.45 0.24 0.23 0.19 0.32 0.31 0.22 0.57 1.04 1.62 2.22 2.13 3.43 1.54 0.66 0.29 0.17 0.27 0.14 0.13 0.23 0.39 0.55 0.65 0.83 0.65 0.32 0.19 0.06 0.07 0.13 0.24 0.27
0.74 0.69 0.84 1.51 1.17 1.24 1.56 1.27 0.68 0.63 0.73 0.30 0.21 0.12 0.11 0.29 0.56 0.59 0.32 1.01 1.39 1.83 2.33 2.23 1.71 0.65 0.56 0.41 0.20 0.44 0.24 0.26 0.42 0.42 0.34 0.41 0.66 0.66 0.41 0.17 0.07 0.04 0.07 0.12 0.24
0.77 0.80 0.96 1.23 1.18 1.46 1.35 0.76 0.37 0.72 1.23 0.68 0.46 0.33 0.26 0.44 0.59 0.64 0.50 1.12 1.48 1.86 2.17 1.76 1.25 0.79 0.87 0.52 0.31 0.28 0.17 0.29 0.62 0.61 0.35 0.19 0.31 0.46 0.35 0.11 0.05 0.03 0.03 0.06 0.16
0.78 0.94 1.28 1.29 1.41 1.44 1.41 0.96 0.86 1.36 2.03 1.07 0.81 0.77 0.67 0.88 1.00 0.67 0.63 1.44 1.84 1.75 1.76 1.79 1.16 1.09 1.14 0.59 0.23 0.15 0.15 0.54 0.49 0.49 0.48 0.21 0.22 0.26 0.29 0.20 0.06 0.02 0.02 0.04 0.10
0.85 1.12 1.72 1.57 1.68 1.42 1.55 1.26 1.51 1.92 1.90 0.74 0.91 1.02 0.87 1.04 0.85 1.05 0.69 1.48 1.50 1.72 2.05 1.72 1.27 1.56 1.20 0.61 0.23 0.18 0.17 0.40 0.54 0.64 0.66 0.30 0.38 0.25 0.18 0.24 0.14 0.03 0.02 0.04 0.12
1.13 1.24 1.84 1.46 1.48 1.00 1.11 1.80 2.20 2.22 1.63 1.56 1.28 1.40 0.99 0.67 0.75 0.77 0.90 1.31 1.37 2.26 1.83 1.29 1.55 1.48 0.84 0.69 0.34 0.29 0.39 0.63 0.86 0.85 0.93 0.60 0.41 0.25 0.12 0.21 0.23 0.07 0.02 0.05 0.14
1.38 1.34 1.78 1.23 1.38 0.98 1.23 2.14 2.27 1.23 0.98 1.37 1.70 1.33 0.60 0.53 0.54 0.92 1.26 0.94 1.51 2.05 2.34 1.94 1.66 1.17 0.83 1.10 0.94 1.08 1.12 1.46 1.31 1.16 0.47 0.17 0.32 0.28 0.11 0.09 0.18 0.14 0.02 0.06 0.07
1.27 1.73 1.55 1.09 0.98 1.56 1.42 1.62 1.41 0.74 0.98 0.73 0.89 0.68 0.75 0.55 0.79 0.74 0.96 0.42 0.67 1.02 1.36 1.68 1.96 1.43 1.09 1.15 1.45 1.07 0.70 0.94 0.56 0.39 0.17 0.07 0.24 0.29 0.11 0.08 0.15 0.13 0.04 0.05 0.06
1.84 1.81 1.86 1.37 1.20 1.68 1.76 1.34 1.21 1.05 1.00 0.88 0.63 0.54 0.70 0.33 0.51 0.54 0.45 0.19 0.34 0.54 0.77 0.77 1.05 0.69 0.65 0.64 0.89 0.89 0.77 0.50 0.56 0.23 0.35 0.20 0.18 0.13 0.12 0.17 0.25 0.12 0.03 0.07 0.11
2.40 2.08 2.10 1.24 1.23 1.77 1.93 1.17 1.14 1.17 0.65 0.30 0.39 0.19 0.13 0.15 0.27 0.21 0.15 0.06 0.19 0.16 0.24 0.38 0.86 0.80 0.74 0.83 0.90 0.61 0.36 0.54 1.12 0.51 0.27 0.19 0.15 0.16 0.12 0.27 0.18 0.08 0.01 0.06 0.06
2.17 2.45 2.01 1.43 1.67 2.11 1.56 0.94 0.85 0.64 0.39 0.21 0.06 0.06 0.03 0.03 0.19 0.05 0.05 0.05 0.11 0.07 0.14 0.45 0.71 0.86 1.04 1.02 0.79 0.66 0.65 0.52 0.58 0.29 0.14 0.06 0.11 0.04 0.05 0.11 0.09 0.03 0.01 0.01 0.01
1.88 2.26 1.58 2.03 2.35 1.53 0.81 0.90 0.92 0.53 0.20 0.18 0.07 0.02 0.01 0.01 0.12 0.05 0.03 0.03 0.03 0.03 0.16 0.38 0.56 0.77 0.62 0.21 0.17 0.28 0.28 0.20 0.78 0.40 0.27 0.18 0.08 0.01 0.01 0.00 0.02 0.03 0.03 0.02 0.01
1.91 1.88 2.47 1.42 1.24 0.76 0.69 0.85 0.59 0.19 0.19 0.21 0.05 0.01 0.00 0.01 0.02 0.01 0.02 0.00 0.00 0.01 0.15 0.29 0.74 0.79 0.77 0.52 0.49 0.65 0.35 0.28 0.62 1.13 0.62 0.31 0.08 0.00 0.01 0.01 0.01 0.01 0.03 0.01 0.00
1.44 1.89 3.29 2.08 0.55 0.57 1.00 1.13 0.79 0.25 0.19 0.23 0.08 0.04 0.04 0.02 0.00 0.00 0.04 0.00 0.00 0.01 0.18 0.66 0.61 0.75 0.75 0.74 0.79 0.55 0.31 0.49 1.00 1.36 0.39 0.17 0.03 0.01 0.01 0.03 0.02 0.03 0.04 0.06 0.02
0.84 0.65 0.83 0.88 0.43 0.23 0.67 0.83 0.83 0.66 0.43 0.27 0.13 0.04 0.05 0.02 0.02 0.00 0.01 0.00 0.00 0.01 0.21 0.73 0.94 1.21 0.74 0.38 0.93 0.53 0.29 0.37 0.87 0.61 0.58 0.18 0.07 0.02 0.01 0.04 0.10 0.09 0.11 0.06 0.03
0.52 0.31 0.16 0.06 0.04 0.05 0.37 0.84 0.90 0.77 0.60 0.31 0.14 0.05 0.05 0.03 0.01 0.00 0.00 0.00 0.00 0.01 0.11 0.47 0.79 0.96 0.56 0.17 0.33 0.34 0.15 0.20 0.19 0.31 0.41 0.17 0.22 0.05 0.02 0.12 0.29 0.17 0.22 0.11 0.06
0.54 0.27 0.13 0.12 0.06 0.04 0.09 0.40 0.64 0.63 0.49 0.27 0.18 0.16 0.04 0.02 0.01 0.01 0.00 0.00 0.00 0.01 0.10 0.28 0.45 0.78 0.63 0.37 0.24 0.42 0.26 0.15 0.14 0.20 0.33 0.31 0.19 0.07 0.07 0.29 0.31 0.31 0.30 0.09 0.03

GFSSW_prec_precacc_111.txt.gz
Total_Precipitation_Accumulation
0.26 0.26 0.26 0.27 0.26 0.28 0.30 0.26 0.31 0.30 0.30 0.33 0.39 0.39 0.49 0.50 0.37 0.19 0.09 0.03 0.02 0.09 0.25 0.01 0.02 0.05 0.08 0.12 0.35 0.70 1.29 0.55 0.04 0.04 0.05 0.00 0.00 0.00 0.00 0.01 0.01 0.03 0.15 0.19 0.27
0.26 0.30 0.35 0.34 0.33 0.31 0.35 0.35 0.28 0.23 0.25 0.25 0.24 0.32 0.41 0.42 0.26 0.18 0.01 0.05 0.15 0.33 0.27 0.09 0.05 0.10 0.16 0.14 0.49 0.94 1.21 0.58 0.10 0.08 0.06 0.03 0.00 0.00 0.01 0.05 0.10 0.11 0.19 0.14 0.22
0.36 0.34 0.39 0.39 0.38 0.34 0.37 0.38 0.31 0.26 0.30 0.28 0.33 0.30 0.40 0.35 0.21 0.06 0.03 0.07 0.30 0.56 0.45 0.28 0.16 0.27 0.25 0.18 0.33 0.80 0.78 0.25 0.13 0.20 0.19 0.09 0.03 0.01 0.03 0.08 0.03 0.07 0.11 0.36 0.53
0.41 0.47 0.46 0.41 0.37 0.41 0.50 0.39 0.33 0.35 0.38 0.28 0.34 0.55 0.64 0.33 0.23 0.08 0.03 0.06 0.28 0.84 0.63 0.44 0.28 0.31 0.20 0.11 0.09 0.40 0.38 0.29 0.25 0.45 0.42 0.16 0.09 0.07 0.03 0.02 0.05 0.15 0.40 0.53 0.58
0.55 0.55 0.49 0.42 0.42 0.59 0.58 0.48 0.40 0.34 0.34 0.27 0.36 0.59 0.64 0.42 0.10 0.13 0.10 0.14 0.47 0.95 0.51 0.51 0.46 0.27 0.15 0.04 0.08 0.12 0.22 0.28 0.58 0.66 0.41 0.25 0.16 0.11 0.07 0.03 0.14 0.38 0.39 0.50 0.57
0.56 0.49 0.48 0.54 0.57 0.60 0.47 0.51 0.41 0.34 0.43 0.51 0.52 0.68 0.46 0.21 0.03 0.03 0.12 0.22 0.44 0.95 0.64 0.62 0.61 0.35 0.22 0.11 0.11 0.04 0.11 0.26 0.90 0.90 0.51 0.47 0.27 0.14 0.07 0.03 0.24 0.53 0.59 0.51 0.58
0.58 0.60 0.63 0.63 0.62 0.51 0.46 0.51 0.37 0.25 0.34 0.43 0.66 0.53 0.40 0.11 0.04 0.08 0.11 0.24 0.37 0.85 0.68 0.65 1.12 0.78 0.46 0.28 0.12 0.11 0.23 0.43 0.93 1.08 1.03 0.72 0.46 0.28 0.03 0.07 0.16 0.30 0.64 0.56 0.51
0.71 0.65 0.64 0.72 1.02 0.94 0.48 0.41 0.36 0.35 0.34 0.44 0.70 0.75 0.26 0.02 0.04 0.02 0.10 0.29 0.43 0.76 1.07 1.01 1.75 1.06 0.73 0.36 0.42 0.49 0.51 0.52 0.50 0.95 1.32 1.42 0.73 0.14 0.07 0.08 0.15 0.18 0.41 0.68 0.71
0.68 0.58 0.66 0.78 0.81 0.77 0.87 0.48 0.54 0.59 0.58 0.70 0.72 0.62 0.19 0.06 0.07 0.02 0.11 0.36 0.42 0.71 1.19 1.63 2.48 1.56 1.05 0.69 0.69 0.68 0.32 0.23 0.49 0.59 1.15 1.27 0.87 0.31 0.16 0.07 0.12 0.15 0.23 0.41 0.58
0.71 0.74 0.80 0.73 0.69 0.67 0.78 0.72 0.81 0.85 0.81 1.00 1.03 0.71 0.20 0.07 0.12 0.08 0.12 0.43 0.57 0.92 1.90 2.64 3.78 1.98 1.10 0.83 0.52 0.32 0.24 0.17 0.41 0.61 0.88 0.98 0.95 0.49 0.25 0.10 0.07 0.13 0.19 0.27 0.34
0.78 0.86 1.09 1.38 0.86 0.80 1.10 1.71 1.37 1.26 0.98 0.70 0.45 0.24 0.23 0.19 0.32 0.31 0.22 0.57 1.04 1.62 2.22 2.14 3.44 1.55 0.66 0.29 0.17 0.27 0.15 0.13 0.23 0.39 0.55 0.65 0.83 0.65 0.38 0.25 0.08 0.07 0.13 0.24 0.27
0.74 0.69 0.85 1.83 1.19 1.24 1.57 1.38 0.70 0.63 0.73 0.30 0.21 0.12 0.11 0.29 0.56 0.59 0.32 1.01 1.39 1.83 2.33 2.24 1.72 0.65 0.56 0.41 0.21 0.46 0.27 0.26 0.42 0.42 0.34 0.41 0.66 0.66 0.44 0.29 0.10 0.05 0.07 0.12 0.24
0.77 0.80 0.98 1.49 1.30 1.50 1.41 0.85 0.37 0.72 1.23 0.68 0.46 0.33 0.26 0.44 0.59 0.64 0.50 1.12 1.48 1.87 2.19 1.79 1.26 0.79 0.88 0.53 0.32 0.29 0.17 0.29 0.62 0.61 0.35 0.19 0.32 0.46 0.35 0.12 0.06 0.04 0.04 0.06 0.16
0.78 0.94 1.28 1.31 1.46 1.49 1.53 0.98 0.86 1.36 2.03 1.07 0.81 0.77 0.67 0.88 1.00 0.67 0.63 1.44 1.84 1.75 1.77 1.80 1.16 1.09 1.15 0.60 0.23 0.15 0.15 0.56 0.50 0.50 0.49 0.25 0.25 0.27 0.30 0.22 0.07 0.02 0.02 0.04 0.11
0.85 1.14 1.73 1.57 1.69 1.44 1.60 1.27 1.51 1.92 1.90 0.74 0.91 1.02 0.87 1.04 0.85 1.05 0.69 1.48 1.50 1.72 2.05 1.72 1.27 1.56 1.20 0.61 0.23 0.18 0.19 0.45 0.58 0.66 0.71 0.31 0.51 0.29 0.23 0.30 0.19 0.04 0.02 0.04 0.16
1.13 1.24 1.84 1.47 1.49 1.01 1.12 1.80 2.20 2.22 1.63 1.56 1.28 1.40 0.99 0.67 0.75 0.77 0.91 1.31 1.37 2.26 1.83 1.29 1.55 1.48 0.84 0.69 0.35 0.30 0.41 0.65 0.92 1.08 1.24 0.65 0.62 0.46 0.28 0.26 0.24 0.07 0.03 0.07 0.22
1.38 1.35 1.80 1.23 1.38 0.98 1.23 2.14 2.27 1.23 0.98 1.37 1.70 1.33 0.60 0.53 0.54 0.92 1.26 0.95 1.52 2.05 2.34 1.94 1.66 1.17 0.83 1.11 0.96 1.15 1.34 1.68 1.46 1.41 0.79 0.42 0.48 0.46 0.28 0.11 0.19 0.15 0.05 0.19 0.39
1.27 1.73 1.55 1.09 0.98 1.56 1.42 1.62 1.41 0.74 0.98 0.73 0.89 0.68 0.75 0.55 0.79 0.74 0.96 0.42 0.67 1.02 1.36 1.68 1.96 1.43 1.09 1.22 1.66 1.21 0.90 1.05 0.67 0.47 0.25 0.11 0.31 0.43 0.17 0.10 0.16 0.14 0.33 0.50 0.40
1.84 1.81 1.86 1.37 1.20 1.68 1.76 1.34 1.21 1.05 1.00 0.88 0.63 0.54 0.70 0.33 0.51 0.54 0.45 0.19 0.34 0.54 0.77 0.77 1.05 0.69 0.65 0.66 1.02 0.98 0.84 0.55 0.67 0.29 0.38 0.31 0.31 0.28 0.27 0.26 0.37 0.41 0.50 0.17 0.24
2.40 2.08 2.10 1.24 1.23 1.77 1.93 1.17 1.14 1.17 0.65 0.30 0.39 0.19 0.13 0.15 0.27 0.21 0.15 0.06 0.19 0.16 0.24 0.38 0.86 0.80 0.74 0.83 0.90 0.61 0.37 0.56 1.17 0.56 0.34 0.27 0.24 0.39 0.41 0.61 0.41 0.29 0.12 0.24 0.23
2.17 2.45 2.01 1.43 1.67 2.11 1.56 0.94 0.85 0.64 0.39 0.21 0.06 0.06 0.03 0.03 0.19 0.05 0.05 0.05 0.11 0.07 0.14 0.45 0.71 0.86 1.04 1.02 0.79 0.66 0.65 0.52 0.58 0.29 0.16 0.10 0.36 0.37 0.45 0.40 0.15 0.09 0.15 0.11 0.03
1.88 2.26 1.58 2.03 2.35 1.53 0.81 0.90 0.92 0.53 0.20 0.18 0.07 0.02 0.01 0.01 0.12 0.05 0.03 0.03 0.03 0.03 0.16 0.38 0.56 0.77 0.62 0.21 0.17 0.28 0.28 0.20 0.78 0.40 0.27 0.19 0.21 0.05 0.05 0.04 0.04 0.04 0.04 0.02 0.01
1.91 1.88 2.47 1.42 1.24 0.76 0.69 0.85 0.59 0.19 0.19 0.21 0.05 0.01 0.00 0.01 0.02 0.01 0.02 0.00 0.00 0.01 0.15 0.29 0.74 0.79 0.77 0.52 0.49 0.65 0.35 0.28 0.62 1.13 0.62 0.31 0.13 0.00 0.01 0.01 0.01 0.01 0.03 0.01 0.00
1.44 1.89 3.29 2.08 0.55 0.57 1.00 1.13 0.79 0.25 0.19 0.23 0.08 0.04 0.04 0.02 0.00 0.00 0.04 0.00 0.00 0.01 0.18 0.66 0.61 0.75 0.75 0.74 0.79 0.55 0.31 0.49 1.00 1.36 0.39 0.17 0.03 0.01 0.01 0.03 0.02 0.03 0.04 0.06 0.02
0.84 0.65 0.83 0.88 0.43 0.23 0.67 0.83 0.83 0.66 0.43 0.27 0.13 0.04 0.05 0.02 0.02 0.00 0.01 0.00 0.00 0.01 0.21 0.73 0.94 1.21 0.74 0.38 0.93 0.53 0.29 0.37 0.87 0.61 0.58 0.18 0.07 0.02 0.01 0.04 0.10 0.09 0.11 0.06 0.03
0.52 0.31 0.16 0.06 0.04 0.05 0.37 0.84 0.90 0.77 0.60 0.31 0.14 0.05 0.05 0.03 0.01 0.00 0.00 0.00 0.00 0.01 0.11 0.47 0.79 0.96 0.56 0.17 0.33 0.34 0.15 0.20 0.19 0.31 0.41 0.17 0.22 0.05 0.02 0.12 0.29 0.17 0.22 0.11 0.06
0.54 0.27 0.13 0.12 0.06 0.04 0.09 0.40 0.64 0.63 0.49 0.27 0.18 0.16 0.04 0.02 0.01 0.01 0.00 0.00 0.00 0.01 0.10 0.28 0.45 0.78 0.63 0.37 0.24 0.42 0.26 0.15 0.14 0.20 0.33 0.31 0.19 0.07 0.07 0.29 0.31 0.31 0.30 0.09 0.03

GFSSW_prec_precacc_114.txt.gz
Total_Precipitation_Accumulation
0.27 0.26 0.26 0.27 0.26 0.28 0.32 0.36 0.33 0.31 0.31 0.33 0.39 0.39 0.49 0.50 0.37 0.19 0.09 0.03 0.02 0.09 0.25 0.01 0.02 0.05 0.08 0.12 0.35 0.70 1.29 0.55 0.04 0.04 0.05 0.00 0.00 0.00 0.00 0.01 0.01 0.03 0.15 0.19 0.27
0.26 0.31 0.36 0.34 0.33 0.31 0.36 0.42 0.33 0.25 0.26 0.25 0.24 0.32 0.41 0.42 0.26 0.18 0.01 0.05 0.15 0.33 0.27 0.09 0.05 0.10 0.16 0.14 0.49 0.94 1.21 0.58 0.10 0.08 0.06 0.03 0.00 0.00 0.01 0.05 0.10 0.11 0.19 0.15 0.24
0.38 0.34 0.39 0.39 0.38 0.34 0.38 0.46 0.38 0.29 0.30 0.28 0.33 0.30 0.40 0.35 0.21 0.06 0.03 0.07 0.30 0.56 0.45 0.28 0.16 0.27 0.25 0.18 0.33 0.80 0.78 0.25 0.13 0.20 0.19 0.09 0.03 0.01 0.03 0.08 0.03 0.07 0.11 0.39 0.55
0.43 0.47 0.47 0.42 0.37 0.41 0.51 0.44 0.43 0.36 0.38 0.28 0.34 0.55 0.64 0.33 0.23 0.08 0.03 0.06 0.28 0.84 0.63 0.44 0.28 0.31 0.20 0.11 0.09 0.40 0.38 0.29 0.25 0.45 0.42 0.16 0.09 0.07 0.03 0.02 0.05 0.15 0.40 0.54 0.59
0.58 0.57 0.49 0.42 0.42 0.59 0.58 0.51 0.46 0.36 0.34 0.27 0.36 0.59 0.64 0.42 0.10 0.13 0.10 0.14 0.47 0.95 0.51 0.51 0.46 0.27 0.15 0.04 0.08 0.12 0.22 0.28 0.58 0.66 0.41 0.25 0.16 0.11 0.07 0.03 0.14 0.38 0.39 0.50 0.57
0.62 0.53 0.48 0.54 0.57 0.60 0.47 0.55 0.52 0.37 0.43 0.51 0.52 0.68 0.46 0.21 0.03 0.03 0.12 0.22 0.44 0.95 0.64 0.62 0.61 0.35 0.22 0.11 0.11 0.04 0.11 0.26 0.90 0.90 0.51 0.47 0.27 0.14 0.07 0.03 0.24 0.53 0.59 0.51 0.58
0.64 0.62 0.63 0.63 0.62 0.51 0.47 0.57 0.48 0.37 0.34 0.43 0.66 0.53 0.40 0.11 0.04 0.08 0.11 0.24 0.37 0.85 0.68 0.65 1.12 0.78 0.46 0.28 0.12 0.11 0.23 0.43 0.93 1.08 1.03 0.72 0.46 0.28 0.03 0.07 0.16 0.30 0.64 0.56 0.51
0.78 0.69 0.64 0.72 1.02 0.99 0.62 0.51 0.39 0.44 0.35 0.44 0.70 0.75 0.26 0.02 0.04 0.02 0.10 0.29 0.43 0.76 1.07 1.01 1.75 1.06 0.73 0.36 0.42 0.49 0.51 0.52 0.50 0.95 1.32 1.42 0.73 0.14 0.07 0.08 0.15 0.18 0.41 0.68 0.71
0.72 0.59 0.66 0.78 0.81 0.83 1.04 0.51 0.55 0.59 0.58 0.70 0.72 0.62 0.19 0.06 0.07 0.02 0.11 0.36 0.42 0.71 1.19 1.63 2.48 1.56 1.05 0.69 0.69 0.68 0.32 0.23 0.49 0.59 1.15 1.27 0.87 0.31 0.16 0.07 0.12 0.15 0.23 0.41 0.58
0.72 0.74 0.80 0.73 0.72 0.81 0.83 0.74 0.82 0.85 0.81 1.00 1.03 0.71 0.20 0.07 0.12 0.08 0.12 0.43 0.57 0.92 1.90 2.64 3.78 1.98 1.10 0.83 0.52 0.32 0.24 0.17 0.41 0.61 0.88 0.98 0.95 0.49 0.25 0.10 0.07 0.13 0.19 0.27 0.34
0.78 0.86 1.10 1.40 0.88 0.92 1.14 1.72 1.40 1.26 0.98 0.70 0.45 0.24 0.23 0.19 0.32 0.31 0.22 0.57 1.04 1.62 2.22 2.14 3.44 1.55 0.66 0.29 0.17 0.27 0.15 0.13 0.23 0.39 0.55 0.65 0.83 0.65 0.38 0.25 0.08 0.07 0.13 0.24 0.27
0.74 0.71 0.95 1.88 1.22 1.33 1.59 1.39 0.70 0.63 0.73 0.30 0.21 0.12 0.11 0.29 0.56 0.59 0.32 1.01 1.39 1.83 2.33 2.24 1.72 0.65 0.56 0.41 0.21 0.47 0.28 0.26 0.42 0.42 0.34 0.41 0.66 0.66 0.44 0.29 0.10 0.05 0.07 0.12 0.24
0.77 0.81 1.12 1.56 1.30 1.50 1.42 0.90 0.37 0.72 1.23 0.68 0.46 0.33 0.26 0.44 0.59 0.64 0.50 1.12 1.48 1.87 2.19 1.79 1.26 0.79 0.89 0.54 0.33 0.29 0.18 0.29 0.62 0.61 0.35 0.19 0.32 0.46 0.35 0.12 0.06 0.04 0.04 0.06 0.16
0.79 0.96 1.31 1.32 1.49 1.50 1.56 0.99 0.86 1.36 2.03 1.07 0.81 0.77 0.67 0.88 1.00 0.67 0.63 1.44 1.84 1.75 1.77 1.80 1.16 1.09 1.15 0.60 0.24 0.15 0.15 0.56 0.50 0.53 0.49 0.25 0.25 0.27 0.30 0.22 0.07 0.02 0.02 0.04 0.11
0.85 1.15 1.74 1.57 1.69 1.44 1.60 1.27 1.51 1.92 1.90 0.74 0.91 1.02 0.87 1.04 0.85 1.05 0.69 1.48 1.50 1.72 2.05 1.72 1.27 1.56 1.20 0.61 0.23 0.19 0.19 0.45 0.60 0.71 0.73 0.31 0.54 0.29 0.23 0.30 0.19 0.05 0.02 0.04 0.16
1.14 1.24 1.84 1.47 1.49 1.01 1.12 1.80 2.20 2.22 1.63 1.56 1.28 1.40 0.99 0.67 0.75 0.77 0.91 1.31 1.37 2.26 1.83 1.29 1.55 1.48 0.84 0.69 0.35 0.30 0.42 0.65 0.94 1.10 1.26 0.66 0.63 0.51 0.30 0.27 0.24 0.08 0.03 0.07 0.23
1.38 1.35 1.80 1.23 1.38 0.98 1.23 2.14 2.27 1.23 0.98 1.37 1.70 1.33 0.60 0.53 0.54 0.92 1.26 0.95 1.52 2.05 2.34 1.94 1.66 1.17 0.84 1.13 1.00 1.28 1.45 1.78 1.59 1.50 0.91 0.47 0.57 0.55 0.44 0.16 0.19 0.16 0.07 0.28 0.50
1.27 1.73 1.55 1.09 0.98 1.56 1.42 1.62 1.41 0.74 0.98 0.73 0.89 0.68 0.75 0.55 0.79 0.74 0.96 0.42 0.67 1.02 1.36 1.68 1.96 1.43 1.10 1.31 1.85 1.35 1.08 1.21 0.79 0.54 0.33 0.20 0.41 0.60 0.32 0.14 0.17 0.18 0.46 0.89 1.15
1.84 1.81 1.86 1.37 1.20 1.68 1.76 1.34 1.21 1.05 1.00 0.88 0.63 0.54 0.70 0.33 0.51 0.54 0.45 0.19 0.34 0.54 0.77 0.77 1.05 0.69 0.65 0.67 1.07 1.02 0.91 0.62 0.76 0.30 0.40 0.37 0.37 0.38 0.33 0.34 0.49 0.69 1.17 0.86 0.61
2.40 2.08 2.10 1.24 1.23 1.77 1.93 1.17 1.14 1.17 0.65 0.30 0.39 0.19 0.13 0.15 0.27 0.21 0.15 0.06 0.19 0.16 0.24 0.38 0.86 0.80 0.74 0.83 0.90 0.62 0.38 0.58 1.19 0.59 0.38 0.28 0.30 0.59 0.63 0.91 0.90 0.94 0.48 0.36 0.36
2.17 2.45 2.01 1.43 1.67 2.11 1.56 0.94 0.85 0.64 0.39 0.21 0.06 0.06 0.03 0.03 0.19 0.05 0.05 0.05 0.11 0.07 0.14 0.45 0.71 0.86 1.04 1.02 0.79 0.66 0.65 0.52 0.58 0.31 0.21 0.13 0.52 0.65 0.84 0.76 0.44 0.28 0.23 0.17 0.08
1.88 2.26 1.58 2.03 2.35 1.53 0.81 0.90 0.92 0.53 0.20 0.18 0.07 0.02 0.01 0.01 0.12 0.05 0.03 0.03 0.03 0.03 0.16 0.38 0.56 0.77 0.62 0.21 0.17 0.28 0.28 0.20 0.78 0.40 0.27 0.20 0.32 0.16 0.14 0.18 0.15 0.10 0.05 0.02 0.01
1.91 1.88 2.47 1.42 1.24 0.76 0.69 0.85 0.59 0.19 0.19 0.21 0.05 0.01 0.00 0.01 0.02 0.01 0.02 0.00 0.00 0.01 0.15 0.29 0.74 0.79 0.77 0.52 0.49 0.65 0.35 0.28 0.62 1.13 0.62 0.31 0.14 0.01 0.01 0.01 0.01 0.01 0.03 0.01 0.00
1.44 1.89 3.29 2.08 0.55 0.57 1.00 1.13 0.79 0.25 0.19 0.23 0.08 0.04 0.04 0.02 0.00 0.00 0.04 0.00 0.00 0.01 0.18 0.66 0.61 0.75 0.75 0.74 0.79 0.55 0.31 0.49 1.00 1.36 0.39 0.17 0.03 0.01 0.01 0.03 0.02 0.03 0.04 0.06 0.02
0.84 0.65 0.83 0.88 0.43 0.23 0.67 0.83 0.83 0.66 0.43 0.27 0.13 0.04 0.05 0.02 0.02 0.00 0.01 0.00 0.00 0.01 0.21 0.73 0.94 1.21 0.74 0.38 0.93 0.53 0.29 0.37 0.87 0.61 0.58 0.18 0.07 0.02 0.01 0.04 0.10 0.09 0.11 0.06 0.03
0.52 0.31 0.16 0.06 0.04 0.05 0.37 0.84 0.90 0.77 0.60 0.31 0.14 0.05 0.05 0.03 0.01 0.00 0.00 0.00 0.00 0.01 0.11 0.47 0.79 0.96 0.56 0.17 0.33 0.34 0.15 0.20 0.19 0.31 0.41 0.17 0.22 0.05 0.02 0.12 0.29 0.17 0.22 0.11 0.06
0.54 0.27 0.13 0.12 0.06 0.04 0.09 0.40 0.64 0.63 0.49 0.27 0.18 0.16 0.04 0.02 0.01 0.01 0.00 0.00 0.00 0.01 0.10 0.28 0.45 0.78 0.63 0.37 0.24 0.42 0.26 0.15 0.14 0.20 0.33 0.31 0.19 0.07 0.07 0.29 0.31 0.31 0.30 0.09 0.03

GFSSW_prec_precacc_117.txt.gz
Total_Precipitation_Accumulation
0.28 0.26 0.27 0.27 0.26 0.28 0.33 0.39 0.62 0.36 0.31 0.33 0.39 0.39 0.49 0.50 0.37 0.19 0.09 0.03 0.02 0.09 0.25 0.01 0.02 0.05 0.08 0.12 0.35 0.70 1.29 0.55 0.04 0.04 0.05 0.00 0.00 0.00 0.00 0.01 0.01 0.03 0.15 0.19 0.27
0.32 0.31 0.36 0.34 0.33 0.31 0.36 0.42 0.42 0.35 0.26 0.25 0.24 0.32 0.41 0.42 0.26 0.18 0.01 0.05 0.15 0.33 0.27 0.09 0.05 0.10 0.16 0.14 0.49 0.94 1.21 0.58 0.10 0.08 0.06 0.03 0.00 0.00 0.01 0.05 0.10 0.11 0.19 0.15 0.25
0.45 0.37 0.40 0.40 0.39 0.34 0.38 0.47 0.47 0.33 0.32 0.28 0.33 0.30 0.40 0.35 0.21 0.06 0.03 0.07 0.30 0.56 0.45 0.28 0.16 0.27 0.25 0.18 0.33 0.80 0.78 0.25 0.13 0.20 0.19 0.09 0.03 0.01 0.03 0.08 0.03 0.07 0.11 0.39 0.55
0.46 0.49 0.49 0.42 0.37 0.41 0.51 0.45 0.49 0.41 0.39 0.28 0.34 0.55 0.64 0.33 0.23 0.08 0.03 0.06 0.28 0.84 0.63 0.44 0.28 0.31 0.20 0.11 0.09 0.40 0.38 0.29 0.25 0.45 0.42 0.16 0.09 0.07 0.03 0.02 0.05 0.15 0.40 0.54 0.59
0.68 0.60 0.52 0.42 0.42 0.59 0.58 0.51 0.49 0.48 0.34 0.27 0.36 0.59 0.64 0.42 0.10 0.13 0.10 0.14 0.47 0.95 0.51 0.51 0.46 0.27 0.15 0.04 0.08 0.12 0.22 0.28 0.58 0.66 0.41 0.25 0.16 0.11 0.07 0.03 0.14 0.38 0.39 0.50 0.57
0.78 0.57 0.50 0.54 0.57 0.60 0.47 0.55 0.61 0.46 0.44 0.51 0.52 0.68 0.46 0.21 0.03 0.03 0.12 0.22 0.44 0.95 0.64 0.62 0.61 0.35 0.22 0.11 0.11 0.04 0.11 0.26 0.90 0.90 0.51 0.47 0.27 0.14 0.07 0.03 0.24 0.53 0.59 0.51 0.58
0.68 0.64 0.64 0.63 0.62 0.51 0.47 0.63 0.62 0.39 0.35 0.43 0.66 0.53 0.40 0.11 0.04 0.08 0.11 0.24 0.37 0.85 0.68 0.65 1.12 0.78 0.46 0.28 0.12 0.11 0.23 0.43 0.93 1.08 1.03 0.72 0.46 0.28 0.03 0.07 0.16 0.30 0.64 0.56 0.51
0.81 0.70 0.64 0.72 1.02 1.00 0.70 0.57 0.46 0.53 0.38 0.44 0.70 0.75 0.26 0.02 0.04 0.02 0.10 0.29 0.43 0.76 1.07 1.01 1.75 1.06 0.73 0.36 0.42 0.49 0.51 0.52 0.50 0.95 1.32 1.42 0.73 0.14 0.07 0.08 0.15 0.18 0.41 0.68 0.71
0.73 0.59 0.66 0.78 0.82 1.00 1.15 0.56 0.58 0.68 0.60 0.70 0.72 0.62 0.19 0.06 0.07 0.02 0.11 0.36 0.42 0.71 1.19 1.63 2.48 1.56 1.05 0.69 0.69 0.68 0.32 0.23 0.49 0.59 1.15 1.27 0.87 0.31 0.16 0.07 0.12 0.15 0.23 0.41 0.58
0.72 0.74 0.80 0.74 0.79 0.99 0.89 0.76 0.83 0.86 0.81 1.00 1.03 0.71 0.20 0.07 0.12 0.08 0.12 0.43 0.57 0.92 1.90 2.64 3.78 1.98 1.10 0.83 0.52 0.32 0.24 0.17 0.41 0.61 0.88 0.98 0.95 0.49 0.25 0.10 0.07 0.13 0.19 0.27 0.34
0.78 0.87 1.11 1.41 1.00 1.01 1.19 1.73 1.40 1.26 0.98 0.70 0.45 0.24 0.23 0.19 0.32 0.31 0.22 0.57 1.04 1.62 2.22 2.14 3.44 1.55 0.66 0.29 0.17 0.27 0.15 0.13 0.23 0.39 0.55 0.65 0.83 0.65 0.38 0.25 0.08 0.07 0.13 0.24 0.27
0.81 0.81 0.97 1.92 1.47 1.43 1.60 1.39 0.70 0.63 0.73 0.30 0.21 0.12 0.11 0.29 0.56 0.59 0.32 1.01 1.39 1.83 2.33 2.24 1.72 0.65 0.56 0.41 0.21 0.47 0.28 0.26 0.42 0.42 0.34 0.41 0.66 0.66 0.44 0.29 0.10 0.05 0.07 0.12 0.24
0.81 0.87 1.15 1.60 1.41 1.52 1.42 0.90 0.37 0.72 1.23 0.68 0.46 0.33 0.26 0.44 0.59 0.64 0.50 1.12 1.48 1.87 2.19 1.79 1.26 0.79 0.89 0.54 0.33 0.29 0.18 0.29 0.62 0.61 0.35 0.19 0.32 0.46 0.35 0.12 0.06 0.04 0.04 0.06 0.16
0.80 0.98 1.31 1.32 1.49 1.50 1.56 0.99 0.86 1.36 2.03 1.07 0.81 0.77 0.67 0.88 1.00 0.67 0.63 1.44 1.84 1.75 1.77 1.80 1.16 1.09 1.15 0.60 0.24 0.15 0.15 0.56 0.50 0.55 0.51 0.25 0.25 0.27 0.30 0.22 0.07 0.02 0.03 0.05 0.11
0.85 1.15 1.74 1.57 1.69 1.44 1.60 1.27 1.51 1.92 1.90 0.74 0.91 1.02 0.87 1.04 0.85 1.05 0.69 1.48 1.50 1.72 2.05 1.72 1.27 1.56 1.20 0.61 0.23 0.19 0.19 0.45 0.61 0.73 0.75 0.31 0.54 0.30 0.23 0.30 0.19 0.05 0.05 0.08 0.18
1.14 1.24 1.84 1.47 1.49 1.01 1.12 1.80 2.20 2.22 1.63 1.56 1.28 1.40 0.99 0.67 0.75 0.77 0.91 1.31 1.37 2.26 1.83 1.29 1.55 1.48 0.84 0.69 0.35 0.30 0.42 0.66 0.95 1.11 1.26 0.66 0.65 0.53 0.31 0.28 0.24 0.08 0.04 0.09 0.25
1.38 1.35 1.80 1.23 1.38 0.98 1.23 2.14 2.27 1.23 0.98 1.37 1.70 1.33 0.60 0.53 0.54 0.92 1.26 0.95 1.52 2.05 2.34 1.94 1.66 1.17 0.84 1.13 1.01 1.31 1.54 1.82 1.61 1.52 0.92 0.54 0.64 0.61 0.51 0.20 0.20 0.16 0.08 0.29 0.51
1.27 1.73 1.55 1.09 0.98 1.56 1.42 1.62 1.41 0.74 0.98 0.73 0.89 0.68 0.75 0.55 0.79 0.74 0.96 0.42 0.67 1.02 1.36 1.68 1.96 1.43 1.10 1.31 1.86 1.38 1.16 1.28 0.83 0.58 0.36 0.24 0.46 0.68 0.43 0.22 0.21 0.20 0.49 0.97 1.33
1.84 1.81 1.86 1.37 1.20 1.68 1.76 1.34 1.21 1.05 1.00 0.88 0.63 0.54 0.70 0.33 0.51 0.54 0.45 0.19 0.34 0.54 0.77 0.77 1.05 0.69 0.65 0.67 1.08 1.04 0.96 0.67 0.79 0.32 0.41 0.42 0.40 0.42 0.37 0.40 0.53 0.73 1.33 1.11 1.07
2.40 2.08 2.10 1.24 1.23 1.77 1.93 1.17 1.14 1.17 0.65 0.30 0.39 0.19 0.13 0.15 0.27 0.21 0.15 0.06 0.19 0.16 0.24 0.38 0.86 0.80 0.74 0.83 0.90 0.63 0.39 0.60 1.21 0.61 0.39 0.29 0.35 0.71 0.75 1.06 1.12 1.29 0.99 0.87 0.73
2.17 2.45 2.01 1.43 1.67 2.11 1.56 0.94 0.85 0.64 0.39 0.21 0.06 0.06 0.03 0.03 0.19 0.05 0.05 0.05 0.11 0.07 0.14 0.45 0.71 0.86 1.04 1.02 0.79 0.66 0.65 0.52 0.58 0.31 0.22 0.14 0.60 0.79 1.10 1.11 0.85 0.69 0.57 0.36 0.16
1.88 2.26 1.58 2.03 2.35 1.53 0.81 0.90 0.92 0.53 0.20 0.18 0.07 0.02 0.01 0.01 0.12 0.05 0.03 0.03 0.03 0.03 0.16 0.38 0.56 0.77 0.62 0.21 0.17 0.28 0.28 0.20 0.78 0.40 0.27 0.21 0.37 0.19 0.23 0.35 0.30 0.15 0.06 0.02 0.01
1.91 1.88 2.47 1.42 1.24 0.76 0.69 0.85 0.59 0.19 0.19 0.21 0.05 0.01 0.00 0.01 0.02 0.01 0.02 0.00 0.00 0.01 0.15 0.29 0.74 0.79 0.77 0.52 0.49 0.65 0.35 0.28 0.62 1.13 0.62 0.31 0.15 0.01 0.01 0.02 0.01 0.01 0.03 0.01 0.00
1.44 1.89 3.29 2.08 0.55 0.57 1.00 1.13 0.79 0.25 0.19 0.23 0.08 0.04 0.04 0.02 0.00 0.00 0.04 0.00 0.00 0.01 0.18 0.66 0.61 0.75 0.75 0.74 0.79 0.55 0.31 0.49 1.00 1.36 0.39 0.17 0.03 0.01 0.01 0.03 0.02 0.03 0.04 0.06 0.02
0.84 0.65 0.83 0.88 0.43 0.23 0.67 0.83 0.83 0.66 0.43 0.27 0.13 0.04 0.05 0.02 0.02 0.00 0.01 0.00 0.00 0.01 0.21 0.73 0.94 1.21 0.74 0.38 0.93 0.53 0.29 0.37 0.87 0.61 0.58 0.18 0.07 0.02 0.01 0.04 0.10 0.09 0.11 0.06 0.03
0.52 0.31 0.16 0.06 0.04 0.05 0.37 0.84 0.90 0.77 0.60 0.31 0.14 0.05 0.05 0.03 0.01 0.00 0.00 0.00 0.00 0.01 0.11 0.47 0.79 0.96 0.56 0.17 0.33 0.34 0.15 0.20 0.19 0.31 0.41 0.17 0.22 0.05 0.02 0.12 0.29 0.17 0.22 0.11 0.06
0.54 0.27 0.13 0.12 0.06 0.04 0.09 0.40 0.64 0.63 0.49 0.27 0.18 0.16 0.04 0.02 0.01 0.01 0.00 0.00 0.00 0.01 0.10 0.28 0.45 0.78 0.63 0.37 0.24 0.42 0.26 0.15 0.14 0.20 0.33 0.31 0.19 0.07 0.07 0.29 0.31 0.31 0.30 0.09 0.03

GFSSW_prec_precacc_120.txt.gz
Total_Precipitation_Accumulation
0.39 0.33 0.27 0.28 0.26 0.28 0.34 0.41 0.77 0.44 0.31 0.33 0.39 0.39 0.49 0.50 0.37 0.19 0.09 0.03 0.02 0.09 0.25 0.01 0.02 0.05 0.08 0.12 0.35 0.70 1.29 0.55 0.04 0.04 0.05 0.00 0.00 0.00 0.00 0.01 0.01 0.03 0.15 0.19 0.27
0.40 0.39 0.37 0.35 0.33 0.31 0.36 0.44 0.45 0.75 0.35 0.25 0.24 0.32 0.41 0.42 0.26 0.18 0.01 0.05 0.15 0.33 0.27 0.09 0.05 0.10 0.16 0.14 0.49 0.94 1.21 0.58 0.10 0.08 0.06 0.03 0.00 0.00 0.01 0.05 0.10 0.11 0.19 0.15 0.25
0.52 0.44 0.41 0.41 0.39 0.34 0.38 0.48 0.51 0.57 0.49 0.29 0.33 0.30 0.40 0.35 0.21 0.06 0.03 0.07 0.30 0.56 0.45 0.28 0.16 0.27 0.25 0.18 0.33 0.80 0.78 0.25 0.13 0.20 0.19 0.09 0.03 0.01 0.03 0.08 0.03 0.07 0.11 0.39 0.55
0.55 0.58 0.54 0.43 0.37 0.41 0.51 0.45 0.50 0.57 0.46 0.31 0.34 0.55 0.64 0.33 0.23 0.08 0.03 0.06 0.28 0.84 0.63 0.44 0.28 0.31 0.20 0.11 0.09 0.40 0.38 0.29 0.25 0.45 0.42 0.16 0.09 0.07 0.03 0.02 0.05 0.15 0.40 0.54 0.59
0.78 0.73 0.58 0.42 0.42 0.59 0.58 0.52 0.50 0.61 0.35 0.27 0.36 0.59 0.64 0.42 0.10 0.13 0.10 0.14 0.47 0.95 0.51 0.51 0.46 0.27 0.15 0.04 0.08 0.12 0.22 0.28 0.58 0.66 0.41 0.25 0.16 0.11 0.07 0.03 0.14 0.38 0.39 0.50 0.57
0.89 0.61 0.52 0.55 0.57 0.60 0.47 0.56 0.64 0.64 0.47 0.51 0.52 0.68 0.46 0.21 0.03 0.03 0.12 0.22 0.44 0.95 0.64 0.62 0.61 0.35 0.22 0.11 0.11 0.04 0.11 0.26 0.90 0.90 0.51 0.47 0.27 0.14 0.07 0.03 0.24 0.53 0.59 0.51 0.58
0.83 0.65 0.65 0.63 0.62 0.51 0.47 0.64 0.78 0.47 0.40 0.43 0.66 0.53 0.40 0.11 0.04 0.08 0.11 0.24 0.37 0.85 0.68 0.65 1.12 0.78 0.46 0.28 0.12 0.11 0.23 0.43 0.93 1.08 1.03 0.72 0.46 0.28 0.03 0.07 0.16 0.30 0.64 0.56 0.51
0.82 0.70 0.64 0.72 1.02 1.01 0.72 0.65 0.59 0.56 0.40 0.45 0.70 0.75 0.26 0.02 0.04 0.02 0.10 0.29 0.43 0.76 1.07 1.01 1.75 1.06 0.73 0.36 0.42 0.49 0.51 0.52 0.50 0.95 1.32 1.42 0.73 0.14 0.07 0.08 0.15 0.18 0.41 0.68 0.71
0.74 0.59 0.66 0.78 0.84 1.08 1.22 0.64 0.64 0.70 0.61 0.70 0.72 0.62 0.19 0.06 0.07 0.02 0.11 0.36 0.42 0.71 1.19 1.63 2.48 1.56 1.05 0.69 0.69 0.68 0.32 0.23 0.49 0.59 1.15 1.27 0.87 0.31 0.16 0.07 0.12 0.15 0.23 0.41 0.58
0.72 0.74 0.81 0.79 1.00 1.11 0.98 0.84 0.84 0.87 0.82 1.00 1.03 0.71 0.20 0.07 0.12 0.08 0.12 0.43 0.57 0.92 1.90 2.64 3.78 1.98 1.10 0.83 0.52 0.32 0.24 0.17 0.41 0.61 0.88 0.98 0.95 0.49 0.25 0.10 0.07 0.13 0.19 0.27 0.34
0.79 0.88 1.28 1.66 1.51 1.14 1.25 1.74 1.41 1.26 0.98 0.70 0.45 0.24 0.23 0.19 0.32 0.31 0.22 0.57 1.04 1.62 2.22 2.14 3.44 1.55 0.66 0.29 0.17 0.27 0.15 0.13 0.23 0.39 0.55 0.65 0.83 0.65 0.38 0.25 0.08 0.07 0.13 0.24 0.27
0.84 0.82 1.05 2.16 1.72 1.47 1.61 1.39 0.70 0.63 0.73 0.30 0.21 0.12 0.11 0.29 0.56 0.59 0.32 1.01 1.39 1.83 2.33 2.24 1.72 0.65 0.56 0.41 0.21 0.47 0.28 0.26 0.42 0.42 0.34 0.41 0.66 0.66 0.44 0.29 0.10 0.05 0.07 0.12 0.24
0.85 0.88 1.17 1.65 1.43 1.55 1.42 0.90 0.37 0.72 1.23 0.68 0.46 0.33 0.26 0.44 0.59 0.64 0.50 1.12 1.48 1.87 2.19 1.79 1.26 0.79 0.89 0.54 0.33 0.29 0.18 0.29 0.62 0.61 0.35 0.19 0.32 0.46 0.35 0.12 0.06 0.04 0.04 0.06 0.16
0.84 0.99 1.31 1.32 1.49 1.50 1.56 0.99 0.86 1.36 2.03 1.07 0.81 0.77 0.67 0.88 1.00 0.67 0.63 1.44 1.84 1.75 1.77 1.80 1.16 1.09 1.15 0.60 0.24 0.16 0.15 0.56 0.50 0.57 0.51 0.25 0.27 0.27 0.30 0.22 0.07 0.02 0.03 0.05 0.11
0.86 1.15 1.74 1.57 1.69 1.44 1.60 1.27 1.51 1.92 1.90 0.74 0.91 1.02 0.87 1.04 0.85 1.05 0.69 1.48 1.50 1.72 2.05 1.72 1.27 1.56 1.20 0.61 0.23 0.19 0.19 0.45 0.61 0.75 0.77 0.32 0.57 0.30 0.23 0.30 0.19 0.05 0.07 0.13 0.22
1.14 1.24 1.84 1.47 1.49 1.01 1.12 1.80 2.20 2.22 1.63 1.56 1.28 1.40 0.99 0.67 0.75 0.77 0.91 1.31 1.37 2.26 1.83 1.29 1.55 1.48 0.84 0.69 0.35 0.30 0.42 0.66 0.95 1.12 1.27 0.68 0.71 0.54 0.34 0.33 0.26 0.08 0.08 0.20 0.34
1.38 1.35 1.80 1.23 1.38 0.98 1.23 2.14 2.27 1.23 0.98 1.37 1.70 1.33 0.60 0.53 0.54 0.92 1.26 0.95 1.52 2.06 2.34 1.94 1.66 1.17 0.84 1.13 1.01 1.31 1.56 1.83 1.61 1.52 0.93 0.57 0.72 0.66 0.55 0.27 0.29 0.23 0.13 0.34 0.59
1.27 1.73 1.55 1.09 0.98 1.56 1.42 1.62 1.41 0.74 0.98 0.73 0.89 0.68 0.75 0.55 0.79 0.74 0.96 0.42 0.67 1.02 1.36 1.68 1.96 1.43 1.10 1.31 1.86 1.39 1.17 1.29 0.83 0.59 0.37 0.25 0.48 0.71 0.47 0.30 0.25 0.22 0.51 0.98 1.34
1.84 1.81 1.86 1.37 1.20 1.68 1.76 1.34 1.21 1.05 1.00 0.88 0.63 0.54 0.70 0.33 0.51 0.54 0.45 0.19 0.34 0.54 0.77 0.77 1.05 0.69 0.65 0.67 1.08 1.04 0.97 0.68 0.80 0.33 0.42 0.43 0.41 0.44 0.41 0.47 0.62 0.78 1.38 1.15 1.21
2.40 2.08 2.10 1.24 1.23 1.77 1.93 1.17 1.14 1.17 0.65 0.30 0.39 0.19 0.13 0.15 0.27 0.21 0.15 0.06 0.19 0.16 0.24 0.38 0.86 0.80 0.74 0.83 0.90 0.63 0.39 0.61 1.22 0.62 0.40 0.30 0.36 0.77 0.80 1.15 1.27 1.52 1.24 1.11 1.09
2.17 2.45 2.01 1.43 1.67 2.11 1.56 0.94 0.85 0.64 0.39 0.21 0.06 0.06 0.03 0.03 0.19 0.05 0.05 0.05 0.11 0.07 0.14 0.45 0.71 0.86 1.04 1.02 0.79 0.66 0.65 0.52 0.58 0.31 0.22 0.14 0.62 0.83 1.21 1.23 1.01 0.88 0.80 0.58 0.31
1.88 2.26 1.58 2.03 2.35 1.53 0.81 0.90 0.92 0.53 0.20 0.18 0.07 0.02 0.01 0.01 0.12 0.05 0.03 0.03 0.03 0.03 0.16 0.38 0.56 0.77 0.62 0.21 0.17 0.28 0.28 0.20 0.78 0.40 0.27 0.21 0.40 0.21 0.28 0.38 0.32 0.15 0.06 0.02 0.01
1.91 1.88 2.47 1.42 1.24 0.76 0.69 0.85 0.59 0.19 0.19 0.21 0.05 0.01 0.00 0.01 0.02 0.01 0.02 0.00 0.00 0.01 0.15 0.29 0.74 0.79 0.77 0.52 0.49 0.65 0.35 0.28 0.62 1.13 0.62 0.31 0.16 0.01 0.01 0.02 0.01 0.01 0.03 0.01 0.00
1.44 1.89 3.29 2.08 0.55 0.57 1.00 1.13 0.79 0.25 0.19 0.23 0.08 0.04 0.04 0.02 0.00 0.00 0.04 0.00 0.00 0.01 0.18 0.66 0.61 0.75 0.75 0.74 0.79 0.55 0.31 0.49 1.00 1.36 0.39 0.17 0.03 0.01 0.01 0.03 0.02 0.03 0.04 0.06 0.02
0.84 0.65 0.83 0.88 0.43 0.23 0.67 0.83 0.83 0.66 0.43 0.27 0.13 0.04 0.05 0.02 0.02 0.00 0.01 0.00 0.00 0.01 0.21 0.73 0.94 1.21 0.74 0.38 0.93 0.53 0.29 0.37 0.87 0.61 0.58 0.18 0.07 0.02 0.01 0.04 0.10 0.09 0.11 0.06 0.03
0.52 0.31 0.16 0.06 0.04 0.05 0.37 0.84 0.90 0.77 0.60 0.31 0.14 0.05 0.05 0.03 0.01 0.00 0.00 0.00 0.00 0.01 0.11 0.47 0.79 0.96 0.56 0.17 0.33 0.34 0.15 0.20 0.19 0.31 0.41 0.17 0.22 0.05 0.02 0.12 0.29 0.17 0.22 0.11 0.06
0.54 0.27 0.13 0.12 0.06 0.04 0.09 0.40 0.64 0.63 0.49 0.27 0.18 0.16 0.04 0.02 0.01 0.01 0.00 0.00 0.00 0.01 0.10 0.28 0.45 0.78 0.63 0.37 0.24 0.42 0.26 0.15 0.14 0.20 0.33 0.31 0.19 0.07 0.07 0.29 0.31 0.31 0.30 0.09 0.03

GFSSW_prec_precacc_123.txt.gz
Total_Precipitation_Accumulation
0.43 0.44 0.33 0.28 0.26 0.28 0.34 0.42 0.86 0.78 0.33 0.33 0.39 0.39 0.49 0.50 0.37 0.19 0.09 0.03 0.02 0.09 0.25 0.01 0.02 0.05 0.08 0.12 0.35 0.70 1.29 0.55 0.04 0.04 0.05 0.00 0.00 0.00 0.00 0.01 0.01 0.03 0.15 0.19 0.27
0.44 0.44 0.40 0.35 0.33 0.31 0.36 0.44 0.45 1.06 0.37 0.26 0.24 0.32 0.41 0.42 0.26 0.18 0.01 0.05 0.15 0.33 0.27 0.09 0.05 0.10 0.16 0.14 0.49 0.94 1.21 0.58 0.10 0.08 0.06 0.03 0.00 0.00 0.01 0.05 0.10 0.11 0.19 0.15 0.25
0.55 0.49 0.43 0.41 0.40 0.34 0.38 0.49 0.52 0.82 0.70 0.31 0.33 0.30 0.40 0.35 0.21 0.06 0.03 0.07 0.30 0.56 0.45 0.28 0.16 0.27 0.25 0.18 0.33 0.80 0.78 0.25 0.13 0.20 0.19 0.09 0.03 0.01 0.03 0.08 0.03 0.07 0.11 0.39 0.55
0.66 0.64 0.57 0.43 0.38 0.41 0.51 0.47 0.55 0.79 0.71 0.42 0.34 0.55 0.64 0.33 0.23 0.08 0.03 0.06 0.28 0.84 0.63 0.44 0.28 0.31 0.20 0.11 0.09 0.40 0.38 0.29 0.25 0.45 0.42 0.16 0.09 0.07 0.03 0.02 0.05 0.15 0.40 0.54 0.59
0.91 0.85 0.71 0.44 0.42 0.59 0.58 0.52 0.53 0.98 0.55 0.40 0.37 0.59 0.64 0.42 0.10 0.13 0.10 0.14 0.47 0.95 0.51 0.51 0.46 0.27 0.15 0.04 0.08 0.12 0.22 0.28 0.58 0.66 0.41 0.25 0.16 0.11 0.07 0.03 0.14 0.38 0.39 0.50 0.57
0.97 0.70 0.60 0.55 0.57 0.60 0.47 0.56 0.67 1.14 0.62 0.55 0.52 0.68 0.46 0.21 0.03 0.03 0.12 0.22 0.44 0.95 0.64 0.62 0.61 0.35 0.22 0.11 0.11 0.04 0.11 0.26 0.90 0.90 0.51 0.47 0.27 0.14 0.07 0.03 0.24 0.53 0.59 0.51 0.58
0.94 0.67 0.65 0.63 0.62 0.51 0.47 0.67 0.89 0.70 0.43 0.44 0.66 0.53 0.40 0.11 0.04 0.08 0.11 0.24 0.37 0.85 0.68 0.65 1.12 0.78 0.46 0.28 0.12 0.11 0.23 0.43 0.93 1.08 1.03 0.72 0.46 0.28 0.03 0.07 0.16 0.30 0.64 0.56 0.51
0.84 0.70 0.64 0.72 1.02 1.01 0.75 0.77 0.72 0.60 0.41 0.45 0.70 0.75 0.26 0.02 0.04 0.02 0.10 0.29 0.43 0.76 1.07 1.01 1.75 1.06 0.73 0.36 0.42 0.49 0.51 0.52 0.50 0.95 1.32 1.42 0.73 0.14 0.07 0.08 0.15 0.18 0.41 0.68 0.71
0.74 0.59 0.66 0.78 0.87 1.11 1.32 0.80 0.73 0.70 0.61 0.70 0.72 0.62 0.19 0.06 0.07 0.02 0.11 0.36 0.42 0.71 1.19 1.63 2.48 1.56 1.05 0.69 0.69 0.68 0.32 0.23 0.49 0.59 1.15 1.27 0.87 0.31 0.16 0.07 0.12 0.15 0.23 0.41 0.58
0.72 0.75 0.86 0.92 1.22 1.35 1.11 0.98 0.86 0.87 0.82 1.00 1.03 0.71 0.20 0.07 0.12 0.08 0.12 0.43 0.57 0.92 1.90 2.64 3.78 1.98 1.10 0.83 0.52 0.32 0.24 0.17 0.41 0.61 0.88 0.98 0.95 0.49 0.25 0.10 0.07 0.13 0.19 0.27 0.34
0.83 1.11 1.52 2.28 1.99 1.30 1.34 1.77 1.41 1.26 0.98 0.70 0.45 0.24 0.23 0.19 0.32 0.31 0.22 0.57 1.04 1.62 2.22 2.14 3.44 1.55 0.66 0.29 0.17 0.27 0.15 0.13 0.23 0.39 0.55 0.65 0.83 0.65 0.38 0.25 0.08 0.07 0.13 0.24 0.27
0.87 0.87 1.20 2.34 1.83 1.54 1.61 1.39 0.70 0.63 0.73 0.30 0.21 0.12 0.11 0.29 0.56 0.59 0.32 1.01 1.39 1.83 2.33 2.24 1.72 0.65 0.56 0.41 0.21 0.47 0.28 0.26 0.42 0.42 0.34 0.41 0.66 0.66 0.44 0.29 0.10 0.05 0.07 0.12 0.24
0.90 0.93 1.20 1.69 1.45 1.55 1.42 0.90 0.37 0.72 1.23 0.68 0.46 0.33 0.26 0.44 0.59 0.64 0.50 1.12 1.48 1.87 2.19 1.79 1.26 0.79 0.89 0.54 0.33 0.29 0.18 0.29 0.62 0.61 0.35 0.19 0.32 0.46 0.35 0.12 0.06 0.04 0.04 0.06 0.16
0.84 0.99 1.31 1.33 1.51 1.50 1.56 0.99 0.86 1.36 2.03 1.07 0.81 0.77 0.67 0.88 1.00 0.67 0.63 1.44 1.84 1.75 1.77 1.80 1.16 1.09 1.15 0.60 0.24 0.16 0.15 0.56 0.50 0.58 0.51 0.25 0.28 0.27 0.30 0.22 0.07 0.02 0.03 0.05 0.11
0.86 1.15 1.74 1.57 1.69 1.44 1.60 1.27 1.51 1.92 1.90 0.74 0.91 1.02 0.87 1.04 0.85 1.05 0.69 1.48 1.50 1.72 2.05 1.72 1.27 1.56 1.20 0.61 0.23 0.19 0.19 0.45 0.61 0.77 0.80 0.32 0.58 0.30 0.23 0.30 0.20 0.06 0.08 0.13 0.26
1.14 1.24 1.84 1.47 1.49 1.01 1.12 1.80 2.20 2.22 1.63 1.56 1.28 1.40 0.99 0.67 0.75 0.77 0.91 1.31 1.37 2.26 1.83 1.29 1.55 1.48 0.84 0.69 0.35 0.30 0.42 0.66 0.95 1.13 1.28 0.68 0.73 0.54 0.37 0.47 0.35 0.13 0.11 0.27 0.39
1.38 1.35 1.80 1.23 1.38 0.98 1.23 2.14 2.27 1.23 0.98 1.37 1.70 1.33 0.60 0.53 0.54 0.92 1.26 0.95 1.52 2.06 2.34 1.94 1.66 1.17 0.84 1.13 1.01 1.31 1.56 1.83 1.61 1.52 0.93 0.57 0.74 0.68 0.59 0.35 0.42 0.31 0.20 0.43 0.65
1.27 1.73 1.55 1.09 0.98 1.56 1.42 1.62 1.41 0.74 0.98 0.73 0.89 0.68 0.75 0.55 0.79 0.74 0.96 0.42 0.67 1.02 1.36 1.68 1.96 1.43 1.10 1.31 1.86 1.39 1.18 1.32 0.84 0.59 0.37 0.25 0.50 0.76 0.57 0.39 0.36 0.28 0.59 1.04 1.44
1.84 1.81 1.86 1.37 1.20 1.68 1.76 1.34 1.21 1.05 1.00 0.88 0.63 0.54 0.70 0.33 0.51 0.54 0.45 0.19 0.34 0.54 0.77 0.77 1.05 0.69 0.65 0.67 1.08 1.04 0.97 0.69 0.83 0.33 0.43 0.43 0.41 0.46 0.49 0.56 0.76 0.93 1.46 1.24 1.26
2.40 2.08 2.10 1.24 1.23 1.77 1.93 1.17 1.14 1.17 0.65 0.30 0.39 0.19 0.13 0.15 0.27 0.21 0.15 0.06 0.19 0.16 0.24 0.38 0.86 0.80 0.74 0.83 0.90 0.63 0.39 0.61 1.22 0.62 0.40 0.30 0.36 0.80 0.84 1.21 1.38 1.65 1.37 1.22 1.33
2.17 2.45 2.01 1.43 1.67 2.11 1.56 0.94 0.85 0.64 0.39 0.21 0.06 0.06 0.03 0.03 0.19 0.05 0.05 0.05 0.11 0.07 0.14 0.45 0.71 0.86 1.04 1.02 0.79 0.66 0.65 0.52 0.58 0.31 0.22 0.14 0.63 0.87 1.26 1.26 1.06 0.93 0.87 0.65 0.35
1.88 2.26 1.58 2.03 2.35 1.53 0.81 0.90 0.92 0.53 0.20 0.18 0.07 0.02 0.01 0.01 0.12 0.05 0.03 0.03 0.03 0.03 0.16 0.38 0.56 0.77 0.62 0.21 0.17 0.28 0.28 0.20 0.78 0.40 0.27 0.21 0.41 0.22 0.28 0.38 0.32 0.16 0.06 0.02 0.01
1.91 1.88 2.47 1.42 1.24 0.76 0.69 0.85 0.59 0.19 0.19 0.21 0.05 0.01 0.00 0.01 0.02 0.01 0.02 0.00 0.00 0.01 0.15 0.29 0.74 0.79 0.77 0.52 0.49 0.65 0.35 0.28 0.62 1.13 0.62 0.31 0.16 0.01 0.01 0.02 0.01 0.01 0.03 0.01 0.00
1.44 1.89 3.29 2.08 0.55 0.57 1.00 1.13 0.79 0.25 0.19 0.23 0.08 0.04 0.04 0.02 0.00 0.00 0.04 0.00 0.00 0.01 0.18 0.66 0.61 0.75 0.75 0.74 0.79 0.55 0.31 0.49 1.00 1.36 0.39 0.17 0.03 0.01 0.01 0.03 0.02 0.03 0.04 0.06 0.02
0.84 0.65 0.83 0.88 0.43 0.23 0.67 0.83 0.83 0.66 0.43 0.27 0.13 0.04 0.05 0.02 0.02 0.00 0.01 0.00 0.00 0.01 0.21 0.73 0.94 1.21 0.74 0.38 0.93 0.53 0.29 0.37 0.87 0.61 0.58 0.18 0.07 0.02 0.01 0.04 0.10 0.09 0.11 0.06 0.03
0.52 0.31 0.16 0.06 0.04 0.05 0.37 0.84 0.90 0.77 0.60 0.31 0.14 0.05 0.05 0.03 0.01 0.00 0.00 0.00 0.00 0.01 0.11 0.47 0.79 0.96 0.56 0.17 0.33 0.34 0.15 0.20 0.19 0.31 0.41 0.17 0.22 0.05 0.02 0.12 0.29 0.17 0.22 0.11 0.06
0.54 0.27 0.13 0.12 0.06 0.04 0.09 0.40 0.64 0.63 0.49 0.27 0.18 0.16 0.04 0.02 0.01 0.01 0.00 0.00 0.00 0.01 0.10 0.28 0.45 0.78 0.63 0.37 0.24 0.42 0.26 0.15 0.14 0.20 0.33 0.31 0.19 0.07 0.07 0.29 0.31 0.31 0.30 0.09 0.03

GFSSW_prec_precacc_126.txt.gz
Total_Precipitation_Accumulation
0.45 0.48 0.35 0.29 0.26 0.29 0.39 0.53 1.21 0.90 0.34 0.33 0.39 0.39 0.49 0.50 0.37 0.19 0.09 0.03 0.02 0.09 0.25 0.01 0.02 0.05 0.08 0.12 0.35 0.70 1.29 0.55 0.04 0.04 0.05 0.00 0.00 0.00 0.00 0.01 0.01 0.03 0.15 0.19 0.27
0.47 0.46 0.41 0.35 0.33 0.31 0.38 0.50 0.58 1.47 0.43 0.26 0.24 0.32 0.41 0.42 0.26 0.18 0.01 0.05 0.15 0.33 0.27 0.09 0.05 0.10 0.16 0.14 0.49 0.94 1.21 0.58 0.10 0.08 0.06 0.03 0.00 0.00 0.01 0.05 0.10 0.11 0.19 0.15 0.25
0.58 0.54 0.45 0.42 0.40 0.34 0.38 0.51 0.56 1.11 0.99 0.32 0.33 0.30 0.40 0.35 0.21 0.06 0.03 0.07 0.30 0.56 0.45 0.28 0.16 0.27 0.25 0.18 0.33 0.80 0.78 0.25 0.13 0.20 0.19 0.09 0.03 0.01 0.03 0.08 0.03 0.07 0.11 0.39 0.55
0.72 0.69 0.58 0.44 0.38 0.41 0.51 0.47 0.58 0.91 1.01 0.46 0.34 0.55 0.64 0.33 0.23 0.08 0.03 0.06 0.28 0.84 0.63 0.44 0.28 0.31 0.20 0.11 0.09 0.40 0.38 0.29 0.25 0.45 0.42 0.16 0.09 0.07 0.03 0.02 0.05 0.15 0.40 0.54 0.59
0.99 0.86 0.72 0.44 0.42 0.59 0.58 0.52 0.60 1.05 0.79 0.49 0.38 0.59 0.64 0.42 0.10 0.13 0.10 0.14 0.47 0.95 0.51 0.51 0.46 0.27 0.15 0.04 0.08 0.12 0.22 0.28 0.58 0.66 0.41 0.25 0.16 0.11 0.07 0.03 0.14 0.38 0.39 0.50 0.57
1.02 0.73 0.66 0.56 0.57 0.60 0.47 0.56 0.72 1.27 0.79 0.62 0.52 0.68 0.46 0.21 0.03 0.03 0.12 0.22 0.44 0.95 0.64 0.62 0.61 0.35 0.22 0.11 0.11 0.04 0.11 0.26 0.90 0.90 0.51 0.47 0.27 0.14 0.07 0.03 0.24 0.53 0.59 0.51 0.58
0.95 0.69 0.66 0.63 0.62 0.51 0.47 0.67 0.99 0.94 0.58 0.46 0.66 0.53 0.40 0.11 0.04 0.08 0.11 0.24 0.37 0.85 0.68 0.65 1.12 0.78 0.46 0.28 0.12 0.11 0.23 0.43 0.93 1.08 1.03 0.72 0.46 0.28 0.03 0.07 0.16 0.30 0.64 0.56 0.51
0.84 0.70 0.64 0.72 1.02 1.01 0.76 0.83 0.85 0.78 0.44 0.45 0.70 0.75 0.26 0.02 0.04 0.02 0.10 0.29 0.43 0.76 1.07 1.01 1.75 1.06 0.73 0.36 0.42 0.49 0.51 0.52 0.50 0.95 1.32 1.42 0.73 0.14 0.07 0.08 0.15 0.18 0.41 0.68 0.71
0.74 0.59 0.66 0.79 0.87 1.14 1.44 0.98 0.89 0.76 0.61 0.70 0.72 0.62 0.19 0.06 0.07 0.02 0.11 0.36 0.42 0.71 1.19 1.63 2.48 1.56 1.05 0.69 0.69 0.68 0.32 0.23 0.49 0.59 1.15 1.27 0.87 0.31 0.16 0.07 0.12 0.15 0.23 0.41 0.58
0.74 0.83 0.96 1.03 1.46 1.62 1.34 1.11 0.89 0.87 0.82 1.00 1.03 0.71 0.20 0.07 0.12 0.08 0.12 0.43 0.57 0.92 1.90 2.64 3.78 1.98 1.10 0.83 0.52 0.32 0.24 0.17 0.41 0.61 0.88 0.98 0.95 0.49 0.25 0.10 0.07 0.13 0.19 0.27 0.34
0.85 1.21 1.77 2.55 2.24 1.46 1.39 1.78 1.41 1.26 0.98 0.70 0.45 0.24 0.23 0.19 0.32 0.31 0.22 0.57 1.04 1.62 2.22 2.14 3.44 1.55 0.66 0.29 0.17 0.27 0.15 0.13 0.23 0.39 0.55 0.65 0.83 0.65 0.38 0.25 0.08 0.07 0.13 0.24 0.27
0.88 0.93 1.28 2.42 1.88 1.56 1.62 1.39 0.70 0.63 0.73 0.30 0.21 0.12 0.11 0.29 0.56 0.59 0.32 1.01 1.39 1.83 2.33 2.24 1.72 0.65 0.56 0.41 0.21 0.47 0.28 0.26 0.42 0.42 0.34 0.41 0.66 0.66 0.44 0.29 0.10 0.05 0.07 0.12 0.24
0.90 0.93 1.21 1.69 1.45 1.55 1.42 0.90 0.37 0.72 1.23 0.68 0.46 0.33 0.26 0.44 0.59 0.64 0.50 1.12 1.48 1.87 2.19 1.79 1.26 0.79 0.89 0.54 0.33 0.29 0.18 0.29 0.62 0.61 0.35 0.19 0.32 0.46 0.35 0.12 0.06 0.04 0.04 0.06 0.16
0.84 0.99 1.31 1.33 1.51 1.50 1.56 0.99 0.86 1.36 2.03 1.07 0.81 0.77 0.67 0.88 1.00 0.67 0.63 1.44 1.84 1.75 1.77 1.80 1.16 1.09 1.15 0.60 0.24 0.16 0.15 0.56 0.50 0.58 0.51 0.26 0.28 0.27 0.30 0.22 0.07 0.02 0.03 0.06 0.12
0.86 1.15 1.74 1.57 1.69 1.44 1.60 1.27 1.51 1.92 1.90 0.74 0.91 1.02 0.87 1.04 0.85 1.05 0.69 1.48 1.50 1.72 2.05 1.72 1.27 1.56 1.20 0.61 0.23 0.19 0.19 0.45 0.61 0.78 0.82 0.32 0.59 0.30 0.23 0.30 0.20 0.06 0.08 0.15 0.27
1.14 1.24 1.84 1.47 1.49 1.01 1.12 1.80 2.20 2.22 1.63 1.56 1.28 1.40 0.99 0.67 0.75 0.77 0.91 1.31 1.37 2.26 1.83 1.29 1.55 1.48 0.84 0.69 0.35 0.30 0.42 0.66 0.96 1.14 1.28 0.68 0.73 0.54 0.38 0.49 0.38 0.17 0.14 0.30 0.42
1.38 1.35 1.80 1.23 1.38 0.98 1.23 2.14 2.27 1.23 0.98 1.37 1.70 1.33 0.60 0.53 0.54 0.92 1.26 0.95 1.52 2.06 2.34 1.94 1.66 1.17 0.84 1.13 1.01 1.31 1.56 1.83 1.61 1.52 0.93 0.57 0.75 0.69 0.63 0.37 0.49 0.39 0.31 0.54 0.87
1.27 1.73 1.55 1.09 0.98 1.56 1.42 1.62 1.41 0.74 0.98 0.73 0.89 0.68 0.75 0.55 0.79 0.74 0.96 0.42 0.67 1.02 1.36 1.68 1.96 1.43 1.10 1.31 1.86 1.39 1.18 1.33 0.85 0.60 0.37 0.25 0.52 0.80 0.62 0.44 0.45 0.43 0.84 1.19 1.61
1.84 1.81 1.86 1.37 1.20 1.68 1.76 1.34 1.21 1.05 1.00 0.88 0.63 0.54 0.70 0.33 0.51 0.54 0.45 0.19 0.34 0.54 0.77 0.77 1.05 0.69 0.65 0.67 1.08 1.04 0.97 0.69 0.86 0.34 0.44 0.44 0.41 0.48 0.52 0.59 0.84 1.09 1.56 1.37 1.29
2.40 2.08 2.10 1.24 1.23 1.77 1.93 1.17 1.14 1.17 0.65 0.30 0.39 0.19 0.13 0.15 0.27 0.21 0.15 0.06 0.19 0.16 0.24 0.38 0.86 0.80 0.74 0.83 0.90 0.63 0.39 0.61 1.23 0.62 0.40 0.30 0.36 0.81 0.85 1.22 1.41 1.68 1.40 1.24 1.35
2.17 2.45 2.01 1.43 1.67 2.11 1.56 0.94 0.85 0.64 0.39 0.21 0.06 0.06 0.03 0.03 0.19 0.05 0.05 0.05 0.11 0.07 0.14 0.45 0.71 0.86 1.04 1.02 0.79 0.66 0.65 0.52 0.58 0.31 0.22 0.14 0.63 0.87 1.27 1.27 1.08 0.95 0.88 0.65 0.36
1.88 2.26 1.58 2.03 2.35 1.53 0.81 0.90 0.92 0.53 0.20 0.18 0.07 0.02 0.01 0.01 0.12 0.05 0.03 0.03 0.03 0.03 0.16 0.38 0.56 0.77 0.62 0.21 0.17 0.28 0.28 0.20 0.78 0.40 0.27 0.21 0.41 0.22 0.28 0.38 0.32 0.16 0.06 0.02 0.01
1.91 1.88 2.47 1.42 1.24 0.76 0.69 0.85 0.59 0.19 0.19 0.21 0.05 0.01 0.00 0.01 0.02 0.01 0.02 0.00 0.00 0.01 0.15 0.29 0.74 0.79 0.77 0.52 0.49 0.65 0.35 0.28 0.62 1.13 0.62 0.31 0.16 0.01 0.01 0.02 0.01 0.01 0.03 0.01 0.00
1.44 1.89 3.29 2.08 0.55 0.57 1.00 1.13 0.79 0.25 0.19 0.23 0.08 0.04 0.04 0.02 0.00 0.00 0.04 0.00 0.00 0.01 0.18 0.66 0.61 0.75 0.75 0.74 0.79 0.55 0.31 0.49 1.00 1.36 0.39 0.17 0.03 0.01 0.01 0.03 0.02 0.03 0.04 0.06 0.02
0.84 0.65 0.83 0.88 0.43 0.23 0.67 0.83 0.83 0.66 0.43 0.27 0.13 0.04 0.05 0.02 0.02 0.00 0.01 0.00 0.00 0.01 0.21 0.73 0.94 1.21 0.74 0.38 0.93 0.53 0.29 0.37 0.87 0.61 0.58 0.18 0.07 0.02 0.01 0.04 0.10 0.09 0.11 0.06 0.03
0.52 0.31 0.16 0.06 0.04 0.05 0.37 0.84 0.90 0.77 0.60 0.31 0.14 0.05 0.05 0.03 0.01 0.00 0.00 0.00 0.00 0.01 0.11 0.47 0.79 0.96 0.56 0.17 0.33 0.34 0.15 0.20 0.19 0.31 0.41 0.17 0.22 0.05 0.02 0.12 0.29 0.17 0.22 0.11 0.06
0.54 0.27 0.13 0.12 0.06 0.04 0.09 0.40 0.64 0.63 0.49 0.27 0.18 0.16 0.04 0.02 0.01 0.01 0.00 0.00 0.00 0.01 0.10 0.28 0.45 0.78 0.63 0.37 0.24 0.42 0.26 0.15 0.14 0.20 0.33 0.31 0.19 0.07 0.07 0.29 0.31 0.31 0.30 0.09 0.03

GFSSW_prec_precacc_129.txt.gz
Total_Precipitation_Accumulation
0.52 0.53 0.38 0.29 0.27 0.35 0.50 0.80 2.10 0.98 0.34 0.33 0.39 0.39 0.49 0.50 0.37 0.19 0.09 0.03 0.02 0.09 0.25 0.01 0.02 0.05 0.08 0.12 0.35 0.70 1.29 0.55 0.04 0.04 0.05 0.00 0.00 0.00 0.00 0.01 0.01 0.03 0.15 0.19 0.27
0.53 0.50 0.42 0.35 0.33 0.34 0.43 0.66 1.31 1.85 0.44 0.26 0.24 0.32 0.41 0.42 0.26 0.18 0.01 0.05 0.15 0.33 0.27 0.09 0.05 0.10 0.16 0.14 0.49 0.94 1.21 0.58 0.10 0.08 0.06 0.03 0.00 0.00 0.01 0.05 0.10 0.11 0.19 0.15 0.25
0.65 0.57 0.46 0.43 0.40 0.35 0.40 0.57 0.88 1.62 1.07 0.32 0.33 0.30 0.40 0.35 0.21 0.06 0.03 0.07 0.30 0.56 0.45 0.28 0.16 0.27 0.25 0.18 0.33 0.80 0.78 0.25 0.13 0.20 0.19 0.09 0.03 0.01 0.03 0.08 0.03 0.07 0.11 0.39 0.55
0.77 0.72 0.60 0.46 0.39 0.42 0.52 0.50 0.86 1.22 1.14 0.47 0.34 0.55 0.64 0.33 0.23 0.08 0.03 0.06 0.28 0.84 0.63 0.44 0.28 0.31 0.20 0.11 0.09 0.40 0.38 0.29 0.25 0.45 0.42 0.16 0.09 0.07 0.03 0.02 0.05 0.15 0.40 0.54 0.59
1.03 0.88 0.73 0.45 0.43 0.59 0.58 0.56 0.77 1.17 0.88 0.49 0.38 0.59 0.64 0.42 0.10 0.13 0.10 0.14 0.47 0.95 0.51 0.51 0.46 0.27 0.15 0.04 0.08 0.12 0.22 0.28 0.58 0.66 0.41 0.25 0.16 0.11 0.07 0.03 0.14 0.38 0.39 0.50 0.57
1.03 0.73 0.66 0.56 0.57 0.60 0.47 0.69 0.95 1.33 0.82 0.62 0.52 0.68 0.46 0.21 0.03 0.03 0.12 0.22 0.44 0.95 0.64 0.62 0.61 0.35 0.22 0.11 0.11 0.04 0.11 0.26 0.90 0.90 0.51 0.47 0.27 0.14 0.07 0.03 0.24 0.53 0.59 0.51 0.58
0.95 0.69 0.66 0.63 0.62 0.51 0.48 0.92 1.18 0.96 0.58 0.46 0.66 0.53 0.40 0.11 0.04 0.08 0.11 0.24 0.37 0.85 0.68 0.65 1.12 0.78 0.46 0.28 0.12 0.11 0.23 0.43 0.93 1.08 1.03 0.72 0.46 0.28 0.03 0.07 0.16 0.30 0.64 0.56 0.51
0.84 0.70 0.64 0.72 1.02 1.01 0.79 1.10 0.93 0.79 0.44 0.45 0.70 0.75 0.26 0.02 0.04 0.02 0.10 0.29 0.43 0.76 1.07 1.01 1.75 1.06 0.73 0.36 0.42 0.49 0.51 0.52 0.50 0.95 1.32 1.42 0.73 0.14 0.07 0.08 0.15 0.18 0.41 0.68 0.71
0.75 0.60 0.66 0.79 0.87 1.16 1.52 1.05 0.93 0.76 0.61 0.70 0.72 0.62 0.19 0.06 0.07 0.02 0.11 0.36 0.42 0.71 1.19 1.63 2.48 1.56 1.05 0.69 0.69 0.68 0.32 0.23 0.49 0.59 1.15 1.27 0.87 0.31 0.16 0.07 0.12 0.15 0.23 0.41 0.58
0.78 0.86 0.98 1.06 1.56 1.81 1.38 1.14 0.91 0.87 0.82 1.00 1.03 0.71 0.20 0.07 0.12 0.08 0.12 0.43 0.57 0.92 1.90 2.64 3.78 1.98 1.10 0.83 0.52 0.32 0.24 0.17 0.41 0.61 0.88 0.98 0.95 0.49 0.25 0.10 0.07 0.13 0.19 0.27 0.34
0.86 1.21 1.79 2.71 2.51 1.58 1.43 1.79 1.41 1.26 0.98 0.70 0.45 0.24 0.23 0.19 0.32 0.31 0.22 0.57 1.04 1.62 2.22 2.14 3.44 1.55 0.66 0.29 0.17 0.27 0.15 0.13 0.23 0.39 0.55 0.65 0.83 0.65 0.38 0.25 0.08 0.07 0.13 0.24 0.27
0.89 0.94 1.35 2.50 1.91 1.57 1.62 1.39 0.70 0.63 0.73 0.30 0.21 0.12 0.11 0.29 0.56 0.59 0.32 1.01 1.39 1.83 2.33 2.24 1.72 0.65 0.56 0.41 0.21 0.47 0.28 0.26 0.42 0.42 0.34 0.41 0.66 0.66 0.44 0.29 0.10 0.05 0.07 0.12 0.24
0.91 0.93 1.21 1.70 1.45 1.55 1.42 0.90 0.37 0.72 1.23 0.68 0.46 0.33 0.26 0.44 0.59 0.64 0.50 1.12 1.48 1.87 2.19 1.79 1.26 0.79 0.89 0.54 0.33 0.29 0.18 0.29 0.62 0.61 0.35 0.19 0.32 0.46 0.35 0.12 0.06 0.04 0.04 0.06 0.16
0.84 0.99 1.31 1.33 1.51 1.50 1.56 0.99 0.86 1.36 2.03 1.07 0.81 0.77 0.67 0.88 1.00 0.67 0.63 1.44 1.84 1.75 1.77 1.80 1.16 1.09 1.15 0.60 0.24 0.16 0.15 0.56 0.50 0.59 0.51 0.26 0.28 0.27 0.30 0.22 0.07 0.02 0.03 0.06 0.13
0.86 1.15 1.74 1.57 1.69 1.44 1.60 1.27 1.51 1.92 1.90 0.74 0.91 1.02 0.87 1.04 0.85 1.05 0.69 1.48 1.50 1.72 2.05 1.72 1.27 1.56 1.20 0.61 0.23 0.19 0.19 0.45 0.62 0.78 0.82 0.32 0.60 0.30 0.23 0.30 0.20 0.06 0.08 0.15 0.27
1.14 1.24 1.84 1.47 1.49 1.01 1.12 1.80 2.20 2.22 1.63 1.56 1.28 1.40 0.99 0.67 0.75 0.77 0.91 1.31 1.37 2.26 1.83 1.29 1.55 1.48 0.84 0.69 0.35 0.30 0.42 0.66 0.96 1.14 1.29 0.68 0.74 0.54 0.39 0.49 0.38 0.17 0.14 0.31 0.44
1.38 1.35 1.80 1.23 1.38 0.98 1.23 2.14 2.27 1.23 0.98 1.37 1.70 1.33 0.60 0.53 0.54 0.92 1.26 0.95 1.52 2.06 2.34 1.94 1.66 1.17 0.84 1.13 1.01 1.31 1.56 1.84 1.62 1.53 0.93 0.57 0.75 0.69 0.63 0.38 0.49 0.39 0.33 0.61 0.94
1.27 1.73 1.55 1.09 0.98 1.56 1.42 1.62 1.41 0.74 0.98 0.73 0.89 0.68 0.75 0.55 0.79 0.74 0.96 0.42 0.67 1.02 1.36 1.68 1.96 1.43 1.10 1.31 1.86 1.40 1.19 1.34 0.86 0.60 0.37 0.25 0.52 0.80 0.62 0.44 0.46 0.44 0.89 1.27 1.64
1.84 1.81 1.86 1.37 1.20 1.68 1.76 1.34 1.21 1.05 1.00 0.88 0.63 0.54 0.70 0.33 0.51 0.54 0.45 0.19 0.34 0.54 0.77 0.77 1.05 0.69 0.65 0.67 1.08 1.05 0.98 0.70 0.87 0.34 0.44 0.44 0.41 0.48 0.53 0.59 0.84 1.09 1.58 1.39 1.29
2.40 2.08 2.10 1.24 1.23 1.77 1.93 1.17 1.14 1.17 0.65 0.30 0.39 0.19 0.13 0.15 0.27 0.21 0.15 0.06 0.19 0.16 0.24 0.38 0.86 0.80 0.74 0.83 0.90 0.63 0.39 0.61 1.23 0.63 0.40 0.30 0.36 0.81 0.85 1.22 1.41 1.68 1.40 1.24 1.35
2.17 2.45 2.01 1.43 1.67 2.11 1.56 0.94 0.85 0.64 0.39 0.21 0.06 0.06 0.03 0.03 0.19 0.05 0.05 0.05 0.11 0.07 0.14 0.45 0.71 0.86 1.04 1.02 0.79 0.66 0.65 0.52 0.58 0.31 0.22 0.14 0.63 0.87 1.27 1.27 1.08 0.95 0.88 0.65 0.36
1.88 2.26 1.58 2.03 2.35 1.53 0.81 0.90 0.92 0.53 0.20 0.18 0.07 0.02 0.01 0.01 0.12 0.05 0.03 0.03 0.03 0.03 0.16 0.38 0.56 0.77 0.62 0.21 0.17 0.28 0.28 0.20 0.78 0.40 0.27 0.21 0.41 0.22 0.28 0.38 0.32 0.16 0.06 0.02 0.01
1.91 1.88 2.47 1.42 1.24 0.76 0.69 0.85 0.59 0.19 0.19 0.21 0.05 0.01 0.00 0.01 0.02 0.01 0.02 0.00 0.00 0.01 0.15 0.29 0.74 0.79 0.77 0.52 0.49 0.65 0.35 0.28 0.62 1.13 0.62 0.31 0.16 0.01 0.01 0.02 0.01 0.01 0.03 0.01 0.00
1.44 1.89 3.29 2.08 0.55 0.57 1.00 1.13 0.79 0.25 0.19 0.23 0.08 0.04 0.04 0.02 0.00 0.00 0.04 0.00 0.00 0.01 0.18 0.66 0.61 0.75 0.75 0.74 0.79 0.55 0.31 0.49 1.00 1.36 0.39 0.17 0.03 0.01 0.01 0.03 0.02 0.03 0.04 0.06 0.02
0.84 0.65 0.83 0.88 0.43 0.23 0.67 0.83 0.83 0.66 0.43 0.27 0.13 0.04 0.05 0.02 0.02 0.00 0.01 0.00 0.00 0.01 0.21 0.73 0.94 1.21 0.74 0.38 0.93 0.53 0.29 0.37 0.87 0.61 0.58 0.18 0.07 0.02 0.01 0.04 0.10 0.09 0.11 0.06 0.03
0.52 0.31 0.16 0.06 0.04 0.05 0.37 0.84 0.90 0.77 0.60 0.31 0.14 0.05 0.05 0.03 0.01 0.00 0.00 0.00 0.00 0.01 0.11 0.47 0.79 0.96 0.56 0.17 0.33 0.34 0.15 0.20 0.19 0.31 0.41 0.17 0.22 0.05 0.02 0.12 0.29 0.17 0.22 0.11 0.06
0.54 0.27 0.13 0.12 0.06 0.04 0.09 0.40 0.64 0.63 0.49 0.27 0.18 0.16 0.04 0.02 0.01 0.01 0.00 0.00 0.00 0.01 0.10 0.28 0.45 0.78 0.63 0.37 0.24 0.42 0.26 0.15 0.14 0.20 0.33 0.31 0.19 0.07 0.07 0.29 0.31 0.31 0.30 0.09 0.03

GFSSW_prec_precacc_132.txt.gz
Total_Precipitation_Accumulation
0.71 0.75 0.44 0.35 0.39 0.50 0.70 1.20 2.59 1.05 0.34 0.33 0.39 0.39 0.49 0.50 0.37 0.19 0.09 0.03 0.02 0.09 0.25 0.01 0.02 0.05 0.08 0.12 0.35 0.70 1.29 0.55 0.04 0.04 0.05 0.00 0.00 0.00 0.00 0.01 0.01 0.03 0.15 0.19 0.27
0.65 0.64 0.45 0.37 0.40 0.41 0.59 0.88 1.86 1.95 0.44 0.26 0.24 0.32 0.41 0.42 0.26 0.18 0.01 0.05 0.15 0.33 0.27 0.09 0.05 0.10 0.16 0.14 0.49 0.94 1.21 0.58 0.10 0.08 0.06 0.03 0.00 0.00 0.01 0.05 0.10 0.11 0.19 0.15 0.25
0.70 0.61 0.47 0.44 0.42 0.40 0.56 0.89 1.45 1.86 1.07 0.32 0.33 0.30 0.40 0.35 0.21 0.06 0.03 0.07 0.30 0.56 0.45 0.28 0.16 0.27 0.25 0.18 0.33 0.80 0.78 0.25 0.13 0.20 0.19 0.09 0.03 0.01 0.03 0.08 0.03 0.07 0.11 0.39 0.55
0.82 0.77 0.63 0.47 0.39 0.44 0.64 0.66 1.30 1.50 1.15 0.47 0.34 0.55 0.64 0.33 0.23 0.08 0.03 0.06 0.28 0.84 0.63 0.44 0.28 0.31 0.20 0.11 0.09 0.40 0.38 0.29 0.25 0.45 0.42 0.16 0.09 0.07 0.03 0.02 0.05 0.15 0.40 0.54 0.59
1.08 0.90 0.74 0.45 0.43 0.61 0.69 0.70 0.95 1.32 0.90 0.49 0.38 0.59 0.64 0.42 0.10 0.13 0.10 0.14 0.47 0.95 0.51 0.51 0.46 0.27 0.15 0.04 0.08 0.12 0.22 0.28 0.58 0.66 0.41 0.25 0.16 0.11 0.07 0.03 0.14 0.38 0.39 0.50 0.57
1.04 0.73 0.66 0.56 0.57 0.62 0.56 0.86 1.08 1.46 0.85 0.62 0.52 0.68 0.46 0.21 0.03 0.03 0.12 0.22 0.44 0.95 0.64 0.62 0.61 0.35 0.22 0.11 0.11 0.04 0.11 0.26 0.90 0.90 0.51 0.47 0.27 0.14 0.07 0.03 0.24 0.53 0.59 0.51 0.58
0.96 0.69 0.66 0.63 0.62 0.53 0.62 1.16 1.29 1.02 0.58 0.46 0.66 0.53 0.40 0.11 0.04 0.08 0.11 0.24 0.37 0.85 0.68 0.65 1.12 0.78 0.46 0.28 0.12 0.11 0.23 0.43 0.93 1.08 1.03 0.72 0.46 0.28 0.03 0.07 0.16 0.30 0.64 0.56 0.51
0.84 0.70 0.64 0.72 1.03 1.17 1.26 1.36 0.99 0.80 0.44 0.45 0.70 0.75 0.26 0.02 0.04 0.02 0.10 0.29 0.43 0.76 1.07 1.01 1.75 1.06 0.73 0.36 0.42 0.49 0.51 0.52 0.50 0.95 1.32 1.42 0.73 0.14 0.07 0.08 0.15 0.18 0.41 0.68 0.71
0.75 0.60 0.66 0.79 0.94 1.36 1.78 1.17 0.94 0.76 0.61 0.70 0.72 0.62 0.19 0.06 0.07 0.02 0.11 0.36 0.42 0.71 1.19 1.63 2.48 1.56 1.05 0.69 0.69 0.68 0.32 0.23 0.49 0.59 1.15 1.27 0.87 0.31 0.16 0.07 0.12 0.15 0.23 0.41 0.58
0.79 0.86 0.99 1.06 1.59 1.86 1.40 1.14 0.91 0.87 0.82 1.00 1.03 0.71 0.20 0.07 0.12 0.08 0.12 0.43 0.57 0.92 1.90 2.64 3.78 1.98 1.10 0.83 0.52 0.32 0.24 0.17 0.41 0.61 0.88 0.98 0.95 0.49 0.25 0.10 0.07 0.13 0.19 0.27 0.34
0.87 1.21 1.80 2.77 2.55 1.59 1.43 1.79 1.41 1.26 0.98 0.70 0.45 0.24 0.23 0.19 0.32 0.31 0.22 0.57 1.04 1.62 2.22 2.14 3.44 1.55 0.66 0.29 0.17 0.27 0.15 0.13 0.23 0.39 0.55 0.65 0.83 0.65 0.38 0.25 0.08 0.07 0.13 0.24 0.27
0.89 0.96 1.41 2.53 1.91 1.57 1.62 1.39 0.70 0.63 0.73 0.30 0.21 0.12 0.11 0.29 0.56 0.59 0.32 1.01 1.39 1.83 2.33 2.24 1.72 0.65 0.56 0.41 0.21 0.47 0.28 0.26 0.42 0.42 0.34 0.41 0.66 0.66 0.44 0.29 0.10 0.05 0.07 0.12 0.24
0.91 0.94 1.22 1.70 1.45 1.55 1.42 0.90 0.37 0.72 1.23 0.68 0.46 0.33 0.26 0.44 0.59 0.64 0.50 1.12 1.48 1.87 2.19 1.79 1.26 0.79 0.89 0.54 0.33 0.29 0.18 0.29 0.62 0.61 0.35 0.19 0.32 0.46 0.35 0.12 0.06 0.04 0.04 0.06 0.16
0.84 0.99 1.31 1.33 1.51 1.50 1.56 0.99 0.86 1.36 2.03 1.07 0.81 0.77 0.67 0.88 1.00 0.67 0.63 1.44 1.84 1.75 1.77 1.80 1.16 1.09 1.15 0.60 0.24 0.16 0.15 0.56 0.50 0.59 0.51 0.26 0.28 0.27 0.30 0.22 0.07 0.02 0.03 0.06 0.13
0.86 1.15 1.74 1.57 1.69 1.44 1.60 1.27 1.51 1.92 1.90 0.74 0.91 1.02 0.87 1.04 0.85 1.05 0.69 1.48 1.50 1.72 2.05 1.72 1.27 1.56 1.20 0.61 0.23 0.19 0.19 0.45 0.62 0.79 0.82 0.32 0.60 0.30 0.23 0.30 0.20 0.06 0.09 0.15 0.27
1.14 1.24 1.84 1.47 1.49 1.01 1.12 1.80 2.20 2.22 1.63 1.56 1.28 1.40 0.99 0.67 0.75 0.77 0.91 1.31 1.37 2.26 1.83 1.29 1.55 1.48 0.84 0.69 0.35 0.30 0.42 0.66 0.96 1.15 1.29 0.68 0.74 0.54 0.39 0.50 0.38 0.17 0.14 0.31 0.44
1.38 1.35 1.80 1.23 1.38 0.98 1.23 2.14 2.27 1.23 0.98 1.37 1.70 1.33 0.60 0.53 0.54 0.92 1.26 0.95 1.52 2.06 2.34 1.94 1.66 1.17 0.84 1.13 1.01 1.31 1.56 1.84 1.62 1.53 0.93 0.57 0.75 0.69 0.63 0.38 0.49 0.39 0.33 0.61 0.94
1.27 1.73 1.55 1.09 0.98 1.56 1.42 1.62 1.41 0.74 0.98 0.73 0.89 0.68 0.75 0.55 0.79 0.74 0.96 0.42 0.67 1.02 1.36 1.68 1.96 1.43 1.10 1.31 1.86 1.40 1.19 1.34 0.86 0.60 0.37 0.25 0.52 0.80 0.62 0.44 0.46 0.44 0.89 1.27 1.64
1.84 1.81 1.86 1.37 1.20 1.68 1.76 1.34 1.21 1.05 1.00 0.88 0.63 0.54 0.70 0.33 0.51 0.54 0.45 0.19 0.34 0.54 0.77 0.77 1.05 0.69 0.65 0.67 1.08 1.05 0.98 0.70 0.87 0.34 0.44 0.44 0.41 0.48 0.53 0.59 0.84 1.09 1.58 1.39 1.29
2.40 2.08 2.10 1.24 1.23 1.77 1.93 1.17 1.14 1.17 0.65 0.30 0.39 0.19 0.13 0.15 0.27 0.21 0.15 0.06 0.19 0.16 0.24 0.38 0.86 0.80 0.74 0.83 0.90 0.63 0.39 0.61 1.23 0.63 0.40 0.30 0.36 0.81 0.85 1.22 1.41 1.68 1.40 1.24 1.35
2.17 2.45 2.01 1.43 1.67 2.11 1.56 0.94 0.85 0.64 0.39 0.21 0.06 0.06 0.03 0.03 0.19 0.05 0.05 0.05 0.11 0.07 0.14 0.45 0.71 0.86 1.04 1.02 0.79 0.66 0.65 0.52 0.58 0.31 0.22 0.14 0.63 0.87 1.27 1.27 1.08 0.95 0.88 0.65 0.36
1.88 2.26 1.58 2.03 2.35 1.53 0.81 0.90 0.92 0.53 0.20 0.18 0.07 0.02 0.01 0.01 0.12 0.05 0.03 0.03 0.03 0.03 0.16 0.38 0.56 0.77 0.62 0.21 0.17 0.28 0.28 0.20 0.78 0.40 0.27 0.21 0.41 0.22 0.28 0.38 0.32 0.16 0.06 0.02 0.01
1.91 1.88 2.47 1.42 1.24 0.76 0.69 0.85 0.59 0.19 0.19 0.21 0.05 0.01 0.00 0.01 0.02 0.01 0.02 0.00 0.00 0.01 0.15 0.29 0.74 0.79 0.77 0.52 0.49 0.65 0.35 0.28 0.62 1.13 0.62 0.31 0.16 0.01 0.01 0.02 0.01 0.01 0.03 0.01 0.00
1.44 1.89 3.29 2.08 0.55 0.57 1.00 1.13 0.79 0.25 0.19 0.23 0.08 0.04 0.04 0.02 0.00 0.00 0.04 0.00 0.00 0.01 0.18 0.66 0.61 0.75 0.75 0.74 0.79 0.55 0.31 0.49 1.00 1.36 0.39 0.17 0.03 0.01 0.01 0.03 0.02 0.03 0.04 0.06 0.02
0.84 0.65 0.83 0.88 0.43 0.23 0.67 0.83 0.83 0.66 0.43 0.27 0.13 0.04 0.05 0.02 0.02 0.00 0.01 0.00 0.00 0.01 0.21 0.73 0.94 1.21 0.74 0.38 0.93 0.53 0.29 0.37 0.87 0.61 0.58 0.18 0.07 0.02 0.01 0.04 0.10 0.09 0.11 0.06 0.03
0.52 0.31 0.16 0.06 0.04 0.05 0.37 0.84 0.90 0.77 0.60 0.31 0.14 0.05 0.05 0.03 0.01 0.00 0.00 0.00 0.00 0.01 0.11 0.47 0.79 0.96 0.56 0.17 0.33 0.34 0.15 0.20 0.19 0.31 0.41 0.17 0.22 0.05 0.02 0.12 0.29 0.17 0.22 0.11 0.06
0.54 0.27 0.13 0.12 0.06 0.04 0.09 0.40 0.64 0.63 0.49 0.27 0.18 0.16 0.04 0.02 0.01 0.01 0.00 0.00 0.00 0.01 0.10 0.28 0.45 0.78 0.63 0.37 0.24 0.42 0.26 0.15 0.14 0.20 0.33 0.31 0.19 0.07 0.07 0.29 0.31 0.31 0.30 0.09 0.03

GFSSW_prec_precacc_135.txt.gz
Total_Precipitation_Accumulation
0.94 1.16 0.67 0.51 0.72 0.91 1.00 1.44 2.70 1.06 0.34 0.33 0.39 0.39 0.49 0.50 0.37 0.19 0.09 0.03 0.02 0.09 0.25 0.01 0.02 0.05 0.08 0.12 0.35 0.70 1.29 0.55 0.04 0.04 0.05 0.00 0.00 0.00 0.00 0.01 0.01 0.03 0.15 0.19 0.27
0.87 0.91 0.52 0.43 0.58 0.73 0.78 1.23 1.99 2.00 0.44 0.26 0.24 0.32 0.41 0.42 0.26 0.18 0.01 0.05 0.15 0.33 0.27 0.09 0.05 0.10 0.16 0.14 0.49 0.94 1.21 0.58 0.10 0.08 0.06 0.03 0.00 0.00 0.01 0.05 0.10 0.11 0.19 0.15 0.25
0.79 0.69 0.51 0.48 0.65 0.73 0.95 1.47 1.62 1.87 1.07 0.32 0.33 0.30 0.40 0.35 0.21 0.06 0.03 0.07 0.30 0.56 0.45 0.28 0.16 0.27 0.25 0.18 0.33 0.80 0.78 0.25 0.13 0.20 0.19 0.09 0.03 0.01 0.03 0.08 0.03 0.07 0.11 0.39 0.55
0.89 0.79 0.64 0.48 0.65 0.74 1.05 1.16 1.53 1.51 1.15 0.47 0.34 0.55 0.64 0.33 0.23 0.08 0.03 0.06 0.28 0.84 0.63 0.44 0.28 0.31 0.20 0.11 0.09 0.40 0.38 0.29 0.25 0.45 0.42 0.16 0.09 0.07 0.03 0.02 0.05 0.15 0.40 0.54 0.59
1.11 0.91 0.74 0.47 0.54 0.84 0.89 0.89 1.08 1.34 0.90 0.49 0.38 0.59 0.64 0.42 0.10 0.13 0.10 0.14 0.47 0.95 0.51 0.51 0.46 0.27 0.15 0.04 0.08 0.12 0.22 0.28 0.58 0.66 0.41 0.25 0.16 0.11 0.07 0.03 0.14 0.38 0.39 0.50 0.57
1.04 0.73 0.66 0.57 0.62 0.77 0.72 0.99 1.15 1.47 0.85 0.62 0.52 0.68 0.46 0.21 0.03 0.03 0.12 0.22 0.44 0.95 0.64 0.62 0.61 0.35 0.22 0.11 0.11 0.04 0.11 0.26 0.90 0.90 0.51 0.47 0.27 0.14 0.07 0.03 0.24 0.53 0.59 0.51 0.58
0.96 0.69 0.66 0.64 0.66 0.61 0.75 1.28 1.33 1.02 0.58 0.46 0.66 0.53 0.40 0.11 0.04 0.08 0.11 0.24 0.37 0.85 0.68 0.65 1.12 0.78 0.46 0.28 0.12 0.11 0.23 0.43 0.93 1.08 1.03 0.72 0.46 0.28 0.03 0.07 0.16 0.30 0.64 0.56 0.51
0.84 0.70 0.64 0.73 1.07 1.32 1.38 1.41 1.00 0.80 0.44 0.45 0.70 0.75 0.26 0.02 0.04 0.02 0.10 0.29 0.43 0.76 1.07 1.01 1.75 1.06 0.73 0.36 0.42 0.49 0.51 0.52 0.50 0.95 1.32 1.42 0.73 0.14 0.07 0.08 0.15 0.18 0.41 0.68 0.71
0.75 0.61 0.71 0.91 1.14 1.42 1.79 1.17 0.94 0.76 0.61 0.70 0.72 0.62 0.19 0.06 0.07 0.02 0.11 0.36 0.42 0.71 1.19 1.63 2.48 1.56 1.05 0.69 0.69 0.68 0.32 0.23 0.49 0.59 1.15 1.27 0.87 0.31 0.16 0.07 0.12 0.15 0.23 0.41 0.58
0.79 0.90 1.12 1.21 1.66 1.87 1.40 1.14 0.91 0.87 0.82 1.00 1.03 0.71 0.20 0.07 0.12 0.08 0.12 0.43 0.57 0.92 1.90 2.64 3.78 1.98 1.10 0.83 0.52 0.32 0.24 0.17 0.41 0.61 0.88 0.98 0.95 0.49 0.25 0.10 0.07 0.13 0.19 0.27 0.34
0.87 1.23 1.82 2.79 2.55 1.59 1.43 1.79 1.41 1.26 0.98 0.70 0.45 0.24 0.23 0.19 0.32 0.31 0.22 0.57 1.04 1.62 2.22 2.14 3.44 1.55 0.66 0.29 0.17 0.27 0.15 0.13 0.23 0.39 0.55 0.65 0.83 0.65 0.38 0.25 0.08 0.07 0.13 0.24 0.27
0.89 0.96 1.41 2.53 1.91 1.57 1.62 1.39 0.70 0.63 0.73 0.30 0.21 0.12 0.11 0.29 0.56 0.59 0.32 1.01 1.39 1.83 2.33 2.24 1.72 0.65 0.56 0.41 0.21 0.47 0.28 0.26 0.42 0.42 0.34 0.41 0.66 0.66 0.44 0.29 0.10 0.05 0.07 0.12 0.24
0.91 0.94 1.22 1.70 1.45 1.55 1.42 0.90 0.37 0.72 1.23 0.68 0.46 0.33 0.26 0.44 0.59 0.64 0.50 1.12 1.48 1.87 2.19 1.79 1.26 0.79 0.89 0.54 0.33 0.29 0.18 0.29 0.62 0.61 0.35 0.19 0.32 0.46 0.35 0.12 0.06 0.04 0.04 0.06 0.16
0.84 0.99 1.31 1.33 1.51 1.50 1.56 0.99 0.86 1.36 2.03 1.07 0.81 0.77 0.67 0.88 1.00 0.67 0.63 1.44 1.84 1.75 1.77 1.80 1.16 1.09 1.15 0.60 0.24 0.16 0.15 0.56 0.50 0.59 0.51 0.26 0.28 0.27 0.30 0.22 0.07 0.02 0.03 0.06 0.13
0.86 1.15 1.74 1.57 1.69 1.44 1.60 1.27 1.51 1.92 1.90 0.74 0.91 1.02 0.87 1.04 0.85 1.05 0.69 1.48 1.50 1.72 2.05 1.72 1.27 1.56 1.20 0.61 0.23 0.19 0.19 0.45 0.62 0.79 0.82 0.32 0.60 0.30 0.23 0.30 0.20 0.06 0.09 0.15 0.27
1.14 1.24 1.84 1.47 1.49 1.01 1.12 1.80 2.20 2.22 1.63 1.56 1.28 1.40 0.99 0.67 0.75 0.77 0.91 1.31 1.37 2.26 1.83 1.29 1.55 1.48 0.84 0.69 0.35 0.30 0.42 0.66 0.96 1.15 1.29 0.68 0.74 0.54 0.39 0.50 0.38 0.17 0.14 0.31 0.44
1.38 1.35 1.80 1.23 1.38 0.98 1.23 2.14 2.27 1.23 0.98 1.37 1.70 1.33 0.60 0.53 0.54 0.92 1.26 0.95 1.52 2.06 2.34 1.94 1.66 1.17 0.84 1.13 1.01 1.31 1.56 1.84 1.62 1.53 0.93 0.57 0.75 0.69 0.63 0.38 0.49 0.39 0.33 0.61 0.94
1.27 1.73 1.55 1.09 0.98 1.56 1.42 1.62 1.41 0.74 0.98 0.73 0.89 0.68 0.75 0.55 0.79 0.74 0.96 0.42 0.67 1.02 1.36 1.68 1.96 1.43 1.10 1.31 1.86 1.40 1.19 1.34 0.86 0.60 0.37 0.25 0.52 0.80 0.62 0.44 0.46 0.44 0.89 1.27 1.64
1.84 1.81 1.86 1.37 1.20 1.68 1.76 1.34 1.21 1.05 1.00 0.88 0.63 0.54 0.70 0.33 0.51 0.54 0.45 0.19 0.34 0.54 0.77 0.77 1.05 0.69 0.65 0.67 1.08 1.05 0.98 0.70 0.87 0.34 0.44 0.44 0.41 0.48 0.53 0.59 0.84 1.09 1.58 1.39 1.29
2.40 2.08 2.10 1.24 1.23 1.77 1.93 1.17 1.14 1.17 0.65 0.30 0.39 0.19 0.13 0.15 0.27 0.21 0.15 0.06 0.19 0.16 0.24 0.38 0.86 0.80 0.74 0.83 0.90 0.63 0.39 0.61 1.23 0.63 0.40 0.30 0.36 0.81 0.85 1.22 1.41 1.68 1.40 1.24 1.35
2.17 2.45 2.01 1.43 1.67 2.11 1.56 0.94 0.85 0.64 0.39 0.21 0.06 0.06 0.03 0.03 0.19 0.05 0.05 0.05 0.11 0.07 0.14 0.45 0.71 0.86 1.04 1.02 0.79 0.66 0.65 0.52 0.58 0.31 0.22 0.14 0.63 0.87 1.27 1.27 1.08 0.95 0.88 0.65 0.36
1.88 2.26 1.58 2.03 2.35 1.53 0.81 0.90 0.92 0.53 0.20 0.18 0.07 0.02 0.01 0.01 0.12 0.05 0.03 0.03 0.03 0.03 0.16 0.38 0.56 0.77 0.62 0.21 0.17 0.28 0.28 0.20 0.78 0.40 0.27 0.21 0.41 0.22 0.28 0.38 0.32 0.16 0.06 0.02 0.01
1.91 1.88 2.47 1.42 1.24 0.76 0.69 0.85 0.59 0.19 0.19 0.21 0.05 0.01 0.00 0.01 0.02 0.01 0.02 0.00 0.00 0.01 0.15 0.29 0.74 0.79 0.77 0.52 0.49 0.65 0.35 0.28 0.62 1.13 0.62 0.31 0.16 0.01 0.01 0.02 0.01 0.01 0.03 0.01 0.00
1.44 1.89 3.29 2.08 0.55 0.57 1.00 1.13 0.79 0.25 0.19 0.23 0.08 0.04 0.04 0.02 0.00 0.00 0.04 0.00 0.00 0.01 0.18 0.66 0.61 0.75 0.75 0.74 0.79 0.55 0.31 0.49 1.00 1.36 0.39 0.17 0.03 0.01 0.01 0.03 0.02 0.03 0.04 0.06 0.02
0.84 0.65 0.83 0.88 0.43 0.23 0.67 0.83 0.83 0.66 0.43 0.27 0.13 0.04 0.05 0.02 0.02 0.00 0.01 0.00 0.00 0.01 0.21 0.73 0.94 1.21 0.74 0.38 0.93 0.53 0.29 0.37 0.87 0.61 0.58 0.18 0.07 0.02 0.01 0.04 0.10 0.09 0.11 0.06 0.03
0.52 0.31 0.16 0.06 0.04 0.05 0.37 0.84 0.90 0.77 0.60 0.31 0.14 0.05 0.05 0.03 0.01 0.00 0.00 0.00 0.00 0.01 0.11 0.47 0.79 0.96 0.56 0.17 0.33 0.34 0.15 0.20 0.19 0.31 0.41 0.17 0.22 0.05 0.02 0.12 0.29 0.17 0.22 0.11 0.06
0.54 0.27 0.13 0.12 0.06 0.04 0.09 0.40 0.64 0.63 0.49 0.27 0.18 0.16 0.04 0.02 0.01 0.01 0.00 0.00 0.00 0.01 0.10 0.28 0.45 0.78 0.63 0.37 0.24 0.42 0.26 0.15 0.14 0.20 0.33 0.31 0.19 0.07 0.07 0.29 0.31 0.31 0.30 0.09 0.03

GFSSW_prec_precacc_138.txt.gz
Total_Precipitation_Accumulation
0.99 1.31 0.85 0.72 1.07 1.48 1.60 1.53 2.72 1.06 0.34 0.33 0.39 0.39 0.49 0.50 0.37 0.19 0.09 0.03 0.02 0.09 0.25 0.01 0.02 0.05 0.08 0.12 0.35 0.70 1.29 0.55 0.04 0.04 0.05 0.00 0.00 0.00 0.00 0.01 0.01 0.03 0.15 0.19 0.27
1.59 1.22 0.62 0.55 0.78 1.04 1.18 1.41 2.01 2.00 0.44 0.26 0.24 0.32 0.41 0.42 0.26 0.18 0.01 0.05 0.15 0.33 0.27 0.09 0.05 0.10 0.16 0.14 0.49 0.94 1.21 0.58 0.10 0.08 0.06 0.03 0.00 0.00 0.01 0.05 0.10 0.11 0.19 0.15 0.25
1.13 0.80 0.54 0.50 0.82 1.01 1.31 1.65 1.65 1.87 1.07 0.32 0.33 0.30 0.40 0.35 0.21 0.06 0.03 0.07 0.30 0.56 0.45 0.28 0.16 0.27 0.25 0.18 0.33 0.80 0.78 0.25 0.13 0.20 0.19 0.09 0.03 0.01 0.03 0.08 0.03 0.07 0.11 0.39 0.55
0.93 0.82 0.69 0.60 0.92 1.16 1.56 1.25 1.55 1.51 1.15 0.47 0.34 0.55 0.64 0.33 0.23 0.08 0.03 0.06 0.28 0.84 0.63 0.44 0.28 0.31 0.20 0.11 0.09 0.40 0.38 0.29 0.25 0.45 0.42 0.16 0.09 0.07 0.03 0.02 0.05 0.15 0.40 0.54 0.59
1.11 0.92 0.81 0.64 0.82 1.28 1.19 0.93 1.08 1.34 0.90 0.49 0.38 0.59 0.64 0.42 0.10 0.13 0.10 0.14 0.47 0.95 0.51 0.51 0.46 0.27 0.15 0.04 0.08 0.12 0.22 0.28 0.58 0.66 0.41 0.25 0.16 0.11 0.07 0.03 0.14 0.38 0.39 0.50 0.57
1.04 0.74 0.77 0.74 0.79 0.92 0.79 0.99 1.15 1.47 0.85 0.62 0.52 0.68 0.46 0.21 0.03 0.03 0.12 0.22 0.44 0.95 0.64 0.62 0.61 0.35 0.22 0.11 0.11 0.04 0.11 0.26 0.90 0.90 0.51 0.47 0.27 0.14 0.07 0.03 0.24 0.53 0.59 0.51 0.58
0.96 0.70 0.74 0.77 0.80 0.70 0.82 1.29 1.33 1.02 0.58 0.46 0.66 0.53 0.40 0.11 0.04 0.08 0.11 0.24 0.37 0.85 0.68 0.65 1.12 0.78 0.46 0.28 0.12 0.11 0.23 0.43 0.93 1.08 1.03 0.72 0.46 0.28 0.03 0.07 0.16 0.30 0.64 0.56 0.51
0.84 0.71 0.69 0.78 1.16 1.39 1.43 1.42 1.00 0.80 0.44 0.45 0.70 0.75 0.26 0.02 0.04 0.02 0.10 0.29 0.43 0.76 1.07 1.01 1.75 1.06 0.73 0.36 0.42 0.49 0.51 0.52 0.50 0.95 1.32 1.42 0.73 0.14 0.07 0.08 0.15 0.18 0.41 0.68 0.71
0.79 0.66 0.78 0.98 1.21 1.44 1.80 1.17 0.94 0.76 0.61 0.70 0.72 0.62 0.19 0.06 0.07 0.02 0.11 0.36 0.42 0.71 1.19 1.63 2.48 1.56 1.05 0.69 0.69 0.68 0.32 0.23 0.49 0.59 1.15 1.27 0.87 0.31 0.16 0.07 0.12 0.15 0.23 0.41 0.58
0.93 1.07 1.20 1.23 1.66 1.87 1.40 1.14 0.91 0.87 0.82 1.00 1.03 0.71 0.20 0.07 0.12 0.08 0.12 0.43 0.57 0.92 1.90 2.64 3.78 1.98 1.10 0.83 0.52 0.32 0.24 0.17 0.41 0.61 0.88 0.98 0.95 0.49 0.25 0.10 0.07 0.13 0.19 0.27 0.34
0.88 1.23 1.82 2.79 2.55 1.59 1.43 1.79 1.41 1.26 0.98 0.70 0.45 0.24 0.23 0.19 0.32 0.31 0.22 0.57 1.04 1.62 2.22 2.14 3.44 1.55 0.66 0.29 0.17 0.27 0.15 0.13 0.23 0.39 0.55 0.65 0.83 0.65 0.38 0.25 0.08 0.07 0.13 0.24 0.27
0.89 0.96 1.41 2.53 1.91 1.57 1.62 1.39 0.70 0.63 0.73 0.30 0.21 0.12 0.11 0.29 0.56 0.59 0.32 1.01 1.39 1.83 2.33 2.24 1.72 0.65 0.56 0.41 0.21 0.47 0.28 0.26 0.42 0.42 0.34 0.41 0.66 0.66 0.44 0.29 0.10 0.05 0.07 0.12 0.24
0.91 0.94 1.22 1.70 1.45 1.55 1.42 0.90 0.37 0.72 1.23 0.68 0.46 0.33 0.26 0.44 0.59 0.64 0.50 1.12 1.48 1.87 2.19 1.79 1.26 0.79 0.89 0.54 0.33 0.29 0.18 0.29 0.62 0.61 0.35 0.19 0.32 0.46 0.35 0.12 0.06 0.04 0.04 0.06 0.16
0.84 0.99 1.31 1.33 1.51 1.50 1.56 0.99 0.86 1.36 2.03 1.07 0.81 0.77 0.67 0.88 1.00 0.67 0.63 1.44 1.84 1.75 1.77 1.80 1.16 1.09 1.15 0.60 0.24 0.16 0.15 0.56 0.50 0.59 0.51 0.26 0.28 0.27 0.30 0.22 0.07 0.02 0.03 0.06 0.13
0.86 1.15 1.74 1.57 1.69 1.44 1.60 1.27 1.51 1.92 1.90 0.74 0.91 1.02 0.87 1.04 0.85 1.05 0.69 1.48 1.50 1.72 2.05 1.72 1.27 1.56 1.20 0.61 0.23 0.19 0.19 0.45 0.62 0.79 0.82 0.32 0.60 0.30 0.23 0.30 0.20 0.06 0.09 0.15 0.27
1.14 1.24 1.84 1.47 1.49 1.01 1.12 1.80 2.20 2.22 1.63 1.56 1.28 1.40 0.99 0.67 0.75 0.77 0.91 1.31 1.37 2.26 1.83 1.29 1.55 1.48 0.84 0.69 0.35 0.30 0.42 0.66 0.96 1.15 1.29 0.68 0.74 0.54 0.39 0.50 0.38 0.17 0.14 0.31 0.44
1.38 1.35 1.80 1.23 1.38 0.98 1.23 2.14 2.27 1.23 0.98 1.37 1.70 1.33 0.60 0.53 0.54 0.92 1.26 0.95 1.52 2.06 2.34 1.94 1.66 1.17 0.84 1.13 1.01 1.31 1.56 1.84 1.62 1.53 0.93 0.57 0.75 0.69 0.63 0.38 0.49 0.39 0.33 0.61 0.94
1.27 1.73 1.55 1.09 0.98 1.56 1.42 1.62 1.41 0.74 0.98 0.73 0.89 0.68 0.75 0.55 0.79 0.74 0.96 0.42 0.67 1.02 1.36 1.68 1.96 1.43 1.10 1.31 1.86 1.40 1.19 1.34 0.86 0.60 0.37 0.25 0.52 0.80 0.62 0.44 0.46 0.44 0.89 1.27 1.64
1.84 1.81 1.86 1.37 1.20 1.68 1.76 1.34 1.21 1.05 1.00 0.88 0.63 0.54 0.70 0.33 0.51 0.54 0.45 0.19 0.34 0.54 0.77 0.77 1.05 0.69 0.65 0.67 1.08 1.05 0.98 0.70 0.87 0.34 0.44 0.44 0.41 0.48 0.53 0.59 0.84 1.09 1.58 1.39 1.29
2.40 2.08 2.10 1.24 1.23 1.77 1.93 1.17 1.14 1.17 0.65 0.30 0.39 0.19 0.13 0.15 0.27 0.21 0.15 0.06 0.19 0.16 0.24 0.38 0.86 0.80 0.74 0.83 0.90 0.63 0.39 0.61 1.23 0.63 0.40 0.30 0.36 0.81 0.85 1.22 1.41 1.68 1.40 1.24 1.35
2.17 2.45 2.01 1.43 1.67 2.11 1.56 0.94 0.85 0.64 0.39 0.21 0.06 0.06 0.03 0.03 0.19 0.05 0.05 0.05 0.11 0.07 0.14 0.45 0.71 0.86 1.04 1.02 0.79 0.66 0.65 0.52 0.58 0.31 0.22 0.14 0.63 0.87 1.27 1.27 1.08 0.95 0.88 0.65 0.36
1.88 2.26 1.58 2.03 2.35 1.53 0.81 0.90 0.92 0.53 0.20 0.18 0.07 0.02 0.01 0.01 0.12 0.05 0.03 0.03 0.03 0.03 0.16 0.38 0.56 0.77 0.62 0.21 0.17 0.28 0.28 0.20 0.78 0.40 0.27 0.21 0.41 0.22 0.28 0.38 0.32 0.16 0.06 0.02 0.01
1.91 1.88 2.47 1.42 1.24 0.76 0.69 0.85 0.59 0.19 0.19 0.21 0.05 0.01 0.00 0.01 0.02 0.01 0.02 0.00 0.00 0.01 0.15 0.29 0.74 0.79 0.77 0.52 0.49 0.65 0.35 0.28 0.62 1.13 0.62 0.31 0.16 0.01 0.01 0.02 0.01 0.01 0.03 0.01 0.00
1.44 1.89 3.29 2.08 0.55 0.57 1.00 1.13 0.79 0.25 0.19 0.23 0.08 0.04 0.04 0.02 0.00 0.00 0.04 0.00 0.00 0.01 0.18 0.66 0.61 0.75 0.75 0.74 0.79 0.55 0.31 0.49 1.00 1.36 0.39 0.17 0.03 0.01 0.01 0.03 0.02 0.03 0.04 0.06 0.02
0.84 0.65 0.83 0.88 0.43 0.23 0.67 0.83 0.83 0.66 0.43 0.27 0.13 0.04 0.05 0.02 0.02 0.00 0.01 0.00 0.00 0.01 0.21 0.73 0.94 1.21 0.74 0.38 0.93 0.53 0.29 0.37 0.87 0.61 0.58 0.18 0.07 0.02 0.01 0.04 0.10 0.09 0.11 0.06 0.03
0.52 0.31 0.16 0.06 0.04 0.05 0.37 0.84 0.90 0.77 0.60 0.31 0.14 0.05 0.05 0.03 0.01 0.00 0.00 0.00 0.00 0.01 0.11 0.47 0.79 0.96 0.56 0.17 0.33 0.34 0.15 0.20 0.19 0.31 0.41 0.17 0.22 0.05 0.02 0.12 0.29 0.17 0.22 0.11 0.06
0.54 0.27 0.13 0.12 0.06 0.04 0.09 0.40 0.64 0.63 0.49 0.27 0.18 0.16 0.04 0.02 0.01 0.01 0.00 0.00 0.00 0.01 0.10 0.28 0.45 0.78 0.63 0.37 0.24 0.42 0.26 0.15 0.14 0.20 0.33 0.31 0.19 0.07 0.07 0.29 0.31 0.31 0.30 0.09 0.03